<?xml version="1.0" encoding="UTF-8" standalone="no" ?>
<gpx xmlns="http://www.topografix.com/GPX/1/1" xmlns:xsi="http://www.w3.org/2001/XMLSchema-instance" xsi:schemaLocation="http://www.topografix.com/GPX/1/1 http://www.topografix.com/GPX/1/1/gpx.xsd" version="1.1" creator="VisuGPX - https://www.visugpx.com">
  <metadata>
    <name>1er-pas</name>
    <desc><![CDATA[randonnée mars]]></desc>
  </metadata>
  <trk>
    <name><![CDATA[--Romans-sur-Isère-- OR-5584137:PP 2016 n°1]]></name>
    <trkseg>
      <trkpt lat="45.05474" lon="5.06601">
        <ele>169</ele>
        <time>2016-02-23T22:38:39Z</time>
      </trkpt>
      <trkpt lat="45.05474" lon="5.06592">
        <ele>169</ele>
        <time>2016-02-23T22:40:39Z</time>
      </trkpt>
      <trkpt lat="45.05474" lon="5.06584">
        <ele>169</ele>
        <time>2016-02-23T22:42:39Z</time>
      </trkpt>
      <trkpt lat="45.05474" lon="5.06576">
        <ele>169</ele>
        <time>2016-02-23T22:44:39Z</time>
      </trkpt>
      <trkpt lat="45.05474" lon="5.06569">
        <ele>169</ele>
        <time>2016-02-23T22:46:39Z</time>
      </trkpt>
      <trkpt lat="45.05474" lon="5.06558">
        <ele>169</ele>
        <time>2016-02-23T22:48:39Z</time>
      </trkpt>
      <trkpt lat="45.05475" lon="5.06548">
        <ele>169</ele>
        <time>2016-02-23T22:50:39Z</time>
      </trkpt>
      <trkpt lat="45.05475" lon="5.0654">
        <ele>169</ele>
        <time>2016-02-23T22:52:39Z</time>
      </trkpt>
      <trkpt lat="45.05476" lon="5.06532">
        <ele>169</ele>
        <time>2016-02-23T22:54:39Z</time>
      </trkpt>
      <trkpt lat="45.05477" lon="5.06526">
        <ele>169</ele>
        <time>2016-02-23T22:56:39Z</time>
      </trkpt>
      <trkpt lat="45.05478" lon="5.06519">
        <ele>169</ele>
        <time>2016-02-23T22:58:39Z</time>
      </trkpt>
      <trkpt lat="45.05479" lon="5.06515">
        <ele>169</ele>
        <time>2016-02-23T23:00:39Z</time>
      </trkpt>
      <trkpt lat="45.05481" lon="5.06511">
        <ele>169</ele>
        <time>2016-02-23T23:02:39Z</time>
      </trkpt>
      <trkpt lat="45.05485" lon="5.06502">
        <ele>169</ele>
        <time>2016-02-23T23:04:39Z</time>
      </trkpt>
      <trkpt lat="45.05485" lon="5.06502">
        <ele>169</ele>
        <time>2016-02-23T23:06:39Z</time>
      </trkpt>
      <trkpt lat="45.05487" lon="5.06504">
        <ele>169</ele>
        <time>2016-02-23T23:08:39Z</time>
      </trkpt>
      <trkpt lat="45.0549" lon="5.06505">
        <ele>169</ele>
        <time>2016-02-23T23:10:39Z</time>
      </trkpt>
      <trkpt lat="45.05493" lon="5.06506">
        <ele>169</ele>
        <time>2016-02-23T23:12:39Z</time>
      </trkpt>
      <trkpt lat="45.05495" lon="5.06506">
        <ele>169</ele>
        <time>2016-02-23T23:14:39Z</time>
      </trkpt>
      <trkpt lat="45.05499" lon="5.06505">
        <ele>169</ele>
        <time>2016-02-23T23:16:39Z</time>
      </trkpt>
      <trkpt lat="45.05508" lon="5.06504">
        <ele>169</ele>
        <time>2016-02-23T23:18:39Z</time>
      </trkpt>
      <trkpt lat="45.05521" lon="5.06501">
        <ele>169</ele>
        <time>2016-02-23T23:20:39Z</time>
      </trkpt>
      <trkpt lat="45.05526" lon="5.06501">
        <ele>169</ele>
        <time>2016-02-23T23:22:39Z</time>
      </trkpt>
      <trkpt lat="45.05527" lon="5.065">
        <ele>169</ele>
        <time>2016-02-23T23:24:39Z</time>
      </trkpt>
      <trkpt lat="45.05528" lon="5.065">
        <ele>169</ele>
        <time>2016-02-23T23:26:39Z</time>
      </trkpt>
      <trkpt lat="45.05529" lon="5.06499">
        <ele>169</ele>
        <time>2016-02-23T23:28:39Z</time>
      </trkpt>
      <trkpt lat="45.0553" lon="5.06498">
        <ele>169</ele>
        <time>2016-02-23T23:30:39Z</time>
      </trkpt>
      <trkpt lat="45.05532" lon="5.06496">
        <ele>169</ele>
        <time>2016-02-23T23:32:39Z</time>
      </trkpt>
      <trkpt lat="45.05534" lon="5.06494">
        <ele>169</ele>
        <time>2016-02-23T23:34:39Z</time>
      </trkpt>
      <trkpt lat="45.05534" lon="5.06492">
        <ele>169</ele>
        <time>2016-02-23T23:36:39Z</time>
      </trkpt>
      <trkpt lat="45.05535" lon="5.0649">
        <ele>169</ele>
        <time>2016-02-23T23:38:39Z</time>
      </trkpt>
      <trkpt lat="45.05536" lon="5.06487">
        <ele>168</ele>
        <time>2016-02-23T23:40:39Z</time>
      </trkpt>
      <trkpt lat="45.05536" lon="5.06484">
        <ele>168</ele>
        <time>2016-02-23T23:42:39Z</time>
      </trkpt>
      <trkpt lat="45.05535" lon="5.06478">
        <ele>168</ele>
        <time>2016-02-23T23:44:39Z</time>
      </trkpt>
      <trkpt lat="45.05535" lon="5.06476">
        <ele>168</ele>
        <time>2016-02-23T23:46:39Z</time>
      </trkpt>
      <trkpt lat="45.05534" lon="5.06474">
        <ele>168</ele>
        <time>2016-02-23T23:48:39Z</time>
      </trkpt>
      <trkpt lat="45.05532" lon="5.06471">
        <ele>168</ele>
        <time>2016-02-23T23:50:39Z</time>
      </trkpt>
      <trkpt lat="45.0553" lon="5.06469">
        <ele>168</ele>
        <time>2016-02-23T23:52:39Z</time>
      </trkpt>
      <trkpt lat="45.05528" lon="5.06469">
        <ele>168</ele>
        <time>2016-02-23T23:54:39Z</time>
      </trkpt>
      <trkpt lat="45.05526" lon="5.06468">
        <ele>168</ele>
        <time>2016-02-23T23:56:39Z</time>
      </trkpt>
      <trkpt lat="45.05522" lon="5.06468">
        <ele>168</ele>
        <time>2016-02-23T23:58:39Z</time>
      </trkpt>
      <trkpt lat="45.05526" lon="5.06443">
        <ele>168</ele>
        <time>2016-02-24T00:00:39Z</time>
      </trkpt>
      <trkpt lat="45.05528" lon="5.06433">
        <ele>168</ele>
        <time>2016-02-24T00:02:39Z</time>
      </trkpt>
      <trkpt lat="45.0553" lon="5.06422">
        <ele>168</ele>
        <time>2016-02-24T00:04:39Z</time>
      </trkpt>
      <trkpt lat="45.05531" lon="5.06414">
        <ele>168</ele>
        <time>2016-02-24T00:06:39Z</time>
      </trkpt>
      <trkpt lat="45.05554" lon="5.06321">
        <ele>168</ele>
        <time>2016-02-24T00:08:39Z</time>
      </trkpt>
      <trkpt lat="45.05575" lon="5.06242">
        <ele>168</ele>
        <time>2016-02-24T00:10:39Z</time>
      </trkpt>
      <trkpt lat="45.05605" lon="5.06133">
        <ele>167</ele>
        <time>2016-02-24T00:12:39Z</time>
      </trkpt>
      <trkpt lat="45.05608" lon="5.0612">
        <ele>167</ele>
        <time>2016-02-24T00:14:39Z</time>
      </trkpt>
      <trkpt lat="45.05608" lon="5.06119">
        <ele>167</ele>
        <time>2016-02-24T00:16:39Z</time>
      </trkpt>
      <trkpt lat="45.05611" lon="5.06108">
        <ele>167</ele>
        <time>2016-02-24T00:18:39Z</time>
      </trkpt>
      <trkpt lat="45.05616" lon="5.06096">
        <ele>167</ele>
        <time>2016-02-24T00:20:39Z</time>
      </trkpt>
      <trkpt lat="45.05635" lon="5.06046">
        <ele>168</ele>
        <time>2016-02-24T00:22:39Z</time>
      </trkpt>
      <trkpt lat="45.05651" lon="5.06009">
        <ele>168</ele>
        <time>2016-02-24T00:24:39Z</time>
      </trkpt>
      <trkpt lat="45.05655" lon="5.05998">
        <ele>168</ele>
        <time>2016-02-24T00:26:39Z</time>
      </trkpt>
      <trkpt lat="45.05658" lon="5.05984">
        <ele>168</ele>
        <time>2016-02-24T00:28:39Z</time>
      </trkpt>
      <trkpt lat="45.05668" lon="5.05906">
        <ele>168</ele>
        <time>2016-02-24T00:30:39Z</time>
      </trkpt>
      <trkpt lat="45.05679" lon="5.05815">
        <ele>168</ele>
        <time>2016-02-24T00:32:39Z</time>
      </trkpt>
      <trkpt lat="45.05682" lon="5.05798">
        <ele>168</ele>
        <time>2016-02-24T00:34:39Z</time>
      </trkpt>
      <trkpt lat="45.05683" lon="5.05793">
        <ele>168</ele>
        <time>2016-02-24T00:36:39Z</time>
      </trkpt>
      <trkpt lat="45.05684" lon="5.05787">
        <ele>168</ele>
        <time>2016-02-24T00:38:39Z</time>
      </trkpt>
      <trkpt lat="45.05686" lon="5.05784">
        <ele>168</ele>
        <time>2016-02-24T00:40:39Z</time>
      </trkpt>
      <trkpt lat="45.05686" lon="5.05781">
        <ele>168</ele>
        <time>2016-02-24T00:42:39Z</time>
      </trkpt>
      <trkpt lat="45.05687" lon="5.0578">
        <ele>168</ele>
        <time>2016-02-24T00:44:39Z</time>
      </trkpt>
      <trkpt lat="45.05687" lon="5.05778">
        <ele>167</ele>
        <time>2016-02-24T00:46:39Z</time>
      </trkpt>
      <trkpt lat="45.05687" lon="5.05777">
        <ele>167</ele>
        <time>2016-02-24T00:48:39Z</time>
      </trkpt>
      <trkpt lat="45.05687" lon="5.05774">
        <ele>167</ele>
        <time>2016-02-24T00:50:39Z</time>
      </trkpt>
      <trkpt lat="45.05687" lon="5.05774">
        <ele>167</ele>
        <time>2016-02-24T00:52:39Z</time>
      </trkpt>
      <trkpt lat="45.05688" lon="5.05773">
        <ele>167</ele>
        <time>2016-02-24T00:54:39Z</time>
      </trkpt>
      <trkpt lat="45.05689" lon="5.05771">
        <ele>167</ele>
        <time>2016-02-24T00:56:39Z</time>
      </trkpt>
      <trkpt lat="45.0569" lon="5.05769">
        <ele>167</ele>
        <time>2016-02-24T00:58:39Z</time>
      </trkpt>
      <trkpt lat="45.0569" lon="5.05767">
        <ele>167</ele>
        <time>2016-02-24T01:00:39Z</time>
      </trkpt>
      <trkpt lat="45.0569" lon="5.05765">
        <ele>167</ele>
        <time>2016-02-24T01:02:39Z</time>
      </trkpt>
      <trkpt lat="45.05689" lon="5.0576">
        <ele>167</ele>
        <time>2016-02-24T01:04:39Z</time>
      </trkpt>
      <trkpt lat="45.05689" lon="5.05758">
        <ele>167</ele>
        <time>2016-02-24T01:06:39Z</time>
      </trkpt>
      <trkpt lat="45.05687" lon="5.05754">
        <ele>167</ele>
        <time>2016-02-24T01:08:39Z</time>
      </trkpt>
      <trkpt lat="45.05684" lon="5.05749">
        <ele>167</ele>
        <time>2016-02-24T01:10:39Z</time>
      </trkpt>
      <trkpt lat="45.05681" lon="5.05744">
        <ele>167</ele>
        <time>2016-02-24T01:12:39Z</time>
      </trkpt>
      <trkpt lat="45.05677" lon="5.0574">
        <ele>167</ele>
        <time>2016-02-24T01:14:39Z</time>
      </trkpt>
      <trkpt lat="45.05675" lon="5.05738">
        <ele>167</ele>
        <time>2016-02-24T01:16:39Z</time>
      </trkpt>
      <trkpt lat="45.05675" lon="5.05724">
        <ele>167</ele>
        <time>2016-02-24T01:18:39Z</time>
      </trkpt>
      <trkpt lat="45.05673" lon="5.05713">
        <ele>167</ele>
        <time>2016-02-24T01:20:39Z</time>
      </trkpt>
      <trkpt lat="45.0567" lon="5.05686">
        <ele>167</ele>
        <time>2016-02-24T01:22:39Z</time>
      </trkpt>
      <trkpt lat="45.05664" lon="5.05631">
        <ele>167</ele>
        <time>2016-02-24T01:24:39Z</time>
      </trkpt>
      <trkpt lat="45.05659" lon="5.05593">
        <ele>167</ele>
        <time>2016-02-24T01:26:39Z</time>
      </trkpt>
      <trkpt lat="45.05655" lon="5.05551">
        <ele>167</ele>
        <time>2016-02-24T01:28:39Z</time>
      </trkpt>
      <trkpt lat="45.05651" lon="5.05521">
        <ele>167</ele>
        <time>2016-02-24T01:30:39Z</time>
      </trkpt>
      <trkpt lat="45.0565" lon="5.05517">
        <ele>167</ele>
        <time>2016-02-24T01:32:39Z</time>
      </trkpt>
      <trkpt lat="45.0565" lon="5.05514">
        <ele>167</ele>
        <time>2016-02-24T01:34:39Z</time>
      </trkpt>
      <trkpt lat="45.0565" lon="5.05506">
        <ele>167</ele>
        <time>2016-02-24T01:36:39Z</time>
      </trkpt>
      <trkpt lat="45.0565" lon="5.05497">
        <ele>167</ele>
        <time>2016-02-24T01:38:39Z</time>
      </trkpt>
      <trkpt lat="45.0565" lon="5.05489">
        <ele>167</ele>
        <time>2016-02-24T01:40:39Z</time>
      </trkpt>
      <trkpt lat="45.05651" lon="5.05478">
        <ele>167</ele>
        <time>2016-02-24T01:42:39Z</time>
      </trkpt>
      <trkpt lat="45.05652" lon="5.05469">
        <ele>167</ele>
        <time>2016-02-24T01:44:39Z</time>
      </trkpt>
      <trkpt lat="45.0566" lon="5.05405">
        <ele>167</ele>
        <time>2016-02-24T01:46:39Z</time>
      </trkpt>
      <trkpt lat="45.0567" lon="5.05338">
        <ele>167</ele>
        <time>2016-02-24T01:48:39Z</time>
      </trkpt>
      <trkpt lat="45.05674" lon="5.05298">
        <ele>167</ele>
        <time>2016-02-24T01:50:39Z</time>
      </trkpt>
      <trkpt lat="45.05676" lon="5.05273">
        <ele>166</ele>
        <time>2016-02-24T01:52:39Z</time>
      </trkpt>
      <trkpt lat="45.05678" lon="5.05261">
        <ele>166</ele>
        <time>2016-02-24T01:54:39Z</time>
      </trkpt>
      <trkpt lat="45.05679" lon="5.05253">
        <ele>166</ele>
        <time>2016-02-24T01:56:39Z</time>
      </trkpt>
      <trkpt lat="45.0568" lon="5.05247">
        <ele>166</ele>
        <time>2016-02-24T01:58:39Z</time>
      </trkpt>
      <trkpt lat="45.05682" lon="5.05237">
        <ele>166</ele>
        <time>2016-02-24T02:00:39Z</time>
      </trkpt>
      <trkpt lat="45.05686" lon="5.05228">
        <ele>166</ele>
        <time>2016-02-24T02:02:39Z</time>
      </trkpt>
      <trkpt lat="45.05693" lon="5.05215">
        <ele>166</ele>
        <time>2016-02-24T02:04:39Z</time>
      </trkpt>
      <trkpt lat="45.05713" lon="5.0518">
        <ele>167</ele>
        <time>2016-02-24T02:06:39Z</time>
      </trkpt>
      <trkpt lat="45.0574" lon="5.0513">
        <ele>167</ele>
        <time>2016-02-24T02:08:39Z</time>
      </trkpt>
      <trkpt lat="45.05749" lon="5.05112">
        <ele>167</ele>
        <time>2016-02-24T02:10:39Z</time>
      </trkpt>
      <trkpt lat="45.05753" lon="5.05104">
        <ele>167</ele>
        <time>2016-02-24T02:12:39Z</time>
      </trkpt>
      <trkpt lat="45.05758" lon="5.05094">
        <ele>167</ele>
        <time>2016-02-24T02:14:39Z</time>
      </trkpt>
      <trkpt lat="45.0576" lon="5.05079">
        <ele>167</ele>
        <time>2016-02-24T02:16:39Z</time>
      </trkpt>
      <trkpt lat="45.05774" lon="5.05041">
        <ele>167</ele>
        <time>2016-02-24T02:18:39Z</time>
      </trkpt>
      <trkpt lat="45.05777" lon="5.0503">
        <ele>167</ele>
        <time>2016-02-24T02:20:39Z</time>
      </trkpt>
      <trkpt lat="45.0578" lon="5.05018">
        <ele>167</ele>
        <time>2016-02-24T02:22:39Z</time>
      </trkpt>
      <trkpt lat="45.05785" lon="5.05006">
        <ele>167</ele>
        <time>2016-02-24T02:24:39Z</time>
      </trkpt>
      <trkpt lat="45.05788" lon="5.04989">
        <ele>167</ele>
        <time>2016-02-24T02:26:39Z</time>
      </trkpt>
      <trkpt lat="45.05788" lon="5.04989">
        <ele>167</ele>
        <time>2016-02-24T02:28:39Z</time>
      </trkpt>
      <trkpt lat="45.05772" lon="5.04985">
        <ele>167</ele>
        <time>2016-02-24T02:30:39Z</time>
      </trkpt>
      <trkpt lat="45.05763" lon="5.04983">
        <ele>167</ele>
        <time>2016-02-24T02:32:39Z</time>
      </trkpt>
      <trkpt lat="45.05636" lon="5.04946">
        <ele>166</ele>
        <time>2016-02-24T02:34:39Z</time>
      </trkpt>
      <trkpt lat="45.05636" lon="5.04946">
        <ele>166</ele>
        <time>2016-02-24T02:36:39Z</time>
      </trkpt>
      <trkpt lat="45.0565" lon="5.04892">
        <ele>166</ele>
        <time>2016-02-24T02:38:39Z</time>
      </trkpt>
      <trkpt lat="45.05665" lon="5.04845">
        <ele>165</ele>
        <time>2016-02-24T02:40:39Z</time>
      </trkpt>
      <trkpt lat="45.05694" lon="5.04747">
        <ele>165</ele>
        <time>2016-02-24T02:42:39Z</time>
      </trkpt>
      <trkpt lat="45.05707" lon="5.04698">
        <ele>165</ele>
        <time>2016-02-24T02:44:39Z</time>
      </trkpt>
      <trkpt lat="45.05713" lon="5.04673">
        <ele>166</ele>
        <time>2016-02-24T02:46:39Z</time>
      </trkpt>
      <trkpt lat="45.05715" lon="5.04664">
        <ele>166</ele>
        <time>2016-02-24T02:48:39Z</time>
      </trkpt>
      <trkpt lat="45.05716" lon="5.04655">
        <ele>166</ele>
        <time>2016-02-24T02:50:39Z</time>
      </trkpt>
      <trkpt lat="45.05719" lon="5.04627">
        <ele>166</ele>
        <time>2016-02-24T02:52:39Z</time>
      </trkpt>
      <trkpt lat="45.05721" lon="5.04613">
        <ele>166</ele>
        <time>2016-02-24T02:54:39Z</time>
      </trkpt>
      <trkpt lat="45.05724" lon="5.04602">
        <ele>166</ele>
        <time>2016-02-24T02:56:39Z</time>
      </trkpt>
      <trkpt lat="45.05728" lon="5.046">
        <ele>166</ele>
        <time>2016-02-24T02:58:39Z</time>
      </trkpt>
      <trkpt lat="45.05733" lon="5.04599">
        <ele>166</ele>
        <time>2016-02-24T03:00:39Z</time>
      </trkpt>
      <trkpt lat="45.05746" lon="5.04602">
        <ele>166</ele>
        <time>2016-02-24T03:02:39Z</time>
      </trkpt>
      <trkpt lat="45.05759" lon="5.04604">
        <ele>166</ele>
        <time>2016-02-24T03:04:39Z</time>
      </trkpt>
      <trkpt lat="45.05798" lon="5.04611">
        <ele>166</ele>
        <time>2016-02-24T03:06:39Z</time>
      </trkpt>
      <trkpt lat="45.05798" lon="5.04611">
        <ele>166</ele>
        <time>2016-02-24T03:08:39Z</time>
      </trkpt>
      <trkpt lat="45.05808" lon="5.04572">
        <ele>166</ele>
        <time>2016-02-24T03:10:39Z</time>
      </trkpt>
      <trkpt lat="45.0581" lon="5.04561">
        <ele>166</ele>
        <time>2016-02-24T03:12:39Z</time>
      </trkpt>
      <trkpt lat="45.05812" lon="5.04552">
        <ele>166</ele>
        <time>2016-02-24T03:14:39Z</time>
      </trkpt>
      <trkpt lat="45.05819" lon="5.04527">
        <ele>166</ele>
        <time>2016-02-24T03:16:39Z</time>
      </trkpt>
      <trkpt lat="45.05826" lon="5.04506">
        <ele>166</ele>
        <time>2016-02-24T03:18:39Z</time>
      </trkpt>
      <trkpt lat="45.05827" lon="5.045">
        <ele>166</ele>
        <time>2016-02-24T03:20:39Z</time>
      </trkpt>
      <trkpt lat="45.05828" lon="5.04493">
        <ele>166</ele>
        <time>2016-02-24T03:22:39Z</time>
      </trkpt>
      <trkpt lat="45.0583" lon="5.04481">
        <ele>166</ele>
        <time>2016-02-24T03:24:39Z</time>
      </trkpt>
      <trkpt lat="45.0583" lon="5.0447">
        <ele>166</ele>
        <time>2016-02-24T03:26:39Z</time>
      </trkpt>
      <trkpt lat="45.05831" lon="5.0446">
        <ele>166</ele>
        <time>2016-02-24T03:28:39Z</time>
      </trkpt>
      <trkpt lat="45.05832" lon="5.04452">
        <ele>167</ele>
        <time>2016-02-24T03:30:39Z</time>
      </trkpt>
      <trkpt lat="45.05833" lon="5.04435">
        <ele>167</ele>
        <time>2016-02-24T03:32:39Z</time>
      </trkpt>
      <trkpt lat="45.05833" lon="5.04415">
        <ele>167</ele>
        <time>2016-02-24T03:34:39Z</time>
      </trkpt>
      <trkpt lat="45.05832" lon="5.044">
        <ele>167</ele>
        <time>2016-02-24T03:36:39Z</time>
      </trkpt>
      <trkpt lat="45.05832" lon="5.04384">
        <ele>167</ele>
        <time>2016-02-24T03:38:39Z</time>
      </trkpt>
      <trkpt lat="45.0583" lon="5.04355">
        <ele>167</ele>
        <time>2016-02-24T03:40:39Z</time>
      </trkpt>
      <trkpt lat="45.05828" lon="5.04301">
        <ele>167</ele>
        <time>2016-02-24T03:42:39Z</time>
      </trkpt>
      <trkpt lat="45.05829" lon="5.0428">
        <ele>167</ele>
        <time>2016-02-24T03:44:39Z</time>
      </trkpt>
      <trkpt lat="45.0583" lon="5.04275">
        <ele>167</ele>
        <time>2016-02-24T03:46:39Z</time>
      </trkpt>
      <trkpt lat="45.05831" lon="5.04269">
        <ele>167</ele>
        <time>2016-02-24T03:48:39Z</time>
      </trkpt>
      <trkpt lat="45.05832" lon="5.04264">
        <ele>167</ele>
        <time>2016-02-24T03:50:39Z</time>
      </trkpt>
      <trkpt lat="45.05834" lon="5.04259">
        <ele>167</ele>
        <time>2016-02-24T03:52:39Z</time>
      </trkpt>
      <trkpt lat="45.05834" lon="5.04259">
        <ele>167</ele>
        <time>2016-02-24T03:54:39Z</time>
      </trkpt>
      <trkpt lat="45.05835" lon="5.04258">
        <ele>167</ele>
        <time>2016-02-24T03:56:39Z</time>
      </trkpt>
      <trkpt lat="45.05835" lon="5.04257">
        <ele>167</ele>
        <time>2016-02-24T03:58:39Z</time>
      </trkpt>
      <trkpt lat="45.05836" lon="5.04257">
        <ele>167</ele>
        <time>2016-02-24T04:00:39Z</time>
      </trkpt>
      <trkpt lat="45.05836" lon="5.04256">
        <ele>167</ele>
        <time>2016-02-24T04:02:39Z</time>
      </trkpt>
      <trkpt lat="45.05845" lon="5.04252">
        <ele>167</ele>
        <time>2016-02-24T04:04:39Z</time>
      </trkpt>
      <trkpt lat="45.05855" lon="5.04245">
        <ele>167</ele>
        <time>2016-02-24T04:06:39Z</time>
      </trkpt>
      <trkpt lat="45.05862" lon="5.04243">
        <ele>167</ele>
        <time>2016-02-24T04:08:39Z</time>
      </trkpt>
      <trkpt lat="45.05868" lon="5.04241">
        <ele>167</ele>
        <time>2016-02-24T04:10:39Z</time>
      </trkpt>
      <trkpt lat="45.05877" lon="5.0424">
        <ele>167</ele>
        <time>2016-02-24T04:12:39Z</time>
      </trkpt>
      <trkpt lat="45.05885" lon="5.04241">
        <ele>167</ele>
        <time>2016-02-24T04:14:39Z</time>
      </trkpt>
      <trkpt lat="45.05893" lon="5.0424">
        <ele>167</ele>
        <time>2016-02-24T04:16:39Z</time>
      </trkpt>
      <trkpt lat="45.05902" lon="5.0424">
        <ele>167</ele>
        <time>2016-02-24T04:18:39Z</time>
      </trkpt>
      <trkpt lat="45.05911" lon="5.04239">
        <ele>167</ele>
        <time>2016-02-24T04:20:39Z</time>
      </trkpt>
      <trkpt lat="45.0592" lon="5.04238">
        <ele>167</ele>
        <time>2016-02-24T04:22:39Z</time>
      </trkpt>
      <trkpt lat="45.0593" lon="5.04235">
        <ele>167</ele>
        <time>2016-02-24T04:24:39Z</time>
      </trkpt>
      <trkpt lat="45.05941" lon="5.04232">
        <ele>167</ele>
        <time>2016-02-24T04:26:39Z</time>
      </trkpt>
      <trkpt lat="45.05941" lon="5.04232">
        <ele>167</ele>
        <time>2016-02-24T04:28:39Z</time>
      </trkpt>
      <trkpt lat="45.05941" lon="5.04219">
        <ele>167</ele>
        <time>2016-02-24T04:30:39Z</time>
      </trkpt>
      <trkpt lat="45.05941" lon="5.0421">
        <ele>167</ele>
        <time>2016-02-24T04:32:39Z</time>
      </trkpt>
      <trkpt lat="45.05944" lon="5.04169">
        <ele>167</ele>
        <time>2016-02-24T04:34:39Z</time>
      </trkpt>
      <trkpt lat="45.05952" lon="5.04093">
        <ele>167</ele>
        <time>2016-02-24T04:36:39Z</time>
      </trkpt>
      <trkpt lat="45.05956" lon="5.04057">
        <ele>167</ele>
        <time>2016-02-24T04:38:39Z</time>
      </trkpt>
      <trkpt lat="45.05957" lon="5.04049">
        <ele>167</ele>
        <time>2016-02-24T04:40:39Z</time>
      </trkpt>
      <trkpt lat="45.05958" lon="5.04042">
        <ele>167</ele>
        <time>2016-02-24T04:42:39Z</time>
      </trkpt>
      <trkpt lat="45.05959" lon="5.04029">
        <ele>168</ele>
        <time>2016-02-24T04:44:39Z</time>
      </trkpt>
      <trkpt lat="45.05961" lon="5.04014">
        <ele>168</ele>
        <time>2016-02-24T04:46:39Z</time>
      </trkpt>
      <trkpt lat="45.05963" lon="5.03996">
        <ele>168</ele>
        <time>2016-02-24T04:48:39Z</time>
      </trkpt>
      <trkpt lat="45.05964" lon="5.03986">
        <ele>168</ele>
        <time>2016-02-24T04:50:39Z</time>
      </trkpt>
      <trkpt lat="45.05967" lon="5.03967">
        <ele>168</ele>
        <time>2016-02-24T04:52:39Z</time>
      </trkpt>
      <trkpt lat="45.05969" lon="5.03954">
        <ele>168</ele>
        <time>2016-02-24T04:54:39Z</time>
      </trkpt>
      <trkpt lat="45.05973" lon="5.03938">
        <ele>168</ele>
        <time>2016-02-24T04:56:39Z</time>
      </trkpt>
      <trkpt lat="45.05976" lon="5.03921">
        <ele>168</ele>
        <time>2016-02-24T04:58:39Z</time>
      </trkpt>
      <trkpt lat="45.05982" lon="5.039">
        <ele>168</ele>
        <time>2016-02-24T05:00:39Z</time>
      </trkpt>
      <trkpt lat="45.05987" lon="5.0388">
        <ele>168</ele>
        <time>2016-02-24T05:02:39Z</time>
      </trkpt>
      <trkpt lat="45.05992" lon="5.03862">
        <ele>168</ele>
        <time>2016-02-24T05:04:39Z</time>
      </trkpt>
      <trkpt lat="45.05998" lon="5.03844">
        <ele>168</ele>
        <time>2016-02-24T05:06:39Z</time>
      </trkpt>
      <trkpt lat="45.0601" lon="5.03809">
        <ele>168</ele>
        <time>2016-02-24T05:08:39Z</time>
      </trkpt>
      <trkpt lat="45.0602" lon="5.03785">
        <ele>168</ele>
        <time>2016-02-24T05:10:39Z</time>
      </trkpt>
      <trkpt lat="45.06032" lon="5.03763">
        <ele>169</ele>
        <time>2016-02-24T05:12:39Z</time>
      </trkpt>
      <trkpt lat="45.06037" lon="5.03758">
        <ele>169</ele>
        <time>2016-02-24T05:14:39Z</time>
      </trkpt>
      <trkpt lat="45.06041" lon="5.03751">
        <ele>169</ele>
        <time>2016-02-24T05:16:39Z</time>
      </trkpt>
      <trkpt lat="45.06043" lon="5.03737">
        <ele>169</ele>
        <time>2016-02-24T05:18:39Z</time>
      </trkpt>
      <trkpt lat="45.06042" lon="5.0373">
        <ele>169</ele>
        <time>2016-02-24T05:20:39Z</time>
      </trkpt>
      <trkpt lat="45.06041" lon="5.03723">
        <ele>169</ele>
        <time>2016-02-24T05:22:39Z</time>
      </trkpt>
      <trkpt lat="45.06038" lon="5.03716">
        <ele>169</ele>
        <time>2016-02-24T05:24:39Z</time>
      </trkpt>
      <trkpt lat="45.06034" lon="5.03702">
        <ele>169</ele>
        <time>2016-02-24T05:26:39Z</time>
      </trkpt>
      <trkpt lat="45.06034" lon="5.03694">
        <ele>169</ele>
        <time>2016-02-24T05:28:39Z</time>
      </trkpt>
      <trkpt lat="45.06033" lon="5.03675">
        <ele>169</ele>
        <time>2016-02-24T05:30:39Z</time>
      </trkpt>
      <trkpt lat="45.06031" lon="5.03641">
        <ele>169</ele>
        <time>2016-02-24T05:32:39Z</time>
      </trkpt>
      <trkpt lat="45.06027" lon="5.03604">
        <ele>168</ele>
        <time>2016-02-24T05:34:39Z</time>
      </trkpt>
      <trkpt lat="45.06018" lon="5.03529">
        <ele>168</ele>
        <time>2016-02-24T05:36:39Z</time>
      </trkpt>
      <trkpt lat="45.06009" lon="5.03461">
        <ele>168</ele>
        <time>2016-02-24T05:38:39Z</time>
      </trkpt>
      <trkpt lat="45.05995" lon="5.0335">
        <ele>169</ele>
        <time>2016-02-24T05:40:39Z</time>
      </trkpt>
      <trkpt lat="45.05991" lon="5.03312">
        <ele>169</ele>
        <time>2016-02-24T05:42:39Z</time>
      </trkpt>
      <trkpt lat="45.05987" lon="5.03291">
        <ele>169</ele>
        <time>2016-02-24T05:44:39Z</time>
      </trkpt>
      <trkpt lat="45.05985" lon="5.03281">
        <ele>169</ele>
        <time>2016-02-24T05:46:39Z</time>
      </trkpt>
      <trkpt lat="45.05982" lon="5.03271">
        <ele>169</ele>
        <time>2016-02-24T05:48:39Z</time>
      </trkpt>
      <trkpt lat="45.05976" lon="5.0326">
        <ele>169</ele>
        <time>2016-02-24T05:50:39Z</time>
      </trkpt>
      <trkpt lat="45.05969" lon="5.03248">
        <ele>169</ele>
        <time>2016-02-24T05:52:39Z</time>
      </trkpt>
      <trkpt lat="45.05948" lon="5.03217">
        <ele>169</ele>
        <time>2016-02-24T05:54:39Z</time>
      </trkpt>
      <trkpt lat="45.05948" lon="5.03217">
        <ele>169</ele>
        <time>2016-02-24T05:56:39Z</time>
      </trkpt>
      <trkpt lat="45.05951" lon="5.03211">
        <ele>169</ele>
        <time>2016-02-24T05:58:39Z</time>
      </trkpt>
      <trkpt lat="45.05954" lon="5.03203">
        <ele>169</ele>
        <time>2016-02-24T06:00:39Z</time>
      </trkpt>
      <trkpt lat="45.05972" lon="5.03155">
        <ele>170</ele>
        <time>2016-02-24T06:02:39Z</time>
      </trkpt>
      <trkpt lat="45.0598" lon="5.0314">
        <ele>169</ele>
        <time>2016-02-24T06:04:39Z</time>
      </trkpt>
      <trkpt lat="45.05982" lon="5.03134">
        <ele>169</ele>
        <time>2016-02-24T06:06:39Z</time>
      </trkpt>
      <trkpt lat="45.05984" lon="5.03127">
        <ele>169</ele>
        <time>2016-02-24T06:08:39Z</time>
      </trkpt>
      <trkpt lat="45.05987" lon="5.03116">
        <ele>169</ele>
        <time>2016-02-24T06:10:39Z</time>
      </trkpt>
      <trkpt lat="45.05986" lon="5.03101">
        <ele>169</ele>
        <time>2016-02-24T06:12:39Z</time>
      </trkpt>
      <trkpt lat="45.05985" lon="5.03084">
        <ele>169</ele>
        <time>2016-02-24T06:14:39Z</time>
      </trkpt>
      <trkpt lat="45.05983" lon="5.03068">
        <ele>169</ele>
        <time>2016-02-24T06:16:39Z</time>
      </trkpt>
      <trkpt lat="45.05978" lon="5.0305">
        <ele>169</ele>
        <time>2016-02-24T06:18:39Z</time>
      </trkpt>
      <trkpt lat="45.05971" lon="5.03028">
        <ele>169</ele>
        <time>2016-02-24T06:20:39Z</time>
      </trkpt>
      <trkpt lat="45.05966" lon="5.0301">
        <ele>169</ele>
        <time>2016-02-24T06:22:39Z</time>
      </trkpt>
      <trkpt lat="45.05963" lon="5.02989">
        <ele>169</ele>
        <time>2016-02-24T06:24:39Z</time>
      </trkpt>
      <trkpt lat="45.05963" lon="5.02974">
        <ele>169</ele>
        <time>2016-02-24T06:26:39Z</time>
      </trkpt>
      <trkpt lat="45.05965" lon="5.02957">
        <ele>169</ele>
        <time>2016-02-24T06:28:39Z</time>
      </trkpt>
      <trkpt lat="45.05966" lon="5.02948">
        <ele>169</ele>
        <time>2016-02-24T06:30:39Z</time>
      </trkpt>
      <trkpt lat="45.05968" lon="5.02942">
        <ele>169</ele>
        <time>2016-02-24T06:32:39Z</time>
      </trkpt>
      <trkpt lat="45.05971" lon="5.02936">
        <ele>169</ele>
        <time>2016-02-24T06:34:39Z</time>
      </trkpt>
      <trkpt lat="45.05974" lon="5.02932">
        <ele>169</ele>
        <time>2016-02-24T06:36:39Z</time>
      </trkpt>
      <trkpt lat="45.05979" lon="5.02925">
        <ele>169</ele>
        <time>2016-02-24T06:38:39Z</time>
      </trkpt>
      <trkpt lat="45.05985" lon="5.02919">
        <ele>169</ele>
        <time>2016-02-24T06:40:39Z</time>
      </trkpt>
      <trkpt lat="45.05985" lon="5.02919">
        <ele>169</ele>
        <time>2016-02-24T06:42:39Z</time>
      </trkpt>
      <trkpt lat="45.06005" lon="5.02911">
        <ele>169</ele>
        <time>2016-02-24T06:44:39Z</time>
      </trkpt>
      <trkpt lat="45.0601" lon="5.02909">
        <ele>169</ele>
        <time>2016-02-24T06:46:39Z</time>
      </trkpt>
      <trkpt lat="45.0604" lon="5.029">
        <ele>169</ele>
        <time>2016-02-24T06:48:39Z</time>
      </trkpt>
      <trkpt lat="45.06054" lon="5.02893">
        <ele>169</ele>
        <time>2016-02-24T06:50:39Z</time>
      </trkpt>
      <trkpt lat="45.06055" lon="5.02893">
        <ele>169</ele>
        <time>2016-02-24T06:52:39Z</time>
      </trkpt>
      <trkpt lat="45.06069" lon="5.02884">
        <ele>169</ele>
        <time>2016-02-24T06:54:39Z</time>
      </trkpt>
      <trkpt lat="45.06084" lon="5.02868">
        <ele>170</ele>
        <time>2016-02-24T06:56:39Z</time>
      </trkpt>
      <trkpt lat="45.06088" lon="5.02853">
        <ele>170</ele>
        <time>2016-02-24T06:58:39Z</time>
      </trkpt>
      <trkpt lat="45.06089" lon="5.02846">
        <ele>170</ele>
        <time>2016-02-24T07:00:39Z</time>
      </trkpt>
      <trkpt lat="45.0609" lon="5.0284">
        <ele>170</ele>
        <time>2016-02-24T07:02:39Z</time>
      </trkpt>
      <trkpt lat="45.06089" lon="5.02832">
        <ele>170</ele>
        <time>2016-02-24T07:04:39Z</time>
      </trkpt>
      <trkpt lat="45.06088" lon="5.02825">
        <ele>170</ele>
        <time>2016-02-24T07:06:39Z</time>
      </trkpt>
      <trkpt lat="45.06086" lon="5.02813">
        <ele>170</ele>
        <time>2016-02-24T07:08:39Z</time>
      </trkpt>
      <trkpt lat="45.06078" lon="5.02793">
        <ele>170</ele>
        <time>2016-02-24T07:10:39Z</time>
      </trkpt>
      <trkpt lat="45.06056" lon="5.0274">
        <ele>170</ele>
        <time>2016-02-24T07:12:39Z</time>
      </trkpt>
      <trkpt lat="45.06049" lon="5.02723">
        <ele>170</ele>
        <time>2016-02-24T07:14:39Z</time>
      </trkpt>
      <trkpt lat="45.06044" lon="5.02705">
        <ele>170</ele>
        <time>2016-02-24T07:16:39Z</time>
      </trkpt>
      <trkpt lat="45.06042" lon="5.02697">
        <ele>170</ele>
        <time>2016-02-24T07:18:39Z</time>
      </trkpt>
      <trkpt lat="45.0604" lon="5.02689">
        <ele>169</ele>
        <time>2016-02-24T07:20:39Z</time>
      </trkpt>
      <trkpt lat="45.0604" lon="5.02675">
        <ele>169</ele>
        <time>2016-02-24T07:22:39Z</time>
      </trkpt>
      <trkpt lat="45.0604" lon="5.02665">
        <ele>169</ele>
        <time>2016-02-24T07:24:39Z</time>
      </trkpt>
      <trkpt lat="45.0604" lon="5.02662">
        <ele>169</ele>
        <time>2016-02-24T07:26:39Z</time>
      </trkpt>
      <trkpt lat="45.0604" lon="5.02657">
        <ele>169</ele>
        <time>2016-02-24T07:28:39Z</time>
      </trkpt>
      <trkpt lat="45.06041" lon="5.02651">
        <ele>169</ele>
        <time>2016-02-24T07:30:39Z</time>
      </trkpt>
      <trkpt lat="45.06041" lon="5.02648">
        <ele>169</ele>
        <time>2016-02-24T07:32:39Z</time>
      </trkpt>
      <trkpt lat="45.06044" lon="5.02629">
        <ele>170</ele>
        <time>2016-02-24T07:34:39Z</time>
      </trkpt>
      <trkpt lat="45.06047" lon="5.02613">
        <ele>170</ele>
        <time>2016-02-24T07:36:39Z</time>
      </trkpt>
      <trkpt lat="45.06048" lon="5.0261">
        <ele>170</ele>
        <time>2016-02-24T07:38:39Z</time>
      </trkpt>
      <trkpt lat="45.0605" lon="5.02605">
        <ele>170</ele>
        <time>2016-02-24T07:40:39Z</time>
      </trkpt>
      <trkpt lat="45.06053" lon="5.02598">
        <ele>170</ele>
        <time>2016-02-24T07:42:39Z</time>
      </trkpt>
      <trkpt lat="45.06053" lon="5.02598">
        <ele>170</ele>
        <time>2016-02-24T07:44:39Z</time>
      </trkpt>
      <trkpt lat="45.06041" lon="5.02582">
        <ele>169</ele>
        <time>2016-02-24T07:46:39Z</time>
      </trkpt>
      <trkpt lat="45.06032" lon="5.02563">
        <ele>169</ele>
        <time>2016-02-24T07:48:39Z</time>
      </trkpt>
      <trkpt lat="45.06026" lon="5.02549">
        <ele>169</ele>
        <time>2016-02-24T07:50:39Z</time>
      </trkpt>
      <trkpt lat="45.06014" lon="5.02519">
        <ele>169</ele>
        <time>2016-02-24T07:52:39Z</time>
      </trkpt>
      <trkpt lat="45.06009" lon="5.02506">
        <ele>169</ele>
        <time>2016-02-24T07:54:39Z</time>
      </trkpt>
      <trkpt lat="45.06002" lon="5.02492">
        <ele>169</ele>
        <time>2016-02-24T07:56:39Z</time>
      </trkpt>
      <trkpt lat="45.05996" lon="5.0248">
        <ele>169</ele>
        <time>2016-02-24T07:58:39Z</time>
      </trkpt>
      <trkpt lat="45.05993" lon="5.02474">
        <ele>169</ele>
        <time>2016-02-24T08:00:39Z</time>
      </trkpt>
      <trkpt lat="45.05985" lon="5.02458">
        <ele>169</ele>
        <time>2016-02-24T08:02:39Z</time>
      </trkpt>
      <trkpt lat="45.0598" lon="5.02447">
        <ele>169</ele>
        <time>2016-02-24T08:04:39Z</time>
      </trkpt>
      <trkpt lat="45.05973" lon="5.02431">
        <ele>170</ele>
        <time>2016-02-24T08:06:39Z</time>
      </trkpt>
      <trkpt lat="45.05972" lon="5.02426">
        <ele>170</ele>
        <time>2016-02-24T08:08:39Z</time>
      </trkpt>
      <trkpt lat="45.05971" lon="5.02414">
        <ele>170</ele>
        <time>2016-02-24T08:10:39Z</time>
      </trkpt>
      <trkpt lat="45.0597" lon="5.02392">
        <ele>170</ele>
        <time>2016-02-24T08:12:39Z</time>
      </trkpt>
      <trkpt lat="45.05969" lon="5.02356">
        <ele>170</ele>
        <time>2016-02-24T08:14:39Z</time>
      </trkpt>
      <trkpt lat="45.05968" lon="5.02345">
        <ele>170</ele>
        <time>2016-02-24T08:16:39Z</time>
      </trkpt>
      <trkpt lat="45.05968" lon="5.0233">
        <ele>170</ele>
        <time>2016-02-24T08:18:39Z</time>
      </trkpt>
      <trkpt lat="45.05966" lon="5.02309">
        <ele>170</ele>
        <time>2016-02-24T08:20:39Z</time>
      </trkpt>
      <trkpt lat="45.05963" lon="5.0229">
        <ele>170</ele>
        <time>2016-02-24T08:22:39Z</time>
      </trkpt>
      <trkpt lat="45.0596" lon="5.02275">
        <ele>170</ele>
        <time>2016-02-24T08:24:39Z</time>
      </trkpt>
      <trkpt lat="45.05953" lon="5.02246">
        <ele>169</ele>
        <time>2016-02-24T08:26:39Z</time>
      </trkpt>
      <trkpt lat="45.05948" lon="5.02223">
        <ele>169</ele>
        <time>2016-02-24T08:28:39Z</time>
      </trkpt>
      <trkpt lat="45.05937" lon="5.02191">
        <ele>169</ele>
        <time>2016-02-24T08:30:39Z</time>
      </trkpt>
      <trkpt lat="45.05925" lon="5.02155">
        <ele>169</ele>
        <time>2016-02-24T08:32:39Z</time>
      </trkpt>
      <trkpt lat="45.05914" lon="5.02115">
        <ele>169</ele>
        <time>2016-02-24T08:34:39Z</time>
      </trkpt>
      <trkpt lat="45.05897" lon="5.02072">
        <ele>169</ele>
        <time>2016-02-24T08:36:39Z</time>
      </trkpt>
      <trkpt lat="45.05891" lon="5.02061">
        <ele>169</ele>
        <time>2016-02-24T08:38:39Z</time>
      </trkpt>
      <trkpt lat="45.05887" lon="5.02057">
        <ele>169</ele>
        <time>2016-02-24T08:40:39Z</time>
      </trkpt>
      <trkpt lat="45.05876" lon="5.02049">
        <ele>169</ele>
        <time>2016-02-24T08:42:39Z</time>
      </trkpt>
      <trkpt lat="45.05869" lon="5.02042">
        <ele>168</ele>
        <time>2016-02-24T08:44:39Z</time>
      </trkpt>
      <trkpt lat="45.05859" lon="5.02032">
        <ele>168</ele>
        <time>2016-02-24T08:46:39Z</time>
      </trkpt>
      <trkpt lat="45.05826" lon="5.01993">
        <ele>168</ele>
        <time>2016-02-24T08:48:39Z</time>
      </trkpt>
      <trkpt lat="45.05803" lon="5.01964">
        <ele>168</ele>
        <time>2016-02-24T08:50:39Z</time>
      </trkpt>
      <trkpt lat="45.05798" lon="5.01957">
        <ele>168</ele>
        <time>2016-02-24T08:52:39Z</time>
      </trkpt>
      <trkpt lat="45.05792" lon="5.01944">
        <ele>168</ele>
        <time>2016-02-24T08:54:39Z</time>
      </trkpt>
      <trkpt lat="45.05792" lon="5.01944">
        <ele>168</ele>
        <time>2016-02-24T08:56:39Z</time>
      </trkpt>
      <trkpt lat="45.05771" lon="5.01958">
        <ele>168</ele>
        <time>2016-02-24T08:58:39Z</time>
      </trkpt>
      <trkpt lat="45.05747" lon="5.01975">
        <ele>168</ele>
        <time>2016-02-24T09:00:39Z</time>
      </trkpt>
      <trkpt lat="45.05727" lon="5.0199">
        <ele>168</ele>
        <time>2016-02-24T09:02:39Z</time>
      </trkpt>
      <trkpt lat="45.05716" lon="5.01995">
        <ele>168</ele>
        <time>2016-02-24T09:04:39Z</time>
      </trkpt>
      <trkpt lat="45.05704" lon="5.01996">
        <ele>167</ele>
        <time>2016-02-24T09:06:39Z</time>
      </trkpt>
      <trkpt lat="45.05687" lon="5.01994">
        <ele>167</ele>
        <time>2016-02-24T09:08:39Z</time>
      </trkpt>
      <trkpt lat="45.0567" lon="5.0199">
        <ele>167</ele>
        <time>2016-02-24T09:10:39Z</time>
      </trkpt>
      <trkpt lat="45.0563" lon="5.0198">
        <ele>167</ele>
        <time>2016-02-24T09:12:39Z</time>
      </trkpt>
      <trkpt lat="45.05601" lon="5.01973">
        <ele>166</ele>
        <time>2016-02-24T09:14:39Z</time>
      </trkpt>
      <trkpt lat="45.05575" lon="5.01962">
        <ele>166</ele>
        <time>2016-02-24T09:16:39Z</time>
      </trkpt>
      <trkpt lat="45.05556" lon="5.01954">
        <ele>166</ele>
        <time>2016-02-24T09:18:39Z</time>
      </trkpt>
      <trkpt lat="45.05524" lon="5.01943">
        <ele>165</ele>
        <time>2016-02-24T09:20:39Z</time>
      </trkpt>
      <trkpt lat="45.05511" lon="5.0194">
        <ele>165</ele>
        <time>2016-02-24T09:22:39Z</time>
      </trkpt>
      <trkpt lat="45.05506" lon="5.01939">
        <ele>165</ele>
        <time>2016-02-24T09:24:39Z</time>
      </trkpt>
      <trkpt lat="45.05506" lon="5.01939">
        <ele>165</ele>
        <time>2016-02-24T09:26:39Z</time>
      </trkpt>
      <trkpt lat="45.05514" lon="5.01879">
        <ele>166</ele>
        <time>2016-02-24T09:28:39Z</time>
      </trkpt>
      <trkpt lat="45.05514" lon="5.01879">
        <ele>166</ele>
        <time>2016-02-24T09:30:39Z</time>
      </trkpt>
      <trkpt lat="45.05524" lon="5.018">
        <ele>166</ele>
        <time>2016-02-24T09:32:39Z</time>
      </trkpt>
      <trkpt lat="45.05533" lon="5.01761">
        <ele>166</ele>
        <time>2016-02-24T09:34:39Z</time>
      </trkpt>
      <trkpt lat="45.05543" lon="5.01728">
        <ele>167</ele>
        <time>2016-02-24T09:36:39Z</time>
      </trkpt>
      <trkpt lat="45.05552" lon="5.01699">
        <ele>167</ele>
        <time>2016-02-24T09:38:39Z</time>
      </trkpt>
      <trkpt lat="45.0556" lon="5.01672">
        <ele>167</ele>
        <time>2016-02-24T09:40:39Z</time>
      </trkpt>
      <trkpt lat="45.05573" lon="5.01625">
        <ele>166</ele>
        <time>2016-02-24T09:42:39Z</time>
      </trkpt>
      <trkpt lat="45.05579" lon="5.01596">
        <ele>166</ele>
        <time>2016-02-24T09:44:39Z</time>
      </trkpt>
      <trkpt lat="45.05589" lon="5.01537">
        <ele>166</ele>
        <time>2016-02-24T09:46:39Z</time>
      </trkpt>
      <trkpt lat="45.056" lon="5.01459">
        <ele>166</ele>
        <time>2016-02-24T09:48:39Z</time>
      </trkpt>
      <trkpt lat="45.05602" lon="5.01438">
        <ele>166</ele>
        <time>2016-02-24T09:50:39Z</time>
      </trkpt>
      <trkpt lat="45.05608" lon="5.01397">
        <ele>166</ele>
        <time>2016-02-24T09:52:39Z</time>
      </trkpt>
      <trkpt lat="45.05615" lon="5.01355">
        <ele>165</ele>
        <time>2016-02-24T09:54:39Z</time>
      </trkpt>
      <trkpt lat="45.05623" lon="5.01307">
        <ele>165</ele>
        <time>2016-02-24T09:56:39Z</time>
      </trkpt>
      <trkpt lat="45.05633" lon="5.01266">
        <ele>165</ele>
        <time>2016-02-24T09:58:39Z</time>
      </trkpt>
      <trkpt lat="45.05639" lon="5.01238">
        <ele>165</ele>
        <time>2016-02-24T10:00:39Z</time>
      </trkpt>
      <trkpt lat="45.05642" lon="5.01213">
        <ele>165</ele>
        <time>2016-02-24T10:02:39Z</time>
      </trkpt>
      <trkpt lat="45.05646" lon="5.01186">
        <ele>165</ele>
        <time>2016-02-24T10:04:39Z</time>
      </trkpt>
      <trkpt lat="45.05647" lon="5.01167">
        <ele>165</ele>
        <time>2016-02-24T10:06:39Z</time>
      </trkpt>
      <trkpt lat="45.05649" lon="5.01135">
        <ele>165</ele>
        <time>2016-02-24T10:08:39Z</time>
      </trkpt>
      <trkpt lat="45.0565" lon="5.01125">
        <ele>165</ele>
        <time>2016-02-24T10:10:39Z</time>
      </trkpt>
      <trkpt lat="45.0565" lon="5.01107">
        <ele>165</ele>
        <time>2016-02-24T10:12:39Z</time>
      </trkpt>
      <trkpt lat="45.05651" lon="5.01087">
        <ele>165</ele>
        <time>2016-02-24T10:14:39Z</time>
      </trkpt>
      <trkpt lat="45.05653" lon="5.01062">
        <ele>164</ele>
        <time>2016-02-24T10:16:39Z</time>
      </trkpt>
      <trkpt lat="45.05654" lon="5.01022">
        <ele>164</ele>
        <time>2016-02-24T10:18:39Z</time>
      </trkpt>
      <trkpt lat="45.05656" lon="5.00974">
        <ele>164</ele>
        <time>2016-02-24T10:20:39Z</time>
      </trkpt>
      <trkpt lat="45.05659" lon="5.00926">
        <ele>164</ele>
        <time>2016-02-24T10:22:39Z</time>
      </trkpt>
      <trkpt lat="45.05662" lon="5.00903">
        <ele>164</ele>
        <time>2016-02-24T10:24:39Z</time>
      </trkpt>
      <trkpt lat="45.05662" lon="5.00898">
        <ele>164</ele>
        <time>2016-02-24T10:26:39Z</time>
      </trkpt>
      <trkpt lat="45.05663" lon="5.0089">
        <ele>164</ele>
        <time>2016-02-24T10:28:39Z</time>
      </trkpt>
      <trkpt lat="45.05663" lon="5.00886">
        <ele>164</ele>
        <time>2016-02-24T10:30:39Z</time>
      </trkpt>
      <trkpt lat="45.05668" lon="5.00856">
        <ele>163</ele>
        <time>2016-02-24T10:32:39Z</time>
      </trkpt>
      <trkpt lat="45.05674" lon="5.0082">
        <ele>163</ele>
        <time>2016-02-24T10:34:39Z</time>
      </trkpt>
      <trkpt lat="45.05685" lon="5.00773">
        <ele>163</ele>
        <time>2016-02-24T10:36:39Z</time>
      </trkpt>
      <trkpt lat="45.05687" lon="5.00761">
        <ele>163</ele>
        <time>2016-02-24T10:38:39Z</time>
      </trkpt>
      <trkpt lat="45.05696" lon="5.00719">
        <ele>163</ele>
        <time>2016-02-24T10:40:39Z</time>
      </trkpt>
      <trkpt lat="45.05706" lon="5.00677">
        <ele>163</ele>
        <time>2016-02-24T10:42:39Z</time>
      </trkpt>
      <trkpt lat="45.05709" lon="5.00668">
        <ele>163</ele>
        <time>2016-02-24T10:44:39Z</time>
      </trkpt>
      <trkpt lat="45.05721" lon="5.00608">
        <ele>162</ele>
        <time>2016-02-24T10:46:39Z</time>
      </trkpt>
      <trkpt lat="45.05723" lon="5.00595">
        <ele>162</ele>
        <time>2016-02-24T10:48:39Z</time>
      </trkpt>
      <trkpt lat="45.05725" lon="5.00584">
        <ele>162</ele>
        <time>2016-02-24T10:50:39Z</time>
      </trkpt>
      <trkpt lat="45.05729" lon="5.00561">
        <ele>162</ele>
        <time>2016-02-24T10:52:39Z</time>
      </trkpt>
      <trkpt lat="45.05736" lon="5.00518">
        <ele>161</ele>
        <time>2016-02-24T10:54:39Z</time>
      </trkpt>
      <trkpt lat="45.05743" lon="5.0046">
        <ele>161</ele>
        <time>2016-02-24T10:56:39Z</time>
      </trkpt>
      <trkpt lat="45.05751" lon="5.00383">
        <ele>161</ele>
        <time>2016-02-24T10:58:39Z</time>
      </trkpt>
      <trkpt lat="45.05758" lon="5.00332">
        <ele>160</ele>
        <time>2016-02-24T11:00:39Z</time>
      </trkpt>
      <trkpt lat="45.05759" lon="5.00328">
        <ele>160</ele>
        <time>2016-02-24T11:02:39Z</time>
      </trkpt>
      <trkpt lat="45.05764" lon="5.00305">
        <ele>160</ele>
        <time>2016-02-24T11:04:39Z</time>
      </trkpt>
      <trkpt lat="45.05769" lon="5.00283">
        <ele>160</ele>
        <time>2016-02-24T11:06:39Z</time>
      </trkpt>
      <trkpt lat="45.05777" lon="5.00252">
        <ele>160</ele>
        <time>2016-02-24T11:08:39Z</time>
      </trkpt>
      <trkpt lat="45.05787" lon="5.00212">
        <ele>160</ele>
        <time>2016-02-24T11:10:39Z</time>
      </trkpt>
      <trkpt lat="45.05812" lon="5.00123">
        <ele>160</ele>
        <time>2016-02-24T11:12:39Z</time>
      </trkpt>
      <trkpt lat="45.05827" lon="5.00072">
        <ele>160</ele>
        <time>2016-02-24T11:14:39Z</time>
      </trkpt>
      <trkpt lat="45.0583" lon="5.00059">
        <ele>160</ele>
        <time>2016-02-24T11:16:39Z</time>
      </trkpt>
      <trkpt lat="45.0584" lon="5.00024">
        <ele>160</ele>
        <time>2016-02-24T11:18:39Z</time>
      </trkpt>
      <trkpt lat="45.0585" lon="4.99992">
        <ele>157</ele>
        <time>2016-02-24T11:20:39Z</time>
      </trkpt>
      <trkpt lat="45.0586" lon="4.99962">
        <ele>157</ele>
        <time>2016-02-24T11:22:39Z</time>
      </trkpt>
      <trkpt lat="45.05867" lon="4.99946">
        <ele>158</ele>
        <time>2016-02-24T11:24:39Z</time>
      </trkpt>
      <trkpt lat="45.05874" lon="4.99931">
        <ele>158</ele>
        <time>2016-02-24T11:26:39Z</time>
      </trkpt>
      <trkpt lat="45.05875" lon="4.99928">
        <ele>158</ele>
        <time>2016-02-24T11:28:39Z</time>
      </trkpt>
      <trkpt lat="45.05881" lon="4.99915">
        <ele>158</ele>
        <time>2016-02-24T11:30:39Z</time>
      </trkpt>
      <trkpt lat="45.05881" lon="4.99913">
        <ele>158</ele>
        <time>2016-02-24T11:32:39Z</time>
      </trkpt>
      <trkpt lat="45.05883" lon="4.9991">
        <ele>158</ele>
        <time>2016-02-24T11:34:39Z</time>
      </trkpt>
      <trkpt lat="45.05893" lon="4.9989">
        <ele>159</ele>
        <time>2016-02-24T11:36:39Z</time>
      </trkpt>
      <trkpt lat="45.05912" lon="4.9985">
        <ele>159</ele>
        <time>2016-02-24T11:38:39Z</time>
      </trkpt>
      <trkpt lat="45.05921" lon="4.99835">
        <ele>159</ele>
        <time>2016-02-24T11:40:39Z</time>
      </trkpt>
      <trkpt lat="45.05924" lon="4.9983">
        <ele>159</ele>
        <time>2016-02-24T11:42:39Z</time>
      </trkpt>
      <trkpt lat="45.05947" lon="4.99785">
        <ele>159</ele>
        <time>2016-02-24T11:44:39Z</time>
      </trkpt>
      <trkpt lat="45.05968" lon="4.99738">
        <ele>160</ele>
        <time>2016-02-24T11:46:39Z</time>
      </trkpt>
      <trkpt lat="45.05981" lon="4.99705">
        <ele>160</ele>
        <time>2016-02-24T11:48:39Z</time>
      </trkpt>
      <trkpt lat="45.05983" lon="4.99698">
        <ele>160</ele>
        <time>2016-02-24T11:50:39Z</time>
      </trkpt>
      <trkpt lat="45.05991" lon="4.99673">
        <ele>161</ele>
        <time>2016-02-24T11:52:39Z</time>
      </trkpt>
      <trkpt lat="45.05996" lon="4.99661">
        <ele>161</ele>
        <time>2016-02-24T11:54:39Z</time>
      </trkpt>
      <trkpt lat="45.06006" lon="4.99622">
        <ele>162</ele>
        <time>2016-02-24T11:56:39Z</time>
      </trkpt>
      <trkpt lat="45.06013" lon="4.9959">
        <ele>162</ele>
        <time>2016-02-24T11:58:39Z</time>
      </trkpt>
      <trkpt lat="45.06016" lon="4.99573">
        <ele>162</ele>
        <time>2016-02-24T12:00:39Z</time>
      </trkpt>
      <trkpt lat="45.06018" lon="4.99563">
        <ele>162</ele>
        <time>2016-02-24T12:02:39Z</time>
      </trkpt>
      <trkpt lat="45.06021" lon="4.9955">
        <ele>162</ele>
        <time>2016-02-24T12:04:39Z</time>
      </trkpt>
      <trkpt lat="45.06023" lon="4.99539">
        <ele>162</ele>
        <time>2016-02-24T12:06:39Z</time>
      </trkpt>
      <trkpt lat="45.06024" lon="4.99532">
        <ele>162</ele>
        <time>2016-02-24T12:08:39Z</time>
      </trkpt>
      <trkpt lat="45.06024" lon="4.99529">
        <ele>162</ele>
        <time>2016-02-24T12:10:39Z</time>
      </trkpt>
      <trkpt lat="45.06029" lon="4.99506">
        <ele>162</ele>
        <time>2016-02-24T12:12:39Z</time>
      </trkpt>
      <trkpt lat="45.06041" lon="4.99443">
        <ele>162</ele>
        <time>2016-02-24T12:14:39Z</time>
      </trkpt>
      <trkpt lat="45.0606" lon="4.99338">
        <ele>160</ele>
        <time>2016-02-24T12:16:39Z</time>
      </trkpt>
      <trkpt lat="45.06071" lon="4.9928">
        <ele>160</ele>
        <time>2016-02-24T12:18:39Z</time>
      </trkpt>
      <trkpt lat="45.06081" lon="4.99227">
        <ele>161</ele>
        <time>2016-02-24T12:20:39Z</time>
      </trkpt>
      <trkpt lat="45.06086" lon="4.99202">
        <ele>162</ele>
        <time>2016-02-24T12:22:39Z</time>
      </trkpt>
      <trkpt lat="45.06094" lon="4.99157">
        <ele>162</ele>
        <time>2016-02-24T12:24:39Z</time>
      </trkpt>
      <trkpt lat="45.06101" lon="4.99105">
        <ele>163</ele>
        <time>2016-02-24T12:26:39Z</time>
      </trkpt>
      <trkpt lat="45.06105" lon="4.99062">
        <ele>164</ele>
        <time>2016-02-24T12:28:39Z</time>
      </trkpt>
      <trkpt lat="45.06105" lon="4.99038">
        <ele>165</ele>
        <time>2016-02-24T12:30:39Z</time>
      </trkpt>
      <trkpt lat="45.06105" lon="4.9902">
        <ele>165</ele>
        <time>2016-02-24T12:32:39Z</time>
      </trkpt>
      <trkpt lat="45.06104" lon="4.98996">
        <ele>166</ele>
        <time>2016-02-24T12:34:39Z</time>
      </trkpt>
      <trkpt lat="45.061" lon="4.98945">
        <ele>167</ele>
        <time>2016-02-24T12:36:39Z</time>
      </trkpt>
      <trkpt lat="45.06099" lon="4.98932">
        <ele>168</ele>
        <time>2016-02-24T12:38:39Z</time>
      </trkpt>
      <trkpt lat="45.06096" lon="4.98895">
        <ele>168</ele>
        <time>2016-02-24T12:40:39Z</time>
      </trkpt>
      <trkpt lat="45.06095" lon="4.98874">
        <ele>168</ele>
        <time>2016-02-24T12:42:39Z</time>
      </trkpt>
      <trkpt lat="45.06094" lon="4.98858">
        <ele>167</ele>
        <time>2016-02-24T12:44:39Z</time>
      </trkpt>
      <trkpt lat="45.06092" lon="4.98832">
        <ele>167</ele>
        <time>2016-02-24T12:46:39Z</time>
      </trkpt>
      <trkpt lat="45.06092" lon="4.98832">
        <ele>167</ele>
        <time>2016-02-24T12:48:39Z</time>
      </trkpt>
      <trkpt lat="45.06102" lon="4.98824">
        <ele>168</ele>
        <time>2016-02-24T12:50:39Z</time>
      </trkpt>
      <trkpt lat="45.06102" lon="4.98823">
        <ele>168</ele>
        <time>2016-02-24T12:52:39Z</time>
      </trkpt>
      <trkpt lat="45.06109" lon="4.98805">
        <ele>169</ele>
        <time>2016-02-24T12:54:39Z</time>
      </trkpt>
      <trkpt lat="45.0612" lon="4.98785">
        <ele>170</ele>
        <time>2016-02-24T12:56:39Z</time>
      </trkpt>
      <trkpt lat="45.06124" lon="4.98777">
        <ele>171</ele>
        <time>2016-02-24T12:58:39Z</time>
      </trkpt>
      <trkpt lat="45.06126" lon="4.98774">
        <ele>171</ele>
        <time>2016-02-24T13:00:39Z</time>
      </trkpt>
      <trkpt lat="45.06129" lon="4.98769">
        <ele>172</ele>
        <time>2016-02-24T13:02:39Z</time>
      </trkpt>
      <trkpt lat="45.06141" lon="4.98755">
        <ele>173</ele>
        <time>2016-02-24T13:04:39Z</time>
      </trkpt>
      <trkpt lat="45.06159" lon="4.98739">
        <ele>176</ele>
        <time>2016-02-24T13:06:39Z</time>
      </trkpt>
      <trkpt lat="45.0618" lon="4.9872">
        <ele>176</ele>
        <time>2016-02-24T13:08:39Z</time>
      </trkpt>
      <trkpt lat="45.06204" lon="4.98702">
        <ele>176</ele>
        <time>2016-02-24T13:10:39Z</time>
      </trkpt>
      <trkpt lat="45.06218" lon="4.98692">
        <ele>175</ele>
        <time>2016-02-24T13:12:39Z</time>
      </trkpt>
      <trkpt lat="45.06251" lon="4.98668">
        <ele>173</ele>
        <time>2016-02-24T13:14:39Z</time>
      </trkpt>
      <trkpt lat="45.06264" lon="4.98662">
        <ele>172</ele>
        <time>2016-02-24T13:16:39Z</time>
      </trkpt>
      <trkpt lat="45.06279" lon="4.98657">
        <ele>172</ele>
        <time>2016-02-24T13:18:39Z</time>
      </trkpt>
      <trkpt lat="45.06298" lon="4.98654">
        <ele>171</ele>
        <time>2016-02-24T13:20:39Z</time>
      </trkpt>
      <trkpt lat="45.06317" lon="4.98649">
        <ele>170</ele>
        <time>2016-02-24T13:22:39Z</time>
      </trkpt>
      <trkpt lat="45.06326" lon="4.98644">
        <ele>170</ele>
        <time>2016-02-24T13:24:39Z</time>
      </trkpt>
      <trkpt lat="45.0634" lon="4.98631">
        <ele>169</ele>
        <time>2016-02-24T13:26:39Z</time>
      </trkpt>
      <trkpt lat="45.06352" lon="4.98617">
        <ele>168</ele>
        <time>2016-02-24T13:28:39Z</time>
      </trkpt>
      <trkpt lat="45.06365" lon="4.98594">
        <ele>166</ele>
        <time>2016-02-24T13:30:39Z</time>
      </trkpt>
      <trkpt lat="45.06381" lon="4.98564">
        <ele>165</ele>
        <time>2016-02-24T13:32:39Z</time>
      </trkpt>
      <trkpt lat="45.06396" lon="4.98538">
        <ele>164</ele>
        <time>2016-02-24T13:34:39Z</time>
      </trkpt>
      <trkpt lat="45.06406" lon="4.98522">
        <ele>164</ele>
        <time>2016-02-24T13:36:39Z</time>
      </trkpt>
      <trkpt lat="45.06416" lon="4.98503">
        <ele>163</ele>
        <time>2016-02-24T13:38:39Z</time>
      </trkpt>
      <trkpt lat="45.06423" lon="4.98485">
        <ele>163</ele>
        <time>2016-02-24T13:40:39Z</time>
      </trkpt>
      <trkpt lat="45.0643" lon="4.98467">
        <ele>164</ele>
        <time>2016-02-24T13:42:39Z</time>
      </trkpt>
      <trkpt lat="45.06433" lon="4.98461">
        <ele>164</ele>
        <time>2016-02-24T13:44:39Z</time>
      </trkpt>
      <trkpt lat="45.06446" lon="4.98435">
        <ele>165</ele>
        <time>2016-02-24T13:46:39Z</time>
      </trkpt>
      <trkpt lat="45.06461" lon="4.98412">
        <ele>166</ele>
        <time>2016-02-24T13:48:39Z</time>
      </trkpt>
      <trkpt lat="45.06481" lon="4.98387">
        <ele>168</ele>
        <time>2016-02-24T13:50:39Z</time>
      </trkpt>
      <trkpt lat="45.06492" lon="4.98372">
        <ele>169</ele>
        <time>2016-02-24T13:52:39Z</time>
      </trkpt>
      <trkpt lat="45.06492" lon="4.98372">
        <ele>169</ele>
        <time>2016-02-24T13:54:39Z</time>
      </trkpt>
      <trkpt lat="45.06485" lon="4.98354">
        <ele>169</ele>
        <time>2016-02-24T13:56:39Z</time>
      </trkpt>
      <trkpt lat="45.06473" lon="4.98333">
        <ele>169</ele>
        <time>2016-02-24T13:58:39Z</time>
      </trkpt>
      <trkpt lat="45.06456" lon="4.98308">
        <ele>171</ele>
        <time>2016-02-24T14:00:39Z</time>
      </trkpt>
      <trkpt lat="45.0644" lon="4.98287">
        <ele>172</ele>
        <time>2016-02-24T14:02:39Z</time>
      </trkpt>
      <trkpt lat="45.06433" lon="4.98276">
        <ele>172</ele>
        <time>2016-02-24T14:04:39Z</time>
      </trkpt>
      <trkpt lat="45.06415" lon="4.98252">
        <ele>173</ele>
        <time>2016-02-24T14:06:39Z</time>
      </trkpt>
      <trkpt lat="45.06399" lon="4.98229">
        <ele>173</ele>
        <time>2016-02-24T14:08:39Z</time>
      </trkpt>
      <trkpt lat="45.06385" lon="4.98209">
        <ele>173</ele>
        <time>2016-02-24T14:10:39Z</time>
      </trkpt>
      <trkpt lat="45.06372" lon="4.98191">
        <ele>172</ele>
        <time>2016-02-24T14:12:39Z</time>
      </trkpt>
      <trkpt lat="45.0637" lon="4.98187">
        <ele>172</ele>
        <time>2016-02-24T14:14:39Z</time>
      </trkpt>
      <trkpt lat="45.06356" lon="4.9817">
        <ele>171</ele>
        <time>2016-02-24T14:16:39Z</time>
      </trkpt>
      <trkpt lat="45.06345" lon="4.98158">
        <ele>171</ele>
        <time>2016-02-24T14:18:39Z</time>
      </trkpt>
      <trkpt lat="45.06334" lon="4.98147">
        <ele>170</ele>
        <time>2016-02-24T14:20:39Z</time>
      </trkpt>
      <trkpt lat="45.06318" lon="4.98132">
        <ele>170</ele>
        <time>2016-02-24T14:22:39Z</time>
      </trkpt>
      <trkpt lat="45.06303" lon="4.9812">
        <ele>169</ele>
        <time>2016-02-24T14:24:39Z</time>
      </trkpt>
      <trkpt lat="45.0629" lon="4.9811">
        <ele>168</ele>
        <time>2016-02-24T14:26:39Z</time>
      </trkpt>
      <trkpt lat="45.06283" lon="4.98102">
        <ele>168</ele>
        <time>2016-02-24T14:28:39Z</time>
      </trkpt>
      <trkpt lat="45.06271" lon="4.98085">
        <ele>167</ele>
        <time>2016-02-24T14:30:39Z</time>
      </trkpt>
      <trkpt lat="45.06255" lon="4.98058">
        <ele>168</ele>
        <time>2016-02-24T14:32:39Z</time>
      </trkpt>
      <trkpt lat="45.0624" lon="4.98032">
        <ele>169</ele>
        <time>2016-02-24T14:34:39Z</time>
      </trkpt>
      <trkpt lat="45.06223" lon="4.98">
        <ele>170</ele>
        <time>2016-02-24T14:36:39Z</time>
      </trkpt>
      <trkpt lat="45.06205" lon="4.97968">
        <ele>169</ele>
        <time>2016-02-24T14:38:39Z</time>
      </trkpt>
      <trkpt lat="45.06196" lon="4.97949">
        <ele>168</ele>
        <time>2016-02-24T14:40:39Z</time>
      </trkpt>
      <trkpt lat="45.06178" lon="4.97913">
        <ele>167</ele>
        <time>2016-02-24T14:42:39Z</time>
      </trkpt>
      <trkpt lat="45.06163" lon="4.97878">
        <ele>165</ele>
        <time>2016-02-24T14:44:39Z</time>
      </trkpt>
      <trkpt lat="45.06154" lon="4.97856">
        <ele>165</ele>
        <time>2016-02-24T14:46:39Z</time>
      </trkpt>
      <trkpt lat="45.0615" lon="4.97848">
        <ele>165</ele>
        <time>2016-02-24T14:48:39Z</time>
      </trkpt>
      <trkpt lat="45.06135" lon="4.97815">
        <ele>164</ele>
        <time>2016-02-24T14:50:39Z</time>
      </trkpt>
      <trkpt lat="45.06121" lon="4.9779">
        <ele>163</ele>
        <time>2016-02-24T14:52:39Z</time>
      </trkpt>
      <trkpt lat="45.06121" lon="4.97789">
        <ele>163</ele>
        <time>2016-02-24T14:54:39Z</time>
      </trkpt>
      <trkpt lat="45.06108" lon="4.97767">
        <ele>162</ele>
        <time>2016-02-24T14:56:39Z</time>
      </trkpt>
      <trkpt lat="45.061" lon="4.9775">
        <ele>162</ele>
        <time>2016-02-24T14:58:39Z</time>
      </trkpt>
      <trkpt lat="45.06094" lon="4.97741">
        <ele>162</ele>
        <time>2016-02-24T15:00:39Z</time>
      </trkpt>
      <trkpt lat="45.06077" lon="4.97716">
        <ele>161</ele>
        <time>2016-02-24T15:02:39Z</time>
      </trkpt>
      <trkpt lat="45.0606" lon="4.97687">
        <ele>161</ele>
        <time>2016-02-24T15:04:39Z</time>
      </trkpt>
      <trkpt lat="45.06043" lon="4.97664">
        <ele>161</ele>
        <time>2016-02-24T15:06:39Z</time>
      </trkpt>
      <trkpt lat="45.06026" lon="4.97638">
        <ele>160</ele>
        <time>2016-02-24T15:08:39Z</time>
      </trkpt>
      <trkpt lat="45.06013" lon="4.97615">
        <ele>160</ele>
        <time>2016-02-24T15:10:39Z</time>
      </trkpt>
      <trkpt lat="45.06006" lon="4.9761">
        <ele>160</ele>
        <time>2016-02-24T15:12:39Z</time>
      </trkpt>
      <trkpt lat="45.06006" lon="4.9761">
        <ele>160</ele>
        <time>2016-02-24T15:14:39Z</time>
      </trkpt>
      <trkpt lat="45.06" lon="4.97585">
        <ele>160</ele>
        <time>2016-02-24T15:16:39Z</time>
      </trkpt>
      <trkpt lat="45.05995" lon="4.97565">
        <ele>160</ele>
        <time>2016-02-24T15:18:39Z</time>
      </trkpt>
      <trkpt lat="45.05994" lon="4.97563">
        <ele>159</ele>
        <time>2016-02-24T15:20:39Z</time>
      </trkpt>
      <trkpt lat="45.05991" lon="4.9755">
        <ele>159</ele>
        <time>2016-02-24T15:22:39Z</time>
      </trkpt>
      <trkpt lat="45.05991" lon="4.9755">
        <ele>159</ele>
        <time>2016-02-24T15:24:39Z</time>
      </trkpt>
      <trkpt lat="45.05986" lon="4.97525">
        <ele>159</ele>
        <time>2016-02-24T15:26:39Z</time>
      </trkpt>
      <trkpt lat="45.05979" lon="4.97494">
        <ele>159</ele>
        <time>2016-02-24T15:28:39Z</time>
      </trkpt>
      <trkpt lat="45.05978" lon="4.97485">
        <ele>159</ele>
        <time>2016-02-24T15:30:39Z</time>
      </trkpt>
      <trkpt lat="45.05975" lon="4.97473">
        <ele>160</ele>
        <time>2016-02-24T15:32:39Z</time>
      </trkpt>
      <trkpt lat="45.05974" lon="4.97468">
        <ele>160</ele>
        <time>2016-02-24T15:34:39Z</time>
      </trkpt>
      <trkpt lat="45.05966" lon="4.9743">
        <ele>161</ele>
        <time>2016-02-24T15:36:39Z</time>
      </trkpt>
      <trkpt lat="45.05959" lon="4.97394">
        <ele>162</ele>
        <time>2016-02-24T15:38:39Z</time>
      </trkpt>
      <trkpt lat="45.05954" lon="4.97369">
        <ele>162</ele>
        <time>2016-02-24T15:40:39Z</time>
      </trkpt>
      <trkpt lat="45.05952" lon="4.97363">
        <ele>162</ele>
        <time>2016-02-24T15:42:39Z</time>
      </trkpt>
      <trkpt lat="45.05951" lon="4.9736">
        <ele>162</ele>
        <time>2016-02-24T15:44:39Z</time>
      </trkpt>
      <trkpt lat="45.05951" lon="4.97356">
        <ele>163</ele>
        <time>2016-02-24T15:46:39Z</time>
      </trkpt>
      <trkpt lat="45.0595" lon="4.9735">
        <ele>163</ele>
        <time>2016-02-24T15:48:39Z</time>
      </trkpt>
      <trkpt lat="45.05948" lon="4.97339">
        <ele>163</ele>
        <time>2016-02-24T15:50:39Z</time>
      </trkpt>
      <trkpt lat="45.05942" lon="4.9732">
        <ele>163</ele>
        <time>2016-02-24T15:52:39Z</time>
      </trkpt>
      <trkpt lat="45.0594" lon="4.97314">
        <ele>163</ele>
        <time>2016-02-24T15:54:39Z</time>
      </trkpt>
      <trkpt lat="45.05934" lon="4.97298">
        <ele>164</ele>
        <time>2016-02-24T15:56:39Z</time>
      </trkpt>
      <trkpt lat="45.05921" lon="4.97272">
        <ele>164</ele>
        <time>2016-02-24T15:58:39Z</time>
      </trkpt>
      <trkpt lat="45.05909" lon="4.9725">
        <ele>163</ele>
        <time>2016-02-24T16:00:39Z</time>
      </trkpt>
      <trkpt lat="45.059" lon="4.9723">
        <ele>164</ele>
        <time>2016-02-24T16:02:39Z</time>
      </trkpt>
      <trkpt lat="45.05893" lon="4.97217">
        <ele>164</ele>
        <time>2016-02-24T16:04:39Z</time>
      </trkpt>
      <trkpt lat="45.0589" lon="4.97212">
        <ele>164</ele>
        <time>2016-02-24T16:06:39Z</time>
      </trkpt>
      <trkpt lat="45.05887" lon="4.97205">
        <ele>164</ele>
        <time>2016-02-24T16:08:39Z</time>
      </trkpt>
      <trkpt lat="45.05884" lon="4.97199">
        <ele>164</ele>
        <time>2016-02-24T16:10:39Z</time>
      </trkpt>
      <trkpt lat="45.05881" lon="4.97194">
        <ele>164</ele>
        <time>2016-02-24T16:12:39Z</time>
      </trkpt>
      <trkpt lat="45.05875" lon="4.97182">
        <ele>164</ele>
        <time>2016-02-24T16:14:39Z</time>
      </trkpt>
      <trkpt lat="45.05867" lon="4.97167">
        <ele>163</ele>
        <time>2016-02-24T16:16:39Z</time>
      </trkpt>
      <trkpt lat="45.05851" lon="4.97135">
        <ele>163</ele>
        <time>2016-02-24T16:18:39Z</time>
      </trkpt>
      <trkpt lat="45.05833" lon="4.97099">
        <ele>162</ele>
        <time>2016-02-24T16:20:39Z</time>
      </trkpt>
      <trkpt lat="45.05823" lon="4.97078">
        <ele>162</ele>
        <time>2016-02-24T16:22:39Z</time>
      </trkpt>
      <trkpt lat="45.0582" lon="4.97071">
        <ele>162</ele>
        <time>2016-02-24T16:24:39Z</time>
      </trkpt>
      <trkpt lat="45.05807" lon="4.97042">
        <ele>162</ele>
        <time>2016-02-24T16:26:39Z</time>
      </trkpt>
      <trkpt lat="45.05793" lon="4.97007">
        <ele>161</ele>
        <time>2016-02-24T16:28:39Z</time>
      </trkpt>
      <trkpt lat="45.0578" lon="4.9697">
        <ele>160</ele>
        <time>2016-02-24T16:30:39Z</time>
      </trkpt>
      <trkpt lat="45.05775" lon="4.96956">
        <ele>159</ele>
        <time>2016-02-24T16:32:39Z</time>
      </trkpt>
      <trkpt lat="45.05768" lon="4.96929">
        <ele>158</ele>
        <time>2016-02-24T16:34:39Z</time>
      </trkpt>
      <trkpt lat="45.05763" lon="4.96912">
        <ele>158</ele>
        <time>2016-02-24T16:36:39Z</time>
      </trkpt>
      <trkpt lat="45.05762" lon="4.96902">
        <ele>158</ele>
        <time>2016-02-24T16:38:39Z</time>
      </trkpt>
      <trkpt lat="45.05761" lon="4.96892">
        <ele>158</ele>
        <time>2016-02-24T16:40:39Z</time>
      </trkpt>
      <trkpt lat="45.05761" lon="4.96892">
        <ele>158</ele>
        <time>2016-02-24T16:42:39Z</time>
      </trkpt>
      <trkpt lat="45.05768" lon="4.96889">
        <ele>159</ele>
        <time>2016-02-24T16:44:39Z</time>
      </trkpt>
      <trkpt lat="45.05771" lon="4.96887">
        <ele>160</ele>
        <time>2016-02-24T16:46:39Z</time>
      </trkpt>
      <trkpt lat="45.05773" lon="4.96885">
        <ele>160</ele>
        <time>2016-02-24T16:48:39Z</time>
      </trkpt>
      <trkpt lat="45.05775" lon="4.96881">
        <ele>160</ele>
        <time>2016-02-24T16:50:39Z</time>
      </trkpt>
      <trkpt lat="45.05776" lon="4.96877">
        <ele>161</ele>
        <time>2016-02-24T16:52:39Z</time>
      </trkpt>
      <trkpt lat="45.05777" lon="4.96872">
        <ele>161</ele>
        <time>2016-02-24T16:54:39Z</time>
      </trkpt>
      <trkpt lat="45.05781" lon="4.96858">
        <ele>162</ele>
        <time>2016-02-24T16:56:39Z</time>
      </trkpt>
      <trkpt lat="45.05784" lon="4.96842">
        <ele>162</ele>
        <time>2016-02-24T16:58:39Z</time>
      </trkpt>
      <trkpt lat="45.05796" lon="4.96805">
        <ele>163</ele>
        <time>2016-02-24T17:00:39Z</time>
      </trkpt>
      <trkpt lat="45.0581" lon="4.96764">
        <ele>164</ele>
        <time>2016-02-24T17:02:39Z</time>
      </trkpt>
      <trkpt lat="45.05826" lon="4.96723">
        <ele>163</ele>
        <time>2016-02-24T17:04:39Z</time>
      </trkpt>
      <trkpt lat="45.05843" lon="4.96683">
        <ele>163</ele>
        <time>2016-02-24T17:06:39Z</time>
      </trkpt>
      <trkpt lat="45.05848" lon="4.96672">
        <ele>163</ele>
        <time>2016-02-24T17:08:39Z</time>
      </trkpt>
      <trkpt lat="45.0585" lon="4.96666">
        <ele>162</ele>
        <time>2016-02-24T17:10:39Z</time>
      </trkpt>
      <trkpt lat="45.05864" lon="4.96638">
        <ele>163</ele>
        <time>2016-02-24T17:12:39Z</time>
      </trkpt>
      <trkpt lat="45.05873" lon="4.96624">
        <ele>164</ele>
        <time>2016-02-24T17:14:39Z</time>
      </trkpt>
      <trkpt lat="45.05875" lon="4.9662">
        <ele>164</ele>
        <time>2016-02-24T17:16:39Z</time>
      </trkpt>
      <trkpt lat="45.05879" lon="4.96613">
        <ele>164</ele>
        <time>2016-02-24T17:18:39Z</time>
      </trkpt>
      <trkpt lat="45.05882" lon="4.96609">
        <ele>164</ele>
        <time>2016-02-24T17:20:39Z</time>
      </trkpt>
      <trkpt lat="45.05896" lon="4.96589">
        <ele>164</ele>
        <time>2016-02-24T17:22:39Z</time>
      </trkpt>
      <trkpt lat="45.05899" lon="4.96584">
        <ele>164</ele>
        <time>2016-02-24T17:24:39Z</time>
      </trkpt>
      <trkpt lat="45.05919" lon="4.96559">
        <ele>164</ele>
        <time>2016-02-24T17:26:39Z</time>
      </trkpt>
      <trkpt lat="45.05938" lon="4.96537">
        <ele>164</ele>
        <time>2016-02-24T17:28:39Z</time>
      </trkpt>
      <trkpt lat="45.05955" lon="4.96518">
        <ele>164</ele>
        <time>2016-02-24T17:30:39Z</time>
      </trkpt>
      <trkpt lat="45.05973" lon="4.96498">
        <ele>163</ele>
        <time>2016-02-24T17:32:39Z</time>
      </trkpt>
      <trkpt lat="45.0599" lon="4.96479">
        <ele>163</ele>
        <time>2016-02-24T17:34:39Z</time>
      </trkpt>
      <trkpt lat="45.05994" lon="4.96468">
        <ele>162</ele>
        <time>2016-02-24T17:36:39Z</time>
      </trkpt>
      <trkpt lat="45.05995" lon="4.96459">
        <ele>162</ele>
        <time>2016-02-24T17:38:39Z</time>
      </trkpt>
      <trkpt lat="45.05995" lon="4.96445">
        <ele>161</ele>
        <time>2016-02-24T17:40:39Z</time>
      </trkpt>
      <trkpt lat="45.05995" lon="4.96445">
        <ele>161</ele>
        <time>2016-02-24T17:42:39Z</time>
      </trkpt>
      <trkpt lat="45.0601" lon="4.96446">
        <ele>161</ele>
        <time>2016-02-24T17:44:39Z</time>
      </trkpt>
      <trkpt lat="45.06019" lon="4.96446">
        <ele>160</ele>
        <time>2016-02-24T17:46:39Z</time>
      </trkpt>
      <trkpt lat="45.06028" lon="4.96446">
        <ele>160</ele>
        <time>2016-02-24T17:48:39Z</time>
      </trkpt>
      <trkpt lat="45.06069" lon="4.96444">
        <ele>159</ele>
        <time>2016-02-24T17:50:39Z</time>
      </trkpt>
      <trkpt lat="45.06071" lon="4.96443">
        <ele>159</ele>
        <time>2016-02-24T17:52:39Z</time>
      </trkpt>
      <trkpt lat="45.06082" lon="4.96442">
        <ele>159</ele>
        <time>2016-02-24T17:54:39Z</time>
      </trkpt>
      <trkpt lat="45.06117" lon="4.96437">
        <ele>160</ele>
        <time>2016-02-24T17:56:39Z</time>
      </trkpt>
      <trkpt lat="45.06156" lon="4.96428">
        <ele>162</ele>
        <time>2016-02-24T17:58:39Z</time>
      </trkpt>
      <trkpt lat="45.06181" lon="4.96419">
        <ele>162</ele>
        <time>2016-02-24T18:00:39Z</time>
      </trkpt>
      <trkpt lat="45.06206" lon="4.96409">
        <ele>163</ele>
        <time>2016-02-24T18:02:39Z</time>
      </trkpt>
      <trkpt lat="45.06243" lon="4.96391">
        <ele>163</ele>
        <time>2016-02-24T18:04:39Z</time>
      </trkpt>
      <trkpt lat="45.06271" lon="4.9638">
        <ele>162</ele>
        <time>2016-02-24T18:06:39Z</time>
      </trkpt>
      <trkpt lat="45.06292" lon="4.96375">
        <ele>162</ele>
        <time>2016-02-24T18:08:39Z</time>
      </trkpt>
      <trkpt lat="45.06335" lon="4.96371">
        <ele>162</ele>
        <time>2016-02-24T18:10:39Z</time>
      </trkpt>
      <trkpt lat="45.06372" lon="4.9637">
        <ele>160</ele>
        <time>2016-02-24T18:12:39Z</time>
      </trkpt>
      <trkpt lat="45.06419" lon="4.9637">
        <ele>158</ele>
        <time>2016-02-24T18:14:39Z</time>
      </trkpt>
      <trkpt lat="45.06459" lon="4.96368">
        <ele>157</ele>
        <time>2016-02-24T18:16:39Z</time>
      </trkpt>
      <trkpt lat="45.06478" lon="4.96368">
        <ele>156</ele>
        <time>2016-02-24T18:18:39Z</time>
      </trkpt>
      <trkpt lat="45.06498" lon="4.96366">
        <ele>155</ele>
        <time>2016-02-24T18:20:39Z</time>
      </trkpt>
      <trkpt lat="45.06519" lon="4.96362">
        <ele>156</ele>
        <time>2016-02-24T18:22:39Z</time>
      </trkpt>
      <trkpt lat="45.06526" lon="4.9636">
        <ele>157</ele>
        <time>2016-02-24T18:24:39Z</time>
      </trkpt>
      <trkpt lat="45.06547" lon="4.96352">
        <ele>157</ele>
        <time>2016-02-24T18:26:39Z</time>
      </trkpt>
      <trkpt lat="45.06565" lon="4.96344">
        <ele>157</ele>
        <time>2016-02-24T18:28:39Z</time>
      </trkpt>
      <trkpt lat="45.06584" lon="4.96334">
        <ele>156</ele>
        <time>2016-02-24T18:30:39Z</time>
      </trkpt>
      <trkpt lat="45.06632" lon="4.96304">
        <ele>156</ele>
        <time>2016-02-24T18:32:39Z</time>
      </trkpt>
      <trkpt lat="45.06642" lon="4.96297">
        <ele>156</ele>
        <time>2016-02-24T18:34:39Z</time>
      </trkpt>
      <trkpt lat="45.06651" lon="4.96291">
        <ele>156</ele>
        <time>2016-02-24T18:36:39Z</time>
      </trkpt>
      <trkpt lat="45.06681" lon="4.96273">
        <ele>155</ele>
        <time>2016-02-24T18:38:39Z</time>
      </trkpt>
      <trkpt lat="45.06692" lon="4.96268">
        <ele>156</ele>
        <time>2016-02-24T18:40:39Z</time>
      </trkpt>
      <trkpt lat="45.06723" lon="4.96254">
        <ele>156</ele>
        <time>2016-02-24T18:42:39Z</time>
      </trkpt>
      <trkpt lat="45.06755" lon="4.96242">
        <ele>157</ele>
        <time>2016-02-24T18:44:39Z</time>
      </trkpt>
      <trkpt lat="45.06775" lon="4.96233">
        <ele>157</ele>
        <time>2016-02-24T18:46:39Z</time>
      </trkpt>
      <trkpt lat="45.06784" lon="4.96228">
        <ele>158</ele>
        <time>2016-02-24T18:48:39Z</time>
      </trkpt>
      <trkpt lat="45.06791" lon="4.96221">
        <ele>158</ele>
        <time>2016-02-24T18:50:39Z</time>
      </trkpt>
      <trkpt lat="45.06806" lon="4.96203">
        <ele>158</ele>
        <time>2016-02-24T18:52:39Z</time>
      </trkpt>
      <trkpt lat="45.06815" lon="4.96191">
        <ele>159</ele>
        <time>2016-02-24T18:54:39Z</time>
      </trkpt>
      <trkpt lat="45.0682" lon="4.96182">
        <ele>159</ele>
        <time>2016-02-24T18:56:39Z</time>
      </trkpt>
      <trkpt lat="45.06827" lon="4.96169">
        <ele>159</ele>
        <time>2016-02-24T18:58:39Z</time>
      </trkpt>
      <trkpt lat="45.06841" lon="4.96145">
        <ele>160</ele>
        <time>2016-02-24T19:00:39Z</time>
      </trkpt>
      <trkpt lat="45.06851" lon="4.96126">
        <ele>159</ele>
        <time>2016-02-24T19:02:39Z</time>
      </trkpt>
      <trkpt lat="45.06861" lon="4.96109">
        <ele>159</ele>
        <time>2016-02-24T19:04:39Z</time>
      </trkpt>
      <trkpt lat="45.06867" lon="4.96099">
        <ele>159</ele>
        <time>2016-02-24T19:06:39Z</time>
      </trkpt>
      <trkpt lat="45.06871" lon="4.96093">
        <ele>158</ele>
        <time>2016-02-24T19:08:39Z</time>
      </trkpt>
      <trkpt lat="45.06883" lon="4.96078">
        <ele>158</ele>
        <time>2016-02-24T19:10:39Z</time>
      </trkpt>
      <trkpt lat="45.06899" lon="4.96061">
        <ele>158</ele>
        <time>2016-02-24T19:12:39Z</time>
      </trkpt>
      <trkpt lat="45.06923" lon="4.96039">
        <ele>157</ele>
        <time>2016-02-24T19:14:39Z</time>
      </trkpt>
      <trkpt lat="45.06933" lon="4.96033">
        <ele>157</ele>
        <time>2016-02-24T19:16:39Z</time>
      </trkpt>
      <trkpt lat="45.06956" lon="4.96017">
        <ele>157</ele>
        <time>2016-02-24T19:18:39Z</time>
      </trkpt>
      <trkpt lat="45.0696" lon="4.96014">
        <ele>157</ele>
        <time>2016-02-24T19:20:39Z</time>
      </trkpt>
      <trkpt lat="45.06984" lon="4.95998">
        <ele>157</ele>
        <time>2016-02-24T19:22:39Z</time>
      </trkpt>
      <trkpt lat="45.07008" lon="4.95982">
        <ele>158</ele>
        <time>2016-02-24T19:24:39Z</time>
      </trkpt>
      <trkpt lat="45.07031" lon="4.95968">
        <ele>158</ele>
        <time>2016-02-24T19:26:39Z</time>
      </trkpt>
      <trkpt lat="45.07055" lon="4.95951">
        <ele>158</ele>
        <time>2016-02-24T19:28:39Z</time>
      </trkpt>
      <trkpt lat="45.07063" lon="4.95945">
        <ele>158</ele>
        <time>2016-02-24T19:30:39Z</time>
      </trkpt>
      <trkpt lat="45.0708" lon="4.9593">
        <ele>157</ele>
        <time>2016-02-24T19:32:39Z</time>
      </trkpt>
      <trkpt lat="45.07119" lon="4.95892">
        <ele>156</ele>
        <time>2016-02-24T19:34:39Z</time>
      </trkpt>
      <trkpt lat="45.07126" lon="4.95886">
        <ele>156</ele>
        <time>2016-02-24T19:36:39Z</time>
      </trkpt>
      <trkpt lat="45.07134" lon="4.95881">
        <ele>156</ele>
        <time>2016-02-24T19:38:39Z</time>
      </trkpt>
      <trkpt lat="45.07141" lon="4.95876">
        <ele>156</ele>
        <time>2016-02-24T19:40:39Z</time>
      </trkpt>
      <trkpt lat="45.0715" lon="4.95872">
        <ele>156</ele>
        <time>2016-02-24T19:42:39Z</time>
      </trkpt>
      <trkpt lat="45.07169" lon="4.95864">
        <ele>156</ele>
        <time>2016-02-24T19:44:39Z</time>
      </trkpt>
      <trkpt lat="45.07194" lon="4.95855">
        <ele>157</ele>
        <time>2016-02-24T19:46:39Z</time>
      </trkpt>
      <trkpt lat="45.0721" lon="4.95849">
        <ele>157</ele>
        <time>2016-02-24T19:48:39Z</time>
      </trkpt>
      <trkpt lat="45.07229" lon="4.95845">
        <ele>158</ele>
        <time>2016-02-24T19:50:39Z</time>
      </trkpt>
      <trkpt lat="45.07247" lon="4.95844">
        <ele>159</ele>
        <time>2016-02-24T19:52:39Z</time>
      </trkpt>
      <trkpt lat="45.07269" lon="4.95847">
        <ele>159</ele>
        <time>2016-02-24T19:54:39Z</time>
      </trkpt>
      <trkpt lat="45.07289" lon="4.95852">
        <ele>160</ele>
        <time>2016-02-24T19:56:39Z</time>
      </trkpt>
      <trkpt lat="45.07314" lon="4.95859">
        <ele>161</ele>
        <time>2016-02-24T19:58:39Z</time>
      </trkpt>
      <trkpt lat="45.07348" lon="4.95864">
        <ele>162</ele>
        <time>2016-02-24T20:00:39Z</time>
      </trkpt>
      <trkpt lat="45.07377" lon="4.95868">
        <ele>162</ele>
        <time>2016-02-24T20:02:39Z</time>
      </trkpt>
      <trkpt lat="45.07393" lon="4.95868">
        <ele>162</ele>
        <time>2016-02-24T20:04:39Z</time>
      </trkpt>
      <trkpt lat="45.07396" lon="4.95868">
        <ele>162</ele>
        <time>2016-02-24T20:06:39Z</time>
      </trkpt>
      <trkpt lat="45.07406" lon="4.95868">
        <ele>163</ele>
        <time>2016-02-24T20:08:39Z</time>
      </trkpt>
      <trkpt lat="45.07434" lon="4.95865">
        <ele>162</ele>
        <time>2016-02-24T20:10:39Z</time>
      </trkpt>
      <trkpt lat="45.07457" lon="4.95861">
        <ele>162</ele>
        <time>2016-02-24T20:12:39Z</time>
      </trkpt>
      <trkpt lat="45.07467" lon="4.95859">
        <ele>161</ele>
        <time>2016-02-24T20:14:39Z</time>
      </trkpt>
      <trkpt lat="45.0747" lon="4.95859">
        <ele>161</ele>
        <time>2016-02-24T20:16:39Z</time>
      </trkpt>
      <trkpt lat="45.07472" lon="4.95858">
        <ele>161</ele>
        <time>2016-02-24T20:18:39Z</time>
      </trkpt>
      <trkpt lat="45.0748" lon="4.95856">
        <ele>161</ele>
        <time>2016-02-24T20:20:39Z</time>
      </trkpt>
      <trkpt lat="45.07492" lon="4.95853">
        <ele>161</ele>
        <time>2016-02-24T20:22:39Z</time>
      </trkpt>
      <trkpt lat="45.07523" lon="4.95846">
        <ele>161</ele>
        <time>2016-02-24T20:24:39Z</time>
      </trkpt>
      <trkpt lat="45.07524" lon="4.95845">
        <ele>161</ele>
        <time>2016-02-24T20:26:39Z</time>
      </trkpt>
      <trkpt lat="45.07547" lon="4.95842">
        <ele>161</ele>
        <time>2016-02-24T20:28:39Z</time>
      </trkpt>
      <trkpt lat="45.07563" lon="4.9584">
        <ele>161</ele>
        <time>2016-02-24T20:30:39Z</time>
      </trkpt>
      <trkpt lat="45.07565" lon="4.95839">
        <ele>161</ele>
        <time>2016-02-24T20:32:39Z</time>
      </trkpt>
      <trkpt lat="45.07591" lon="4.95836">
        <ele>161</ele>
        <time>2016-02-24T20:34:39Z</time>
      </trkpt>
      <trkpt lat="45.07622" lon="4.95833">
        <ele>161</ele>
        <time>2016-02-24T20:36:39Z</time>
      </trkpt>
      <trkpt lat="45.07628" lon="4.95833">
        <ele>162</ele>
        <time>2016-02-24T20:38:39Z</time>
      </trkpt>
      <trkpt lat="45.07657" lon="4.95833">
        <ele>162</ele>
        <time>2016-02-24T20:40:39Z</time>
      </trkpt>
      <trkpt lat="45.07678" lon="4.95833">
        <ele>162</ele>
        <time>2016-02-24T20:42:39Z</time>
      </trkpt>
      <trkpt lat="45.07724" lon="4.95834">
        <ele>163</ele>
        <time>2016-02-24T20:44:39Z</time>
      </trkpt>
      <trkpt lat="45.07749" lon="4.95826">
        <ele>164</ele>
        <time>2016-02-24T20:46:39Z</time>
      </trkpt>
      <trkpt lat="45.07754" lon="4.95825">
        <ele>163</ele>
        <time>2016-02-24T20:48:39Z</time>
      </trkpt>
      <trkpt lat="45.07759" lon="4.95824">
        <ele>163</ele>
        <time>2016-02-24T20:50:39Z</time>
      </trkpt>
      <trkpt lat="45.07767" lon="4.95825">
        <ele>163</ele>
        <time>2016-02-24T20:52:39Z</time>
      </trkpt>
      <trkpt lat="45.07772" lon="4.95825">
        <ele>163</ele>
        <time>2016-02-24T20:54:39Z</time>
      </trkpt>
      <trkpt lat="45.07801" lon="4.95831">
        <ele>163</ele>
        <time>2016-02-24T20:56:39Z</time>
      </trkpt>
      <trkpt lat="45.07825" lon="4.95835">
        <ele>163</ele>
        <time>2016-02-24T20:58:39Z</time>
      </trkpt>
      <trkpt lat="45.0785" lon="4.95841">
        <ele>164</ele>
        <time>2016-02-24T21:00:39Z</time>
      </trkpt>
      <trkpt lat="45.07882" lon="4.95851">
        <ele>164</ele>
        <time>2016-02-24T21:02:39Z</time>
      </trkpt>
      <trkpt lat="45.0791" lon="4.95856">
        <ele>164</ele>
        <time>2016-02-24T21:04:39Z</time>
      </trkpt>
      <trkpt lat="45.0795" lon="4.95863">
        <ele>166</ele>
        <time>2016-02-24T21:06:39Z</time>
      </trkpt>
      <trkpt lat="45.07977" lon="4.95863">
        <ele>166</ele>
        <time>2016-02-24T21:08:39Z</time>
      </trkpt>
      <trkpt lat="45.07988" lon="4.95863">
        <ele>166</ele>
        <time>2016-02-24T21:10:39Z</time>
      </trkpt>
      <trkpt lat="45.07993" lon="4.95863">
        <ele>167</ele>
        <time>2016-02-24T21:12:39Z</time>
      </trkpt>
      <trkpt lat="45.08001" lon="4.95855">
        <ele>166</ele>
        <time>2016-02-24T21:14:39Z</time>
      </trkpt>
      <trkpt lat="45.08001" lon="4.95855">
        <ele>166</ele>
        <time>2016-02-24T21:16:39Z</time>
      </trkpt>
      <trkpt lat="45.08002" lon="4.95859">
        <ele>167</ele>
        <time>2016-02-24T21:18:39Z</time>
      </trkpt>
      <trkpt lat="45.08004" lon="4.95862">
        <ele>167</ele>
        <time>2016-02-24T21:20:39Z</time>
      </trkpt>
      <trkpt lat="45.08006" lon="4.95864">
        <ele>167</ele>
        <time>2016-02-24T21:22:39Z</time>
      </trkpt>
      <trkpt lat="45.08009" lon="4.95866">
        <ele>167</ele>
        <time>2016-02-24T21:24:39Z</time>
      </trkpt>
      <trkpt lat="45.08012" lon="4.95867">
        <ele>168</ele>
        <time>2016-02-24T21:26:39Z</time>
      </trkpt>
      <trkpt lat="45.08015" lon="4.95867">
        <ele>168</ele>
        <time>2016-02-24T21:28:39Z</time>
      </trkpt>
      <trkpt lat="45.08024" lon="4.95866">
        <ele>168</ele>
        <time>2016-02-24T21:30:39Z</time>
      </trkpt>
      <trkpt lat="45.08036" lon="4.95866">
        <ele>168</ele>
        <time>2016-02-24T21:32:39Z</time>
      </trkpt>
      <trkpt lat="45.08052" lon="4.95869">
        <ele>170</ele>
        <time>2016-02-24T21:34:39Z</time>
      </trkpt>
      <trkpt lat="45.08062" lon="4.95867">
        <ele>170</ele>
        <time>2016-02-24T21:36:39Z</time>
      </trkpt>
      <trkpt lat="45.08085" lon="4.95869">
        <ele>171</ele>
        <time>2016-02-24T21:38:39Z</time>
      </trkpt>
      <trkpt lat="45.08107" lon="4.9587">
        <ele>172</ele>
        <time>2016-02-24T21:40:39Z</time>
      </trkpt>
      <trkpt lat="45.08126" lon="4.95875">
        <ele>174</ele>
        <time>2016-02-24T21:42:39Z</time>
      </trkpt>
      <trkpt lat="45.08139" lon="4.9588">
        <ele>176</ele>
        <time>2016-02-24T21:44:39Z</time>
      </trkpt>
      <trkpt lat="45.08142" lon="4.95881">
        <ele>176</ele>
        <time>2016-02-24T21:46:39Z</time>
      </trkpt>
      <trkpt lat="45.08157" lon="4.95886">
        <ele>178</ele>
        <time>2016-02-24T21:48:39Z</time>
      </trkpt>
      <trkpt lat="45.0818" lon="4.95895">
        <ele>180</ele>
        <time>2016-02-24T21:50:39Z</time>
      </trkpt>
      <trkpt lat="45.08206" lon="4.95904">
        <ele>182</ele>
        <time>2016-02-24T21:52:39Z</time>
      </trkpt>
      <trkpt lat="45.08228" lon="4.95908">
        <ele>183</ele>
        <time>2016-02-24T21:54:39Z</time>
      </trkpt>
      <trkpt lat="45.08232" lon="4.95909">
        <ele>184</ele>
        <time>2016-02-24T21:56:39Z</time>
      </trkpt>
      <trkpt lat="45.08253" lon="4.95909">
        <ele>184</ele>
        <time>2016-02-24T21:58:39Z</time>
      </trkpt>
      <trkpt lat="45.08263" lon="4.95909">
        <ele>185</ele>
        <time>2016-02-24T22:00:39Z</time>
      </trkpt>
      <trkpt lat="45.08271" lon="4.95907">
        <ele>186</ele>
        <time>2016-02-24T22:02:39Z</time>
      </trkpt>
      <trkpt lat="45.08281" lon="4.959">
        <ele>185</ele>
        <time>2016-02-24T22:04:39Z</time>
      </trkpt>
      <trkpt lat="45.08293" lon="4.95887">
        <ele>183</ele>
        <time>2016-02-24T22:06:39Z</time>
      </trkpt>
      <trkpt lat="45.08308" lon="4.95868">
        <ele>180</ele>
        <time>2016-02-24T22:08:39Z</time>
      </trkpt>
      <trkpt lat="45.0832" lon="4.95852">
        <ele>177</ele>
        <time>2016-02-24T22:10:39Z</time>
      </trkpt>
      <trkpt lat="45.08328" lon="4.95844">
        <ele>175</ele>
        <time>2016-02-24T22:12:39Z</time>
      </trkpt>
      <trkpt lat="45.08339" lon="4.95835">
        <ele>173</ele>
        <time>2016-02-24T22:14:39Z</time>
      </trkpt>
      <trkpt lat="45.0835" lon="4.9583">
        <ele>173</ele>
        <time>2016-02-24T22:16:39Z</time>
      </trkpt>
      <trkpt lat="45.08363" lon="4.95827">
        <ele>174</ele>
        <time>2016-02-24T22:18:39Z</time>
      </trkpt>
      <trkpt lat="45.08373" lon="4.95825">
        <ele>175</ele>
        <time>2016-02-24T22:20:39Z</time>
      </trkpt>
      <trkpt lat="45.08387" lon="4.95822">
        <ele>176</ele>
        <time>2016-02-24T22:22:39Z</time>
      </trkpt>
      <trkpt lat="45.08395" lon="4.95819">
        <ele>176</ele>
        <time>2016-02-24T22:24:39Z</time>
      </trkpt>
      <trkpt lat="45.08404" lon="4.95814">
        <ele>176</ele>
        <time>2016-02-24T22:26:39Z</time>
      </trkpt>
      <trkpt lat="45.08415" lon="4.95807">
        <ele>175</ele>
        <time>2016-02-24T22:28:39Z</time>
      </trkpt>
      <trkpt lat="45.08428" lon="4.95798">
        <ele>175</ele>
        <time>2016-02-24T22:30:39Z</time>
      </trkpt>
      <trkpt lat="45.08439" lon="4.95794">
        <ele>175</ele>
        <time>2016-02-24T22:32:39Z</time>
      </trkpt>
      <trkpt lat="45.08452" lon="4.95789">
        <ele>174</ele>
        <time>2016-02-24T22:34:39Z</time>
      </trkpt>
      <trkpt lat="45.08472" lon="4.95784">
        <ele>175</ele>
        <time>2016-02-24T22:36:39Z</time>
      </trkpt>
      <trkpt lat="45.0849" lon="4.95779">
        <ele>175</ele>
        <time>2016-02-24T22:38:39Z</time>
      </trkpt>
      <trkpt lat="45.08505" lon="4.9577">
        <ele>174</ele>
        <time>2016-02-24T22:40:39Z</time>
      </trkpt>
      <trkpt lat="45.08523" lon="4.95758">
        <ele>172</ele>
        <time>2016-02-24T22:42:39Z</time>
      </trkpt>
      <trkpt lat="45.08532" lon="4.95753">
        <ele>172</ele>
        <time>2016-02-24T22:44:39Z</time>
      </trkpt>
      <trkpt lat="45.0855" lon="4.95747">
        <ele>172</ele>
        <time>2016-02-24T22:46:39Z</time>
      </trkpt>
      <trkpt lat="45.08573" lon="4.95744">
        <ele>172</ele>
        <time>2016-02-24T22:48:39Z</time>
      </trkpt>
      <trkpt lat="45.08592" lon="4.95743">
        <ele>173</ele>
        <time>2016-02-24T22:50:39Z</time>
      </trkpt>
      <trkpt lat="45.08599" lon="4.95743">
        <ele>173</ele>
        <time>2016-02-24T22:52:39Z</time>
      </trkpt>
      <trkpt lat="45.08605" lon="4.95738">
        <ele>173</ele>
        <time>2016-02-24T22:54:39Z</time>
      </trkpt>
      <trkpt lat="45.08612" lon="4.95739">
        <ele>174</ele>
        <time>2016-02-24T22:56:39Z</time>
      </trkpt>
      <trkpt lat="45.08639" lon="4.95738">
        <ele>176</ele>
        <time>2016-02-24T22:58:39Z</time>
      </trkpt>
      <trkpt lat="45.08663" lon="4.95734">
        <ele>176</ele>
        <time>2016-02-24T23:00:39Z</time>
      </trkpt>
      <trkpt lat="45.08688" lon="4.95731">
        <ele>176</ele>
        <time>2016-02-24T23:02:39Z</time>
      </trkpt>
      <trkpt lat="45.08707" lon="4.95726">
        <ele>175</ele>
        <time>2016-02-24T23:04:39Z</time>
      </trkpt>
      <trkpt lat="45.08721" lon="4.95725">
        <ele>175</ele>
        <time>2016-02-24T23:06:39Z</time>
      </trkpt>
      <trkpt lat="45.08743" lon="4.95724">
        <ele>175</ele>
        <time>2016-02-24T23:08:39Z</time>
      </trkpt>
      <trkpt lat="45.08766" lon="4.95725">
        <ele>174</ele>
        <time>2016-02-24T23:10:39Z</time>
      </trkpt>
      <trkpt lat="45.08786" lon="4.95722">
        <ele>173</ele>
        <time>2016-02-24T23:12:39Z</time>
      </trkpt>
      <trkpt lat="45.08797" lon="4.95721">
        <ele>172</ele>
        <time>2016-02-24T23:14:39Z</time>
      </trkpt>
      <trkpt lat="45.08797" lon="4.95721">
        <ele>172</ele>
        <time>2016-02-24T23:16:39Z</time>
      </trkpt>
      <trkpt lat="45.08808" lon="4.95716">
        <ele>172</ele>
        <time>2016-02-24T23:18:39Z</time>
      </trkpt>
      <trkpt lat="45.08834" lon="4.95704">
        <ele>170</ele>
        <time>2016-02-24T23:20:39Z</time>
      </trkpt>
      <trkpt lat="45.08842" lon="4.957">
        <ele>170</ele>
        <time>2016-02-24T23:22:39Z</time>
      </trkpt>
      <trkpt lat="45.08848" lon="4.957">
        <ele>171</ele>
        <time>2016-02-24T23:24:39Z</time>
      </trkpt>
      <trkpt lat="45.0885" lon="4.957">
        <ele>171</ele>
        <time>2016-02-24T23:26:39Z</time>
      </trkpt>
      <trkpt lat="45.08861" lon="4.95717">
        <ele>171</ele>
        <time>2016-02-24T23:28:39Z</time>
      </trkpt>
      <trkpt lat="45.08877" lon="4.95738">
        <ele>172</ele>
        <time>2016-02-24T23:30:39Z</time>
      </trkpt>
      <trkpt lat="45.08895" lon="4.95752">
        <ele>173</ele>
        <time>2016-02-24T23:32:39Z</time>
      </trkpt>
      <trkpt lat="45.08898" lon="4.95755">
        <ele>173</ele>
        <time>2016-02-24T23:34:39Z</time>
      </trkpt>
      <trkpt lat="45.08898" lon="4.95755">
        <ele>173</ele>
        <time>2016-02-24T23:36:39Z</time>
      </trkpt>
      <trkpt lat="45.08901" lon="4.9575">
        <ele>173</ele>
        <time>2016-02-24T23:38:39Z</time>
      </trkpt>
      <trkpt lat="45.08909" lon="4.95738">
        <ele>173</ele>
        <time>2016-02-24T23:40:39Z</time>
      </trkpt>
      <trkpt lat="45.08919" lon="4.95723">
        <ele>173</ele>
        <time>2016-02-24T23:42:39Z</time>
      </trkpt>
      <trkpt lat="45.08929" lon="4.95709">
        <ele>174</ele>
        <time>2016-02-24T23:44:39Z</time>
      </trkpt>
      <trkpt lat="45.08943" lon="4.95689">
        <ele>176</ele>
        <time>2016-02-24T23:46:39Z</time>
      </trkpt>
      <trkpt lat="45.08955" lon="4.95671">
        <ele>177</ele>
        <time>2016-02-24T23:48:39Z</time>
      </trkpt>
      <trkpt lat="45.08963" lon="4.95659">
        <ele>177</ele>
        <time>2016-02-24T23:50:39Z</time>
      </trkpt>
      <trkpt lat="45.08969" lon="4.9565">
        <ele>177</ele>
        <time>2016-02-24T23:52:39Z</time>
      </trkpt>
      <trkpt lat="45.08975" lon="4.95645">
        <ele>177</ele>
        <time>2016-02-24T23:54:39Z</time>
      </trkpt>
      <trkpt lat="45.08977" lon="4.95643">
        <ele>177</ele>
        <time>2016-02-24T23:56:39Z</time>
      </trkpt>
      <trkpt lat="45.08991" lon="4.95639">
        <ele>178</ele>
        <time>2016-02-24T23:58:39Z</time>
      </trkpt>
      <trkpt lat="45.08994" lon="4.95638">
        <ele>178</ele>
        <time>2016-02-25T00:00:39Z</time>
      </trkpt>
      <trkpt lat="45.09013" lon="4.95636">
        <ele>179</ele>
        <time>2016-02-25T00:02:39Z</time>
      </trkpt>
      <trkpt lat="45.09031" lon="4.95636">
        <ele>179</ele>
        <time>2016-02-25T00:04:39Z</time>
      </trkpt>
      <trkpt lat="45.09054" lon="4.95641">
        <ele>181</ele>
        <time>2016-02-25T00:06:39Z</time>
      </trkpt>
      <trkpt lat="45.09077" lon="4.95648">
        <ele>182</ele>
        <time>2016-02-25T00:08:39Z</time>
      </trkpt>
      <trkpt lat="45.09102" lon="4.95655">
        <ele>182</ele>
        <time>2016-02-25T00:10:39Z</time>
      </trkpt>
      <trkpt lat="45.09123" lon="4.9566">
        <ele>182</ele>
        <time>2016-02-25T00:12:39Z</time>
      </trkpt>
      <trkpt lat="45.0913" lon="4.95661">
        <ele>181</ele>
        <time>2016-02-25T00:14:39Z</time>
      </trkpt>
      <trkpt lat="45.0915" lon="4.95665">
        <ele>180</ele>
        <time>2016-02-25T00:16:39Z</time>
      </trkpt>
      <trkpt lat="45.0917" lon="4.9567">
        <ele>179</ele>
        <time>2016-02-25T00:18:39Z</time>
      </trkpt>
      <trkpt lat="45.09175" lon="4.95671">
        <ele>179</ele>
        <time>2016-02-25T00:20:39Z</time>
      </trkpt>
      <trkpt lat="45.09204" lon="4.95679">
        <ele>180</ele>
        <time>2016-02-25T00:22:39Z</time>
      </trkpt>
      <trkpt lat="45.09231" lon="4.95686">
        <ele>180</ele>
        <time>2016-02-25T00:24:39Z</time>
      </trkpt>
      <trkpt lat="45.09249" lon="4.95691">
        <ele>181</ele>
        <time>2016-02-25T00:26:39Z</time>
      </trkpt>
      <trkpt lat="45.09273" lon="4.957">
        <ele>181</ele>
        <time>2016-02-25T00:28:39Z</time>
      </trkpt>
      <trkpt lat="45.09294" lon="4.95711">
        <ele>182</ele>
        <time>2016-02-25T00:30:39Z</time>
      </trkpt>
      <trkpt lat="45.09307" lon="4.95719">
        <ele>183</ele>
        <time>2016-02-25T00:32:39Z</time>
      </trkpt>
      <trkpt lat="45.09322" lon="4.95726">
        <ele>184</ele>
        <time>2016-02-25T00:34:39Z</time>
      </trkpt>
      <trkpt lat="45.09338" lon="4.95733">
        <ele>184</ele>
        <time>2016-02-25T00:36:39Z</time>
      </trkpt>
      <trkpt lat="45.09356" lon="4.95738">
        <ele>184</ele>
        <time>2016-02-25T00:38:39Z</time>
      </trkpt>
      <trkpt lat="45.09382" lon="4.95746">
        <ele>183</ele>
        <time>2016-02-25T00:40:39Z</time>
      </trkpt>
      <trkpt lat="45.09403" lon="4.9575">
        <ele>182</ele>
        <time>2016-02-25T00:42:39Z</time>
      </trkpt>
      <trkpt lat="45.09424" lon="4.95755">
        <ele>182</ele>
        <time>2016-02-25T00:44:39Z</time>
      </trkpt>
      <trkpt lat="45.09444" lon="4.95763">
        <ele>182</ele>
        <time>2016-02-25T00:46:39Z</time>
      </trkpt>
      <trkpt lat="45.09464" lon="4.95773">
        <ele>184</ele>
        <time>2016-02-25T00:48:39Z</time>
      </trkpt>
      <trkpt lat="45.09481" lon="4.95784">
        <ele>185</ele>
        <time>2016-02-25T00:50:39Z</time>
      </trkpt>
      <trkpt lat="45.0949" lon="4.9579">
        <ele>186</ele>
        <time>2016-02-25T00:52:39Z</time>
      </trkpt>
      <trkpt lat="45.09497" lon="4.95795">
        <ele>186</ele>
        <time>2016-02-25T00:54:39Z</time>
      </trkpt>
      <trkpt lat="45.09502" lon="4.95798">
        <ele>187</ele>
        <time>2016-02-25T00:56:39Z</time>
      </trkpt>
      <trkpt lat="45.09519" lon="4.95808">
        <ele>188</ele>
        <time>2016-02-25T00:58:39Z</time>
      </trkpt>
      <trkpt lat="45.09544" lon="4.95821">
        <ele>188</ele>
        <time>2016-02-25T01:00:39Z</time>
      </trkpt>
      <trkpt lat="45.09588" lon="4.95838">
        <ele>187</ele>
        <time>2016-02-25T01:02:39Z</time>
      </trkpt>
      <trkpt lat="45.0961" lon="4.95846">
        <ele>187</ele>
        <time>2016-02-25T01:04:39Z</time>
      </trkpt>
      <trkpt lat="45.09616" lon="4.95851">
        <ele>187</ele>
        <time>2016-02-25T01:06:39Z</time>
      </trkpt>
      <trkpt lat="45.09622" lon="4.95855">
        <ele>187</ele>
        <time>2016-02-25T01:08:39Z</time>
      </trkpt>
      <trkpt lat="45.09644" lon="4.95868">
        <ele>187</ele>
        <time>2016-02-25T01:10:39Z</time>
      </trkpt>
      <trkpt lat="45.09676" lon="4.95887">
        <ele>187</ele>
        <time>2016-02-25T01:12:39Z</time>
      </trkpt>
      <trkpt lat="45.09725" lon="4.95918">
        <ele>185</ele>
        <time>2016-02-25T01:14:39Z</time>
      </trkpt>
      <trkpt lat="45.09772" lon="4.95945">
        <ele>186</ele>
        <time>2016-02-25T01:16:39Z</time>
      </trkpt>
      <trkpt lat="45.0981" lon="4.95969">
        <ele>187</ele>
        <time>2016-02-25T01:18:39Z</time>
      </trkpt>
      <trkpt lat="45.09836" lon="4.95985">
        <ele>187</ele>
        <time>2016-02-25T01:20:39Z</time>
      </trkpt>
      <trkpt lat="45.09845" lon="4.95991">
        <ele>187</ele>
        <time>2016-02-25T01:22:39Z</time>
      </trkpt>
      <trkpt lat="45.09845" lon="4.95991">
        <ele>187</ele>
        <time>2016-02-25T01:24:39Z</time>
      </trkpt>
      <trkpt lat="45.09855" lon="4.95998">
        <ele>187</ele>
        <time>2016-02-25T01:26:39Z</time>
      </trkpt>
      <trkpt lat="45.09865" lon="4.96005">
        <ele>186</ele>
        <time>2016-02-25T01:28:39Z</time>
      </trkpt>
      <trkpt lat="45.09873" lon="4.96011">
        <ele>186</ele>
        <time>2016-02-25T01:30:39Z</time>
      </trkpt>
      <trkpt lat="45.09881" lon="4.96018">
        <ele>187</ele>
        <time>2016-02-25T01:32:39Z</time>
      </trkpt>
      <trkpt lat="45.09886" lon="4.96023">
        <ele>187</ele>
        <time>2016-02-25T01:34:39Z</time>
      </trkpt>
      <trkpt lat="45.0989" lon="4.96027">
        <ele>187</ele>
        <time>2016-02-25T01:36:39Z</time>
      </trkpt>
      <trkpt lat="45.09898" lon="4.96036">
        <ele>188</ele>
        <time>2016-02-25T01:38:39Z</time>
      </trkpt>
      <trkpt lat="45.0991" lon="4.96047">
        <ele>188</ele>
        <time>2016-02-25T01:40:39Z</time>
      </trkpt>
      <trkpt lat="45.09924" lon="4.9606">
        <ele>189</ele>
        <time>2016-02-25T01:42:39Z</time>
      </trkpt>
      <trkpt lat="45.09937" lon="4.96069">
        <ele>189</ele>
        <time>2016-02-25T01:44:39Z</time>
      </trkpt>
      <trkpt lat="45.09948" lon="4.96077">
        <ele>189</ele>
        <time>2016-02-25T01:46:39Z</time>
      </trkpt>
      <trkpt lat="45.09962" lon="4.96084">
        <ele>187</ele>
        <time>2016-02-25T01:48:39Z</time>
      </trkpt>
      <trkpt lat="45.09976" lon="4.9609">
        <ele>186</ele>
        <time>2016-02-25T01:50:39Z</time>
      </trkpt>
      <trkpt lat="45.09992" lon="4.96098">
        <ele>184</ele>
        <time>2016-02-25T01:52:39Z</time>
      </trkpt>
      <trkpt lat="45.10005" lon="4.96104">
        <ele>184</ele>
        <time>2016-02-25T01:54:39Z</time>
      </trkpt>
      <trkpt lat="45.10015" lon="4.96109">
        <ele>184</ele>
        <time>2016-02-25T01:56:39Z</time>
      </trkpt>
      <trkpt lat="45.10049" lon="4.96123">
        <ele>183</ele>
        <time>2016-02-25T01:58:39Z</time>
      </trkpt>
      <trkpt lat="45.10078" lon="4.96138">
        <ele>181</ele>
        <time>2016-02-25T02:00:39Z</time>
      </trkpt>
      <trkpt lat="45.10103" lon="4.9615">
        <ele>181</ele>
        <time>2016-02-25T02:02:39Z</time>
      </trkpt>
      <trkpt lat="45.10131" lon="4.96165">
        <ele>181</ele>
        <time>2016-02-25T02:04:39Z</time>
      </trkpt>
      <trkpt lat="45.10154" lon="4.96177">
        <ele>181</ele>
        <time>2016-02-25T02:06:39Z</time>
      </trkpt>
      <trkpt lat="45.10169" lon="4.96185">
        <ele>181</ele>
        <time>2016-02-25T02:08:39Z</time>
      </trkpt>
      <trkpt lat="45.1018" lon="4.9619">
        <ele>181</ele>
        <time>2016-02-25T02:10:39Z</time>
      </trkpt>
      <trkpt lat="45.10203" lon="4.96203">
        <ele>181</ele>
        <time>2016-02-25T02:12:39Z</time>
      </trkpt>
      <trkpt lat="45.10225" lon="4.96218">
        <ele>182</ele>
        <time>2016-02-25T02:14:39Z</time>
      </trkpt>
      <trkpt lat="45.10265" lon="4.96242">
        <ele>182</ele>
        <time>2016-02-25T02:16:39Z</time>
      </trkpt>
      <trkpt lat="45.10311" lon="4.96267">
        <ele>182</ele>
        <time>2016-02-25T02:18:39Z</time>
      </trkpt>
      <trkpt lat="45.10332" lon="4.96279">
        <ele>182</ele>
        <time>2016-02-25T02:20:39Z</time>
      </trkpt>
      <trkpt lat="45.10353" lon="4.96291">
        <ele>183</ele>
        <time>2016-02-25T02:22:39Z</time>
      </trkpt>
      <trkpt lat="45.10373" lon="4.96304">
        <ele>183</ele>
        <time>2016-02-25T02:24:39Z</time>
      </trkpt>
      <trkpt lat="45.10386" lon="4.96312">
        <ele>184</ele>
        <time>2016-02-25T02:26:39Z</time>
      </trkpt>
      <trkpt lat="45.10392" lon="4.96319">
        <ele>184</ele>
        <time>2016-02-25T02:28:39Z</time>
      </trkpt>
      <trkpt lat="45.10394" lon="4.96322">
        <ele>184</ele>
        <time>2016-02-25T02:30:39Z</time>
      </trkpt>
      <trkpt lat="45.10398" lon="4.96328">
        <ele>184</ele>
        <time>2016-02-25T02:32:39Z</time>
      </trkpt>
      <trkpt lat="45.10401" lon="4.96335">
        <ele>185</ele>
        <time>2016-02-25T02:34:39Z</time>
      </trkpt>
      <trkpt lat="45.10405" lon="4.96342">
        <ele>185</ele>
        <time>2016-02-25T02:36:39Z</time>
      </trkpt>
      <trkpt lat="45.1041" lon="4.96349">
        <ele>186</ele>
        <time>2016-02-25T02:38:39Z</time>
      </trkpt>
      <trkpt lat="45.10415" lon="4.96356">
        <ele>186</ele>
        <time>2016-02-25T02:40:39Z</time>
      </trkpt>
      <trkpt lat="45.10422" lon="4.96362">
        <ele>186</ele>
        <time>2016-02-25T02:42:39Z</time>
      </trkpt>
      <trkpt lat="45.10431" lon="4.96369">
        <ele>186</ele>
        <time>2016-02-25T02:44:39Z</time>
      </trkpt>
      <trkpt lat="45.1044" lon="4.96375">
        <ele>187</ele>
        <time>2016-02-25T02:46:39Z</time>
      </trkpt>
      <trkpt lat="45.10452" lon="4.96383">
        <ele>187</ele>
        <time>2016-02-25T02:48:39Z</time>
      </trkpt>
      <trkpt lat="45.10464" lon="4.96392">
        <ele>187</ele>
        <time>2016-02-25T02:50:39Z</time>
      </trkpt>
      <trkpt lat="45.10476" lon="4.96402">
        <ele>187</ele>
        <time>2016-02-25T02:52:39Z</time>
      </trkpt>
      <trkpt lat="45.10486" lon="4.96411">
        <ele>187</ele>
        <time>2016-02-25T02:54:39Z</time>
      </trkpt>
      <trkpt lat="45.10495" lon="4.96421">
        <ele>187</ele>
        <time>2016-02-25T02:56:39Z</time>
      </trkpt>
      <trkpt lat="45.10501" lon="4.9643">
        <ele>188</ele>
        <time>2016-02-25T02:58:39Z</time>
      </trkpt>
      <trkpt lat="45.10506" lon="4.96438">
        <ele>189</ele>
        <time>2016-02-25T03:00:39Z</time>
      </trkpt>
      <trkpt lat="45.10513" lon="4.96451">
        <ele>190</ele>
        <time>2016-02-25T03:02:39Z</time>
      </trkpt>
      <trkpt lat="45.10517" lon="4.96462">
        <ele>191</ele>
        <time>2016-02-25T03:04:39Z</time>
      </trkpt>
      <trkpt lat="45.10521" lon="4.96471">
        <ele>192</ele>
        <time>2016-02-25T03:06:39Z</time>
      </trkpt>
      <trkpt lat="45.10523" lon="4.9648">
        <ele>193</ele>
        <time>2016-02-25T03:08:39Z</time>
      </trkpt>
      <trkpt lat="45.10525" lon="4.96486">
        <ele>194</ele>
        <time>2016-02-25T03:10:39Z</time>
      </trkpt>
      <trkpt lat="45.10525" lon="4.96486">
        <ele>194</ele>
        <time>2016-02-25T03:12:39Z</time>
      </trkpt>
      <trkpt lat="45.10527" lon="4.96493">
        <ele>194</ele>
        <time>2016-02-25T03:14:39Z</time>
      </trkpt>
      <trkpt lat="45.10528" lon="4.965">
        <ele>195</ele>
        <time>2016-02-25T03:16:39Z</time>
      </trkpt>
      <trkpt lat="45.1053" lon="4.96508">
        <ele>195</ele>
        <time>2016-02-25T03:18:39Z</time>
      </trkpt>
      <trkpt lat="45.1053" lon="4.96516">
        <ele>196</ele>
        <time>2016-02-25T03:20:39Z</time>
      </trkpt>
      <trkpt lat="45.1053" lon="4.96525">
        <ele>197</ele>
        <time>2016-02-25T03:22:39Z</time>
      </trkpt>
      <trkpt lat="45.10531" lon="4.96533">
        <ele>197</ele>
        <time>2016-02-25T03:24:39Z</time>
      </trkpt>
      <trkpt lat="45.1053" lon="4.9654">
        <ele>198</ele>
        <time>2016-02-25T03:26:39Z</time>
      </trkpt>
      <trkpt lat="45.1053" lon="4.96549">
        <ele>198</ele>
        <time>2016-02-25T03:28:39Z</time>
      </trkpt>
      <trkpt lat="45.1053" lon="4.96558">
        <ele>199</ele>
        <time>2016-02-25T03:30:39Z</time>
      </trkpt>
      <trkpt lat="45.1053" lon="4.96568">
        <ele>200</ele>
        <time>2016-02-25T03:32:39Z</time>
      </trkpt>
      <trkpt lat="45.10529" lon="4.96573">
        <ele>200</ele>
        <time>2016-02-25T03:34:39Z</time>
      </trkpt>
      <trkpt lat="45.10529" lon="4.96577">
        <ele>201</ele>
        <time>2016-02-25T03:36:39Z</time>
      </trkpt>
      <trkpt lat="45.1053" lon="4.96585">
        <ele>201</ele>
        <time>2016-02-25T03:38:39Z</time>
      </trkpt>
      <trkpt lat="45.10531" lon="4.96595">
        <ele>202</ele>
        <time>2016-02-25T03:40:39Z</time>
      </trkpt>
      <trkpt lat="45.10533" lon="4.96603">
        <ele>203</ele>
        <time>2016-02-25T03:42:39Z</time>
      </trkpt>
      <trkpt lat="45.10535" lon="4.96609">
        <ele>203</ele>
        <time>2016-02-25T03:44:39Z</time>
      </trkpt>
      <trkpt lat="45.10537" lon="4.96614">
        <ele>203</ele>
        <time>2016-02-25T03:46:39Z</time>
      </trkpt>
      <trkpt lat="45.10539" lon="4.96619">
        <ele>203</ele>
        <time>2016-02-25T03:48:39Z</time>
      </trkpt>
      <trkpt lat="45.10541" lon="4.96626">
        <ele>204</ele>
        <time>2016-02-25T03:50:39Z</time>
      </trkpt>
      <trkpt lat="45.10545" lon="4.96635">
        <ele>204</ele>
        <time>2016-02-25T03:52:39Z</time>
      </trkpt>
      <trkpt lat="45.10549" lon="4.96645">
        <ele>205</ele>
        <time>2016-02-25T03:54:39Z</time>
      </trkpt>
      <trkpt lat="45.10553" lon="4.96654">
        <ele>206</ele>
        <time>2016-02-25T03:56:39Z</time>
      </trkpt>
      <trkpt lat="45.10556" lon="4.96662">
        <ele>206</ele>
        <time>2016-02-25T03:58:39Z</time>
      </trkpt>
      <trkpt lat="45.10558" lon="4.96667">
        <ele>207</ele>
        <time>2016-02-25T04:00:39Z</time>
      </trkpt>
      <trkpt lat="45.10559" lon="4.96672">
        <ele>207</ele>
        <time>2016-02-25T04:02:39Z</time>
      </trkpt>
      <trkpt lat="45.10559" lon="4.96678">
        <ele>208</ele>
        <time>2016-02-25T04:04:39Z</time>
      </trkpt>
      <trkpt lat="45.10557" lon="4.96688">
        <ele>209</ele>
        <time>2016-02-25T04:06:39Z</time>
      </trkpt>
      <trkpt lat="45.10555" lon="4.96702">
        <ele>211</ele>
        <time>2016-02-25T04:08:39Z</time>
      </trkpt>
      <trkpt lat="45.10552" lon="4.96717">
        <ele>212</ele>
        <time>2016-02-25T04:10:39Z</time>
      </trkpt>
      <trkpt lat="45.10549" lon="4.96731">
        <ele>214</ele>
        <time>2016-02-25T04:12:39Z</time>
      </trkpt>
      <trkpt lat="45.10547" lon="4.96741">
        <ele>215</ele>
        <time>2016-02-25T04:14:39Z</time>
      </trkpt>
      <trkpt lat="45.10546" lon="4.96744">
        <ele>215</ele>
        <time>2016-02-25T04:16:39Z</time>
      </trkpt>
      <trkpt lat="45.10543" lon="4.96746">
        <ele>215</ele>
        <time>2016-02-25T04:18:39Z</time>
      </trkpt>
      <trkpt lat="45.1054" lon="4.96751">
        <ele>216</ele>
        <time>2016-02-25T04:20:39Z</time>
      </trkpt>
      <trkpt lat="45.10536" lon="4.9676">
        <ele>216</ele>
        <time>2016-02-25T04:22:39Z</time>
      </trkpt>
      <trkpt lat="45.10533" lon="4.96769">
        <ele>216</ele>
        <time>2016-02-25T04:24:39Z</time>
      </trkpt>
      <trkpt lat="45.10531" lon="4.96776">
        <ele>216</ele>
        <time>2016-02-25T04:26:39Z</time>
      </trkpt>
      <trkpt lat="45.10529" lon="4.96784">
        <ele>216</ele>
        <time>2016-02-25T04:28:39Z</time>
      </trkpt>
      <trkpt lat="45.10526" lon="4.96791">
        <ele>216</ele>
        <time>2016-02-25T04:30:39Z</time>
      </trkpt>
      <trkpt lat="45.10523" lon="4.96805">
        <ele>216</ele>
        <time>2016-02-25T04:32:39Z</time>
      </trkpt>
      <trkpt lat="45.10518" lon="4.96823">
        <ele>216</ele>
        <time>2016-02-25T04:34:39Z</time>
      </trkpt>
      <trkpt lat="45.10513" lon="4.96842">
        <ele>216</ele>
        <time>2016-02-25T04:36:39Z</time>
      </trkpt>
      <trkpt lat="45.10509" lon="4.96857">
        <ele>216</ele>
        <time>2016-02-25T04:38:39Z</time>
      </trkpt>
      <trkpt lat="45.10504" lon="4.96876">
        <ele>216</ele>
        <time>2016-02-25T04:40:39Z</time>
      </trkpt>
      <trkpt lat="45.10496" lon="4.96903">
        <ele>216</ele>
        <time>2016-02-25T04:42:39Z</time>
      </trkpt>
      <trkpt lat="45.10489" lon="4.96928">
        <ele>216</ele>
        <time>2016-02-25T04:44:39Z</time>
      </trkpt>
      <trkpt lat="45.10483" lon="4.96952">
        <ele>216</ele>
        <time>2016-02-25T04:46:39Z</time>
      </trkpt>
      <trkpt lat="45.1048" lon="4.96967">
        <ele>216</ele>
        <time>2016-02-25T04:48:39Z</time>
      </trkpt>
      <trkpt lat="45.10479" lon="4.9697">
        <ele>216</ele>
        <time>2016-02-25T04:50:39Z</time>
      </trkpt>
      <trkpt lat="45.10479" lon="4.9697">
        <ele>216</ele>
        <time>2016-02-25T04:52:39Z</time>
      </trkpt>
      <trkpt lat="45.10486" lon="4.96978">
        <ele>216</ele>
        <time>2016-02-25T04:54:39Z</time>
      </trkpt>
      <trkpt lat="45.10492" lon="4.96984">
        <ele>216</ele>
        <time>2016-02-25T04:56:39Z</time>
      </trkpt>
      <trkpt lat="45.10498" lon="4.9699">
        <ele>216</ele>
        <time>2016-02-25T04:58:39Z</time>
      </trkpt>
      <trkpt lat="45.10541" lon="4.97019">
        <ele>217</ele>
        <time>2016-02-25T05:00:39Z</time>
      </trkpt>
      <trkpt lat="45.10602" lon="4.97061">
        <ele>218</ele>
        <time>2016-02-25T05:02:39Z</time>
      </trkpt>
      <trkpt lat="45.10612" lon="4.97067">
        <ele>218</ele>
        <time>2016-02-25T05:04:39Z</time>
      </trkpt>
      <trkpt lat="45.10648" lon="4.97091">
        <ele>218</ele>
        <time>2016-02-25T05:06:39Z</time>
      </trkpt>
      <trkpt lat="45.10651" lon="4.97093">
        <ele>218</ele>
        <time>2016-02-25T05:08:39Z</time>
      </trkpt>
      <trkpt lat="45.10681" lon="4.97113">
        <ele>218</ele>
        <time>2016-02-25T05:10:39Z</time>
      </trkpt>
      <trkpt lat="45.10702" lon="4.97127">
        <ele>218</ele>
        <time>2016-02-25T05:12:39Z</time>
      </trkpt>
      <trkpt lat="45.10712" lon="4.97136">
        <ele>218</ele>
        <time>2016-02-25T05:14:39Z</time>
      </trkpt>
      <trkpt lat="45.10719" lon="4.97141">
        <ele>218</ele>
        <time>2016-02-25T05:16:39Z</time>
      </trkpt>
      <trkpt lat="45.10725" lon="4.97147">
        <ele>218</ele>
        <time>2016-02-25T05:18:39Z</time>
      </trkpt>
      <trkpt lat="45.10728" lon="4.9715">
        <ele>218</ele>
        <time>2016-02-25T05:20:39Z</time>
      </trkpt>
      <trkpt lat="45.10731" lon="4.97153">
        <ele>218</ele>
        <time>2016-02-25T05:22:39Z</time>
      </trkpt>
      <trkpt lat="45.1074" lon="4.97163">
        <ele>218</ele>
        <time>2016-02-25T05:24:39Z</time>
      </trkpt>
      <trkpt lat="45.10754" lon="4.97178">
        <ele>218</ele>
        <time>2016-02-25T05:26:39Z</time>
      </trkpt>
      <trkpt lat="45.10788" lon="4.97213">
        <ele>219</ele>
        <time>2016-02-25T05:28:39Z</time>
      </trkpt>
      <trkpt lat="45.10798" lon="4.97223">
        <ele>219</ele>
        <time>2016-02-25T05:30:39Z</time>
      </trkpt>
      <trkpt lat="45.10817" lon="4.97243">
        <ele>219</ele>
        <time>2016-02-25T05:32:39Z</time>
      </trkpt>
      <trkpt lat="45.10868" lon="4.97296">
        <ele>220</ele>
        <time>2016-02-25T05:34:39Z</time>
      </trkpt>
      <trkpt lat="45.1091" lon="4.9734">
        <ele>220</ele>
        <time>2016-02-25T05:36:39Z</time>
      </trkpt>
      <trkpt lat="45.1093" lon="4.9736">
        <ele>221</ele>
        <time>2016-02-25T05:38:39Z</time>
      </trkpt>
      <trkpt lat="45.10933" lon="4.97363">
        <ele>221</ele>
        <time>2016-02-25T05:40:39Z</time>
      </trkpt>
      <trkpt lat="45.10939" lon="4.9737">
        <ele>221</ele>
        <time>2016-02-25T05:42:39Z</time>
      </trkpt>
      <trkpt lat="45.10952" lon="4.97385">
        <ele>222</ele>
        <time>2016-02-25T05:44:39Z</time>
      </trkpt>
      <trkpt lat="45.11016" lon="4.97454">
        <ele>223</ele>
        <time>2016-02-25T05:46:39Z</time>
      </trkpt>
      <trkpt lat="45.11051" lon="4.97492">
        <ele>223</ele>
        <time>2016-02-25T05:48:39Z</time>
      </trkpt>
      <trkpt lat="45.11059" lon="4.97503">
        <ele>223</ele>
        <time>2016-02-25T05:50:39Z</time>
      </trkpt>
      <trkpt lat="45.11073" lon="4.97515">
        <ele>223</ele>
        <time>2016-02-25T05:52:39Z</time>
      </trkpt>
      <trkpt lat="45.11098" lon="4.97542">
        <ele>223</ele>
        <time>2016-02-25T05:54:39Z</time>
      </trkpt>
      <trkpt lat="45.11127" lon="4.97573">
        <ele>223</ele>
        <time>2016-02-25T05:56:39Z</time>
      </trkpt>
      <trkpt lat="45.11155" lon="4.97602">
        <ele>222</ele>
        <time>2016-02-25T05:58:39Z</time>
      </trkpt>
      <trkpt lat="45.11164" lon="4.9761">
        <ele>221</ele>
        <time>2016-02-25T06:00:39Z</time>
      </trkpt>
      <trkpt lat="45.11176" lon="4.97618">
        <ele>220</ele>
        <time>2016-02-25T06:02:39Z</time>
      </trkpt>
      <trkpt lat="45.11185" lon="4.97624">
        <ele>219</ele>
        <time>2016-02-25T06:04:39Z</time>
      </trkpt>
      <trkpt lat="45.11192" lon="4.97627">
        <ele>219</ele>
        <time>2016-02-25T06:06:39Z</time>
      </trkpt>
      <trkpt lat="45.11197" lon="4.97628">
        <ele>218</ele>
        <time>2016-02-25T06:08:39Z</time>
      </trkpt>
      <trkpt lat="45.11201" lon="4.9763">
        <ele>218</ele>
        <time>2016-02-25T06:10:39Z</time>
      </trkpt>
      <trkpt lat="45.11201" lon="4.9763">
        <ele>218</ele>
        <time>2016-02-25T06:12:39Z</time>
      </trkpt>
      <trkpt lat="45.11209" lon="4.97627">
        <ele>218</ele>
        <time>2016-02-25T06:14:39Z</time>
      </trkpt>
      <trkpt lat="45.11216" lon="4.97624">
        <ele>217</ele>
        <time>2016-02-25T06:16:39Z</time>
      </trkpt>
      <trkpt lat="45.11231" lon="4.97616">
        <ele>217</ele>
        <time>2016-02-25T06:18:39Z</time>
      </trkpt>
      <trkpt lat="45.11253" lon="4.97603">
        <ele>215</ele>
        <time>2016-02-25T06:20:39Z</time>
      </trkpt>
      <trkpt lat="45.11267" lon="4.97596">
        <ele>214</ele>
        <time>2016-02-25T06:22:39Z</time>
      </trkpt>
      <trkpt lat="45.11274" lon="4.97593">
        <ele>213</ele>
        <time>2016-02-25T06:24:39Z</time>
      </trkpt>
      <trkpt lat="45.11282" lon="4.9759">
        <ele>212</ele>
        <time>2016-02-25T06:26:39Z</time>
      </trkpt>
      <trkpt lat="45.11288" lon="4.9759">
        <ele>212</ele>
        <time>2016-02-25T06:28:39Z</time>
      </trkpt>
      <trkpt lat="45.11295" lon="4.97591">
        <ele>211</ele>
        <time>2016-02-25T06:30:39Z</time>
      </trkpt>
      <trkpt lat="45.11303" lon="4.97593">
        <ele>210</ele>
        <time>2016-02-25T06:32:39Z</time>
      </trkpt>
      <trkpt lat="45.11312" lon="4.97597">
        <ele>209</ele>
        <time>2016-02-25T06:34:39Z</time>
      </trkpt>
      <trkpt lat="45.11318" lon="4.97601">
        <ele>209</ele>
        <time>2016-02-25T06:36:39Z</time>
      </trkpt>
      <trkpt lat="45.11318" lon="4.97601">
        <ele>209</ele>
        <time>2016-02-25T06:38:39Z</time>
      </trkpt>
      <trkpt lat="45.11323" lon="4.97606">
        <ele>209</ele>
        <time>2016-02-25T06:40:39Z</time>
      </trkpt>
      <trkpt lat="45.1133" lon="4.97611">
        <ele>209</ele>
        <time>2016-02-25T06:42:39Z</time>
      </trkpt>
      <trkpt lat="45.11333" lon="4.97613">
        <ele>209</ele>
        <time>2016-02-25T06:44:39Z</time>
      </trkpt>
      <trkpt lat="45.11337" lon="4.97616">
        <ele>209</ele>
        <time>2016-02-25T06:46:39Z</time>
      </trkpt>
      <trkpt lat="45.1134" lon="4.97618">
        <ele>209</ele>
        <time>2016-02-25T06:48:39Z</time>
      </trkpt>
      <trkpt lat="45.11351" lon="4.97624">
        <ele>208</ele>
        <time>2016-02-25T06:50:39Z</time>
      </trkpt>
      <trkpt lat="45.11371" lon="4.97637">
        <ele>208</ele>
        <time>2016-02-25T06:52:39Z</time>
      </trkpt>
      <trkpt lat="45.11383" lon="4.97645">
        <ele>208</ele>
        <time>2016-02-25T06:54:39Z</time>
      </trkpt>
      <trkpt lat="45.11396" lon="4.97656">
        <ele>208</ele>
        <time>2016-02-25T06:56:39Z</time>
      </trkpt>
      <trkpt lat="45.11414" lon="4.9767">
        <ele>209</ele>
        <time>2016-02-25T06:58:39Z</time>
      </trkpt>
      <trkpt lat="45.11428" lon="4.97684">
        <ele>209</ele>
        <time>2016-02-25T07:00:39Z</time>
      </trkpt>
      <trkpt lat="45.11436" lon="4.97693">
        <ele>208</ele>
        <time>2016-02-25T07:02:39Z</time>
      </trkpt>
      <trkpt lat="45.11441" lon="4.97699">
        <ele>208</ele>
        <time>2016-02-25T07:04:39Z</time>
      </trkpt>
      <trkpt lat="45.11445" lon="4.97706">
        <ele>208</ele>
        <time>2016-02-25T07:06:39Z</time>
      </trkpt>
      <trkpt lat="45.11448" lon="4.97712">
        <ele>208</ele>
        <time>2016-02-25T07:08:39Z</time>
      </trkpt>
      <trkpt lat="45.11451" lon="4.97718">
        <ele>208</ele>
        <time>2016-02-25T07:10:39Z</time>
      </trkpt>
      <trkpt lat="45.11454" lon="4.97721">
        <ele>207</ele>
        <time>2016-02-25T07:12:39Z</time>
      </trkpt>
      <trkpt lat="45.11457" lon="4.97722">
        <ele>206</ele>
        <time>2016-02-25T07:14:39Z</time>
      </trkpt>
      <trkpt lat="45.11461" lon="4.97724">
        <ele>206</ele>
        <time>2016-02-25T07:16:39Z</time>
      </trkpt>
      <trkpt lat="45.11472" lon="4.97724">
        <ele>203</ele>
        <time>2016-02-25T07:18:39Z</time>
      </trkpt>
      <trkpt lat="45.11477" lon="4.97724">
        <ele>202</ele>
        <time>2016-02-25T07:20:39Z</time>
      </trkpt>
      <trkpt lat="45.11484" lon="4.97724">
        <ele>200</ele>
        <time>2016-02-25T07:22:39Z</time>
      </trkpt>
      <trkpt lat="45.11488" lon="4.97726">
        <ele>199</ele>
        <time>2016-02-25T07:24:39Z</time>
      </trkpt>
      <trkpt lat="45.11492" lon="4.97731">
        <ele>198</ele>
        <time>2016-02-25T07:26:39Z</time>
      </trkpt>
      <trkpt lat="45.11495" lon="4.97736">
        <ele>197</ele>
        <time>2016-02-25T07:28:39Z</time>
      </trkpt>
      <trkpt lat="45.11497" lon="4.97742">
        <ele>197</ele>
        <time>2016-02-25T07:30:39Z</time>
      </trkpt>
      <trkpt lat="45.115" lon="4.97754">
        <ele>196</ele>
        <time>2016-02-25T07:32:39Z</time>
      </trkpt>
      <trkpt lat="45.11504" lon="4.97769">
        <ele>197</ele>
        <time>2016-02-25T07:34:39Z</time>
      </trkpt>
      <trkpt lat="45.11506" lon="4.97778">
        <ele>198</ele>
        <time>2016-02-25T07:36:39Z</time>
      </trkpt>
      <trkpt lat="45.11517" lon="4.97833">
        <ele>200</ele>
        <time>2016-02-25T07:38:39Z</time>
      </trkpt>
      <trkpt lat="45.11524" lon="4.97869">
        <ele>203</ele>
        <time>2016-02-25T07:40:39Z</time>
      </trkpt>
      <trkpt lat="45.11529" lon="4.97892">
        <ele>204</ele>
        <time>2016-02-25T07:42:39Z</time>
      </trkpt>
      <trkpt lat="45.11532" lon="4.97908">
        <ele>205</ele>
        <time>2016-02-25T07:44:39Z</time>
      </trkpt>
      <trkpt lat="45.11536" lon="4.97923">
        <ele>205</ele>
        <time>2016-02-25T07:46:39Z</time>
      </trkpt>
      <trkpt lat="45.11539" lon="4.97932">
        <ele>204</ele>
        <time>2016-02-25T07:48:39Z</time>
      </trkpt>
      <trkpt lat="45.11542" lon="4.97939">
        <ele>204</ele>
        <time>2016-02-25T07:50:39Z</time>
      </trkpt>
      <trkpt lat="45.11546" lon="4.97945">
        <ele>203</ele>
        <time>2016-02-25T07:52:39Z</time>
      </trkpt>
      <trkpt lat="45.11551" lon="4.97951">
        <ele>202</ele>
        <time>2016-02-25T07:54:39Z</time>
      </trkpt>
      <trkpt lat="45.11559" lon="4.97959">
        <ele>201</ele>
        <time>2016-02-25T07:56:39Z</time>
      </trkpt>
      <trkpt lat="45.11573" lon="4.97972">
        <ele>198</ele>
        <time>2016-02-25T07:58:39Z</time>
      </trkpt>
      <trkpt lat="45.11592" lon="4.97986">
        <ele>196</ele>
        <time>2016-02-25T08:00:39Z</time>
      </trkpt>
      <trkpt lat="45.11603" lon="4.97992">
        <ele>196</ele>
        <time>2016-02-25T08:02:39Z</time>
      </trkpt>
      <trkpt lat="45.11608" lon="4.97994">
        <ele>196</ele>
        <time>2016-02-25T08:04:39Z</time>
      </trkpt>
      <trkpt lat="45.11613" lon="4.97993">
        <ele>196</ele>
        <time>2016-02-25T08:06:39Z</time>
      </trkpt>
      <trkpt lat="45.1162" lon="4.9799">
        <ele>196</ele>
        <time>2016-02-25T08:08:39Z</time>
      </trkpt>
      <trkpt lat="45.11634" lon="4.97982">
        <ele>196</ele>
        <time>2016-02-25T08:10:39Z</time>
      </trkpt>
      <trkpt lat="45.11647" lon="4.97975">
        <ele>197</ele>
        <time>2016-02-25T08:12:39Z</time>
      </trkpt>
      <trkpt lat="45.11661" lon="4.97969">
        <ele>197</ele>
        <time>2016-02-25T08:14:39Z</time>
      </trkpt>
      <trkpt lat="45.11674" lon="4.97965">
        <ele>197</ele>
        <time>2016-02-25T08:16:39Z</time>
      </trkpt>
      <trkpt lat="45.11687" lon="4.9796">
        <ele>197</ele>
        <time>2016-02-25T08:18:39Z</time>
      </trkpt>
      <trkpt lat="45.11707" lon="4.97954">
        <ele>197</ele>
        <time>2016-02-25T08:20:39Z</time>
      </trkpt>
      <trkpt lat="45.11724" lon="4.97951">
        <ele>197</ele>
        <time>2016-02-25T08:22:39Z</time>
      </trkpt>
      <trkpt lat="45.11736" lon="4.97948">
        <ele>197</ele>
        <time>2016-02-25T08:24:39Z</time>
      </trkpt>
      <trkpt lat="45.11748" lon="4.97945">
        <ele>197</ele>
        <time>2016-02-25T08:26:39Z</time>
      </trkpt>
      <trkpt lat="45.1176" lon="4.97938">
        <ele>198</ele>
        <time>2016-02-25T08:28:39Z</time>
      </trkpt>
      <trkpt lat="45.11775" lon="4.97929">
        <ele>198</ele>
        <time>2016-02-25T08:30:39Z</time>
      </trkpt>
      <trkpt lat="45.11785" lon="4.97923">
        <ele>198</ele>
        <time>2016-02-25T08:32:39Z</time>
      </trkpt>
      <trkpt lat="45.11793" lon="4.97919">
        <ele>198</ele>
        <time>2016-02-25T08:34:39Z</time>
      </trkpt>
      <trkpt lat="45.11802" lon="4.97917">
        <ele>199</ele>
        <time>2016-02-25T08:36:39Z</time>
      </trkpt>
      <trkpt lat="45.11814" lon="4.97916">
        <ele>199</ele>
        <time>2016-02-25T08:38:39Z</time>
      </trkpt>
      <trkpt lat="45.11824" lon="4.97916">
        <ele>199</ele>
        <time>2016-02-25T08:40:39Z</time>
      </trkpt>
      <trkpt lat="45.11824" lon="4.97916">
        <ele>199</ele>
        <time>2016-02-25T08:42:39Z</time>
      </trkpt>
      <trkpt lat="45.11854" lon="4.97973">
        <ele>198</ele>
        <time>2016-02-25T08:44:39Z</time>
      </trkpt>
      <trkpt lat="45.11862" lon="4.9799">
        <ele>198</ele>
        <time>2016-02-25T08:46:39Z</time>
      </trkpt>
      <trkpt lat="45.11877" lon="4.98024">
        <ele>198</ele>
        <time>2016-02-25T08:48:39Z</time>
      </trkpt>
      <trkpt lat="45.11883" lon="4.98038">
        <ele>199</ele>
        <time>2016-02-25T08:50:39Z</time>
      </trkpt>
      <trkpt lat="45.11887" lon="4.98047">
        <ele>199</ele>
        <time>2016-02-25T08:52:39Z</time>
      </trkpt>
      <trkpt lat="45.1189" lon="4.98056">
        <ele>199</ele>
        <time>2016-02-25T08:54:39Z</time>
      </trkpt>
      <trkpt lat="45.11899" lon="4.98081">
        <ele>200</ele>
        <time>2016-02-25T08:56:39Z</time>
      </trkpt>
      <trkpt lat="45.11904" lon="4.98095">
        <ele>200</ele>
        <time>2016-02-25T08:58:39Z</time>
      </trkpt>
      <trkpt lat="45.11907" lon="4.98105">
        <ele>201</ele>
        <time>2016-02-25T09:00:39Z</time>
      </trkpt>
      <trkpt lat="45.11908" lon="4.98118">
        <ele>201</ele>
        <time>2016-02-25T09:02:39Z</time>
      </trkpt>
      <trkpt lat="45.1191" lon="4.98141">
        <ele>202</ele>
        <time>2016-02-25T09:04:39Z</time>
      </trkpt>
      <trkpt lat="45.11912" lon="4.98178">
        <ele>203</ele>
        <time>2016-02-25T09:06:39Z</time>
      </trkpt>
      <trkpt lat="45.11914" lon="4.98219">
        <ele>203</ele>
        <time>2016-02-25T09:08:39Z</time>
      </trkpt>
      <trkpt lat="45.11917" lon="4.9826">
        <ele>204</ele>
        <time>2016-02-25T09:10:39Z</time>
      </trkpt>
      <trkpt lat="45.11919" lon="4.98279">
        <ele>203</ele>
        <time>2016-02-25T09:12:39Z</time>
      </trkpt>
      <trkpt lat="45.11919" lon="4.98279">
        <ele>203</ele>
        <time>2016-02-25T09:14:39Z</time>
      </trkpt>
      <trkpt lat="45.11922" lon="4.98279">
        <ele>203</ele>
        <time>2016-02-25T09:16:39Z</time>
      </trkpt>
      <trkpt lat="45.11923" lon="4.98279">
        <ele>203</ele>
        <time>2016-02-25T09:18:39Z</time>
      </trkpt>
      <trkpt lat="45.11926" lon="4.9828">
        <ele>203</ele>
        <time>2016-02-25T09:20:39Z</time>
      </trkpt>
      <trkpt lat="45.11929" lon="4.98285">
        <ele>203</ele>
        <time>2016-02-25T09:22:39Z</time>
      </trkpt>
      <trkpt lat="45.1193" lon="4.98288">
        <ele>203</ele>
        <time>2016-02-25T09:24:39Z</time>
      </trkpt>
      <trkpt lat="45.11931" lon="4.98291">
        <ele>203</ele>
        <time>2016-02-25T09:26:39Z</time>
      </trkpt>
      <trkpt lat="45.11934" lon="4.983">
        <ele>203</ele>
        <time>2016-02-25T09:28:39Z</time>
      </trkpt>
      <trkpt lat="45.11937" lon="4.98314">
        <ele>203</ele>
        <time>2016-02-25T09:30:39Z</time>
      </trkpt>
      <trkpt lat="45.11938" lon="4.98323">
        <ele>203</ele>
        <time>2016-02-25T09:32:39Z</time>
      </trkpt>
      <trkpt lat="45.11939" lon="4.9833">
        <ele>202</ele>
        <time>2016-02-25T09:34:39Z</time>
      </trkpt>
      <trkpt lat="45.11941" lon="4.98339">
        <ele>202</ele>
        <time>2016-02-25T09:36:39Z</time>
      </trkpt>
      <trkpt lat="45.11944" lon="4.98347">
        <ele>202</ele>
        <time>2016-02-25T09:38:39Z</time>
      </trkpt>
      <trkpt lat="45.11947" lon="4.98353">
        <ele>203</ele>
        <time>2016-02-25T09:40:39Z</time>
      </trkpt>
      <trkpt lat="45.1195" lon="4.98359">
        <ele>203</ele>
        <time>2016-02-25T09:42:39Z</time>
      </trkpt>
      <trkpt lat="45.11954" lon="4.98363">
        <ele>203</ele>
        <time>2016-02-25T09:44:39Z</time>
      </trkpt>
      <trkpt lat="45.11963" lon="4.98372">
        <ele>203</ele>
        <time>2016-02-25T09:46:39Z</time>
      </trkpt>
      <trkpt lat="45.11967" lon="4.98375">
        <ele>203</ele>
        <time>2016-02-25T09:48:39Z</time>
      </trkpt>
      <trkpt lat="45.11973" lon="4.98378">
        <ele>203</ele>
        <time>2016-02-25T09:50:39Z</time>
      </trkpt>
      <trkpt lat="45.1198" lon="4.98382">
        <ele>204</ele>
        <time>2016-02-25T09:52:39Z</time>
      </trkpt>
      <trkpt lat="45.11989" lon="4.98386">
        <ele>204</ele>
        <time>2016-02-25T09:54:39Z</time>
      </trkpt>
      <trkpt lat="45.12004" lon="4.98393">
        <ele>204</ele>
        <time>2016-02-25T09:56:39Z</time>
      </trkpt>
      <trkpt lat="45.12016" lon="4.98398">
        <ele>205</ele>
        <time>2016-02-25T09:58:39Z</time>
      </trkpt>
      <trkpt lat="45.12022" lon="4.98404">
        <ele>205</ele>
        <time>2016-02-25T10:00:39Z</time>
      </trkpt>
      <trkpt lat="45.12025" lon="4.98407">
        <ele>205</ele>
        <time>2016-02-25T10:02:39Z</time>
      </trkpt>
      <trkpt lat="45.12031" lon="4.98414">
        <ele>205</ele>
        <time>2016-02-25T10:04:39Z</time>
      </trkpt>
      <trkpt lat="45.12031" lon="4.98414">
        <ele>205</ele>
        <time>2016-02-25T10:06:39Z</time>
      </trkpt>
      <trkpt lat="45.12032" lon="4.98419">
        <ele>205</ele>
        <time>2016-02-25T10:08:39Z</time>
      </trkpt>
      <trkpt lat="45.12032" lon="4.98422">
        <ele>205</ele>
        <time>2016-02-25T10:10:39Z</time>
      </trkpt>
      <trkpt lat="45.12034" lon="4.98425">
        <ele>205</ele>
        <time>2016-02-25T10:12:39Z</time>
      </trkpt>
      <trkpt lat="45.12036" lon="4.98427">
        <ele>205</ele>
        <time>2016-02-25T10:14:39Z</time>
      </trkpt>
      <trkpt lat="45.12039" lon="4.98429">
        <ele>205</ele>
        <time>2016-02-25T10:16:39Z</time>
      </trkpt>
      <trkpt lat="45.12041" lon="4.98429">
        <ele>205</ele>
        <time>2016-02-25T10:18:39Z</time>
      </trkpt>
      <trkpt lat="45.12045" lon="4.98428">
        <ele>206</ele>
        <time>2016-02-25T10:20:39Z</time>
      </trkpt>
      <trkpt lat="45.12048" lon="4.98427">
        <ele>206</ele>
        <time>2016-02-25T10:22:39Z</time>
      </trkpt>
      <trkpt lat="45.12051" lon="4.98425">
        <ele>206</ele>
        <time>2016-02-25T10:24:39Z</time>
      </trkpt>
      <trkpt lat="45.12053" lon="4.98421">
        <ele>206</ele>
        <time>2016-02-25T10:26:39Z</time>
      </trkpt>
      <trkpt lat="45.12054" lon="4.98415">
        <ele>206</ele>
        <time>2016-02-25T10:28:39Z</time>
      </trkpt>
      <trkpt lat="45.12062" lon="4.98413">
        <ele>206</ele>
        <time>2016-02-25T10:30:39Z</time>
      </trkpt>
      <trkpt lat="45.12073" lon="4.98409">
        <ele>206</ele>
        <time>2016-02-25T10:32:39Z</time>
      </trkpt>
      <trkpt lat="45.12079" lon="4.98406">
        <ele>206</ele>
        <time>2016-02-25T10:34:39Z</time>
      </trkpt>
      <trkpt lat="45.12084" lon="4.98406">
        <ele>206</ele>
        <time>2016-02-25T10:36:39Z</time>
      </trkpt>
      <trkpt lat="45.12088" lon="4.98406">
        <ele>206</ele>
        <time>2016-02-25T10:38:39Z</time>
      </trkpt>
      <trkpt lat="45.12106" lon="4.98406">
        <ele>206</ele>
        <time>2016-02-25T10:40:39Z</time>
      </trkpt>
      <trkpt lat="45.12129" lon="4.98407">
        <ele>206</ele>
        <time>2016-02-25T10:42:39Z</time>
      </trkpt>
      <trkpt lat="45.12148" lon="4.98406">
        <ele>207</ele>
        <time>2016-02-25T10:44:39Z</time>
      </trkpt>
      <trkpt lat="45.12183" lon="4.98408">
        <ele>207</ele>
        <time>2016-02-25T10:46:39Z</time>
      </trkpt>
      <trkpt lat="45.12183" lon="4.98408">
        <ele>207</ele>
        <time>2016-02-25T10:48:39Z</time>
      </trkpt>
      <trkpt lat="45.1219" lon="4.98411">
        <ele>208</ele>
        <time>2016-02-25T10:50:39Z</time>
      </trkpt>
      <trkpt lat="45.12197" lon="4.98412">
        <ele>208</ele>
        <time>2016-02-25T10:52:39Z</time>
      </trkpt>
      <trkpt lat="45.12205" lon="4.98413">
        <ele>208</ele>
        <time>2016-02-25T10:54:39Z</time>
      </trkpt>
      <trkpt lat="45.12215" lon="4.98413">
        <ele>208</ele>
        <time>2016-02-25T10:56:39Z</time>
      </trkpt>
      <trkpt lat="45.12224" lon="4.98412">
        <ele>208</ele>
        <time>2016-02-25T10:58:39Z</time>
      </trkpt>
      <trkpt lat="45.12228" lon="4.98413">
        <ele>209</ele>
        <time>2016-02-25T11:00:39Z</time>
      </trkpt>
      <trkpt lat="45.12238" lon="4.98412">
        <ele>209</ele>
        <time>2016-02-25T11:02:39Z</time>
      </trkpt>
      <trkpt lat="45.12267" lon="4.98412">
        <ele>209</ele>
        <time>2016-02-25T11:04:39Z</time>
      </trkpt>
      <trkpt lat="45.12285" lon="4.98413">
        <ele>209</ele>
        <time>2016-02-25T11:06:39Z</time>
      </trkpt>
      <trkpt lat="45.12295" lon="4.98414">
        <ele>209</ele>
        <time>2016-02-25T11:08:39Z</time>
      </trkpt>
      <trkpt lat="45.12335" lon="4.98416">
        <ele>209</ele>
        <time>2016-02-25T11:10:39Z</time>
      </trkpt>
      <trkpt lat="45.12339" lon="4.98414">
        <ele>209</ele>
        <time>2016-02-25T11:12:39Z</time>
      </trkpt>
      <trkpt lat="45.12342" lon="4.98411">
        <ele>209</ele>
        <time>2016-02-25T11:14:39Z</time>
      </trkpt>
      <trkpt lat="45.12344" lon="4.98408">
        <ele>209</ele>
        <time>2016-02-25T11:16:39Z</time>
      </trkpt>
      <trkpt lat="45.12345" lon="4.98407">
        <ele>209</ele>
        <time>2016-02-25T11:18:39Z</time>
      </trkpt>
      <trkpt lat="45.12349" lon="4.984">
        <ele>210</ele>
        <time>2016-02-25T11:20:39Z</time>
      </trkpt>
      <trkpt lat="45.12352" lon="4.98391">
        <ele>210</ele>
        <time>2016-02-25T11:22:39Z</time>
      </trkpt>
      <trkpt lat="45.12353" lon="4.98389">
        <ele>210</ele>
        <time>2016-02-25T11:24:39Z</time>
      </trkpt>
      <trkpt lat="45.12354" lon="4.98385">
        <ele>210</ele>
        <time>2016-02-25T11:26:39Z</time>
      </trkpt>
      <trkpt lat="45.12355" lon="4.98382">
        <ele>210</ele>
        <time>2016-02-25T11:28:39Z</time>
      </trkpt>
      <trkpt lat="45.12357" lon="4.98379">
        <ele>210</ele>
        <time>2016-02-25T11:30:39Z</time>
      </trkpt>
      <trkpt lat="45.12363" lon="4.98371">
        <ele>210</ele>
        <time>2016-02-25T11:32:39Z</time>
      </trkpt>
      <trkpt lat="45.12372" lon="4.98361">
        <ele>211</ele>
        <time>2016-02-25T11:34:39Z</time>
      </trkpt>
      <trkpt lat="45.12372" lon="4.98361">
        <ele>211</ele>
        <time>2016-02-25T11:36:39Z</time>
      </trkpt>
      <trkpt lat="45.12376" lon="4.98369">
        <ele>210</ele>
        <time>2016-02-25T11:38:39Z</time>
      </trkpt>
      <trkpt lat="45.12378" lon="4.98375">
        <ele>210</ele>
        <time>2016-02-25T11:40:39Z</time>
      </trkpt>
      <trkpt lat="45.12382" lon="4.98387">
        <ele>210</ele>
        <time>2016-02-25T11:42:39Z</time>
      </trkpt>
      <trkpt lat="45.12389" lon="4.98406">
        <ele>210</ele>
        <time>2016-02-25T11:44:39Z</time>
      </trkpt>
      <trkpt lat="45.12394" lon="4.98421">
        <ele>210</ele>
        <time>2016-02-25T11:46:39Z</time>
      </trkpt>
      <trkpt lat="45.12398" lon="4.98432">
        <ele>210</ele>
        <time>2016-02-25T11:48:39Z</time>
      </trkpt>
      <trkpt lat="45.12401" lon="4.98441">
        <ele>210</ele>
        <time>2016-02-25T11:50:39Z</time>
      </trkpt>
      <trkpt lat="45.12404" lon="4.98453">
        <ele>210</ele>
        <time>2016-02-25T11:52:39Z</time>
      </trkpt>
      <trkpt lat="45.1241" lon="4.98475">
        <ele>211</ele>
        <time>2016-02-25T11:54:39Z</time>
      </trkpt>
      <trkpt lat="45.12412" lon="4.98485">
        <ele>211</ele>
        <time>2016-02-25T11:56:39Z</time>
      </trkpt>
      <trkpt lat="45.12414" lon="4.98491">
        <ele>211</ele>
        <time>2016-02-25T11:58:39Z</time>
      </trkpt>
      <trkpt lat="45.12417" lon="4.98504">
        <ele>211</ele>
        <time>2016-02-25T12:00:39Z</time>
      </trkpt>
      <trkpt lat="45.1242" lon="4.98512">
        <ele>211</ele>
        <time>2016-02-25T12:02:39Z</time>
      </trkpt>
      <trkpt lat="45.12421" lon="4.98517">
        <ele>212</ele>
        <time>2016-02-25T12:04:39Z</time>
      </trkpt>
      <trkpt lat="45.12423" lon="4.98522">
        <ele>212</ele>
        <time>2016-02-25T12:06:39Z</time>
      </trkpt>
      <trkpt lat="45.12425" lon="4.98529">
        <ele>212</ele>
        <time>2016-02-25T12:08:39Z</time>
      </trkpt>
      <trkpt lat="45.12427" lon="4.98532">
        <ele>212</ele>
        <time>2016-02-25T12:10:39Z</time>
      </trkpt>
      <trkpt lat="45.1243" lon="4.98538">
        <ele>213</ele>
        <time>2016-02-25T12:12:39Z</time>
      </trkpt>
      <trkpt lat="45.12432" lon="4.98541">
        <ele>213</ele>
        <time>2016-02-25T12:14:39Z</time>
      </trkpt>
      <trkpt lat="45.12435" lon="4.98543">
        <ele>213</ele>
        <time>2016-02-25T12:16:39Z</time>
      </trkpt>
      <trkpt lat="45.12435" lon="4.98543">
        <ele>213</ele>
        <time>2016-02-25T12:18:39Z</time>
      </trkpt>
      <trkpt lat="45.12441" lon="4.98542">
        <ele>213</ele>
        <time>2016-02-25T12:20:39Z</time>
      </trkpt>
      <trkpt lat="45.12446" lon="4.98541">
        <ele>213</ele>
        <time>2016-02-25T12:22:39Z</time>
      </trkpt>
      <trkpt lat="45.12452" lon="4.98541">
        <ele>213</ele>
        <time>2016-02-25T12:24:39Z</time>
      </trkpt>
      <trkpt lat="45.12459" lon="4.98541">
        <ele>213</ele>
        <time>2016-02-25T12:26:39Z</time>
      </trkpt>
      <trkpt lat="45.125" lon="4.98542">
        <ele>215</ele>
        <time>2016-02-25T12:28:39Z</time>
      </trkpt>
      <trkpt lat="45.12514" lon="4.98543">
        <ele>215</ele>
        <time>2016-02-25T12:30:39Z</time>
      </trkpt>
      <trkpt lat="45.12526" lon="4.98544">
        <ele>215</ele>
        <time>2016-02-25T12:32:39Z</time>
      </trkpt>
      <trkpt lat="45.12538" lon="4.98546">
        <ele>216</ele>
        <time>2016-02-25T12:34:39Z</time>
      </trkpt>
      <trkpt lat="45.1255" lon="4.98548">
        <ele>216</ele>
        <time>2016-02-25T12:36:39Z</time>
      </trkpt>
      <trkpt lat="45.12563" lon="4.98551">
        <ele>216</ele>
        <time>2016-02-25T12:38:39Z</time>
      </trkpt>
      <trkpt lat="45.1258" lon="4.98557">
        <ele>217</ele>
        <time>2016-02-25T12:40:39Z</time>
      </trkpt>
      <trkpt lat="45.12594" lon="4.98561">
        <ele>218</ele>
        <time>2016-02-25T12:42:39Z</time>
      </trkpt>
      <trkpt lat="45.12597" lon="4.98562">
        <ele>218</ele>
        <time>2016-02-25T12:44:39Z</time>
      </trkpt>
      <trkpt lat="45.12608" lon="4.98565">
        <ele>218</ele>
        <time>2016-02-25T12:46:39Z</time>
      </trkpt>
      <trkpt lat="45.12618" lon="4.98566">
        <ele>218</ele>
        <time>2016-02-25T12:48:39Z</time>
      </trkpt>
      <trkpt lat="45.12631" lon="4.98565">
        <ele>218</ele>
        <time>2016-02-25T12:50:39Z</time>
      </trkpt>
      <trkpt lat="45.12644" lon="4.98564">
        <ele>217</ele>
        <time>2016-02-25T12:52:39Z</time>
      </trkpt>
      <trkpt lat="45.12647" lon="4.98563">
        <ele>217</ele>
        <time>2016-02-25T12:54:39Z</time>
      </trkpt>
      <trkpt lat="45.12651" lon="4.98563">
        <ele>217</ele>
        <time>2016-02-25T12:56:39Z</time>
      </trkpt>
      <trkpt lat="45.12658" lon="4.98563">
        <ele>217</ele>
        <time>2016-02-25T12:58:39Z</time>
      </trkpt>
      <trkpt lat="45.12665" lon="4.98564">
        <ele>217</ele>
        <time>2016-02-25T13:00:39Z</time>
      </trkpt>
      <trkpt lat="45.12673" lon="4.98566">
        <ele>217</ele>
        <time>2016-02-25T13:02:39Z</time>
      </trkpt>
      <trkpt lat="45.1268" lon="4.98568">
        <ele>218</ele>
        <time>2016-02-25T13:04:39Z</time>
      </trkpt>
      <trkpt lat="45.12686" lon="4.98571">
        <ele>218</ele>
        <time>2016-02-25T13:06:39Z</time>
      </trkpt>
      <trkpt lat="45.12706" lon="4.9858">
        <ele>219</ele>
        <time>2016-02-25T13:08:39Z</time>
      </trkpt>
      <trkpt lat="45.12728" lon="4.98589">
        <ele>221</ele>
        <time>2016-02-25T13:10:39Z</time>
      </trkpt>
      <trkpt lat="45.12743" lon="4.98594">
        <ele>222</ele>
        <time>2016-02-25T13:12:39Z</time>
      </trkpt>
      <trkpt lat="45.12751" lon="4.98598">
        <ele>222</ele>
        <time>2016-02-25T13:14:39Z</time>
      </trkpt>
      <trkpt lat="45.12751" lon="4.98598">
        <ele>222</ele>
        <time>2016-02-25T13:16:39Z</time>
      </trkpt>
      <trkpt lat="45.12762" lon="4.98593">
        <ele>222</ele>
        <time>2016-02-25T13:18:39Z</time>
      </trkpt>
      <trkpt lat="45.12776" lon="4.98587">
        <ele>221</ele>
        <time>2016-02-25T13:20:39Z</time>
      </trkpt>
      <trkpt lat="45.12792" lon="4.9858">
        <ele>221</ele>
        <time>2016-02-25T13:22:39Z</time>
      </trkpt>
      <trkpt lat="45.12807" lon="4.98577">
        <ele>221</ele>
        <time>2016-02-25T13:24:39Z</time>
      </trkpt>
      <trkpt lat="45.12838" lon="4.98577">
        <ele>221</ele>
        <time>2016-02-25T13:26:39Z</time>
      </trkpt>
      <trkpt lat="45.12882" lon="4.98577">
        <ele>221</ele>
        <time>2016-02-25T13:28:39Z</time>
      </trkpt>
      <trkpt lat="45.12921" lon="4.98576">
        <ele>221</ele>
        <time>2016-02-25T13:30:39Z</time>
      </trkpt>
      <trkpt lat="45.12921" lon="4.98576">
        <ele>221</ele>
        <time>2016-02-25T13:32:39Z</time>
      </trkpt>
      <trkpt lat="45.12924" lon="4.98576">
        <ele>221</ele>
        <time>2016-02-25T13:34:39Z</time>
      </trkpt>
      <trkpt lat="45.1296" lon="4.98577">
        <ele>223</ele>
        <time>2016-02-25T13:36:39Z</time>
      </trkpt>
      <trkpt lat="45.12988" lon="4.98578">
        <ele>225</ele>
        <time>2016-02-25T13:38:39Z</time>
      </trkpt>
      <trkpt lat="45.12998" lon="4.98577">
        <ele>225</ele>
        <time>2016-02-25T13:40:39Z</time>
      </trkpt>
      <trkpt lat="45.13005" lon="4.98576">
        <ele>225</ele>
        <time>2016-02-25T13:42:39Z</time>
      </trkpt>
      <trkpt lat="45.13005" lon="4.98576">
        <ele>225</ele>
        <time>2016-02-25T13:44:39Z</time>
      </trkpt>
      <trkpt lat="45.13017" lon="4.98572">
        <ele>226</ele>
        <time>2016-02-25T13:46:39Z</time>
      </trkpt>
      <trkpt lat="45.13022" lon="4.98569">
        <ele>226</ele>
        <time>2016-02-25T13:48:39Z</time>
      </trkpt>
      <trkpt lat="45.13054" lon="4.98557">
        <ele>227</ele>
        <time>2016-02-25T13:50:39Z</time>
      </trkpt>
      <trkpt lat="45.13087" lon="4.98544">
        <ele>227</ele>
        <time>2016-02-25T13:52:39Z</time>
      </trkpt>
      <trkpt lat="45.13109" lon="4.98533">
        <ele>229</ele>
        <time>2016-02-25T13:54:39Z</time>
      </trkpt>
      <trkpt lat="45.13123" lon="4.98524">
        <ele>229</ele>
        <time>2016-02-25T13:56:39Z</time>
      </trkpt>
      <trkpt lat="45.13138" lon="4.9851">
        <ele>229</ele>
        <time>2016-02-25T13:58:39Z</time>
      </trkpt>
      <trkpt lat="45.13159" lon="4.98488">
        <ele>229</ele>
        <time>2016-02-25T14:00:39Z</time>
      </trkpt>
      <trkpt lat="45.13177" lon="4.98465">
        <ele>228</ele>
        <time>2016-02-25T14:02:39Z</time>
      </trkpt>
      <trkpt lat="45.13186" lon="4.98454">
        <ele>227</ele>
        <time>2016-02-25T14:04:39Z</time>
      </trkpt>
      <trkpt lat="45.13193" lon="4.98447">
        <ele>226</ele>
        <time>2016-02-25T14:06:39Z</time>
      </trkpt>
      <trkpt lat="45.13211" lon="4.98434">
        <ele>226</ele>
        <time>2016-02-25T14:08:39Z</time>
      </trkpt>
      <trkpt lat="45.13242" lon="4.98417">
        <ele>225</ele>
        <time>2016-02-25T14:10:39Z</time>
      </trkpt>
      <trkpt lat="45.13245" lon="4.98414">
        <ele>225</ele>
        <time>2016-02-25T14:12:39Z</time>
      </trkpt>
      <trkpt lat="45.1325" lon="4.98411">
        <ele>224</ele>
        <time>2016-02-25T14:14:39Z</time>
      </trkpt>
      <trkpt lat="45.13252" lon="4.9841">
        <ele>224</ele>
        <time>2016-02-25T14:16:39Z</time>
      </trkpt>
      <trkpt lat="45.13259" lon="4.98405">
        <ele>224</ele>
        <time>2016-02-25T14:18:39Z</time>
      </trkpt>
      <trkpt lat="45.13269" lon="4.984">
        <ele>224</ele>
        <time>2016-02-25T14:20:39Z</time>
      </trkpt>
      <trkpt lat="45.13269" lon="4.984">
        <ele>224</ele>
        <time>2016-02-25T14:22:39Z</time>
      </trkpt>
      <trkpt lat="45.13276" lon="4.9839">
        <ele>224</ele>
        <time>2016-02-25T14:24:39Z</time>
      </trkpt>
      <trkpt lat="45.13285" lon="4.98384">
        <ele>224</ele>
        <time>2016-02-25T14:26:39Z</time>
      </trkpt>
      <trkpt lat="45.13323" lon="4.9837">
        <ele>225</ele>
        <time>2016-02-25T14:28:39Z</time>
      </trkpt>
      <trkpt lat="45.13357" lon="4.98358">
        <ele>227</ele>
        <time>2016-02-25T14:30:39Z</time>
      </trkpt>
      <trkpt lat="45.13376" lon="4.98351">
        <ele>228</ele>
        <time>2016-02-25T14:32:39Z</time>
      </trkpt>
      <trkpt lat="45.13405" lon="4.98339">
        <ele>230</ele>
        <time>2016-02-25T14:34:39Z</time>
      </trkpt>
      <trkpt lat="45.13429" lon="4.98328">
        <ele>232</ele>
        <time>2016-02-25T14:36:39Z</time>
      </trkpt>
      <trkpt lat="45.13455" lon="4.98317">
        <ele>233</ele>
        <time>2016-02-25T14:38:39Z</time>
      </trkpt>
      <trkpt lat="45.13496" lon="4.98303">
        <ele>235</ele>
        <time>2016-02-25T14:40:39Z</time>
      </trkpt>
      <trkpt lat="45.13532" lon="4.98292">
        <ele>236</ele>
        <time>2016-02-25T14:42:39Z</time>
      </trkpt>
      <trkpt lat="45.13577" lon="4.98282">
        <ele>237</ele>
        <time>2016-02-25T14:44:39Z</time>
      </trkpt>
      <trkpt lat="45.13619" lon="4.98271">
        <ele>238</ele>
        <time>2016-02-25T14:46:39Z</time>
      </trkpt>
      <trkpt lat="45.13657" lon="4.98261">
        <ele>240</ele>
        <time>2016-02-25T14:48:39Z</time>
      </trkpt>
      <trkpt lat="45.13666" lon="4.98259">
        <ele>240</ele>
        <time>2016-02-25T14:50:39Z</time>
      </trkpt>
      <trkpt lat="45.13677" lon="4.98256">
        <ele>241</ele>
        <time>2016-02-25T14:52:39Z</time>
      </trkpt>
      <trkpt lat="45.13685" lon="4.98254">
        <ele>241</ele>
        <time>2016-02-25T14:54:39Z</time>
      </trkpt>
      <trkpt lat="45.13694" lon="4.98251">
        <ele>242</ele>
        <time>2016-02-25T14:56:39Z</time>
      </trkpt>
      <trkpt lat="45.13702" lon="4.98247">
        <ele>243</ele>
        <time>2016-02-25T14:58:39Z</time>
      </trkpt>
      <trkpt lat="45.13721" lon="4.98234">
        <ele>243</ele>
        <time>2016-02-25T15:00:39Z</time>
      </trkpt>
      <trkpt lat="45.13733" lon="4.98227">
        <ele>243</ele>
        <time>2016-02-25T15:02:39Z</time>
      </trkpt>
      <trkpt lat="45.13746" lon="4.9822">
        <ele>243</ele>
        <time>2016-02-25T15:04:39Z</time>
      </trkpt>
      <trkpt lat="45.13772" lon="4.98211">
        <ele>244</ele>
        <time>2016-02-25T15:06:39Z</time>
      </trkpt>
      <trkpt lat="45.13787" lon="4.98206">
        <ele>244</ele>
        <time>2016-02-25T15:08:39Z</time>
      </trkpt>
      <trkpt lat="45.138" lon="4.982">
        <ele>244</ele>
        <time>2016-02-25T15:10:39Z</time>
      </trkpt>
      <trkpt lat="45.13818" lon="4.9819">
        <ele>243</ele>
        <time>2016-02-25T15:12:39Z</time>
      </trkpt>
      <trkpt lat="45.13835" lon="4.98183">
        <ele>242</ele>
        <time>2016-02-25T15:14:39Z</time>
      </trkpt>
      <trkpt lat="45.1385" lon="4.98178">
        <ele>242</ele>
        <time>2016-02-25T15:16:39Z</time>
      </trkpt>
      <trkpt lat="45.13868" lon="4.98172">
        <ele>242</ele>
        <time>2016-02-25T15:18:39Z</time>
      </trkpt>
      <trkpt lat="45.13907" lon="4.98162">
        <ele>243</ele>
        <time>2016-02-25T15:20:39Z</time>
      </trkpt>
      <trkpt lat="45.13955" lon="4.98153">
        <ele>245</ele>
        <time>2016-02-25T15:22:39Z</time>
      </trkpt>
      <trkpt lat="45.13983" lon="4.98147">
        <ele>246</ele>
        <time>2016-02-25T15:24:39Z</time>
      </trkpt>
      <trkpt lat="45.13997" lon="4.98144">
        <ele>246</ele>
        <time>2016-02-25T15:26:39Z</time>
      </trkpt>
      <trkpt lat="45.14019" lon="4.98137">
        <ele>245</ele>
        <time>2016-02-25T15:28:39Z</time>
      </trkpt>
      <trkpt lat="45.14019" lon="4.98137">
        <ele>245</ele>
        <time>2016-02-25T15:30:39Z</time>
      </trkpt>
      <trkpt lat="45.14045" lon="4.98126">
        <ele>243</ele>
        <time>2016-02-25T15:32:39Z</time>
      </trkpt>
      <trkpt lat="45.14068" lon="4.98117">
        <ele>241</ele>
        <time>2016-02-25T15:34:39Z</time>
      </trkpt>
      <trkpt lat="45.14093" lon="4.98108">
        <ele>240</ele>
        <time>2016-02-25T15:36:39Z</time>
      </trkpt>
      <trkpt lat="45.14112" lon="4.98101">
        <ele>240</ele>
        <time>2016-02-25T15:38:39Z</time>
      </trkpt>
      <trkpt lat="45.14133" lon="4.98094">
        <ele>240</ele>
        <time>2016-02-25T15:40:39Z</time>
      </trkpt>
      <trkpt lat="45.14157" lon="4.98088">
        <ele>240</ele>
        <time>2016-02-25T15:42:39Z</time>
      </trkpt>
      <trkpt lat="45.14183" lon="4.98081">
        <ele>241</ele>
        <time>2016-02-25T15:44:39Z</time>
      </trkpt>
      <trkpt lat="45.14197" lon="4.98077">
        <ele>242</ele>
        <time>2016-02-25T15:46:39Z</time>
      </trkpt>
      <trkpt lat="45.14218" lon="4.98069">
        <ele>243</ele>
        <time>2016-02-25T15:48:39Z</time>
      </trkpt>
      <trkpt lat="45.1423" lon="4.98064">
        <ele>243</ele>
        <time>2016-02-25T15:50:39Z</time>
      </trkpt>
      <trkpt lat="45.1423" lon="4.98064">
        <ele>243</ele>
        <time>2016-02-25T15:52:39Z</time>
      </trkpt>
      <trkpt lat="45.14248" lon="4.98058">
        <ele>244</ele>
        <time>2016-02-25T15:54:39Z</time>
      </trkpt>
      <trkpt lat="45.14275" lon="4.98052">
        <ele>244</ele>
        <time>2016-02-25T15:56:39Z</time>
      </trkpt>
      <trkpt lat="45.143" lon="4.98045">
        <ele>244</ele>
        <time>2016-02-25T15:58:39Z</time>
      </trkpt>
      <trkpt lat="45.14321" lon="4.98039">
        <ele>244</ele>
        <time>2016-02-25T16:00:39Z</time>
      </trkpt>
      <trkpt lat="45.1434" lon="4.98034">
        <ele>244</ele>
        <time>2016-02-25T16:02:39Z</time>
      </trkpt>
      <trkpt lat="45.14355" lon="4.98028">
        <ele>244</ele>
        <time>2016-02-25T16:04:39Z</time>
      </trkpt>
      <trkpt lat="45.14369" lon="4.98022">
        <ele>244</ele>
        <time>2016-02-25T16:06:39Z</time>
      </trkpt>
      <trkpt lat="45.14378" lon="4.98017">
        <ele>244</ele>
        <time>2016-02-25T16:08:39Z</time>
      </trkpt>
      <trkpt lat="45.14386" lon="4.98013">
        <ele>244</ele>
        <time>2016-02-25T16:10:39Z</time>
      </trkpt>
      <trkpt lat="45.144" lon="4.98008">
        <ele>243</ele>
        <time>2016-02-25T16:12:39Z</time>
      </trkpt>
      <trkpt lat="45.14411" lon="4.98004">
        <ele>243</ele>
        <time>2016-02-25T16:14:39Z</time>
      </trkpt>
      <trkpt lat="45.14419" lon="4.98003">
        <ele>243</ele>
        <time>2016-02-25T16:16:39Z</time>
      </trkpt>
      <trkpt lat="45.14431" lon="4.98001">
        <ele>243</ele>
        <time>2016-02-25T16:18:39Z</time>
      </trkpt>
      <trkpt lat="45.14447" lon="4.97998">
        <ele>244</ele>
        <time>2016-02-25T16:20:39Z</time>
      </trkpt>
      <trkpt lat="45.14473" lon="4.97991">
        <ele>244</ele>
        <time>2016-02-25T16:22:39Z</time>
      </trkpt>
      <trkpt lat="45.14477" lon="4.97996">
        <ele>244</ele>
        <time>2016-02-25T16:24:39Z</time>
      </trkpt>
      <trkpt lat="45.14479" lon="4.97997">
        <ele>244</ele>
        <time>2016-02-25T16:26:39Z</time>
      </trkpt>
      <trkpt lat="45.14482" lon="4.97998">
        <ele>244</ele>
        <time>2016-02-25T16:28:39Z</time>
      </trkpt>
      <trkpt lat="45.14511" lon="4.97986">
        <ele>245</ele>
        <time>2016-02-25T16:30:39Z</time>
      </trkpt>
      <trkpt lat="45.14531" lon="4.97979">
        <ele>245</ele>
        <time>2016-02-25T16:32:39Z</time>
      </trkpt>
      <trkpt lat="45.14598" lon="4.97958">
        <ele>246</ele>
        <time>2016-02-25T16:34:39Z</time>
      </trkpt>
      <trkpt lat="45.14628" lon="4.9795">
        <ele>247</ele>
        <time>2016-02-25T16:36:39Z</time>
      </trkpt>
      <trkpt lat="45.14663" lon="4.97945">
        <ele>249</ele>
        <time>2016-02-25T16:38:39Z</time>
      </trkpt>
      <trkpt lat="45.14668" lon="4.97945">
        <ele>249</ele>
        <time>2016-02-25T16:40:39Z</time>
      </trkpt>
      <trkpt lat="45.14671" lon="4.97944">
        <ele>249</ele>
        <time>2016-02-25T16:42:39Z</time>
      </trkpt>
      <trkpt lat="45.14682" lon="4.97944">
        <ele>250</ele>
        <time>2016-02-25T16:44:39Z</time>
      </trkpt>
      <trkpt lat="45.14704" lon="4.97943">
        <ele>252</ele>
        <time>2016-02-25T16:46:39Z</time>
      </trkpt>
      <trkpt lat="45.14724" lon="4.97942">
        <ele>253</ele>
        <time>2016-02-25T16:48:39Z</time>
      </trkpt>
      <trkpt lat="45.14735" lon="4.9794">
        <ele>254</ele>
        <time>2016-02-25T16:50:39Z</time>
      </trkpt>
      <trkpt lat="45.14745" lon="4.97937">
        <ele>254</ele>
        <time>2016-02-25T16:52:39Z</time>
      </trkpt>
      <trkpt lat="45.14761" lon="4.9793">
        <ele>254</ele>
        <time>2016-02-25T16:54:39Z</time>
      </trkpt>
      <trkpt lat="45.14781" lon="4.97921">
        <ele>254</ele>
        <time>2016-02-25T16:56:39Z</time>
      </trkpt>
      <trkpt lat="45.14792" lon="4.97916">
        <ele>254</ele>
        <time>2016-02-25T16:58:39Z</time>
      </trkpt>
      <trkpt lat="45.14805" lon="4.97909">
        <ele>254</ele>
        <time>2016-02-25T17:00:39Z</time>
      </trkpt>
      <trkpt lat="45.14832" lon="4.97896">
        <ele>254</ele>
        <time>2016-02-25T17:02:39Z</time>
      </trkpt>
      <trkpt lat="45.14852" lon="4.97886">
        <ele>255</ele>
        <time>2016-02-25T17:04:39Z</time>
      </trkpt>
      <trkpt lat="45.14864" lon="4.97878">
        <ele>255</ele>
        <time>2016-02-25T17:06:39Z</time>
      </trkpt>
      <trkpt lat="45.14872" lon="4.97873">
        <ele>254</ele>
        <time>2016-02-25T17:08:39Z</time>
      </trkpt>
      <trkpt lat="45.14887" lon="4.97864">
        <ele>254</ele>
        <time>2016-02-25T17:10:39Z</time>
      </trkpt>
      <trkpt lat="45.14896" lon="4.9786">
        <ele>254</ele>
        <time>2016-02-25T17:12:39Z</time>
      </trkpt>
      <trkpt lat="45.14906" lon="4.97854">
        <ele>254</ele>
        <time>2016-02-25T17:14:39Z</time>
      </trkpt>
      <trkpt lat="45.14906" lon="4.97854">
        <ele>254</ele>
        <time>2016-02-25T17:16:39Z</time>
      </trkpt>
      <trkpt lat="45.14912" lon="4.97851">
        <ele>254</ele>
        <time>2016-02-25T17:18:39Z</time>
      </trkpt>
      <trkpt lat="45.14931" lon="4.97838">
        <ele>253</ele>
        <time>2016-02-25T17:20:39Z</time>
      </trkpt>
      <trkpt lat="45.14948" lon="4.97826">
        <ele>252</ele>
        <time>2016-02-25T17:22:39Z</time>
      </trkpt>
      <trkpt lat="45.14964" lon="4.97819">
        <ele>253</ele>
        <time>2016-02-25T17:24:39Z</time>
      </trkpt>
      <trkpt lat="45.14984" lon="4.97812">
        <ele>253</ele>
        <time>2016-02-25T17:26:39Z</time>
      </trkpt>
      <trkpt lat="45.15004" lon="4.97807">
        <ele>254</ele>
        <time>2016-02-25T17:28:39Z</time>
      </trkpt>
      <trkpt lat="45.1502" lon="4.97804">
        <ele>253</ele>
        <time>2016-02-25T17:30:39Z</time>
      </trkpt>
      <trkpt lat="45.15036" lon="4.97804">
        <ele>253</ele>
        <time>2016-02-25T17:32:39Z</time>
      </trkpt>
      <trkpt lat="45.15051" lon="4.97807">
        <ele>253</ele>
        <time>2016-02-25T17:34:39Z</time>
      </trkpt>
      <trkpt lat="45.15064" lon="4.97811">
        <ele>254</ele>
        <time>2016-02-25T17:36:39Z</time>
      </trkpt>
      <trkpt lat="45.1508" lon="4.97817">
        <ele>254</ele>
        <time>2016-02-25T17:38:39Z</time>
      </trkpt>
      <trkpt lat="45.15099" lon="4.97826">
        <ele>255</ele>
        <time>2016-02-25T17:40:39Z</time>
      </trkpt>
      <trkpt lat="45.15123" lon="4.97835">
        <ele>254</ele>
        <time>2016-02-25T17:42:39Z</time>
      </trkpt>
      <trkpt lat="45.15144" lon="4.97845">
        <ele>254</ele>
        <time>2016-02-25T17:44:39Z</time>
      </trkpt>
      <trkpt lat="45.15148" lon="4.97847">
        <ele>254</ele>
        <time>2016-02-25T17:46:39Z</time>
      </trkpt>
      <trkpt lat="45.15158" lon="4.97853">
        <ele>255</ele>
        <time>2016-02-25T17:48:39Z</time>
      </trkpt>
      <trkpt lat="45.1517" lon="4.97861">
        <ele>255</ele>
        <time>2016-02-25T17:50:39Z</time>
      </trkpt>
      <trkpt lat="45.15183" lon="4.9787">
        <ele>255</ele>
        <time>2016-02-25T17:52:39Z</time>
      </trkpt>
      <trkpt lat="45.15199" lon="4.9788">
        <ele>255</ele>
        <time>2016-02-25T17:54:39Z</time>
      </trkpt>
      <trkpt lat="45.15219" lon="4.97891">
        <ele>254</ele>
        <time>2016-02-25T17:56:39Z</time>
      </trkpt>
      <trkpt lat="45.15238" lon="4.97902">
        <ele>254</ele>
        <time>2016-02-25T17:58:39Z</time>
      </trkpt>
      <trkpt lat="45.1525" lon="4.97911">
        <ele>254</ele>
        <time>2016-02-25T18:00:39Z</time>
      </trkpt>
      <trkpt lat="45.15254" lon="4.97914">
        <ele>254</ele>
        <time>2016-02-25T18:02:39Z</time>
      </trkpt>
      <trkpt lat="45.15255" lon="4.97915">
        <ele>254</ele>
        <time>2016-02-25T18:04:39Z</time>
      </trkpt>
      <trkpt lat="45.15266" lon="4.97922">
        <ele>254</ele>
        <time>2016-02-25T18:06:39Z</time>
      </trkpt>
      <trkpt lat="45.15286" lon="4.97934">
        <ele>253</ele>
        <time>2016-02-25T18:08:39Z</time>
      </trkpt>
      <trkpt lat="45.153" lon="4.97942">
        <ele>253</ele>
        <time>2016-02-25T18:10:39Z</time>
      </trkpt>
      <trkpt lat="45.15319" lon="4.97951">
        <ele>252</ele>
        <time>2016-02-25T18:12:39Z</time>
      </trkpt>
      <trkpt lat="45.15328" lon="4.97955">
        <ele>252</ele>
        <time>2016-02-25T18:14:39Z</time>
      </trkpt>
      <trkpt lat="45.1534" lon="4.97958">
        <ele>251</ele>
        <time>2016-02-25T18:16:39Z</time>
      </trkpt>
      <trkpt lat="45.1534" lon="4.97958">
        <ele>251</ele>
        <time>2016-02-25T18:18:39Z</time>
      </trkpt>
      <trkpt lat="45.15354" lon="4.97962">
        <ele>251</ele>
        <time>2016-02-25T18:20:39Z</time>
      </trkpt>
      <trkpt lat="45.15377" lon="4.97968">
        <ele>251</ele>
        <time>2016-02-25T18:22:39Z</time>
      </trkpt>
      <trkpt lat="45.15415" lon="4.97976">
        <ele>251</ele>
        <time>2016-02-25T18:24:39Z</time>
      </trkpt>
      <trkpt lat="45.15458" lon="4.97981">
        <ele>251</ele>
        <time>2016-02-25T18:26:39Z</time>
      </trkpt>
      <trkpt lat="45.15485" lon="4.97983">
        <ele>251</ele>
        <time>2016-02-25T18:28:39Z</time>
      </trkpt>
      <trkpt lat="45.15489" lon="4.97983">
        <ele>251</ele>
        <time>2016-02-25T18:30:39Z</time>
      </trkpt>
      <trkpt lat="45.15514" lon="4.97982">
        <ele>251</ele>
        <time>2016-02-25T18:32:39Z</time>
      </trkpt>
      <trkpt lat="45.15558" lon="4.97979">
        <ele>252</ele>
        <time>2016-02-25T18:34:39Z</time>
      </trkpt>
      <trkpt lat="45.15623" lon="4.97976">
        <ele>253</ele>
        <time>2016-02-25T18:36:39Z</time>
      </trkpt>
      <trkpt lat="45.1567" lon="4.97975">
        <ele>253</ele>
        <time>2016-02-25T18:38:39Z</time>
      </trkpt>
      <trkpt lat="45.15695" lon="4.97974">
        <ele>254</ele>
        <time>2016-02-25T18:40:39Z</time>
      </trkpt>
      <trkpt lat="45.15708" lon="4.97971">
        <ele>254</ele>
        <time>2016-02-25T18:42:39Z</time>
      </trkpt>
      <trkpt lat="45.1571" lon="4.97971">
        <ele>254</ele>
        <time>2016-02-25T18:44:39Z</time>
      </trkpt>
      <trkpt lat="45.15732" lon="4.97962">
        <ele>254</ele>
        <time>2016-02-25T18:46:39Z</time>
      </trkpt>
      <trkpt lat="45.15772" lon="4.97942">
        <ele>254</ele>
        <time>2016-02-25T18:48:39Z</time>
      </trkpt>
      <trkpt lat="45.15801" lon="4.97927">
        <ele>255</ele>
        <time>2016-02-25T18:50:39Z</time>
      </trkpt>
      <trkpt lat="45.15801" lon="4.97927">
        <ele>255</ele>
        <time>2016-02-25T18:52:39Z</time>
      </trkpt>
      <trkpt lat="45.15818" lon="4.97918">
        <ele>255</ele>
        <time>2016-02-25T18:54:39Z</time>
      </trkpt>
      <trkpt lat="45.15843" lon="4.97908">
        <ele>255</ele>
        <time>2016-02-25T18:56:39Z</time>
      </trkpt>
      <trkpt lat="45.15875" lon="4.97901">
        <ele>256</ele>
        <time>2016-02-25T18:58:39Z</time>
      </trkpt>
      <trkpt lat="45.15894" lon="4.97897">
        <ele>256</ele>
        <time>2016-02-25T19:00:39Z</time>
      </trkpt>
      <trkpt lat="45.15901" lon="4.97892">
        <ele>256</ele>
        <time>2016-02-25T19:02:39Z</time>
      </trkpt>
      <trkpt lat="45.15905" lon="4.97888">
        <ele>256</ele>
        <time>2016-02-25T19:04:39Z</time>
      </trkpt>
      <trkpt lat="45.15907" lon="4.9788">
        <ele>256</ele>
        <time>2016-02-25T19:06:39Z</time>
      </trkpt>
      <trkpt lat="45.15909" lon="4.97843">
        <ele>255</ele>
        <time>2016-02-25T19:08:39Z</time>
      </trkpt>
      <trkpt lat="45.15909" lon="4.97843">
        <ele>255</ele>
        <time>2016-02-25T19:10:39Z</time>
      </trkpt>
      <trkpt lat="45.15938" lon="4.9785">
        <ele>256</ele>
        <time>2016-02-25T19:12:39Z</time>
      </trkpt>
      <trkpt lat="45.15966" lon="4.97854">
        <ele>256</ele>
        <time>2016-02-25T19:14:39Z</time>
      </trkpt>
      <trkpt lat="45.16003" lon="4.97859">
        <ele>257</ele>
        <time>2016-02-25T19:16:39Z</time>
      </trkpt>
      <trkpt lat="45.16117" lon="4.97873">
        <ele>258</ele>
        <time>2016-02-25T19:18:39Z</time>
      </trkpt>
      <trkpt lat="45.16155" lon="4.97878">
        <ele>259</ele>
        <time>2016-02-25T19:20:39Z</time>
      </trkpt>
      <trkpt lat="45.16172" lon="4.97881">
        <ele>259</ele>
        <time>2016-02-25T19:22:39Z</time>
      </trkpt>
      <trkpt lat="45.16188" lon="4.97882">
        <ele>259</ele>
        <time>2016-02-25T19:24:39Z</time>
      </trkpt>
      <trkpt lat="45.16194" lon="4.97883">
        <ele>259</ele>
        <time>2016-02-25T19:26:39Z</time>
      </trkpt>
      <trkpt lat="45.16196" lon="4.97883">
        <ele>259</ele>
        <time>2016-02-25T19:28:39Z</time>
      </trkpt>
      <trkpt lat="45.16199" lon="4.97884">
        <ele>259</ele>
        <time>2016-02-25T19:30:39Z</time>
      </trkpt>
      <trkpt lat="45.16212" lon="4.97886">
        <ele>259</ele>
        <time>2016-02-25T19:32:39Z</time>
      </trkpt>
      <trkpt lat="45.16224" lon="4.97886">
        <ele>259</ele>
        <time>2016-02-25T19:34:39Z</time>
      </trkpt>
      <trkpt lat="45.1624" lon="4.97882">
        <ele>259</ele>
        <time>2016-02-25T19:36:39Z</time>
      </trkpt>
      <trkpt lat="45.16354" lon="4.9785">
        <ele>261</ele>
        <time>2016-02-25T19:38:39Z</time>
      </trkpt>
      <trkpt lat="45.16354" lon="4.9785">
        <ele>261</ele>
        <time>2016-02-25T19:40:39Z</time>
      </trkpt>
      <trkpt lat="45.16501" lon="4.97816">
        <ele>262</ele>
        <time>2016-02-25T19:42:39Z</time>
      </trkpt>
      <trkpt lat="45.16527" lon="4.97811">
        <ele>263</ele>
        <time>2016-02-25T19:44:39Z</time>
      </trkpt>
      <trkpt lat="45.16622" lon="4.97791">
        <ele>265</ele>
        <time>2016-02-25T19:46:39Z</time>
      </trkpt>
      <trkpt lat="45.16692" lon="4.97774">
        <ele>266</ele>
        <time>2016-02-25T19:48:39Z</time>
      </trkpt>
      <trkpt lat="45.16718" lon="4.97767">
        <ele>266</ele>
        <time>2016-02-25T19:50:39Z</time>
      </trkpt>
      <trkpt lat="45.1674" lon="4.9776">
        <ele>267</ele>
        <time>2016-02-25T19:52:39Z</time>
      </trkpt>
      <trkpt lat="45.16779" lon="4.97746">
        <ele>269</ele>
        <time>2016-02-25T19:54:39Z</time>
      </trkpt>
      <trkpt lat="45.16799" lon="4.97738">
        <ele>271</ele>
        <time>2016-02-25T19:56:39Z</time>
      </trkpt>
      <trkpt lat="45.16812" lon="4.97733">
        <ele>272</ele>
        <time>2016-02-25T19:58:39Z</time>
      </trkpt>
      <trkpt lat="45.16817" lon="4.97731">
        <ele>272</ele>
        <time>2016-02-25T20:00:39Z</time>
      </trkpt>
      <trkpt lat="45.16817" lon="4.97731">
        <ele>272</ele>
        <time>2016-02-25T20:02:39Z</time>
      </trkpt>
      <trkpt lat="45.16825" lon="4.97728">
        <ele>272</ele>
        <time>2016-02-25T20:04:39Z</time>
      </trkpt>
      <trkpt lat="45.16844" lon="4.9772">
        <ele>274</ele>
        <time>2016-02-25T20:06:39Z</time>
      </trkpt>
      <trkpt lat="45.16871" lon="4.97709">
        <ele>276</ele>
        <time>2016-02-25T20:08:39Z</time>
      </trkpt>
      <trkpt lat="45.1689" lon="4.97701">
        <ele>278</ele>
        <time>2016-02-25T20:10:39Z</time>
      </trkpt>
      <trkpt lat="45.16909" lon="4.97695">
        <ele>279</ele>
        <time>2016-02-25T20:12:39Z</time>
      </trkpt>
      <trkpt lat="45.16927" lon="4.9769">
        <ele>279</ele>
        <time>2016-02-25T20:14:39Z</time>
      </trkpt>
      <trkpt lat="45.16932" lon="4.97689">
        <ele>279</ele>
        <time>2016-02-25T20:16:39Z</time>
      </trkpt>
      <trkpt lat="45.16949" lon="4.97685">
        <ele>279</ele>
        <time>2016-02-25T20:18:39Z</time>
      </trkpt>
      <trkpt lat="45.16973" lon="4.9768">
        <ele>280</ele>
        <time>2016-02-25T20:20:39Z</time>
      </trkpt>
      <trkpt lat="45.1698" lon="4.97679">
        <ele>280</ele>
        <time>2016-02-25T20:22:39Z</time>
      </trkpt>
      <trkpt lat="45.17002" lon="4.97674">
        <ele>280</ele>
        <time>2016-02-25T20:24:39Z</time>
      </trkpt>
      <trkpt lat="45.17024" lon="4.97669">
        <ele>278</ele>
        <time>2016-02-25T20:26:39Z</time>
      </trkpt>
      <trkpt lat="45.17052" lon="4.97665">
        <ele>278</ele>
        <time>2016-02-25T20:28:39Z</time>
      </trkpt>
      <trkpt lat="45.1708" lon="4.97661">
        <ele>278</ele>
        <time>2016-02-25T20:30:39Z</time>
      </trkpt>
      <trkpt lat="45.17111" lon="4.97656">
        <ele>278</ele>
        <time>2016-02-25T20:32:39Z</time>
      </trkpt>
      <trkpt lat="45.17132" lon="4.97651">
        <ele>278</ele>
        <time>2016-02-25T20:34:39Z</time>
      </trkpt>
      <trkpt lat="45.17142" lon="4.97648">
        <ele>277</ele>
        <time>2016-02-25T20:36:39Z</time>
      </trkpt>
      <trkpt lat="45.1715" lon="4.97645">
        <ele>277</ele>
        <time>2016-02-25T20:38:39Z</time>
      </trkpt>
      <trkpt lat="45.17179" lon="4.97632">
        <ele>278</ele>
        <time>2016-02-25T20:40:39Z</time>
      </trkpt>
      <trkpt lat="45.17201" lon="4.97623">
        <ele>278</ele>
        <time>2016-02-25T20:42:39Z</time>
      </trkpt>
      <trkpt lat="45.17214" lon="4.9762">
        <ele>279</ele>
        <time>2016-02-25T20:44:39Z</time>
      </trkpt>
      <trkpt lat="45.17219" lon="4.9762">
        <ele>279</ele>
        <time>2016-02-25T20:46:39Z</time>
      </trkpt>
      <trkpt lat="45.17226" lon="4.97619">
        <ele>279</ele>
        <time>2016-02-25T20:48:39Z</time>
      </trkpt>
      <trkpt lat="45.17238" lon="4.97619">
        <ele>279</ele>
        <time>2016-02-25T20:50:39Z</time>
      </trkpt>
      <trkpt lat="45.1726" lon="4.97622">
        <ele>280</ele>
        <time>2016-02-25T20:52:39Z</time>
      </trkpt>
      <trkpt lat="45.17279" lon="4.97624">
        <ele>280</ele>
        <time>2016-02-25T20:54:39Z</time>
      </trkpt>
      <trkpt lat="45.17302" lon="4.97626">
        <ele>280</ele>
        <time>2016-02-25T20:56:39Z</time>
      </trkpt>
      <trkpt lat="45.17336" lon="4.9763">
        <ele>281</ele>
        <time>2016-02-25T20:58:39Z</time>
      </trkpt>
      <trkpt lat="45.17361" lon="4.97632">
        <ele>281</ele>
        <time>2016-02-25T21:00:39Z</time>
      </trkpt>
      <trkpt lat="45.17374" lon="4.97632">
        <ele>281</ele>
        <time>2016-02-25T21:02:39Z</time>
      </trkpt>
      <trkpt lat="45.17374" lon="4.97632">
        <ele>281</ele>
        <time>2016-02-25T21:04:39Z</time>
      </trkpt>
      <trkpt lat="45.17384" lon="4.97631">
        <ele>281</ele>
        <time>2016-02-25T21:06:39Z</time>
      </trkpt>
      <trkpt lat="45.17396" lon="4.97629">
        <ele>281</ele>
        <time>2016-02-25T21:08:39Z</time>
      </trkpt>
      <trkpt lat="45.17405" lon="4.97626">
        <ele>281</ele>
        <time>2016-02-25T21:10:39Z</time>
      </trkpt>
      <trkpt lat="45.17405" lon="4.97626">
        <ele>281</ele>
        <time>2016-02-25T21:12:39Z</time>
      </trkpt>
      <trkpt lat="45.17414" lon="4.9763">
        <ele>281</ele>
        <time>2016-02-25T21:14:39Z</time>
      </trkpt>
      <trkpt lat="45.17426" lon="4.9763">
        <ele>282</ele>
        <time>2016-02-25T21:16:39Z</time>
      </trkpt>
      <trkpt lat="45.17447" lon="4.9763">
        <ele>282</ele>
        <time>2016-02-25T21:18:39Z</time>
      </trkpt>
      <trkpt lat="45.17468" lon="4.9763">
        <ele>283</ele>
        <time>2016-02-25T21:20:39Z</time>
      </trkpt>
      <trkpt lat="45.17479" lon="4.97633">
        <ele>283</ele>
        <time>2016-02-25T21:22:39Z</time>
      </trkpt>
      <trkpt lat="45.17488" lon="4.97636">
        <ele>283</ele>
        <time>2016-02-25T21:24:39Z</time>
      </trkpt>
      <trkpt lat="45.17511" lon="4.97647">
        <ele>284</ele>
        <time>2016-02-25T21:26:39Z</time>
      </trkpt>
      <trkpt lat="45.17537" lon="4.97662">
        <ele>285</ele>
        <time>2016-02-25T21:28:39Z</time>
      </trkpt>
      <trkpt lat="45.17557" lon="4.97674">
        <ele>286</ele>
        <time>2016-02-25T21:30:39Z</time>
      </trkpt>
      <trkpt lat="45.17566" lon="4.97681">
        <ele>287</ele>
        <time>2016-02-25T21:32:39Z</time>
      </trkpt>
      <trkpt lat="45.17571" lon="4.97688">
        <ele>287</ele>
        <time>2016-02-25T21:34:39Z</time>
      </trkpt>
      <trkpt lat="45.17577" lon="4.977">
        <ele>288</ele>
        <time>2016-02-25T21:36:39Z</time>
      </trkpt>
      <trkpt lat="45.17581" lon="4.97712">
        <ele>288</ele>
        <time>2016-02-25T21:38:39Z</time>
      </trkpt>
      <trkpt lat="45.17584" lon="4.97731">
        <ele>288</ele>
        <time>2016-02-25T21:40:39Z</time>
      </trkpt>
      <trkpt lat="45.17585" lon="4.97751">
        <ele>288</ele>
        <time>2016-02-25T21:42:39Z</time>
      </trkpt>
      <trkpt lat="45.17585" lon="4.97776">
        <ele>290</ele>
        <time>2016-02-25T21:44:39Z</time>
      </trkpt>
      <trkpt lat="45.17585" lon="4.97798">
        <ele>292</ele>
        <time>2016-02-25T21:46:39Z</time>
      </trkpt>
      <trkpt lat="45.17586" lon="4.97819">
        <ele>294</ele>
        <time>2016-02-25T21:48:39Z</time>
      </trkpt>
      <trkpt lat="45.17586" lon="4.97825">
        <ele>294</ele>
        <time>2016-02-25T21:50:39Z</time>
      </trkpt>
      <trkpt lat="45.17586" lon="4.97848">
        <ele>296</ele>
        <time>2016-02-25T21:52:39Z</time>
      </trkpt>
      <trkpt lat="45.17588" lon="4.9786">
        <ele>298</ele>
        <time>2016-02-25T21:54:39Z</time>
      </trkpt>
      <trkpt lat="45.17591" lon="4.97867">
        <ele>298</ele>
        <time>2016-02-25T21:56:39Z</time>
      </trkpt>
      <trkpt lat="45.17593" lon="4.97872">
        <ele>299</ele>
        <time>2016-02-25T21:58:39Z</time>
      </trkpt>
      <trkpt lat="45.17601" lon="4.9788">
        <ele>299</ele>
        <time>2016-02-25T22:00:39Z</time>
      </trkpt>
      <trkpt lat="45.17612" lon="4.9789">
        <ele>300</ele>
        <time>2016-02-25T22:02:39Z</time>
      </trkpt>
      <trkpt lat="45.17625" lon="4.97902">
        <ele>302</ele>
        <time>2016-02-25T22:04:39Z</time>
      </trkpt>
      <trkpt lat="45.17638" lon="4.97914">
        <ele>303</ele>
        <time>2016-02-25T22:06:39Z</time>
      </trkpt>
      <trkpt lat="45.17643" lon="4.9792">
        <ele>303</ele>
        <time>2016-02-25T22:08:39Z</time>
      </trkpt>
      <trkpt lat="45.1765" lon="4.97933">
        <ele>304</ele>
        <time>2016-02-25T22:10:39Z</time>
      </trkpt>
      <trkpt lat="45.1765" lon="4.97933">
        <ele>304</ele>
        <time>2016-02-25T22:12:39Z</time>
      </trkpt>
      <trkpt lat="45.17653" lon="4.97947">
        <ele>304</ele>
        <time>2016-02-25T22:14:39Z</time>
      </trkpt>
      <trkpt lat="45.17656" lon="4.97966">
        <ele>305</ele>
        <time>2016-02-25T22:16:39Z</time>
      </trkpt>
      <trkpt lat="45.17659" lon="4.97974">
        <ele>305</ele>
        <time>2016-02-25T22:18:39Z</time>
      </trkpt>
      <trkpt lat="45.1766" lon="4.97981">
        <ele>305</ele>
        <time>2016-02-25T22:20:39Z</time>
      </trkpt>
      <trkpt lat="45.17662" lon="4.97984">
        <ele>305</ele>
        <time>2016-02-25T22:22:39Z</time>
      </trkpt>
      <trkpt lat="45.17666" lon="4.97995">
        <ele>306</ele>
        <time>2016-02-25T22:24:39Z</time>
      </trkpt>
      <trkpt lat="45.17671" lon="4.98013">
        <ele>306</ele>
        <time>2016-02-25T22:26:39Z</time>
      </trkpt>
      <trkpt lat="45.17674" lon="4.98032">
        <ele>307</ele>
        <time>2016-02-25T22:28:39Z</time>
      </trkpt>
      <trkpt lat="45.17675" lon="4.98052">
        <ele>308</ele>
        <time>2016-02-25T22:30:39Z</time>
      </trkpt>
      <trkpt lat="45.17674" lon="4.98077">
        <ele>309</ele>
        <time>2016-02-25T22:32:39Z</time>
      </trkpt>
      <trkpt lat="45.17672" lon="4.98109">
        <ele>311</ele>
        <time>2016-02-25T22:34:39Z</time>
      </trkpt>
      <trkpt lat="45.17672" lon="4.98141">
        <ele>312</ele>
        <time>2016-02-25T22:36:39Z</time>
      </trkpt>
      <trkpt lat="45.17674" lon="4.98168">
        <ele>313</ele>
        <time>2016-02-25T22:38:39Z</time>
      </trkpt>
      <trkpt lat="45.17677" lon="4.9819">
        <ele>315</ele>
        <time>2016-02-25T22:40:39Z</time>
      </trkpt>
      <trkpt lat="45.17682" lon="4.98208">
        <ele>316</ele>
        <time>2016-02-25T22:42:39Z</time>
      </trkpt>
      <trkpt lat="45.17689" lon="4.98228">
        <ele>318</ele>
        <time>2016-02-25T22:44:39Z</time>
      </trkpt>
      <trkpt lat="45.17691" lon="4.98233">
        <ele>318</ele>
        <time>2016-02-25T22:46:39Z</time>
      </trkpt>
      <trkpt lat="45.17698" lon="4.98248">
        <ele>319</ele>
        <time>2016-02-25T22:48:39Z</time>
      </trkpt>
      <trkpt lat="45.17708" lon="4.98268">
        <ele>321</ele>
        <time>2016-02-25T22:50:39Z</time>
      </trkpt>
      <trkpt lat="45.17714" lon="4.98279">
        <ele>322</ele>
        <time>2016-02-25T22:52:39Z</time>
      </trkpt>
      <trkpt lat="45.17716" lon="4.98283">
        <ele>322</ele>
        <time>2016-02-25T22:54:39Z</time>
      </trkpt>
      <trkpt lat="45.17726" lon="4.983">
        <ele>323</ele>
        <time>2016-02-25T22:56:39Z</time>
      </trkpt>
      <trkpt lat="45.17733" lon="4.98317">
        <ele>325</ele>
        <time>2016-02-25T22:58:39Z</time>
      </trkpt>
      <trkpt lat="45.17737" lon="4.98333">
        <ele>326</ele>
        <time>2016-02-25T23:00:39Z</time>
      </trkpt>
      <trkpt lat="45.17738" lon="4.98346">
        <ele>327</ele>
        <time>2016-02-25T23:02:39Z</time>
      </trkpt>
      <trkpt lat="45.17737" lon="4.98365">
        <ele>329</ele>
        <time>2016-02-25T23:04:39Z</time>
      </trkpt>
      <trkpt lat="45.17734" lon="4.9839">
        <ele>331</ele>
        <time>2016-02-25T23:06:39Z</time>
      </trkpt>
      <trkpt lat="45.17727" lon="4.98429">
        <ele>334</ele>
        <time>2016-02-25T23:08:39Z</time>
      </trkpt>
      <trkpt lat="45.1772" lon="4.98456">
        <ele>335</ele>
        <time>2016-02-25T23:10:39Z</time>
      </trkpt>
      <trkpt lat="45.17714" lon="4.98481">
        <ele>336</ele>
        <time>2016-02-25T23:12:39Z</time>
      </trkpt>
      <trkpt lat="45.17708" lon="4.98502">
        <ele>337</ele>
        <time>2016-02-25T23:14:39Z</time>
      </trkpt>
      <trkpt lat="45.17699" lon="4.98518">
        <ele>339</ele>
        <time>2016-02-25T23:16:39Z</time>
      </trkpt>
      <trkpt lat="45.17692" lon="4.98534">
        <ele>341</ele>
        <time>2016-02-25T23:18:39Z</time>
      </trkpt>
      <trkpt lat="45.17688" lon="4.98546">
        <ele>343</ele>
        <time>2016-02-25T23:20:39Z</time>
      </trkpt>
      <trkpt lat="45.17687" lon="4.98564">
        <ele>345</ele>
        <time>2016-02-25T23:22:39Z</time>
      </trkpt>
      <trkpt lat="45.17689" lon="4.98588">
        <ele>348</ele>
        <time>2016-02-25T23:24:39Z</time>
      </trkpt>
      <trkpt lat="45.17694" lon="4.98611">
        <ele>353</ele>
        <time>2016-02-25T23:26:39Z</time>
      </trkpt>
      <trkpt lat="45.17703" lon="4.98629">
        <ele>356</ele>
        <time>2016-02-25T23:28:39Z</time>
      </trkpt>
      <trkpt lat="45.17711" lon="4.98638">
        <ele>358</ele>
        <time>2016-02-25T23:30:39Z</time>
      </trkpt>
      <trkpt lat="45.17722" lon="4.9864">
        <ele>358</ele>
        <time>2016-02-25T23:32:39Z</time>
      </trkpt>
      <trkpt lat="45.17731" lon="4.98639">
        <ele>358</ele>
        <time>2016-02-25T23:34:39Z</time>
      </trkpt>
      <trkpt lat="45.17736" lon="4.98639">
        <ele>358</ele>
        <time>2016-02-25T23:36:39Z</time>
      </trkpt>
      <trkpt lat="45.17746" lon="4.98639">
        <ele>358</ele>
        <time>2016-02-25T23:38:39Z</time>
      </trkpt>
      <trkpt lat="45.17758" lon="4.98642">
        <ele>359</ele>
        <time>2016-02-25T23:40:39Z</time>
      </trkpt>
      <trkpt lat="45.17775" lon="4.98649">
        <ele>361</ele>
        <time>2016-02-25T23:42:39Z</time>
      </trkpt>
      <trkpt lat="45.1779" lon="4.98655">
        <ele>363</ele>
        <time>2016-02-25T23:44:39Z</time>
      </trkpt>
      <trkpt lat="45.17804" lon="4.98663">
        <ele>365</ele>
        <time>2016-02-25T23:46:39Z</time>
      </trkpt>
      <trkpt lat="45.17817" lon="4.98668">
        <ele>367</ele>
        <time>2016-02-25T23:48:39Z</time>
      </trkpt>
      <trkpt lat="45.17819" lon="4.98668">
        <ele>367</ele>
        <time>2016-02-25T23:50:39Z</time>
      </trkpt>
      <trkpt lat="45.17826" lon="4.98669">
        <ele>367</ele>
        <time>2016-02-25T23:52:39Z</time>
      </trkpt>
      <trkpt lat="45.17833" lon="4.98667">
        <ele>367</ele>
        <time>2016-02-25T23:54:39Z</time>
      </trkpt>
      <trkpt lat="45.17844" lon="4.98663">
        <ele>367</ele>
        <time>2016-02-25T23:56:39Z</time>
      </trkpt>
      <trkpt lat="45.17849" lon="4.98657">
        <ele>366</ele>
        <time>2016-02-25T23:58:39Z</time>
      </trkpt>
      <trkpt lat="45.17849" lon="4.98657">
        <ele>366</ele>
        <time>2016-02-26T00:00:39Z</time>
      </trkpt>
      <trkpt lat="45.17857" lon="4.98657">
        <ele>366</ele>
        <time>2016-02-26T00:02:39Z</time>
      </trkpt>
      <trkpt lat="45.17868" lon="4.98652">
        <ele>366</ele>
        <time>2016-02-26T00:04:39Z</time>
      </trkpt>
      <trkpt lat="45.17875" lon="4.9865">
        <ele>366</ele>
        <time>2016-02-26T00:06:39Z</time>
      </trkpt>
      <trkpt lat="45.17886" lon="4.98654">
        <ele>367</ele>
        <time>2016-02-26T00:08:39Z</time>
      </trkpt>
      <trkpt lat="45.17899" lon="4.98663">
        <ele>369</ele>
        <time>2016-02-26T00:10:39Z</time>
      </trkpt>
      <trkpt lat="45.17903" lon="4.98668">
        <ele>371</ele>
        <time>2016-02-26T00:12:39Z</time>
      </trkpt>
      <trkpt lat="45.17908" lon="4.98681">
        <ele>375</ele>
        <time>2016-02-26T00:14:39Z</time>
      </trkpt>
      <trkpt lat="45.1791" lon="4.98693">
        <ele>378</ele>
        <time>2016-02-26T00:16:39Z</time>
      </trkpt>
      <trkpt lat="45.17908" lon="4.98702">
        <ele>381</ele>
        <time>2016-02-26T00:18:39Z</time>
      </trkpt>
      <trkpt lat="45.17908" lon="4.98702">
        <ele>381</ele>
        <time>2016-02-26T00:20:39Z</time>
      </trkpt>
      <trkpt lat="45.17906" lon="4.98708">
        <ele>383</ele>
        <time>2016-02-26T00:22:39Z</time>
      </trkpt>
      <trkpt lat="45.17905" lon="4.98709">
        <ele>383</ele>
        <time>2016-02-26T00:24:39Z</time>
      </trkpt>
      <trkpt lat="45.17904" lon="4.98711">
        <ele>383</ele>
        <time>2016-02-26T00:26:39Z</time>
      </trkpt>
      <trkpt lat="45.17904" lon="4.98712">
        <ele>384</ele>
        <time>2016-02-26T00:28:39Z</time>
      </trkpt>
      <trkpt lat="45.17878" lon="4.9874">
        <ele>390</ele>
        <time>2016-02-26T00:30:39Z</time>
      </trkpt>
      <trkpt lat="45.17853" lon="4.98764">
        <ele>394</ele>
        <time>2016-02-26T00:32:39Z</time>
      </trkpt>
      <trkpt lat="45.17848" lon="4.98769">
        <ele>395</ele>
        <time>2016-02-26T00:34:39Z</time>
      </trkpt>
      <trkpt lat="45.17844" lon="4.98771">
        <ele>395</ele>
        <time>2016-02-26T00:36:39Z</time>
      </trkpt>
      <trkpt lat="45.17838" lon="4.98772">
        <ele>395</ele>
        <time>2016-02-26T00:38:39Z</time>
      </trkpt>
      <trkpt lat="45.17831" lon="4.98772">
        <ele>395</ele>
        <time>2016-02-26T00:40:39Z</time>
      </trkpt>
      <trkpt lat="45.1782" lon="4.98771">
        <ele>394</ele>
        <time>2016-02-26T00:42:39Z</time>
      </trkpt>
      <trkpt lat="45.17806" lon="4.9877">
        <ele>393</ele>
        <time>2016-02-26T00:44:39Z</time>
      </trkpt>
      <trkpt lat="45.17792" lon="4.98769">
        <ele>392</ele>
        <time>2016-02-26T00:46:39Z</time>
      </trkpt>
      <trkpt lat="45.17789" lon="4.98769">
        <ele>392</ele>
        <time>2016-02-26T00:48:39Z</time>
      </trkpt>
      <trkpt lat="45.1777" lon="4.98766">
        <ele>390</ele>
        <time>2016-02-26T00:50:39Z</time>
      </trkpt>
      <trkpt lat="45.17751" lon="4.98762">
        <ele>388</ele>
        <time>2016-02-26T00:52:39Z</time>
      </trkpt>
      <trkpt lat="45.17731" lon="4.98759">
        <ele>386</ele>
        <time>2016-02-26T00:54:39Z</time>
      </trkpt>
      <trkpt lat="45.17719" lon="4.98758">
        <ele>385</ele>
        <time>2016-02-26T00:56:39Z</time>
      </trkpt>
      <trkpt lat="45.17707" lon="4.98758">
        <ele>384</ele>
        <time>2016-02-26T00:58:39Z</time>
      </trkpt>
      <trkpt lat="45.17688" lon="4.98758">
        <ele>383</ele>
        <time>2016-02-26T01:00:39Z</time>
      </trkpt>
      <trkpt lat="45.17676" lon="4.9876">
        <ele>383</ele>
        <time>2016-02-26T01:02:39Z</time>
      </trkpt>
      <trkpt lat="45.17664" lon="4.98764">
        <ele>383</ele>
        <time>2016-02-26T01:04:39Z</time>
      </trkpt>
      <trkpt lat="45.17653" lon="4.98767">
        <ele>381</ele>
        <time>2016-02-26T01:06:39Z</time>
      </trkpt>
      <trkpt lat="45.17641" lon="4.98773">
        <ele>380</ele>
        <time>2016-02-26T01:08:39Z</time>
      </trkpt>
      <trkpt lat="45.17631" lon="4.98779">
        <ele>379</ele>
        <time>2016-02-26T01:10:39Z</time>
      </trkpt>
      <trkpt lat="45.17626" lon="4.98785">
        <ele>378</ele>
        <time>2016-02-26T01:12:39Z</time>
      </trkpt>
      <trkpt lat="45.17623" lon="4.98792">
        <ele>378</ele>
        <time>2016-02-26T01:14:39Z</time>
      </trkpt>
      <trkpt lat="45.17623" lon="4.98797">
        <ele>378</ele>
        <time>2016-02-26T01:16:39Z</time>
      </trkpt>
      <trkpt lat="45.17623" lon="4.98804">
        <ele>379</ele>
        <time>2016-02-26T01:18:39Z</time>
      </trkpt>
      <trkpt lat="45.17625" lon="4.98814">
        <ele>380</ele>
        <time>2016-02-26T01:20:39Z</time>
      </trkpt>
      <trkpt lat="45.17633" lon="4.98831">
        <ele>384</ele>
        <time>2016-02-26T01:22:39Z</time>
      </trkpt>
      <trkpt lat="45.17639" lon="4.98843">
        <ele>386</ele>
        <time>2016-02-26T01:24:39Z</time>
      </trkpt>
      <trkpt lat="45.17644" lon="4.98854">
        <ele>388</ele>
        <time>2016-02-26T01:26:39Z</time>
      </trkpt>
      <trkpt lat="45.17647" lon="4.98862">
        <ele>389</ele>
        <time>2016-02-26T01:28:39Z</time>
      </trkpt>
      <trkpt lat="45.17649" lon="4.98869">
        <ele>390</ele>
        <time>2016-02-26T01:30:39Z</time>
      </trkpt>
      <trkpt lat="45.17651" lon="4.98876">
        <ele>391</ele>
        <time>2016-02-26T01:32:39Z</time>
      </trkpt>
      <trkpt lat="45.17651" lon="4.98883">
        <ele>391</ele>
        <time>2016-02-26T01:34:39Z</time>
      </trkpt>
      <trkpt lat="45.1765" lon="4.98889">
        <ele>391</ele>
        <time>2016-02-26T01:36:39Z</time>
      </trkpt>
      <trkpt lat="45.17649" lon="4.98897">
        <ele>391</ele>
        <time>2016-02-26T01:38:39Z</time>
      </trkpt>
      <trkpt lat="45.17646" lon="4.98904">
        <ele>391</ele>
        <time>2016-02-26T01:40:39Z</time>
      </trkpt>
      <trkpt lat="45.17642" lon="4.98909">
        <ele>390</ele>
        <time>2016-02-26T01:42:39Z</time>
      </trkpt>
      <trkpt lat="45.17636" lon="4.98916">
        <ele>389</ele>
        <time>2016-02-26T01:44:39Z</time>
      </trkpt>
      <trkpt lat="45.17626" lon="4.98922">
        <ele>387</ele>
        <time>2016-02-26T01:46:39Z</time>
      </trkpt>
      <trkpt lat="45.17617" lon="4.98928">
        <ele>386</ele>
        <time>2016-02-26T01:48:39Z</time>
      </trkpt>
      <trkpt lat="45.17611" lon="4.98934">
        <ele>385</ele>
        <time>2016-02-26T01:50:39Z</time>
      </trkpt>
      <trkpt lat="45.17605" lon="4.98944">
        <ele>385</ele>
        <time>2016-02-26T01:52:39Z</time>
      </trkpt>
      <trkpt lat="45.17596" lon="4.98961">
        <ele>386</ele>
        <time>2016-02-26T01:54:39Z</time>
      </trkpt>
      <trkpt lat="45.17591" lon="4.98977">
        <ele>388</ele>
        <time>2016-02-26T01:56:39Z</time>
      </trkpt>
      <trkpt lat="45.17589" lon="4.98987">
        <ele>389</ele>
        <time>2016-02-26T01:58:39Z</time>
      </trkpt>
      <trkpt lat="45.17588" lon="4.98999">
        <ele>391</ele>
        <time>2016-02-26T02:00:39Z</time>
      </trkpt>
      <trkpt lat="45.17587" lon="4.99007">
        <ele>391</ele>
        <time>2016-02-26T02:02:39Z</time>
      </trkpt>
      <trkpt lat="45.17587" lon="4.99012">
        <ele>392</ele>
        <time>2016-02-26T02:04:39Z</time>
      </trkpt>
      <trkpt lat="45.17588" lon="4.99031">
        <ele>394</ele>
        <time>2016-02-26T02:06:39Z</time>
      </trkpt>
      <trkpt lat="45.17588" lon="4.9905">
        <ele>396</ele>
        <time>2016-02-26T02:08:39Z</time>
      </trkpt>
      <trkpt lat="45.17588" lon="4.99066">
        <ele>397</ele>
        <time>2016-02-26T02:10:39Z</time>
      </trkpt>
      <trkpt lat="45.17587" lon="4.99082">
        <ele>398</ele>
        <time>2016-02-26T02:12:39Z</time>
      </trkpt>
      <trkpt lat="45.17587" lon="4.99095">
        <ele>398</ele>
        <time>2016-02-26T02:14:39Z</time>
      </trkpt>
      <trkpt lat="45.17588" lon="4.99106">
        <ele>398</ele>
        <time>2016-02-26T02:16:39Z</time>
      </trkpt>
      <trkpt lat="45.1759" lon="4.99114">
        <ele>397</ele>
        <time>2016-02-26T02:18:39Z</time>
      </trkpt>
      <trkpt lat="45.1759" lon="4.99114">
        <ele>397</ele>
        <time>2016-02-26T02:20:39Z</time>
      </trkpt>
      <trkpt lat="45.17597" lon="4.99122">
        <ele>398</ele>
        <time>2016-02-26T02:22:39Z</time>
      </trkpt>
      <trkpt lat="45.17602" lon="4.9913">
        <ele>398</ele>
        <time>2016-02-26T02:24:39Z</time>
      </trkpt>
      <trkpt lat="45.17609" lon="4.99136">
        <ele>398</ele>
        <time>2016-02-26T02:26:39Z</time>
      </trkpt>
      <trkpt lat="45.17614" lon="4.99141">
        <ele>398</ele>
        <time>2016-02-26T02:28:39Z</time>
      </trkpt>
      <trkpt lat="45.17619" lon="4.99144">
        <ele>398</ele>
        <time>2016-02-26T02:30:39Z</time>
      </trkpt>
      <trkpt lat="45.17629" lon="4.99147">
        <ele>399</ele>
        <time>2016-02-26T02:32:39Z</time>
      </trkpt>
      <trkpt lat="45.17649" lon="4.99149">
        <ele>400</ele>
        <time>2016-02-26T02:34:39Z</time>
      </trkpt>
      <trkpt lat="45.17693" lon="4.99153">
        <ele>401</ele>
        <time>2016-02-26T02:36:39Z</time>
      </trkpt>
      <trkpt lat="45.17725" lon="4.99158">
        <ele>400</ele>
        <time>2016-02-26T02:38:39Z</time>
      </trkpt>
      <trkpt lat="45.17742" lon="4.99161">
        <ele>399</ele>
        <time>2016-02-26T02:40:39Z</time>
      </trkpt>
      <trkpt lat="45.1775" lon="4.99163">
        <ele>399</ele>
        <time>2016-02-26T02:42:39Z</time>
      </trkpt>
      <trkpt lat="45.17754" lon="4.99165">
        <ele>399</ele>
        <time>2016-02-26T02:44:39Z</time>
      </trkpt>
      <trkpt lat="45.17758" lon="4.99168">
        <ele>399</ele>
        <time>2016-02-26T02:46:39Z</time>
      </trkpt>
      <trkpt lat="45.17762" lon="4.99171">
        <ele>400</ele>
        <time>2016-02-26T02:48:39Z</time>
      </trkpt>
      <trkpt lat="45.17766" lon="4.99176">
        <ele>400</ele>
        <time>2016-02-26T02:50:39Z</time>
      </trkpt>
      <trkpt lat="45.17769" lon="4.9918">
        <ele>400</ele>
        <time>2016-02-26T02:52:39Z</time>
      </trkpt>
      <trkpt lat="45.17771" lon="4.99185">
        <ele>399</ele>
        <time>2016-02-26T02:54:39Z</time>
      </trkpt>
      <trkpt lat="45.17773" lon="4.99195">
        <ele>398</ele>
        <time>2016-02-26T02:56:39Z</time>
      </trkpt>
      <trkpt lat="45.17774" lon="4.99209">
        <ele>396</ele>
        <time>2016-02-26T02:58:39Z</time>
      </trkpt>
      <trkpt lat="45.17775" lon="4.99221">
        <ele>394</ele>
        <time>2016-02-26T03:00:39Z</time>
      </trkpt>
      <trkpt lat="45.17776" lon="4.99241">
        <ele>391</ele>
        <time>2016-02-26T03:02:39Z</time>
      </trkpt>
      <trkpt lat="45.17779" lon="4.99252">
        <ele>389</ele>
        <time>2016-02-26T03:04:39Z</time>
      </trkpt>
      <trkpt lat="45.17781" lon="4.99259">
        <ele>388</ele>
        <time>2016-02-26T03:06:39Z</time>
      </trkpt>
      <trkpt lat="45.17787" lon="4.99274">
        <ele>387</ele>
        <time>2016-02-26T03:08:39Z</time>
      </trkpt>
      <trkpt lat="45.17792" lon="4.99282">
        <ele>386</ele>
        <time>2016-02-26T03:10:39Z</time>
      </trkpt>
      <trkpt lat="45.17804" lon="4.99298">
        <ele>386</ele>
        <time>2016-02-26T03:12:39Z</time>
      </trkpt>
      <trkpt lat="45.17805" lon="4.99301">
        <ele>385</ele>
        <time>2016-02-26T03:14:39Z</time>
      </trkpt>
      <trkpt lat="45.17805" lon="4.99303">
        <ele>385</ele>
        <time>2016-02-26T03:16:39Z</time>
      </trkpt>
      <trkpt lat="45.17803" lon="4.99312">
        <ele>383</ele>
        <time>2016-02-26T03:18:39Z</time>
      </trkpt>
      <trkpt lat="45.17803" lon="4.99312">
        <ele>383</ele>
        <time>2016-02-26T03:20:39Z</time>
      </trkpt>
      <trkpt lat="45.17812" lon="4.99317">
        <ele>383</ele>
        <time>2016-02-26T03:22:39Z</time>
      </trkpt>
      <trkpt lat="45.17824" lon="4.99324">
        <ele>384</ele>
        <time>2016-02-26T03:24:39Z</time>
      </trkpt>
      <trkpt lat="45.1784" lon="4.99333">
        <ele>383</ele>
        <time>2016-02-26T03:26:39Z</time>
      </trkpt>
      <trkpt lat="45.17858" lon="4.99341">
        <ele>383</ele>
        <time>2016-02-26T03:28:39Z</time>
      </trkpt>
      <trkpt lat="45.17872" lon="4.99348">
        <ele>382</ele>
        <time>2016-02-26T03:30:39Z</time>
      </trkpt>
      <trkpt lat="45.17883" lon="4.9935">
        <ele>382</ele>
        <time>2016-02-26T03:32:39Z</time>
      </trkpt>
      <trkpt lat="45.17893" lon="4.9935">
        <ele>383</ele>
        <time>2016-02-26T03:34:39Z</time>
      </trkpt>
      <trkpt lat="45.17911" lon="4.99348">
        <ele>384</ele>
        <time>2016-02-26T03:36:39Z</time>
      </trkpt>
      <trkpt lat="45.1792" lon="4.99349">
        <ele>385</ele>
        <time>2016-02-26T03:38:39Z</time>
      </trkpt>
      <trkpt lat="45.17927" lon="4.99352">
        <ele>386</ele>
        <time>2016-02-26T03:40:39Z</time>
      </trkpt>
      <trkpt lat="45.17935" lon="4.99357">
        <ele>386</ele>
        <time>2016-02-26T03:42:39Z</time>
      </trkpt>
      <trkpt lat="45.1794" lon="4.99362">
        <ele>387</ele>
        <time>2016-02-26T03:44:39Z</time>
      </trkpt>
      <trkpt lat="45.17945" lon="4.99368">
        <ele>387</ele>
        <time>2016-02-26T03:46:39Z</time>
      </trkpt>
      <trkpt lat="45.17948" lon="4.99374">
        <ele>386</ele>
        <time>2016-02-26T03:48:39Z</time>
      </trkpt>
      <trkpt lat="45.17951" lon="4.99384">
        <ele>386</ele>
        <time>2016-02-26T03:50:39Z</time>
      </trkpt>
      <trkpt lat="45.17953" lon="4.99398">
        <ele>384</ele>
        <time>2016-02-26T03:52:39Z</time>
      </trkpt>
      <trkpt lat="45.17955" lon="4.99414">
        <ele>382</ele>
        <time>2016-02-26T03:54:39Z</time>
      </trkpt>
      <trkpt lat="45.17957" lon="4.99436">
        <ele>381</ele>
        <time>2016-02-26T03:56:39Z</time>
      </trkpt>
      <trkpt lat="45.17958" lon="4.9945">
        <ele>380</ele>
        <time>2016-02-26T03:58:39Z</time>
      </trkpt>
      <trkpt lat="45.17959" lon="4.99462">
        <ele>380</ele>
        <time>2016-02-26T04:00:39Z</time>
      </trkpt>
      <trkpt lat="45.1796" lon="4.99468">
        <ele>379</ele>
        <time>2016-02-26T04:02:39Z</time>
      </trkpt>
      <trkpt lat="45.17962" lon="4.99476">
        <ele>379</ele>
        <time>2016-02-26T04:04:39Z</time>
      </trkpt>
      <trkpt lat="45.17967" lon="4.99484">
        <ele>379</ele>
        <time>2016-02-26T04:06:39Z</time>
      </trkpt>
      <trkpt lat="45.17974" lon="4.99495">
        <ele>379</ele>
        <time>2016-02-26T04:08:39Z</time>
      </trkpt>
      <trkpt lat="45.17979" lon="4.99503">
        <ele>379</ele>
        <time>2016-02-26T04:10:39Z</time>
      </trkpt>
      <trkpt lat="45.17994" lon="4.99526">
        <ele>379</ele>
        <time>2016-02-26T04:12:39Z</time>
      </trkpt>
      <trkpt lat="45.18004" lon="4.9954">
        <ele>378</ele>
        <time>2016-02-26T04:14:39Z</time>
      </trkpt>
      <trkpt lat="45.18009" lon="4.99548">
        <ele>378</ele>
        <time>2016-02-26T04:16:39Z</time>
      </trkpt>
      <trkpt lat="45.18009" lon="4.99548">
        <ele>378</ele>
        <time>2016-02-26T04:18:39Z</time>
      </trkpt>
      <trkpt lat="45.18008" lon="4.99551">
        <ele>377</ele>
        <time>2016-02-26T04:20:39Z</time>
      </trkpt>
      <trkpt lat="45.18008" lon="4.99553">
        <ele>377</ele>
        <time>2016-02-26T04:22:39Z</time>
      </trkpt>
      <trkpt lat="45.1801" lon="4.99572">
        <ele>375</ele>
        <time>2016-02-26T04:24:39Z</time>
      </trkpt>
      <trkpt lat="45.18009" lon="4.99575">
        <ele>374</ele>
        <time>2016-02-26T04:26:39Z</time>
      </trkpt>
      <trkpt lat="45.18004" lon="4.99617">
        <ele>372</ele>
        <time>2016-02-26T04:28:39Z</time>
      </trkpt>
      <trkpt lat="45.18003" lon="4.9963">
        <ele>372</ele>
        <time>2016-02-26T04:30:39Z</time>
      </trkpt>
      <trkpt lat="45.18002" lon="4.99634">
        <ele>372</ele>
        <time>2016-02-26T04:32:39Z</time>
      </trkpt>
      <trkpt lat="45.17996" lon="4.99661">
        <ele>370</ele>
        <time>2016-02-26T04:34:39Z</time>
      </trkpt>
      <trkpt lat="45.17992" lon="4.99676">
        <ele>368</ele>
        <time>2016-02-26T04:36:39Z</time>
      </trkpt>
      <trkpt lat="45.1799" lon="4.99683">
        <ele>367</ele>
        <time>2016-02-26T04:38:39Z</time>
      </trkpt>
      <trkpt lat="45.17989" lon="4.99693">
        <ele>366</ele>
        <time>2016-02-26T04:40:39Z</time>
      </trkpt>
      <trkpt lat="45.17988" lon="4.99703">
        <ele>365</ele>
        <time>2016-02-26T04:42:39Z</time>
      </trkpt>
      <trkpt lat="45.17988" lon="4.99714">
        <ele>364</ele>
        <time>2016-02-26T04:44:39Z</time>
      </trkpt>
      <trkpt lat="45.17993" lon="4.99739">
        <ele>363</ele>
        <time>2016-02-26T04:46:39Z</time>
      </trkpt>
      <trkpt lat="45.17994" lon="4.99751">
        <ele>362</ele>
        <time>2016-02-26T04:48:39Z</time>
      </trkpt>
      <trkpt lat="45.17993" lon="4.99764">
        <ele>361</ele>
        <time>2016-02-26T04:50:39Z</time>
      </trkpt>
      <trkpt lat="45.1799" lon="4.99783">
        <ele>359</ele>
        <time>2016-02-26T04:52:39Z</time>
      </trkpt>
      <trkpt lat="45.1798" lon="4.99827">
        <ele>355</ele>
        <time>2016-02-26T04:54:39Z</time>
      </trkpt>
      <trkpt lat="45.17977" lon="4.99839">
        <ele>355</ele>
        <time>2016-02-26T04:56:39Z</time>
      </trkpt>
      <trkpt lat="45.17974" lon="4.99846">
        <ele>354</ele>
        <time>2016-02-26T04:58:39Z</time>
      </trkpt>
      <trkpt lat="45.17971" lon="4.99852">
        <ele>354</ele>
        <time>2016-02-26T05:00:39Z</time>
      </trkpt>
      <trkpt lat="45.17963" lon="4.99861">
        <ele>353</ele>
        <time>2016-02-26T05:02:39Z</time>
      </trkpt>
      <trkpt lat="45.17951" lon="4.99872">
        <ele>351</ele>
        <time>2016-02-26T05:04:39Z</time>
      </trkpt>
      <trkpt lat="45.17937" lon="4.99883">
        <ele>350</ele>
        <time>2016-02-26T05:06:39Z</time>
      </trkpt>
      <trkpt lat="45.1793" lon="4.99889">
        <ele>349</ele>
        <time>2016-02-26T05:08:39Z</time>
      </trkpt>
      <trkpt lat="45.17924" lon="4.99897">
        <ele>349</ele>
        <time>2016-02-26T05:10:39Z</time>
      </trkpt>
      <trkpt lat="45.17919" lon="4.99904">
        <ele>349</ele>
        <time>2016-02-26T05:12:39Z</time>
      </trkpt>
      <trkpt lat="45.1791" lon="4.9992">
        <ele>348</ele>
        <time>2016-02-26T05:14:39Z</time>
      </trkpt>
      <trkpt lat="45.179" lon="4.99941">
        <ele>346</ele>
        <time>2016-02-26T05:16:39Z</time>
      </trkpt>
      <trkpt lat="45.17891" lon="4.99961">
        <ele>344</ele>
        <time>2016-02-26T05:18:39Z</time>
      </trkpt>
      <trkpt lat="45.17884" lon="4.99973">
        <ele>342</ele>
        <time>2016-02-26T05:20:39Z</time>
      </trkpt>
      <trkpt lat="45.17878" lon="4.99983">
        <ele>341</ele>
        <time>2016-02-26T05:22:39Z</time>
      </trkpt>
      <trkpt lat="45.17869" lon="4.99995">
        <ele>340</ele>
        <time>2016-02-26T05:24:39Z</time>
      </trkpt>
      <trkpt lat="45.17861" lon="5.00007">
        <ele>340</ele>
        <time>2016-02-26T05:26:39Z</time>
      </trkpt>
      <trkpt lat="45.1786" lon="5.00009">
        <ele>340</ele>
        <time>2016-02-26T05:28:39Z</time>
      </trkpt>
      <trkpt lat="45.1785" lon="5.00022">
        <ele>340</ele>
        <time>2016-02-26T05:30:39Z</time>
      </trkpt>
      <trkpt lat="45.17841" lon="5.00036">
        <ele>340</ele>
        <time>2016-02-26T05:32:39Z</time>
      </trkpt>
      <trkpt lat="45.17837" lon="5.00042">
        <ele>340</ele>
        <time>2016-02-26T05:34:39Z</time>
      </trkpt>
      <trkpt lat="45.17833" lon="5.0005">
        <ele>340</ele>
        <time>2016-02-26T05:36:39Z</time>
      </trkpt>
      <trkpt lat="45.17824" lon="5.00064">
        <ele>340</ele>
        <time>2016-02-26T05:38:39Z</time>
      </trkpt>
      <trkpt lat="45.17818" lon="5.00074">
        <ele>341</ele>
        <time>2016-02-26T05:40:39Z</time>
      </trkpt>
      <trkpt lat="45.17812" lon="5.0008">
        <ele>341</ele>
        <time>2016-02-26T05:42:39Z</time>
      </trkpt>
      <trkpt lat="45.17805" lon="5.00085">
        <ele>341</ele>
        <time>2016-02-26T05:44:39Z</time>
      </trkpt>
      <trkpt lat="45.17795" lon="5.00089">
        <ele>341</ele>
        <time>2016-02-26T05:46:39Z</time>
      </trkpt>
      <trkpt lat="45.17785" lon="5.00092">
        <ele>341</ele>
        <time>2016-02-26T05:48:39Z</time>
      </trkpt>
      <trkpt lat="45.17778" lon="5.00094">
        <ele>341</ele>
        <time>2016-02-26T05:50:39Z</time>
      </trkpt>
      <trkpt lat="45.17772" lon="5.00094">
        <ele>341</ele>
        <time>2016-02-26T05:52:39Z</time>
      </trkpt>
      <trkpt lat="45.17766" lon="5.00093">
        <ele>341</ele>
        <time>2016-02-26T05:54:39Z</time>
      </trkpt>
      <trkpt lat="45.17756" lon="5.00091">
        <ele>341</ele>
        <time>2016-02-26T05:56:39Z</time>
      </trkpt>
      <trkpt lat="45.17746" lon="5.00086">
        <ele>340</ele>
        <time>2016-02-26T05:58:39Z</time>
      </trkpt>
      <trkpt lat="45.17736" lon="5.00082">
        <ele>339</ele>
        <time>2016-02-26T06:00:39Z</time>
      </trkpt>
      <trkpt lat="45.17728" lon="5.0008">
        <ele>337</ele>
        <time>2016-02-26T06:02:39Z</time>
      </trkpt>
      <trkpt lat="45.17721" lon="5.00079">
        <ele>336</ele>
        <time>2016-02-26T06:04:39Z</time>
      </trkpt>
      <trkpt lat="45.17712" lon="5.00079">
        <ele>335</ele>
        <time>2016-02-26T06:06:39Z</time>
      </trkpt>
      <trkpt lat="45.17703" lon="5.0008">
        <ele>333</ele>
        <time>2016-02-26T06:08:39Z</time>
      </trkpt>
      <trkpt lat="45.17701" lon="5.00081">
        <ele>333</ele>
        <time>2016-02-26T06:10:39Z</time>
      </trkpt>
      <trkpt lat="45.17691" lon="5.00085">
        <ele>332</ele>
        <time>2016-02-26T06:12:39Z</time>
      </trkpt>
      <trkpt lat="45.1768" lon="5.00092">
        <ele>330</ele>
        <time>2016-02-26T06:14:39Z</time>
      </trkpt>
      <trkpt lat="45.17672" lon="5.00099">
        <ele>330</ele>
        <time>2016-02-26T06:16:39Z</time>
      </trkpt>
      <trkpt lat="45.17667" lon="5.00106">
        <ele>329</ele>
        <time>2016-02-26T06:18:39Z</time>
      </trkpt>
      <trkpt lat="45.17661" lon="5.00117">
        <ele>329</ele>
        <time>2016-02-26T06:20:39Z</time>
      </trkpt>
      <trkpt lat="45.17657" lon="5.00129">
        <ele>329</ele>
        <time>2016-02-26T06:22:39Z</time>
      </trkpt>
      <trkpt lat="45.17653" lon="5.00147">
        <ele>330</ele>
        <time>2016-02-26T06:24:39Z</time>
      </trkpt>
      <trkpt lat="45.17648" lon="5.00172">
        <ele>330</ele>
        <time>2016-02-26T06:26:39Z</time>
      </trkpt>
      <trkpt lat="45.1764" lon="5.00192">
        <ele>329</ele>
        <time>2016-02-26T06:28:39Z</time>
      </trkpt>
      <trkpt lat="45.17639" lon="5.00194">
        <ele>329</ele>
        <time>2016-02-26T06:30:39Z</time>
      </trkpt>
      <trkpt lat="45.17635" lon="5.00205">
        <ele>329</ele>
        <time>2016-02-26T06:32:39Z</time>
      </trkpt>
      <trkpt lat="45.17633" lon="5.0021">
        <ele>328</ele>
        <time>2016-02-26T06:34:39Z</time>
      </trkpt>
      <trkpt lat="45.17621" lon="5.00229">
        <ele>327</ele>
        <time>2016-02-26T06:36:39Z</time>
      </trkpt>
      <trkpt lat="45.17612" lon="5.0024">
        <ele>326</ele>
        <time>2016-02-26T06:38:39Z</time>
      </trkpt>
      <trkpt lat="45.17604" lon="5.00246">
        <ele>325</ele>
        <time>2016-02-26T06:40:39Z</time>
      </trkpt>
      <trkpt lat="45.17596" lon="5.00251">
        <ele>324</ele>
        <time>2016-02-26T06:42:39Z</time>
      </trkpt>
      <trkpt lat="45.17585" lon="5.00254">
        <ele>323</ele>
        <time>2016-02-26T06:44:39Z</time>
      </trkpt>
      <trkpt lat="45.17571" lon="5.00256">
        <ele>322</ele>
        <time>2016-02-26T06:46:39Z</time>
      </trkpt>
      <trkpt lat="45.17548" lon="5.00257">
        <ele>320</ele>
        <time>2016-02-26T06:48:39Z</time>
      </trkpt>
      <trkpt lat="45.17534" lon="5.00257">
        <ele>318</ele>
        <time>2016-02-26T06:50:39Z</time>
      </trkpt>
      <trkpt lat="45.17526" lon="5.00256">
        <ele>317</ele>
        <time>2016-02-26T06:52:39Z</time>
      </trkpt>
      <trkpt lat="45.17504" lon="5.00256">
        <ele>315</ele>
        <time>2016-02-26T06:54:39Z</time>
      </trkpt>
      <trkpt lat="45.1748" lon="5.00256">
        <ele>313</ele>
        <time>2016-02-26T06:56:39Z</time>
      </trkpt>
      <trkpt lat="45.17456" lon="5.00258">
        <ele>310</ele>
        <time>2016-02-26T06:58:39Z</time>
      </trkpt>
      <trkpt lat="45.17433" lon="5.00261">
        <ele>308</ele>
        <time>2016-02-26T07:00:39Z</time>
      </trkpt>
      <trkpt lat="45.17407" lon="5.00264">
        <ele>305</ele>
        <time>2016-02-26T07:02:39Z</time>
      </trkpt>
      <trkpt lat="45.17381" lon="5.00268">
        <ele>302</ele>
        <time>2016-02-26T07:04:39Z</time>
      </trkpt>
      <trkpt lat="45.17358" lon="5.00271">
        <ele>300</ele>
        <time>2016-02-26T07:06:39Z</time>
      </trkpt>
      <trkpt lat="45.17342" lon="5.00274">
        <ele>299</ele>
        <time>2016-02-26T07:08:39Z</time>
      </trkpt>
      <trkpt lat="45.17336" lon="5.00277">
        <ele>298</ele>
        <time>2016-02-26T07:10:39Z</time>
      </trkpt>
      <trkpt lat="45.17331" lon="5.0028">
        <ele>297</ele>
        <time>2016-02-26T07:12:39Z</time>
      </trkpt>
      <trkpt lat="45.17316" lon="5.00288">
        <ele>296</ele>
        <time>2016-02-26T07:14:39Z</time>
      </trkpt>
      <trkpt lat="45.17301" lon="5.00298">
        <ele>294</ele>
        <time>2016-02-26T07:16:39Z</time>
      </trkpt>
      <trkpt lat="45.17286" lon="5.00307">
        <ele>293</ele>
        <time>2016-02-26T07:18:39Z</time>
      </trkpt>
      <trkpt lat="45.17269" lon="5.00319">
        <ele>291</ele>
        <time>2016-02-26T07:20:39Z</time>
      </trkpt>
      <trkpt lat="45.17256" lon="5.00331">
        <ele>289</ele>
        <time>2016-02-26T07:22:39Z</time>
      </trkpt>
      <trkpt lat="45.17248" lon="5.0034">
        <ele>288</ele>
        <time>2016-02-26T07:24:39Z</time>
      </trkpt>
      <trkpt lat="45.17241" lon="5.00352">
        <ele>287</ele>
        <time>2016-02-26T07:26:39Z</time>
      </trkpt>
      <trkpt lat="45.17236" lon="5.0036">
        <ele>287</ele>
        <time>2016-02-26T07:28:39Z</time>
      </trkpt>
      <trkpt lat="45.17233" lon="5.00366">
        <ele>287</ele>
        <time>2016-02-26T07:30:39Z</time>
      </trkpt>
      <trkpt lat="45.17226" lon="5.00379">
        <ele>287</ele>
        <time>2016-02-26T07:32:39Z</time>
      </trkpt>
      <trkpt lat="45.17215" lon="5.00403">
        <ele>286</ele>
        <time>2016-02-26T07:34:39Z</time>
      </trkpt>
      <trkpt lat="45.17205" lon="5.00422">
        <ele>285</ele>
        <time>2016-02-26T07:36:39Z</time>
      </trkpt>
      <trkpt lat="45.17197" lon="5.00439">
        <ele>284</ele>
        <time>2016-02-26T07:38:39Z</time>
      </trkpt>
      <trkpt lat="45.1719" lon="5.00451">
        <ele>283</ele>
        <time>2016-02-26T07:40:39Z</time>
      </trkpt>
      <trkpt lat="45.17183" lon="5.00463">
        <ele>283</ele>
        <time>2016-02-26T07:42:39Z</time>
      </trkpt>
      <trkpt lat="45.17176" lon="5.00472">
        <ele>282</ele>
        <time>2016-02-26T07:44:39Z</time>
      </trkpt>
      <trkpt lat="45.17165" lon="5.00484">
        <ele>282</ele>
        <time>2016-02-26T07:46:39Z</time>
      </trkpt>
      <trkpt lat="45.17146" lon="5.00503">
        <ele>283</ele>
        <time>2016-02-26T07:48:39Z</time>
      </trkpt>
      <trkpt lat="45.17132" lon="5.00518">
        <ele>283</ele>
        <time>2016-02-26T07:50:39Z</time>
      </trkpt>
      <trkpt lat="45.17128" lon="5.00522">
        <ele>284</ele>
        <time>2016-02-26T07:52:39Z</time>
      </trkpt>
      <trkpt lat="45.17121" lon="5.00529">
        <ele>284</ele>
        <time>2016-02-26T07:54:39Z</time>
      </trkpt>
      <trkpt lat="45.17108" lon="5.00546">
        <ele>283</ele>
        <time>2016-02-26T07:56:39Z</time>
      </trkpt>
      <trkpt lat="45.17089" lon="5.00568">
        <ele>282</ele>
        <time>2016-02-26T07:58:39Z</time>
      </trkpt>
      <trkpt lat="45.1707" lon="5.00589">
        <ele>281</ele>
        <time>2016-02-26T08:00:39Z</time>
      </trkpt>
      <trkpt lat="45.17063" lon="5.00596">
        <ele>281</ele>
        <time>2016-02-26T08:02:39Z</time>
      </trkpt>
      <trkpt lat="45.17056" lon="5.006">
        <ele>281</ele>
        <time>2016-02-26T08:04:39Z</time>
      </trkpt>
      <trkpt lat="45.17054" lon="5.00601">
        <ele>281</ele>
        <time>2016-02-26T08:06:39Z</time>
      </trkpt>
      <trkpt lat="45.1704" lon="5.00608">
        <ele>281</ele>
        <time>2016-02-26T08:08:39Z</time>
      </trkpt>
      <trkpt lat="45.17037" lon="5.0061">
        <ele>281</ele>
        <time>2016-02-26T08:10:39Z</time>
      </trkpt>
      <trkpt lat="45.16924" lon="5.00662">
        <ele>280</ele>
        <time>2016-02-26T08:12:39Z</time>
      </trkpt>
      <trkpt lat="45.1692" lon="5.00664">
        <ele>280</ele>
        <time>2016-02-26T08:14:39Z</time>
      </trkpt>
      <trkpt lat="45.1692" lon="5.00664">
        <ele>280</ele>
        <time>2016-02-26T08:16:39Z</time>
      </trkpt>
      <trkpt lat="45.16914" lon="5.00673">
        <ele>280</ele>
        <time>2016-02-26T08:18:39Z</time>
      </trkpt>
      <trkpt lat="45.16905" lon="5.00685">
        <ele>280</ele>
        <time>2016-02-26T08:20:39Z</time>
      </trkpt>
      <trkpt lat="45.16889" lon="5.00704">
        <ele>280</ele>
        <time>2016-02-26T08:22:39Z</time>
      </trkpt>
      <trkpt lat="45.16872" lon="5.00723">
        <ele>280</ele>
        <time>2016-02-26T08:24:39Z</time>
      </trkpt>
      <trkpt lat="45.16857" lon="5.00743">
        <ele>280</ele>
        <time>2016-02-26T08:26:39Z</time>
      </trkpt>
      <trkpt lat="45.16844" lon="5.00757">
        <ele>280</ele>
        <time>2016-02-26T08:28:39Z</time>
      </trkpt>
      <trkpt lat="45.16835" lon="5.00768">
        <ele>280</ele>
        <time>2016-02-26T08:30:39Z</time>
      </trkpt>
      <trkpt lat="45.16824" lon="5.00781">
        <ele>280</ele>
        <time>2016-02-26T08:32:39Z</time>
      </trkpt>
      <trkpt lat="45.16818" lon="5.0079">
        <ele>280</ele>
        <time>2016-02-26T08:34:39Z</time>
      </trkpt>
      <trkpt lat="45.16814" lon="5.00798">
        <ele>280</ele>
        <time>2016-02-26T08:36:39Z</time>
      </trkpt>
      <trkpt lat="45.16812" lon="5.00801">
        <ele>280</ele>
        <time>2016-02-26T08:38:39Z</time>
      </trkpt>
      <trkpt lat="45.16801" lon="5.00821">
        <ele>280</ele>
        <time>2016-02-26T08:40:39Z</time>
      </trkpt>
      <trkpt lat="45.16794" lon="5.00834">
        <ele>280</ele>
        <time>2016-02-26T08:42:39Z</time>
      </trkpt>
      <trkpt lat="45.16773" lon="5.00872">
        <ele>280</ele>
        <time>2016-02-26T08:44:39Z</time>
      </trkpt>
      <trkpt lat="45.1677" lon="5.00878">
        <ele>280</ele>
        <time>2016-02-26T08:46:39Z</time>
      </trkpt>
      <trkpt lat="45.16768" lon="5.00885">
        <ele>280</ele>
        <time>2016-02-26T08:48:39Z</time>
      </trkpt>
      <trkpt lat="45.16766" lon="5.0089">
        <ele>280</ele>
        <time>2016-02-26T08:50:39Z</time>
      </trkpt>
      <trkpt lat="45.16767" lon="5.00895">
        <ele>280</ele>
        <time>2016-02-26T08:52:39Z</time>
      </trkpt>
      <trkpt lat="45.16767" lon="5.00895">
        <ele>280</ele>
        <time>2016-02-26T08:54:39Z</time>
      </trkpt>
      <trkpt lat="45.16757" lon="5.00898">
        <ele>280</ele>
        <time>2016-02-26T08:56:39Z</time>
      </trkpt>
      <trkpt lat="45.16742" lon="5.00903">
        <ele>280</ele>
        <time>2016-02-26T08:58:39Z</time>
      </trkpt>
      <trkpt lat="45.1669" lon="5.00919">
        <ele>280</ele>
        <time>2016-02-26T09:00:39Z</time>
      </trkpt>
      <trkpt lat="45.16656" lon="5.0093">
        <ele>280</ele>
        <time>2016-02-26T09:02:39Z</time>
      </trkpt>
      <trkpt lat="45.16589" lon="5.00952">
        <ele>278</ele>
        <time>2016-02-26T09:04:39Z</time>
      </trkpt>
      <trkpt lat="45.16512" lon="5.00977">
        <ele>275</ele>
        <time>2016-02-26T09:06:39Z</time>
      </trkpt>
      <trkpt lat="45.16477" lon="5.00987">
        <ele>274</ele>
        <time>2016-02-26T09:08:39Z</time>
      </trkpt>
      <trkpt lat="45.16448" lon="5.00996">
        <ele>273</ele>
        <time>2016-02-26T09:10:39Z</time>
      </trkpt>
      <trkpt lat="45.16405" lon="5.0101">
        <ele>271</ele>
        <time>2016-02-26T09:12:39Z</time>
      </trkpt>
      <trkpt lat="45.16397" lon="5.01012">
        <ele>271</ele>
        <time>2016-02-26T09:14:39Z</time>
      </trkpt>
      <trkpt lat="45.1635" lon="5.01027">
        <ele>269</ele>
        <time>2016-02-26T09:16:39Z</time>
      </trkpt>
      <trkpt lat="45.16331" lon="5.01033">
        <ele>269</ele>
        <time>2016-02-26T09:18:39Z</time>
      </trkpt>
      <trkpt lat="45.1632" lon="5.01036">
        <ele>268</ele>
        <time>2016-02-26T09:20:39Z</time>
      </trkpt>
      <trkpt lat="45.16286" lon="5.01047">
        <ele>267</ele>
        <time>2016-02-26T09:22:39Z</time>
      </trkpt>
      <trkpt lat="45.16238" lon="5.01062">
        <ele>264</ele>
        <time>2016-02-26T09:24:39Z</time>
      </trkpt>
      <trkpt lat="45.1614" lon="5.01092">
        <ele>260</ele>
        <time>2016-02-26T09:26:39Z</time>
      </trkpt>
      <trkpt lat="45.16073" lon="5.01112">
        <ele>260</ele>
        <time>2016-02-26T09:28:39Z</time>
      </trkpt>
      <trkpt lat="45.16073" lon="5.01112">
        <ele>260</ele>
        <time>2016-02-26T09:30:39Z</time>
      </trkpt>
      <trkpt lat="45.16039" lon="5.01073">
        <ele>260</ele>
        <time>2016-02-26T09:32:39Z</time>
      </trkpt>
      <trkpt lat="45.16037" lon="5.0107">
        <ele>260</ele>
        <time>2016-02-26T09:34:39Z</time>
      </trkpt>
      <trkpt lat="45.16035" lon="5.01068">
        <ele>260</ele>
        <time>2016-02-26T09:36:39Z</time>
      </trkpt>
      <trkpt lat="45.16035" lon="5.01068">
        <ele>260</ele>
        <time>2016-02-26T09:38:39Z</time>
      </trkpt>
      <trkpt lat="45.16034" lon="5.01065">
        <ele>261</ele>
        <time>2016-02-26T09:40:39Z</time>
      </trkpt>
      <trkpt lat="45.1601" lon="5.01025">
        <ele>261</ele>
        <time>2016-02-26T09:42:39Z</time>
      </trkpt>
      <trkpt lat="45.15991" lon="5.00992">
        <ele>264</ele>
        <time>2016-02-26T09:44:39Z</time>
      </trkpt>
      <trkpt lat="45.15972" lon="5.00957">
        <ele>270</ele>
        <time>2016-02-26T09:46:39Z</time>
      </trkpt>
      <trkpt lat="45.15967" lon="5.00948">
        <ele>271</ele>
        <time>2016-02-26T09:48:39Z</time>
      </trkpt>
      <trkpt lat="45.15959" lon="5.00935">
        <ele>273</ele>
        <time>2016-02-26T09:50:39Z</time>
      </trkpt>
      <trkpt lat="45.15958" lon="5.00933">
        <ele>273</ele>
        <time>2016-02-26T09:52:39Z</time>
      </trkpt>
      <trkpt lat="45.1595" lon="5.00924">
        <ele>274</ele>
        <time>2016-02-26T09:54:39Z</time>
      </trkpt>
      <trkpt lat="45.15944" lon="5.00918">
        <ele>274</ele>
        <time>2016-02-26T09:56:39Z</time>
      </trkpt>
      <trkpt lat="45.15939" lon="5.00914">
        <ele>275</ele>
        <time>2016-02-26T09:58:39Z</time>
      </trkpt>
      <trkpt lat="45.15936" lon="5.00909">
        <ele>275</ele>
        <time>2016-02-26T10:00:39Z</time>
      </trkpt>
      <trkpt lat="45.15932" lon="5.00904">
        <ele>276</ele>
        <time>2016-02-26T10:02:39Z</time>
      </trkpt>
      <trkpt lat="45.15929" lon="5.00898">
        <ele>277</ele>
        <time>2016-02-26T10:04:39Z</time>
      </trkpt>
      <trkpt lat="45.15926" lon="5.0089">
        <ele>279</ele>
        <time>2016-02-26T10:06:39Z</time>
      </trkpt>
      <trkpt lat="45.15922" lon="5.00878">
        <ele>281</ele>
        <time>2016-02-26T10:08:39Z</time>
      </trkpt>
      <trkpt lat="45.15922" lon="5.00877">
        <ele>281</ele>
        <time>2016-02-26T10:10:39Z</time>
      </trkpt>
      <trkpt lat="45.15916" lon="5.00877">
        <ele>280</ele>
        <time>2016-02-26T10:12:39Z</time>
      </trkpt>
      <trkpt lat="45.15908" lon="5.00878">
        <ele>279</ele>
        <time>2016-02-26T10:14:39Z</time>
      </trkpt>
      <trkpt lat="45.15896" lon="5.00882">
        <ele>277</ele>
        <time>2016-02-26T10:16:39Z</time>
      </trkpt>
      <trkpt lat="45.15886" lon="5.00885">
        <ele>276</ele>
        <time>2016-02-26T10:18:39Z</time>
      </trkpt>
      <trkpt lat="45.15877" lon="5.00886">
        <ele>275</ele>
        <time>2016-02-26T10:20:39Z</time>
      </trkpt>
      <trkpt lat="45.15857" lon="5.00884">
        <ele>273</ele>
        <time>2016-02-26T10:22:39Z</time>
      </trkpt>
      <trkpt lat="45.15753" lon="5.00875">
        <ele>275</ele>
        <time>2016-02-26T10:24:39Z</time>
      </trkpt>
      <trkpt lat="45.15677" lon="5.0087">
        <ele>278</ele>
        <time>2016-02-26T10:26:39Z</time>
      </trkpt>
      <trkpt lat="45.1564" lon="5.00868">
        <ele>278</ele>
        <time>2016-02-26T10:28:39Z</time>
      </trkpt>
      <trkpt lat="45.1563" lon="5.00868">
        <ele>277</ele>
        <time>2016-02-26T10:30:39Z</time>
      </trkpt>
      <trkpt lat="45.15622" lon="5.00869">
        <ele>277</ele>
        <time>2016-02-26T10:32:39Z</time>
      </trkpt>
      <trkpt lat="45.15615" lon="5.00872">
        <ele>275</ele>
        <time>2016-02-26T10:34:39Z</time>
      </trkpt>
      <trkpt lat="45.1561" lon="5.00875">
        <ele>274</ele>
        <time>2016-02-26T10:36:39Z</time>
      </trkpt>
      <trkpt lat="45.15605" lon="5.00879">
        <ele>273</ele>
        <time>2016-02-26T10:38:39Z</time>
      </trkpt>
      <trkpt lat="45.15589" lon="5.00898">
        <ele>268</ele>
        <time>2016-02-26T10:40:39Z</time>
      </trkpt>
      <trkpt lat="45.15581" lon="5.00906">
        <ele>265</ele>
        <time>2016-02-26T10:42:39Z</time>
      </trkpt>
      <trkpt lat="45.15575" lon="5.00908">
        <ele>265</ele>
        <time>2016-02-26T10:44:39Z</time>
      </trkpt>
      <trkpt lat="45.1557" lon="5.00911">
        <ele>264</ele>
        <time>2016-02-26T10:46:39Z</time>
      </trkpt>
      <trkpt lat="45.15549" lon="5.00914">
        <ele>262</ele>
        <time>2016-02-26T10:48:39Z</time>
      </trkpt>
      <trkpt lat="45.15532" lon="5.00916">
        <ele>261</ele>
        <time>2016-02-26T10:50:39Z</time>
      </trkpt>
      <trkpt lat="45.15519" lon="5.00917">
        <ele>261</ele>
        <time>2016-02-26T10:52:39Z</time>
      </trkpt>
      <trkpt lat="45.15507" lon="5.00916">
        <ele>260</ele>
        <time>2016-02-26T10:54:39Z</time>
      </trkpt>
      <trkpt lat="45.15505" lon="5.00915">
        <ele>260</ele>
        <time>2016-02-26T10:56:39Z</time>
      </trkpt>
      <trkpt lat="45.15488" lon="5.00913">
        <ele>261</ele>
        <time>2016-02-26T10:58:39Z</time>
      </trkpt>
      <trkpt lat="45.15477" lon="5.00911">
        <ele>261</ele>
        <time>2016-02-26T11:00:39Z</time>
      </trkpt>
      <trkpt lat="45.15461" lon="5.00911">
        <ele>261</ele>
        <time>2016-02-26T11:02:39Z</time>
      </trkpt>
      <trkpt lat="45.15456" lon="5.00911">
        <ele>261</ele>
        <time>2016-02-26T11:04:39Z</time>
      </trkpt>
      <trkpt lat="45.15437" lon="5.00911">
        <ele>262</ele>
        <time>2016-02-26T11:06:39Z</time>
      </trkpt>
      <trkpt lat="45.1543" lon="5.0091">
        <ele>262</ele>
        <time>2016-02-26T11:08:39Z</time>
      </trkpt>
      <trkpt lat="45.15409" lon="5.00908">
        <ele>263</ele>
        <time>2016-02-26T11:10:39Z</time>
      </trkpt>
      <trkpt lat="45.15391" lon="5.00905">
        <ele>265</ele>
        <time>2016-02-26T11:12:39Z</time>
      </trkpt>
      <trkpt lat="45.15372" lon="5.00899">
        <ele>268</ele>
        <time>2016-02-26T11:14:39Z</time>
      </trkpt>
      <trkpt lat="45.15357" lon="5.00894">
        <ele>270</ele>
        <time>2016-02-26T11:16:39Z</time>
      </trkpt>
      <trkpt lat="45.15346" lon="5.00892">
        <ele>271</ele>
        <time>2016-02-26T11:18:39Z</time>
      </trkpt>
      <trkpt lat="45.15337" lon="5.00892">
        <ele>272</ele>
        <time>2016-02-26T11:20:39Z</time>
      </trkpt>
      <trkpt lat="45.15326" lon="5.00892">
        <ele>273</ele>
        <time>2016-02-26T11:22:39Z</time>
      </trkpt>
      <trkpt lat="45.15307" lon="5.00897">
        <ele>272</ele>
        <time>2016-02-26T11:24:39Z</time>
      </trkpt>
      <trkpt lat="45.153" lon="5.00899">
        <ele>272</ele>
        <time>2016-02-26T11:26:39Z</time>
      </trkpt>
      <trkpt lat="45.153" lon="5.00899">
        <ele>272</ele>
        <time>2016-02-26T11:28:39Z</time>
      </trkpt>
      <trkpt lat="45.15275" lon="5.00908">
        <ele>271</ele>
        <time>2016-02-26T11:30:39Z</time>
      </trkpt>
      <trkpt lat="45.15263" lon="5.00915">
        <ele>270</ele>
        <time>2016-02-26T11:32:39Z</time>
      </trkpt>
      <trkpt lat="45.15261" lon="5.00917">
        <ele>269</ele>
        <time>2016-02-26T11:34:39Z</time>
      </trkpt>
      <trkpt lat="45.1525" lon="5.00925">
        <ele>269</ele>
        <time>2016-02-26T11:36:39Z</time>
      </trkpt>
      <trkpt lat="45.15245" lon="5.00928">
        <ele>268</ele>
        <time>2016-02-26T11:38:39Z</time>
      </trkpt>
      <trkpt lat="45.15224" lon="5.00939">
        <ele>266</ele>
        <time>2016-02-26T11:40:39Z</time>
      </trkpt>
      <trkpt lat="45.15185" lon="5.00957">
        <ele>263</ele>
        <time>2016-02-26T11:42:39Z</time>
      </trkpt>
      <trkpt lat="45.15149" lon="5.0097">
        <ele>261</ele>
        <time>2016-02-26T11:44:39Z</time>
      </trkpt>
      <trkpt lat="45.15129" lon="5.00975">
        <ele>261</ele>
        <time>2016-02-26T11:46:39Z</time>
      </trkpt>
      <trkpt lat="45.1511" lon="5.00975">
        <ele>261</ele>
        <time>2016-02-26T11:48:39Z</time>
      </trkpt>
      <trkpt lat="45.15098" lon="5.00977">
        <ele>260</ele>
        <time>2016-02-26T11:50:39Z</time>
      </trkpt>
      <trkpt lat="45.15069" lon="5.00989">
        <ele>261</ele>
        <time>2016-02-26T11:52:39Z</time>
      </trkpt>
      <trkpt lat="45.1505" lon="5.01">
        <ele>261</ele>
        <time>2016-02-26T11:54:39Z</time>
      </trkpt>
      <trkpt lat="45.15041" lon="5.01005">
        <ele>261</ele>
        <time>2016-02-26T11:56:39Z</time>
      </trkpt>
      <trkpt lat="45.15037" lon="5.01007">
        <ele>261</ele>
        <time>2016-02-26T11:58:39Z</time>
      </trkpt>
      <trkpt lat="45.15033" lon="5.0101">
        <ele>262</ele>
        <time>2016-02-26T12:00:39Z</time>
      </trkpt>
      <trkpt lat="45.15012" lon="5.01033">
        <ele>261</ele>
        <time>2016-02-26T12:02:39Z</time>
      </trkpt>
      <trkpt lat="45.14976" lon="5.0107">
        <ele>260</ele>
        <time>2016-02-26T12:04:39Z</time>
      </trkpt>
      <trkpt lat="45.14943" lon="5.01104">
        <ele>258</ele>
        <time>2016-02-26T12:06:39Z</time>
      </trkpt>
      <trkpt lat="45.14935" lon="5.01111">
        <ele>258</ele>
        <time>2016-02-26T12:08:39Z</time>
      </trkpt>
      <trkpt lat="45.14923" lon="5.01122">
        <ele>257</ele>
        <time>2016-02-26T12:10:39Z</time>
      </trkpt>
      <trkpt lat="45.14918" lon="5.01126">
        <ele>256</ele>
        <time>2016-02-26T12:12:39Z</time>
      </trkpt>
      <trkpt lat="45.1491" lon="5.01132">
        <ele>256</ele>
        <time>2016-02-26T12:14:39Z</time>
      </trkpt>
      <trkpt lat="45.14897" lon="5.01141">
        <ele>256</ele>
        <time>2016-02-26T12:16:39Z</time>
      </trkpt>
      <trkpt lat="45.14885" lon="5.01149">
        <ele>256</ele>
        <time>2016-02-26T12:18:39Z</time>
      </trkpt>
      <trkpt lat="45.14871" lon="5.01156">
        <ele>255</ele>
        <time>2016-02-26T12:20:39Z</time>
      </trkpt>
      <trkpt lat="45.14859" lon="5.01164">
        <ele>254</ele>
        <time>2016-02-26T12:22:39Z</time>
      </trkpt>
      <trkpt lat="45.14847" lon="5.01168">
        <ele>254</ele>
        <time>2016-02-26T12:24:39Z</time>
      </trkpt>
      <trkpt lat="45.14835" lon="5.01173">
        <ele>253</ele>
        <time>2016-02-26T12:26:39Z</time>
      </trkpt>
      <trkpt lat="45.14823" lon="5.01176">
        <ele>254</ele>
        <time>2016-02-26T12:28:39Z</time>
      </trkpt>
      <trkpt lat="45.14812" lon="5.01178">
        <ele>255</ele>
        <time>2016-02-26T12:30:39Z</time>
      </trkpt>
      <trkpt lat="45.14801" lon="5.01179">
        <ele>257</ele>
        <time>2016-02-26T12:32:39Z</time>
      </trkpt>
      <trkpt lat="45.14786" lon="5.01181">
        <ele>258</ele>
        <time>2016-02-26T12:34:39Z</time>
      </trkpt>
      <trkpt lat="45.14771" lon="5.01182">
        <ele>260</ele>
        <time>2016-02-26T12:36:39Z</time>
      </trkpt>
      <trkpt lat="45.14757" lon="5.01183">
        <ele>262</ele>
        <time>2016-02-26T12:38:39Z</time>
      </trkpt>
      <trkpt lat="45.14747" lon="5.01184">
        <ele>263</ele>
        <time>2016-02-26T12:40:39Z</time>
      </trkpt>
      <trkpt lat="45.14747" lon="5.01184">
        <ele>263</ele>
        <time>2016-02-26T12:42:39Z</time>
      </trkpt>
      <trkpt lat="45.14738" lon="5.01186">
        <ele>262</ele>
        <time>2016-02-26T12:44:39Z</time>
      </trkpt>
      <trkpt lat="45.14727" lon="5.01189">
        <ele>262</ele>
        <time>2016-02-26T12:46:39Z</time>
      </trkpt>
      <trkpt lat="45.14642" lon="5.01225">
        <ele>251</ele>
        <time>2016-02-26T12:48:39Z</time>
      </trkpt>
      <trkpt lat="45.14637" lon="5.01227">
        <ele>250</ele>
        <time>2016-02-26T12:50:39Z</time>
      </trkpt>
      <trkpt lat="45.14636" lon="5.01228">
        <ele>250</ele>
        <time>2016-02-26T12:52:39Z</time>
      </trkpt>
      <trkpt lat="45.14633" lon="5.01231">
        <ele>249</ele>
        <time>2016-02-26T12:54:39Z</time>
      </trkpt>
      <trkpt lat="45.14632" lon="5.01231">
        <ele>249</ele>
        <time>2016-02-26T12:56:39Z</time>
      </trkpt>
      <trkpt lat="45.14629" lon="5.01236">
        <ele>247</ele>
        <time>2016-02-26T12:58:39Z</time>
      </trkpt>
      <trkpt lat="45.14629" lon="5.01236">
        <ele>247</ele>
        <time>2016-02-26T13:00:39Z</time>
      </trkpt>
      <trkpt lat="45.14632" lon="5.01239">
        <ele>246</ele>
        <time>2016-02-26T13:02:39Z</time>
      </trkpt>
      <trkpt lat="45.14637" lon="5.01245">
        <ele>245</ele>
        <time>2016-02-26T13:04:39Z</time>
      </trkpt>
      <trkpt lat="45.14641" lon="5.01251">
        <ele>244</ele>
        <time>2016-02-26T13:06:39Z</time>
      </trkpt>
      <trkpt lat="45.14647" lon="5.01259">
        <ele>244</ele>
        <time>2016-02-26T13:08:39Z</time>
      </trkpt>
      <trkpt lat="45.14651" lon="5.01267">
        <ele>243</ele>
        <time>2016-02-26T13:10:39Z</time>
      </trkpt>
      <trkpt lat="45.14651" lon="5.01267">
        <ele>243</ele>
        <time>2016-02-26T13:12:39Z</time>
      </trkpt>
      <trkpt lat="45.14652" lon="5.01269">
        <ele>243</ele>
        <time>2016-02-26T13:14:39Z</time>
      </trkpt>
      <trkpt lat="45.14657" lon="5.01279">
        <ele>243</ele>
        <time>2016-02-26T13:16:39Z</time>
      </trkpt>
      <trkpt lat="45.1466" lon="5.01287">
        <ele>243</ele>
        <time>2016-02-26T13:18:39Z</time>
      </trkpt>
      <trkpt lat="45.14662" lon="5.01292">
        <ele>242</ele>
        <time>2016-02-26T13:20:39Z</time>
      </trkpt>
      <trkpt lat="45.14665" lon="5.013">
        <ele>242</ele>
        <time>2016-02-26T13:22:39Z</time>
      </trkpt>
      <trkpt lat="45.14667" lon="5.01305">
        <ele>242</ele>
        <time>2016-02-26T13:24:39Z</time>
      </trkpt>
      <trkpt lat="45.14669" lon="5.0131">
        <ele>241</ele>
        <time>2016-02-26T13:26:39Z</time>
      </trkpt>
      <trkpt lat="45.1467" lon="5.01314">
        <ele>241</ele>
        <time>2016-02-26T13:28:39Z</time>
      </trkpt>
      <trkpt lat="45.14674" lon="5.01325">
        <ele>240</ele>
        <time>2016-02-26T13:30:39Z</time>
      </trkpt>
      <trkpt lat="45.14678" lon="5.01338">
        <ele>240</ele>
        <time>2016-02-26T13:32:39Z</time>
      </trkpt>
      <trkpt lat="45.14682" lon="5.01351">
        <ele>240</ele>
        <time>2016-02-26T13:34:39Z</time>
      </trkpt>
      <trkpt lat="45.14691" lon="5.01379">
        <ele>240</ele>
        <time>2016-02-26T13:36:39Z</time>
      </trkpt>
      <trkpt lat="45.147" lon="5.01407">
        <ele>241</ele>
        <time>2016-02-26T13:38:39Z</time>
      </trkpt>
      <trkpt lat="45.14704" lon="5.0142">
        <ele>241</ele>
        <time>2016-02-26T13:40:39Z</time>
      </trkpt>
      <trkpt lat="45.14705" lon="5.01423">
        <ele>241</ele>
        <time>2016-02-26T13:42:39Z</time>
      </trkpt>
      <trkpt lat="45.14711" lon="5.01439">
        <ele>242</ele>
        <time>2016-02-26T13:44:39Z</time>
      </trkpt>
      <trkpt lat="45.14717" lon="5.01454">
        <ele>242</ele>
        <time>2016-02-26T13:46:39Z</time>
      </trkpt>
      <trkpt lat="45.14723" lon="5.01468">
        <ele>243</ele>
        <time>2016-02-26T13:48:39Z</time>
      </trkpt>
      <trkpt lat="45.14736" lon="5.01493">
        <ele>245</ele>
        <time>2016-02-26T13:50:39Z</time>
      </trkpt>
      <trkpt lat="45.14746" lon="5.0151">
        <ele>246</ele>
        <time>2016-02-26T13:52:39Z</time>
      </trkpt>
      <trkpt lat="45.14754" lon="5.01519">
        <ele>247</ele>
        <time>2016-02-26T13:54:39Z</time>
      </trkpt>
      <trkpt lat="45.14758" lon="5.01523">
        <ele>248</ele>
        <time>2016-02-26T13:56:39Z</time>
      </trkpt>
      <trkpt lat="45.14764" lon="5.01529">
        <ele>249</ele>
        <time>2016-02-26T13:58:39Z</time>
      </trkpt>
      <trkpt lat="45.14769" lon="5.01533">
        <ele>249</ele>
        <time>2016-02-26T14:00:39Z</time>
      </trkpt>
      <trkpt lat="45.14772" lon="5.01535">
        <ele>250</ele>
        <time>2016-02-26T14:02:39Z</time>
      </trkpt>
      <trkpt lat="45.14776" lon="5.01537">
        <ele>250</ele>
        <time>2016-02-26T14:04:39Z</time>
      </trkpt>
      <trkpt lat="45.14776" lon="5.01537">
        <ele>250</ele>
        <time>2016-02-26T14:06:39Z</time>
      </trkpt>
      <trkpt lat="45.14771" lon="5.01543">
        <ele>250</ele>
        <time>2016-02-26T14:08:39Z</time>
      </trkpt>
      <trkpt lat="45.1477" lon="5.01546">
        <ele>250</ele>
        <time>2016-02-26T14:10:39Z</time>
      </trkpt>
      <trkpt lat="45.14769" lon="5.01552">
        <ele>250</ele>
        <time>2016-02-26T14:12:39Z</time>
      </trkpt>
      <trkpt lat="45.14767" lon="5.01563">
        <ele>250</ele>
        <time>2016-02-26T14:14:39Z</time>
      </trkpt>
      <trkpt lat="45.14767" lon="5.01563">
        <ele>250</ele>
        <time>2016-02-26T14:16:39Z</time>
      </trkpt>
      <trkpt lat="45.14769" lon="5.01579">
        <ele>251</ele>
        <time>2016-02-26T14:18:39Z</time>
      </trkpt>
      <trkpt lat="45.14769" lon="5.01581">
        <ele>251</ele>
        <time>2016-02-26T14:20:39Z</time>
      </trkpt>
      <trkpt lat="45.1477" lon="5.01583">
        <ele>251</ele>
        <time>2016-02-26T14:22:39Z</time>
      </trkpt>
      <trkpt lat="45.14775" lon="5.01594">
        <ele>251</ele>
        <time>2016-02-26T14:24:39Z</time>
      </trkpt>
      <trkpt lat="45.14793" lon="5.01621">
        <ele>252</ele>
        <time>2016-02-26T14:26:39Z</time>
      </trkpt>
      <trkpt lat="45.14815" lon="5.01656">
        <ele>252</ele>
        <time>2016-02-26T14:28:39Z</time>
      </trkpt>
      <trkpt lat="45.14819" lon="5.0166">
        <ele>253</ele>
        <time>2016-02-26T14:30:39Z</time>
      </trkpt>
      <trkpt lat="45.14845" lon="5.01697">
        <ele>253</ele>
        <time>2016-02-26T14:32:39Z</time>
      </trkpt>
      <trkpt lat="45.14867" lon="5.01728">
        <ele>254</ele>
        <time>2016-02-26T14:34:39Z</time>
      </trkpt>
      <trkpt lat="45.14867" lon="5.01728">
        <ele>254</ele>
        <time>2016-02-26T14:36:39Z</time>
      </trkpt>
      <trkpt lat="45.14783" lon="5.0184">
        <ele>242</ele>
        <time>2016-02-26T14:38:39Z</time>
      </trkpt>
      <trkpt lat="45.14779" lon="5.01844">
        <ele>242</ele>
        <time>2016-02-26T14:40:39Z</time>
      </trkpt>
      <trkpt lat="45.14768" lon="5.0186">
        <ele>241</ele>
        <time>2016-02-26T14:42:39Z</time>
      </trkpt>
      <trkpt lat="45.1476" lon="5.0187">
        <ele>240</ele>
        <time>2016-02-26T14:44:39Z</time>
      </trkpt>
      <trkpt lat="45.1474" lon="5.01897">
        <ele>240</ele>
        <time>2016-02-26T14:46:39Z</time>
      </trkpt>
      <trkpt lat="45.14719" lon="5.01927">
        <ele>240</ele>
        <time>2016-02-26T14:48:39Z</time>
      </trkpt>
      <trkpt lat="45.14706" lon="5.01951">
        <ele>240</ele>
        <time>2016-02-26T14:50:39Z</time>
      </trkpt>
      <trkpt lat="45.14687" lon="5.01988">
        <ele>240</ele>
        <time>2016-02-26T14:52:39Z</time>
      </trkpt>
      <trkpt lat="45.14672" lon="5.02018">
        <ele>240</ele>
        <time>2016-02-26T14:54:39Z</time>
      </trkpt>
      <trkpt lat="45.14655" lon="5.02055">
        <ele>240</ele>
        <time>2016-02-26T14:56:39Z</time>
      </trkpt>
      <trkpt lat="45.14626" lon="5.02116">
        <ele>240</ele>
        <time>2016-02-26T14:58:39Z</time>
      </trkpt>
      <trkpt lat="45.14623" lon="5.02124">
        <ele>239</ele>
        <time>2016-02-26T15:00:39Z</time>
      </trkpt>
      <trkpt lat="45.14621" lon="5.02129">
        <ele>239</ele>
        <time>2016-02-26T15:02:39Z</time>
      </trkpt>
      <trkpt lat="45.14601" lon="5.02164">
        <ele>239</ele>
        <time>2016-02-26T15:04:39Z</time>
      </trkpt>
      <trkpt lat="45.1459" lon="5.02182">
        <ele>239</ele>
        <time>2016-02-26T15:06:39Z</time>
      </trkpt>
      <trkpt lat="45.14577" lon="5.02197">
        <ele>239</ele>
        <time>2016-02-26T15:08:39Z</time>
      </trkpt>
      <trkpt lat="45.14565" lon="5.02208">
        <ele>238</ele>
        <time>2016-02-26T15:10:39Z</time>
      </trkpt>
      <trkpt lat="45.14562" lon="5.02211">
        <ele>238</ele>
        <time>2016-02-26T15:12:39Z</time>
      </trkpt>
      <trkpt lat="45.14557" lon="5.02216">
        <ele>238</ele>
        <time>2016-02-26T15:14:39Z</time>
      </trkpt>
      <trkpt lat="45.14555" lon="5.02218">
        <ele>238</ele>
        <time>2016-02-26T15:16:39Z</time>
      </trkpt>
      <trkpt lat="45.14553" lon="5.02221">
        <ele>238</ele>
        <time>2016-02-26T15:18:39Z</time>
      </trkpt>
      <trkpt lat="45.14546" lon="5.02228">
        <ele>238</ele>
        <time>2016-02-26T15:20:39Z</time>
      </trkpt>
      <trkpt lat="45.14536" lon="5.02238">
        <ele>237</ele>
        <time>2016-02-26T15:22:39Z</time>
      </trkpt>
      <trkpt lat="45.14515" lon="5.0226">
        <ele>237</ele>
        <time>2016-02-26T15:24:39Z</time>
      </trkpt>
      <trkpt lat="45.14502" lon="5.02274">
        <ele>236</ele>
        <time>2016-02-26T15:26:39Z</time>
      </trkpt>
      <trkpt lat="45.14493" lon="5.0229">
        <ele>237</ele>
        <time>2016-02-26T15:28:39Z</time>
      </trkpt>
      <trkpt lat="45.1448" lon="5.0232">
        <ele>238</ele>
        <time>2016-02-26T15:30:39Z</time>
      </trkpt>
      <trkpt lat="45.14478" lon="5.02325">
        <ele>238</ele>
        <time>2016-02-26T15:32:39Z</time>
      </trkpt>
      <trkpt lat="45.14464" lon="5.02366">
        <ele>239</ele>
        <time>2016-02-26T15:34:39Z</time>
      </trkpt>
      <trkpt lat="45.14448" lon="5.02413">
        <ele>241</ele>
        <time>2016-02-26T15:36:39Z</time>
      </trkpt>
      <trkpt lat="45.14436" lon="5.02451">
        <ele>243</ele>
        <time>2016-02-26T15:38:39Z</time>
      </trkpt>
      <trkpt lat="45.14422" lon="5.02491">
        <ele>246</ele>
        <time>2016-02-26T15:40:39Z</time>
      </trkpt>
      <trkpt lat="45.14413" lon="5.02518">
        <ele>248</ele>
        <time>2016-02-26T15:42:39Z</time>
      </trkpt>
      <trkpt lat="45.14408" lon="5.02535">
        <ele>249</ele>
        <time>2016-02-26T15:44:39Z</time>
      </trkpt>
      <trkpt lat="45.14405" lon="5.02548">
        <ele>250</ele>
        <time>2016-02-26T15:46:39Z</time>
      </trkpt>
      <trkpt lat="45.14404" lon="5.02558">
        <ele>250</ele>
        <time>2016-02-26T15:48:39Z</time>
      </trkpt>
      <trkpt lat="45.14404" lon="5.02568">
        <ele>251</ele>
        <time>2016-02-26T15:50:39Z</time>
      </trkpt>
      <trkpt lat="45.14405" lon="5.02579">
        <ele>251</ele>
        <time>2016-02-26T15:52:39Z</time>
      </trkpt>
      <trkpt lat="45.14407" lon="5.02587">
        <ele>252</ele>
        <time>2016-02-26T15:54:39Z</time>
      </trkpt>
      <trkpt lat="45.14411" lon="5.02597">
        <ele>252</ele>
        <time>2016-02-26T15:56:39Z</time>
      </trkpt>
      <trkpt lat="45.14417" lon="5.02607">
        <ele>252</ele>
        <time>2016-02-26T15:58:39Z</time>
      </trkpt>
      <trkpt lat="45.14425" lon="5.02616">
        <ele>252</ele>
        <time>2016-02-26T16:00:39Z</time>
      </trkpt>
      <trkpt lat="45.14433" lon="5.02625">
        <ele>252</ele>
        <time>2016-02-26T16:02:39Z</time>
      </trkpt>
      <trkpt lat="45.1444" lon="5.02633">
        <ele>252</ele>
        <time>2016-02-26T16:04:39Z</time>
      </trkpt>
      <trkpt lat="45.14454" lon="5.0265">
        <ele>251</ele>
        <time>2016-02-26T16:06:39Z</time>
      </trkpt>
      <trkpt lat="45.14476" lon="5.02673">
        <ele>251</ele>
        <time>2016-02-26T16:08:39Z</time>
      </trkpt>
      <trkpt lat="45.14496" lon="5.02698">
        <ele>252</ele>
        <time>2016-02-26T16:10:39Z</time>
      </trkpt>
      <trkpt lat="45.14504" lon="5.02707">
        <ele>252</ele>
        <time>2016-02-26T16:12:39Z</time>
      </trkpt>
      <trkpt lat="45.14504" lon="5.02707">
        <ele>252</ele>
        <time>2016-02-26T16:14:39Z</time>
      </trkpt>
      <trkpt lat="45.14517" lon="5.02712">
        <ele>251</ele>
        <time>2016-02-26T16:16:39Z</time>
      </trkpt>
      <trkpt lat="45.14534" lon="5.0272">
        <ele>251</ele>
        <time>2016-02-26T16:18:39Z</time>
      </trkpt>
      <trkpt lat="45.14547" lon="5.02728">
        <ele>251</ele>
        <time>2016-02-26T16:20:39Z</time>
      </trkpt>
      <trkpt lat="45.14558" lon="5.02735">
        <ele>250</ele>
        <time>2016-02-26T16:22:39Z</time>
      </trkpt>
      <trkpt lat="45.14566" lon="5.02743">
        <ele>251</ele>
        <time>2016-02-26T16:24:39Z</time>
      </trkpt>
      <trkpt lat="45.14577" lon="5.02755">
        <ele>251</ele>
        <time>2016-02-26T16:26:39Z</time>
      </trkpt>
      <trkpt lat="45.14588" lon="5.02763">
        <ele>251</ele>
        <time>2016-02-26T16:28:39Z</time>
      </trkpt>
      <trkpt lat="45.146" lon="5.02768">
        <ele>251</ele>
        <time>2016-02-26T16:30:39Z</time>
      </trkpt>
      <trkpt lat="45.14613" lon="5.02775">
        <ele>250</ele>
        <time>2016-02-26T16:32:39Z</time>
      </trkpt>
      <trkpt lat="45.14631" lon="5.02788">
        <ele>250</ele>
        <time>2016-02-26T16:34:39Z</time>
      </trkpt>
      <trkpt lat="45.14653" lon="5.0281">
        <ele>250</ele>
        <time>2016-02-26T16:36:39Z</time>
      </trkpt>
      <trkpt lat="45.1467" lon="5.0283">
        <ele>251</ele>
        <time>2016-02-26T16:38:39Z</time>
      </trkpt>
      <trkpt lat="45.14692" lon="5.02855">
        <ele>251</ele>
        <time>2016-02-26T16:40:39Z</time>
      </trkpt>
      <trkpt lat="45.14703" lon="5.02867">
        <ele>252</ele>
        <time>2016-02-26T16:42:39Z</time>
      </trkpt>
      <trkpt lat="45.14703" lon="5.02867">
        <ele>252</ele>
        <time>2016-02-26T16:44:39Z</time>
      </trkpt>
      <trkpt lat="45.14707" lon="5.02871">
        <ele>252</ele>
        <time>2016-02-26T16:46:39Z</time>
      </trkpt>
      <trkpt lat="45.14728" lon="5.02891">
        <ele>252</ele>
        <time>2016-02-26T16:48:39Z</time>
      </trkpt>
      <trkpt lat="45.14747" lon="5.02911">
        <ele>252</ele>
        <time>2016-02-26T16:50:39Z</time>
      </trkpt>
      <trkpt lat="45.14766" lon="5.0293">
        <ele>252</ele>
        <time>2016-02-26T16:52:39Z</time>
      </trkpt>
      <trkpt lat="45.1478" lon="5.02947">
        <ele>252</ele>
        <time>2016-02-26T16:54:39Z</time>
      </trkpt>
      <trkpt lat="45.14793" lon="5.02968">
        <ele>253</ele>
        <time>2016-02-26T16:56:39Z</time>
      </trkpt>
      <trkpt lat="45.14816" lon="5.03003">
        <ele>253</ele>
        <time>2016-02-26T16:58:39Z</time>
      </trkpt>
      <trkpt lat="45.14842" lon="5.03044">
        <ele>253</ele>
        <time>2016-02-26T17:00:39Z</time>
      </trkpt>
      <trkpt lat="45.14875" lon="5.03096">
        <ele>253</ele>
        <time>2016-02-26T17:02:39Z</time>
      </trkpt>
      <trkpt lat="45.14908" lon="5.03144">
        <ele>254</ele>
        <time>2016-02-26T17:04:39Z</time>
      </trkpt>
      <trkpt lat="45.14925" lon="5.03166">
        <ele>253</ele>
        <time>2016-02-26T17:06:39Z</time>
      </trkpt>
      <trkpt lat="45.14942" lon="5.03188">
        <ele>253</ele>
        <time>2016-02-26T17:08:39Z</time>
      </trkpt>
      <trkpt lat="45.14945" lon="5.03191">
        <ele>253</ele>
        <time>2016-02-26T17:10:39Z</time>
      </trkpt>
      <trkpt lat="45.14956" lon="5.03203">
        <ele>253</ele>
        <time>2016-02-26T17:12:39Z</time>
      </trkpt>
      <trkpt lat="45.14966" lon="5.03214">
        <ele>253</ele>
        <time>2016-02-26T17:14:39Z</time>
      </trkpt>
      <trkpt lat="45.14975" lon="5.03224">
        <ele>253</ele>
        <time>2016-02-26T17:16:39Z</time>
      </trkpt>
      <trkpt lat="45.14983" lon="5.03236">
        <ele>253</ele>
        <time>2016-02-26T17:18:39Z</time>
      </trkpt>
      <trkpt lat="45.14983" lon="5.03236">
        <ele>253</ele>
        <time>2016-02-26T17:20:39Z</time>
      </trkpt>
      <trkpt lat="45.1499" lon="5.03249">
        <ele>253</ele>
        <time>2016-02-26T17:22:39Z</time>
      </trkpt>
      <trkpt lat="45.15006" lon="5.03281">
        <ele>253</ele>
        <time>2016-02-26T17:24:39Z</time>
      </trkpt>
      <trkpt lat="45.15024" lon="5.03316">
        <ele>253</ele>
        <time>2016-02-26T17:26:39Z</time>
      </trkpt>
      <trkpt lat="45.15042" lon="5.03351">
        <ele>254</ele>
        <time>2016-02-26T17:28:39Z</time>
      </trkpt>
      <trkpt lat="45.1506" lon="5.03384">
        <ele>254</ele>
        <time>2016-02-26T17:30:39Z</time>
      </trkpt>
      <trkpt lat="45.1508" lon="5.03422">
        <ele>254</ele>
        <time>2016-02-26T17:32:39Z</time>
      </trkpt>
      <trkpt lat="45.15095" lon="5.03448">
        <ele>254</ele>
        <time>2016-02-26T17:34:39Z</time>
      </trkpt>
      <trkpt lat="45.15098" lon="5.03453">
        <ele>254</ele>
        <time>2016-02-26T17:36:39Z</time>
      </trkpt>
      <trkpt lat="45.15106" lon="5.03468">
        <ele>254</ele>
        <time>2016-02-26T17:38:39Z</time>
      </trkpt>
      <trkpt lat="45.15119" lon="5.03493">
        <ele>255</ele>
        <time>2016-02-26T17:40:39Z</time>
      </trkpt>
      <trkpt lat="45.15129" lon="5.03512">
        <ele>255</ele>
        <time>2016-02-26T17:42:39Z</time>
      </trkpt>
      <trkpt lat="45.15138" lon="5.03528">
        <ele>255</ele>
        <time>2016-02-26T17:44:39Z</time>
      </trkpt>
      <trkpt lat="45.15144" lon="5.03543">
        <ele>255</ele>
        <time>2016-02-26T17:46:39Z</time>
      </trkpt>
      <trkpt lat="45.15154" lon="5.03561">
        <ele>255</ele>
        <time>2016-02-26T17:48:39Z</time>
      </trkpt>
      <trkpt lat="45.15164" lon="5.0358">
        <ele>255</ele>
        <time>2016-02-26T17:50:39Z</time>
      </trkpt>
      <trkpt lat="45.15169" lon="5.03587">
        <ele>255</ele>
        <time>2016-02-26T17:52:39Z</time>
      </trkpt>
      <trkpt lat="45.15179" lon="5.03603">
        <ele>255</ele>
        <time>2016-02-26T17:54:39Z</time>
      </trkpt>
      <trkpt lat="45.15202" lon="5.03641">
        <ele>255</ele>
        <time>2016-02-26T17:56:39Z</time>
      </trkpt>
      <trkpt lat="45.1522" lon="5.03666">
        <ele>255</ele>
        <time>2016-02-26T17:58:39Z</time>
      </trkpt>
      <trkpt lat="45.1523" lon="5.0368">
        <ele>255</ele>
        <time>2016-02-26T18:00:39Z</time>
      </trkpt>
      <trkpt lat="45.15261" lon="5.0372">
        <ele>255</ele>
        <time>2016-02-26T18:02:39Z</time>
      </trkpt>
      <trkpt lat="45.15268" lon="5.03732">
        <ele>255</ele>
        <time>2016-02-26T18:04:39Z</time>
      </trkpt>
      <trkpt lat="45.15281" lon="5.03753">
        <ele>256</ele>
        <time>2016-02-26T18:06:39Z</time>
      </trkpt>
      <trkpt lat="45.15306" lon="5.03794">
        <ele>256</ele>
        <time>2016-02-26T18:08:39Z</time>
      </trkpt>
      <trkpt lat="45.15338" lon="5.03842">
        <ele>256</ele>
        <time>2016-02-26T18:10:39Z</time>
      </trkpt>
      <trkpt lat="45.15372" lon="5.03892">
        <ele>256</ele>
        <time>2016-02-26T18:12:39Z</time>
      </trkpt>
      <trkpt lat="45.15405" lon="5.0394">
        <ele>256</ele>
        <time>2016-02-26T18:14:39Z</time>
      </trkpt>
      <trkpt lat="45.1542" lon="5.0396">
        <ele>256</ele>
        <time>2016-02-26T18:16:39Z</time>
      </trkpt>
      <trkpt lat="45.15425" lon="5.03964">
        <ele>256</ele>
        <time>2016-02-26T18:18:39Z</time>
      </trkpt>
      <trkpt lat="45.1543" lon="5.03966">
        <ele>256</ele>
        <time>2016-02-26T18:20:39Z</time>
      </trkpt>
      <trkpt lat="45.15435" lon="5.03966">
        <ele>256</ele>
        <time>2016-02-26T18:22:39Z</time>
      </trkpt>
      <trkpt lat="45.15441" lon="5.03964">
        <ele>256</ele>
        <time>2016-02-26T18:24:39Z</time>
      </trkpt>
      <trkpt lat="45.15469" lon="5.03949">
        <ele>255</ele>
        <time>2016-02-26T18:26:39Z</time>
      </trkpt>
      <trkpt lat="45.15493" lon="5.03937">
        <ele>254</ele>
        <time>2016-02-26T18:28:39Z</time>
      </trkpt>
      <trkpt lat="45.15506" lon="5.03931">
        <ele>254</ele>
        <time>2016-02-26T18:30:39Z</time>
      </trkpt>
      <trkpt lat="45.15509" lon="5.03931">
        <ele>254</ele>
        <time>2016-02-26T18:32:39Z</time>
      </trkpt>
      <trkpt lat="45.15509" lon="5.03931">
        <ele>254</ele>
        <time>2016-02-26T18:34:39Z</time>
      </trkpt>
      <trkpt lat="45.15511" lon="5.03933">
        <ele>254</ele>
        <time>2016-02-26T18:36:39Z</time>
      </trkpt>
      <trkpt lat="45.15512" lon="5.03941">
        <ele>254</ele>
        <time>2016-02-26T18:38:39Z</time>
      </trkpt>
      <trkpt lat="45.15511" lon="5.03959">
        <ele>254</ele>
        <time>2016-02-26T18:40:39Z</time>
      </trkpt>
      <trkpt lat="45.15509" lon="5.03975">
        <ele>255</ele>
        <time>2016-02-26T18:42:39Z</time>
      </trkpt>
      <trkpt lat="45.15508" lon="5.03987">
        <ele>255</ele>
        <time>2016-02-26T18:44:39Z</time>
      </trkpt>
      <trkpt lat="45.15507" lon="5.04007">
        <ele>255</ele>
        <time>2016-02-26T18:46:39Z</time>
      </trkpt>
      <trkpt lat="45.15507" lon="5.04007">
        <ele>255</ele>
        <time>2016-02-26T18:48:39Z</time>
      </trkpt>
      <trkpt lat="45.15581" lon="5.04006">
        <ele>253</ele>
        <time>2016-02-26T18:50:39Z</time>
      </trkpt>
      <trkpt lat="45.15649" lon="5.04005">
        <ele>255</ele>
        <time>2016-02-26T18:52:39Z</time>
      </trkpt>
      <trkpt lat="45.15662" lon="5.04005">
        <ele>256</ele>
        <time>2016-02-26T18:54:39Z</time>
      </trkpt>
      <trkpt lat="45.15674" lon="5.04006">
        <ele>256</ele>
        <time>2016-02-26T18:56:39Z</time>
      </trkpt>
      <trkpt lat="45.1568" lon="5.04006">
        <ele>257</ele>
        <time>2016-02-26T18:58:39Z</time>
      </trkpt>
      <trkpt lat="45.15706" lon="5.04006">
        <ele>257</ele>
        <time>2016-02-26T19:00:39Z</time>
      </trkpt>
      <trkpt lat="45.15749" lon="5.04007">
        <ele>259</ele>
        <time>2016-02-26T19:02:39Z</time>
      </trkpt>
      <trkpt lat="45.15754" lon="5.04007">
        <ele>259</ele>
        <time>2016-02-26T19:04:39Z</time>
      </trkpt>
      <trkpt lat="45.1576" lon="5.04007">
        <ele>259</ele>
        <time>2016-02-26T19:06:39Z</time>
      </trkpt>
      <trkpt lat="45.15814" lon="5.04008">
        <ele>260</ele>
        <time>2016-02-26T19:08:39Z</time>
      </trkpt>
      <trkpt lat="45.15842" lon="5.04008">
        <ele>260</ele>
        <time>2016-02-26T19:10:39Z</time>
      </trkpt>
      <trkpt lat="45.15897" lon="5.04009">
        <ele>260</ele>
        <time>2016-02-26T19:12:39Z</time>
      </trkpt>
      <trkpt lat="45.15935" lon="5.0401">
        <ele>260</ele>
        <time>2016-02-26T19:14:39Z</time>
      </trkpt>
      <trkpt lat="45.15974" lon="5.04011">
        <ele>261</ele>
        <time>2016-02-26T19:16:39Z</time>
      </trkpt>
      <trkpt lat="45.16025" lon="5.04011">
        <ele>262</ele>
        <time>2016-02-26T19:18:39Z</time>
      </trkpt>
      <trkpt lat="45.16076" lon="5.04011">
        <ele>264</ele>
        <time>2016-02-26T19:20:39Z</time>
      </trkpt>
      <trkpt lat="45.16087" lon="5.0401">
        <ele>264</ele>
        <time>2016-02-26T19:22:39Z</time>
      </trkpt>
      <trkpt lat="45.16091" lon="5.04011">
        <ele>264</ele>
        <time>2016-02-26T19:24:39Z</time>
      </trkpt>
      <trkpt lat="45.16099" lon="5.04008">
        <ele>265</ele>
        <time>2016-02-26T19:26:39Z</time>
      </trkpt>
      <trkpt lat="45.16107" lon="5.04004">
        <ele>265</ele>
        <time>2016-02-26T19:28:39Z</time>
      </trkpt>
      <trkpt lat="45.16114" lon="5.04001">
        <ele>265</ele>
        <time>2016-02-26T19:30:39Z</time>
      </trkpt>
      <trkpt lat="45.1612" lon="5.03997">
        <ele>265</ele>
        <time>2016-02-26T19:32:39Z</time>
      </trkpt>
      <trkpt lat="45.16126" lon="5.03992">
        <ele>265</ele>
        <time>2016-02-26T19:34:39Z</time>
      </trkpt>
      <trkpt lat="45.16134" lon="5.03985">
        <ele>266</ele>
        <time>2016-02-26T19:36:39Z</time>
      </trkpt>
      <trkpt lat="45.1614" lon="5.03979">
        <ele>266</ele>
        <time>2016-02-26T19:38:39Z</time>
      </trkpt>
      <trkpt lat="45.16148" lon="5.03971">
        <ele>266</ele>
        <time>2016-02-26T19:40:39Z</time>
      </trkpt>
      <trkpt lat="45.16155" lon="5.0396">
        <ele>266</ele>
        <time>2016-02-26T19:42:39Z</time>
      </trkpt>
      <trkpt lat="45.16159" lon="5.03953">
        <ele>266</ele>
        <time>2016-02-26T19:44:39Z</time>
      </trkpt>
      <trkpt lat="45.16164" lon="5.03945">
        <ele>266</ele>
        <time>2016-02-26T19:46:39Z</time>
      </trkpt>
      <trkpt lat="45.16167" lon="5.0394">
        <ele>266</ele>
        <time>2016-02-26T19:48:39Z</time>
      </trkpt>
      <trkpt lat="45.16168" lon="5.03936">
        <ele>266</ele>
        <time>2016-02-26T19:50:39Z</time>
      </trkpt>
      <trkpt lat="45.16168" lon="5.03936">
        <ele>266</ele>
        <time>2016-02-26T19:52:39Z</time>
      </trkpt>
      <trkpt lat="45.16169" lon="5.0394">
        <ele>266</ele>
        <time>2016-02-26T19:54:39Z</time>
      </trkpt>
      <trkpt lat="45.1617" lon="5.03942">
        <ele>266</ele>
        <time>2016-02-26T19:56:39Z</time>
      </trkpt>
      <trkpt lat="45.16171" lon="5.03944">
        <ele>266</ele>
        <time>2016-02-26T19:58:39Z</time>
      </trkpt>
      <trkpt lat="45.16172" lon="5.03945">
        <ele>266</ele>
        <time>2016-02-26T20:00:39Z</time>
      </trkpt>
      <trkpt lat="45.16173" lon="5.03946">
        <ele>267</ele>
        <time>2016-02-26T20:02:39Z</time>
      </trkpt>
      <trkpt lat="45.16174" lon="5.03948">
        <ele>267</ele>
        <time>2016-02-26T20:04:39Z</time>
      </trkpt>
      <trkpt lat="45.16175" lon="5.03949">
        <ele>267</ele>
        <time>2016-02-26T20:06:39Z</time>
      </trkpt>
      <trkpt lat="45.16177" lon="5.0395">
        <ele>267</ele>
        <time>2016-02-26T20:08:39Z</time>
      </trkpt>
      <trkpt lat="45.16178" lon="5.03952">
        <ele>267</ele>
        <time>2016-02-26T20:10:39Z</time>
      </trkpt>
      <trkpt lat="45.16179" lon="5.03953">
        <ele>267</ele>
        <time>2016-02-26T20:12:39Z</time>
      </trkpt>
      <trkpt lat="45.1618" lon="5.03956">
        <ele>267</ele>
        <time>2016-02-26T20:14:39Z</time>
      </trkpt>
      <trkpt lat="45.16182" lon="5.03958">
        <ele>267</ele>
        <time>2016-02-26T20:16:39Z</time>
      </trkpt>
      <trkpt lat="45.16183" lon="5.03961">
        <ele>267</ele>
        <time>2016-02-26T20:18:39Z</time>
      </trkpt>
      <trkpt lat="45.16185" lon="5.03966">
        <ele>267</ele>
        <time>2016-02-26T20:20:39Z</time>
      </trkpt>
      <trkpt lat="45.16187" lon="5.03976">
        <ele>267</ele>
        <time>2016-02-26T20:22:39Z</time>
      </trkpt>
      <trkpt lat="45.16189" lon="5.03988">
        <ele>267</ele>
        <time>2016-02-26T20:24:39Z</time>
      </trkpt>
      <trkpt lat="45.16191" lon="5.04">
        <ele>268</ele>
        <time>2016-02-26T20:26:39Z</time>
      </trkpt>
      <trkpt lat="45.16193" lon="5.04013">
        <ele>268</ele>
        <time>2016-02-26T20:28:39Z</time>
      </trkpt>
      <trkpt lat="45.16201" lon="5.04059">
        <ele>269</ele>
        <time>2016-02-26T20:30:39Z</time>
      </trkpt>
      <trkpt lat="45.16203" lon="5.04073">
        <ele>269</ele>
        <time>2016-02-26T20:32:39Z</time>
      </trkpt>
      <trkpt lat="45.16204" lon="5.04078">
        <ele>269</ele>
        <time>2016-02-26T20:34:39Z</time>
      </trkpt>
      <trkpt lat="45.16205" lon="5.04083">
        <ele>269</ele>
        <time>2016-02-26T20:36:39Z</time>
      </trkpt>
      <trkpt lat="45.16214" lon="5.04135">
        <ele>270</ele>
        <time>2016-02-26T20:38:39Z</time>
      </trkpt>
      <trkpt lat="45.16223" lon="5.04183">
        <ele>270</ele>
        <time>2016-02-26T20:40:39Z</time>
      </trkpt>
      <trkpt lat="45.1623" lon="5.04221">
        <ele>271</ele>
        <time>2016-02-26T20:42:39Z</time>
      </trkpt>
      <trkpt lat="45.16232" lon="5.04239">
        <ele>271</ele>
        <time>2016-02-26T20:44:39Z</time>
      </trkpt>
      <trkpt lat="45.16234" lon="5.0425">
        <ele>271</ele>
        <time>2016-02-26T20:46:39Z</time>
      </trkpt>
      <trkpt lat="45.16234" lon="5.04259">
        <ele>271</ele>
        <time>2016-02-26T20:48:39Z</time>
      </trkpt>
      <trkpt lat="45.16234" lon="5.04264">
        <ele>271</ele>
        <time>2016-02-26T20:50:39Z</time>
      </trkpt>
      <trkpt lat="45.16235" lon="5.0427">
        <ele>272</ele>
        <time>2016-02-26T20:52:39Z</time>
      </trkpt>
      <trkpt lat="45.16234" lon="5.04276">
        <ele>271</ele>
        <time>2016-02-26T20:54:39Z</time>
      </trkpt>
      <trkpt lat="45.16234" lon="5.04282">
        <ele>271</ele>
        <time>2016-02-26T20:56:39Z</time>
      </trkpt>
      <trkpt lat="45.16234" lon="5.04288">
        <ele>272</ele>
        <time>2016-02-26T20:58:39Z</time>
      </trkpt>
      <trkpt lat="45.16233" lon="5.04294">
        <ele>271</ele>
        <time>2016-02-26T21:00:39Z</time>
      </trkpt>
      <trkpt lat="45.16232" lon="5.04301">
        <ele>271</ele>
        <time>2016-02-26T21:02:39Z</time>
      </trkpt>
      <trkpt lat="45.1623" lon="5.0431">
        <ele>271</ele>
        <time>2016-02-26T21:04:39Z</time>
      </trkpt>
      <trkpt lat="45.16227" lon="5.04325">
        <ele>271</ele>
        <time>2016-02-26T21:06:39Z</time>
      </trkpt>
      <trkpt lat="45.16219" lon="5.04358">
        <ele>272</ele>
        <time>2016-02-26T21:08:39Z</time>
      </trkpt>
      <trkpt lat="45.16202" lon="5.04423">
        <ele>272</ele>
        <time>2016-02-26T21:10:39Z</time>
      </trkpt>
      <trkpt lat="45.16182" lon="5.045">
        <ele>272</ele>
        <time>2016-02-26T21:12:39Z</time>
      </trkpt>
      <trkpt lat="45.16171" lon="5.04544">
        <ele>272</ele>
        <time>2016-02-26T21:14:39Z</time>
      </trkpt>
      <trkpt lat="45.16168" lon="5.04559">
        <ele>272</ele>
        <time>2016-02-26T21:16:39Z</time>
      </trkpt>
      <trkpt lat="45.16166" lon="5.04568">
        <ele>272</ele>
        <time>2016-02-26T21:18:39Z</time>
      </trkpt>
      <trkpt lat="45.16165" lon="5.04577">
        <ele>272</ele>
        <time>2016-02-26T21:20:39Z</time>
      </trkpt>
      <trkpt lat="45.16165" lon="5.04583">
        <ele>272</ele>
        <time>2016-02-26T21:22:39Z</time>
      </trkpt>
      <trkpt lat="45.16164" lon="5.04589">
        <ele>272</ele>
        <time>2016-02-26T21:24:39Z</time>
      </trkpt>
      <trkpt lat="45.16164" lon="5.04594">
        <ele>272</ele>
        <time>2016-02-26T21:26:39Z</time>
      </trkpt>
      <trkpt lat="45.16164" lon="5.04598">
        <ele>272</ele>
        <time>2016-02-26T21:28:39Z</time>
      </trkpt>
      <trkpt lat="45.16163" lon="5.04614">
        <ele>272</ele>
        <time>2016-02-26T21:30:39Z</time>
      </trkpt>
      <trkpt lat="45.16161" lon="5.0469">
        <ele>273</ele>
        <time>2016-02-26T21:32:39Z</time>
      </trkpt>
      <trkpt lat="45.16158" lon="5.04775">
        <ele>274</ele>
        <time>2016-02-26T21:34:39Z</time>
      </trkpt>
      <trkpt lat="45.16157" lon="5.04809">
        <ele>274</ele>
        <time>2016-02-26T21:36:39Z</time>
      </trkpt>
      <trkpt lat="45.16157" lon="5.0482">
        <ele>275</ele>
        <time>2016-02-26T21:38:39Z</time>
      </trkpt>
      <trkpt lat="45.16157" lon="5.04825">
        <ele>275</ele>
        <time>2016-02-26T21:40:39Z</time>
      </trkpt>
      <trkpt lat="45.16158" lon="5.04833">
        <ele>275</ele>
        <time>2016-02-26T21:42:39Z</time>
      </trkpt>
      <trkpt lat="45.16158" lon="5.04841">
        <ele>275</ele>
        <time>2016-02-26T21:44:39Z</time>
      </trkpt>
      <trkpt lat="45.16159" lon="5.04851">
        <ele>275</ele>
        <time>2016-02-26T21:46:39Z</time>
      </trkpt>
      <trkpt lat="45.16159" lon="5.04859">
        <ele>275</ele>
        <time>2016-02-26T21:48:39Z</time>
      </trkpt>
      <trkpt lat="45.16161" lon="5.0487">
        <ele>275</ele>
        <time>2016-02-26T21:50:39Z</time>
      </trkpt>
      <trkpt lat="45.16162" lon="5.04879">
        <ele>275</ele>
        <time>2016-02-26T21:52:39Z</time>
      </trkpt>
      <trkpt lat="45.16163" lon="5.0489">
        <ele>276</ele>
        <time>2016-02-26T21:54:39Z</time>
      </trkpt>
      <trkpt lat="45.16165" lon="5.04898">
        <ele>276</ele>
        <time>2016-02-26T21:56:39Z</time>
      </trkpt>
      <trkpt lat="45.16167" lon="5.04908">
        <ele>276</ele>
        <time>2016-02-26T21:58:39Z</time>
      </trkpt>
      <trkpt lat="45.16169" lon="5.04917">
        <ele>276</ele>
        <time>2016-02-26T22:00:39Z</time>
      </trkpt>
      <trkpt lat="45.1617" lon="5.04925">
        <ele>276</ele>
        <time>2016-02-26T22:02:39Z</time>
      </trkpt>
      <trkpt lat="45.16173" lon="5.04934">
        <ele>276</ele>
        <time>2016-02-26T22:04:39Z</time>
      </trkpt>
      <trkpt lat="45.16176" lon="5.04943">
        <ele>277</ele>
        <time>2016-02-26T22:06:39Z</time>
      </trkpt>
      <trkpt lat="45.16179" lon="5.04955">
        <ele>277</ele>
        <time>2016-02-26T22:08:39Z</time>
      </trkpt>
      <trkpt lat="45.16184" lon="5.04971">
        <ele>277</ele>
        <time>2016-02-26T22:10:39Z</time>
      </trkpt>
      <trkpt lat="45.16202" lon="5.0503">
        <ele>279</ele>
        <time>2016-02-26T22:12:39Z</time>
      </trkpt>
      <trkpt lat="45.16226" lon="5.05107">
        <ele>280</ele>
        <time>2016-02-26T22:14:39Z</time>
      </trkpt>
      <trkpt lat="45.16235" lon="5.05138">
        <ele>281</ele>
        <time>2016-02-26T22:16:39Z</time>
      </trkpt>
      <trkpt lat="45.16239" lon="5.05149">
        <ele>281</ele>
        <time>2016-02-26T22:18:39Z</time>
      </trkpt>
      <trkpt lat="45.16243" lon="5.05159">
        <ele>281</ele>
        <time>2016-02-26T22:20:39Z</time>
      </trkpt>
      <trkpt lat="45.16247" lon="5.05168">
        <ele>281</ele>
        <time>2016-02-26T22:22:39Z</time>
      </trkpt>
      <trkpt lat="45.16261" lon="5.05197">
        <ele>281</ele>
        <time>2016-02-26T22:24:39Z</time>
      </trkpt>
      <trkpt lat="45.1627" lon="5.05214">
        <ele>282</ele>
        <time>2016-02-26T22:26:39Z</time>
      </trkpt>
      <trkpt lat="45.16293" lon="5.0525">
        <ele>282</ele>
        <time>2016-02-26T22:28:39Z</time>
      </trkpt>
      <trkpt lat="45.16344" lon="5.05333">
        <ele>282</ele>
        <time>2016-02-26T22:30:39Z</time>
      </trkpt>
      <trkpt lat="45.16364" lon="5.05369">
        <ele>283</ele>
        <time>2016-02-26T22:32:39Z</time>
      </trkpt>
      <trkpt lat="45.16377" lon="5.05391">
        <ele>283</ele>
        <time>2016-02-26T22:34:39Z</time>
      </trkpt>
      <trkpt lat="45.16386" lon="5.05409">
        <ele>284</ele>
        <time>2016-02-26T22:36:39Z</time>
      </trkpt>
      <trkpt lat="45.16409" lon="5.05451">
        <ele>285</ele>
        <time>2016-02-26T22:38:39Z</time>
      </trkpt>
      <trkpt lat="45.16438" lon="5.05508">
        <ele>286</ele>
        <time>2016-02-26T22:40:39Z</time>
      </trkpt>
      <trkpt lat="45.16475" lon="5.05577">
        <ele>289</ele>
        <time>2016-02-26T22:42:39Z</time>
      </trkpt>
      <trkpt lat="45.1649" lon="5.05605">
        <ele>290</ele>
        <time>2016-02-26T22:44:39Z</time>
      </trkpt>
      <trkpt lat="45.165" lon="5.05626">
        <ele>291</ele>
        <time>2016-02-26T22:46:39Z</time>
      </trkpt>
      <trkpt lat="45.16509" lon="5.05644">
        <ele>292</ele>
        <time>2016-02-26T22:48:39Z</time>
      </trkpt>
      <trkpt lat="45.16518" lon="5.05663">
        <ele>293</ele>
        <time>2016-02-26T22:50:39Z</time>
      </trkpt>
      <trkpt lat="45.16524" lon="5.05678">
        <ele>294</ele>
        <time>2016-02-26T22:52:39Z</time>
      </trkpt>
      <trkpt lat="45.16531" lon="5.05693">
        <ele>294</ele>
        <time>2016-02-26T22:54:39Z</time>
      </trkpt>
      <trkpt lat="45.16538" lon="5.05709">
        <ele>295</ele>
        <time>2016-02-26T22:56:39Z</time>
      </trkpt>
      <trkpt lat="45.16544" lon="5.05723">
        <ele>296</ele>
        <time>2016-02-26T22:58:39Z</time>
      </trkpt>
      <trkpt lat="45.1655" lon="5.05737">
        <ele>296</ele>
        <time>2016-02-26T23:00:39Z</time>
      </trkpt>
      <trkpt lat="45.16556" lon="5.05755">
        <ele>297</ele>
        <time>2016-02-26T23:02:39Z</time>
      </trkpt>
      <trkpt lat="45.16564" lon="5.05778">
        <ele>298</ele>
        <time>2016-02-26T23:04:39Z</time>
      </trkpt>
      <trkpt lat="45.16593" lon="5.0586">
        <ele>300</ele>
        <time>2016-02-26T23:06:39Z</time>
      </trkpt>
      <trkpt lat="45.16615" lon="5.05919">
        <ele>300</ele>
        <time>2016-02-26T23:08:39Z</time>
      </trkpt>
      <trkpt lat="45.16624" lon="5.05942">
        <ele>300</ele>
        <time>2016-02-26T23:10:39Z</time>
      </trkpt>
      <trkpt lat="45.1664" lon="5.05984">
        <ele>299</ele>
        <time>2016-02-26T23:12:39Z</time>
      </trkpt>
      <trkpt lat="45.1665" lon="5.06013">
        <ele>299</ele>
        <time>2016-02-26T23:14:39Z</time>
      </trkpt>
      <trkpt lat="45.16654" lon="5.06026">
        <ele>298</ele>
        <time>2016-02-26T23:16:39Z</time>
      </trkpt>
      <trkpt lat="45.16658" lon="5.06038">
        <ele>298</ele>
        <time>2016-02-26T23:18:39Z</time>
      </trkpt>
      <trkpt lat="45.1666" lon="5.06047">
        <ele>298</ele>
        <time>2016-02-26T23:20:39Z</time>
      </trkpt>
      <trkpt lat="45.16662" lon="5.06054">
        <ele>298</ele>
        <time>2016-02-26T23:22:39Z</time>
      </trkpt>
      <trkpt lat="45.16664" lon="5.06061">
        <ele>298</ele>
        <time>2016-02-26T23:24:39Z</time>
      </trkpt>
      <trkpt lat="45.16665" lon="5.06066">
        <ele>298</ele>
        <time>2016-02-26T23:26:39Z</time>
      </trkpt>
      <trkpt lat="45.16677" lon="5.06127">
        <ele>297</ele>
        <time>2016-02-26T23:28:39Z</time>
      </trkpt>
      <trkpt lat="45.16705" lon="5.06267">
        <ele>300</ele>
        <time>2016-02-26T23:30:39Z</time>
      </trkpt>
      <trkpt lat="45.1672" lon="5.06339">
        <ele>301</ele>
        <time>2016-02-26T23:32:39Z</time>
      </trkpt>
      <trkpt lat="45.16733" lon="5.06402">
        <ele>299</ele>
        <time>2016-02-26T23:34:39Z</time>
      </trkpt>
      <trkpt lat="45.1674" lon="5.06437">
        <ele>298</ele>
        <time>2016-02-26T23:36:39Z</time>
      </trkpt>
      <trkpt lat="45.16742" lon="5.06448">
        <ele>298</ele>
        <time>2016-02-26T23:38:39Z</time>
      </trkpt>
      <trkpt lat="45.16745" lon="5.06457">
        <ele>298</ele>
        <time>2016-02-26T23:40:39Z</time>
      </trkpt>
      <trkpt lat="45.16747" lon="5.06465">
        <ele>298</ele>
        <time>2016-02-26T23:42:39Z</time>
      </trkpt>
      <trkpt lat="45.1675" lon="5.06473">
        <ele>298</ele>
        <time>2016-02-26T23:44:39Z</time>
      </trkpt>
      <trkpt lat="45.16752" lon="5.06479">
        <ele>298</ele>
        <time>2016-02-26T23:46:39Z</time>
      </trkpt>
      <trkpt lat="45.16756" lon="5.06487">
        <ele>298</ele>
        <time>2016-02-26T23:48:39Z</time>
      </trkpt>
      <trkpt lat="45.16758" lon="5.06494">
        <ele>298</ele>
        <time>2016-02-26T23:50:39Z</time>
      </trkpt>
      <trkpt lat="45.16761" lon="5.06499">
        <ele>298</ele>
        <time>2016-02-26T23:52:39Z</time>
      </trkpt>
      <trkpt lat="45.16765" lon="5.06505">
        <ele>298</ele>
        <time>2016-02-26T23:54:39Z</time>
      </trkpt>
      <trkpt lat="45.16768" lon="5.06511">
        <ele>298</ele>
        <time>2016-02-26T23:56:39Z</time>
      </trkpt>
      <trkpt lat="45.16773" lon="5.0652">
        <ele>298</ele>
        <time>2016-02-26T23:58:39Z</time>
      </trkpt>
      <trkpt lat="45.16778" lon="5.06528">
        <ele>298</ele>
        <time>2016-02-27T00:00:39Z</time>
      </trkpt>
      <trkpt lat="45.16784" lon="5.06536">
        <ele>298</ele>
        <time>2016-02-27T00:02:39Z</time>
      </trkpt>
      <trkpt lat="45.16784" lon="5.06536">
        <ele>298</ele>
        <time>2016-02-27T00:04:39Z</time>
      </trkpt>
      <trkpt lat="45.16771" lon="5.06555">
        <ele>295</ele>
        <time>2016-02-27T00:06:39Z</time>
      </trkpt>
      <trkpt lat="45.16765" lon="5.06564">
        <ele>294</ele>
        <time>2016-02-27T00:08:39Z</time>
      </trkpt>
      <trkpt lat="45.16763" lon="5.06568">
        <ele>294</ele>
        <time>2016-02-27T00:10:39Z</time>
      </trkpt>
      <trkpt lat="45.16762" lon="5.06572">
        <ele>294</ele>
        <time>2016-02-27T00:12:39Z</time>
      </trkpt>
      <trkpt lat="45.16761" lon="5.06576">
        <ele>293</ele>
        <time>2016-02-27T00:14:39Z</time>
      </trkpt>
      <trkpt lat="45.16761" lon="5.06581">
        <ele>293</ele>
        <time>2016-02-27T00:16:39Z</time>
      </trkpt>
      <trkpt lat="45.1676" lon="5.06587">
        <ele>293</ele>
        <time>2016-02-27T00:18:39Z</time>
      </trkpt>
      <trkpt lat="45.1676" lon="5.06593">
        <ele>292</ele>
        <time>2016-02-27T00:20:39Z</time>
      </trkpt>
      <trkpt lat="45.16761" lon="5.06599">
        <ele>292</ele>
        <time>2016-02-27T00:22:39Z</time>
      </trkpt>
      <trkpt lat="45.16761" lon="5.06606">
        <ele>292</ele>
        <time>2016-02-27T00:24:39Z</time>
      </trkpt>
      <trkpt lat="45.16763" lon="5.0663">
        <ele>290</ele>
        <time>2016-02-27T00:26:39Z</time>
      </trkpt>
      <trkpt lat="45.16763" lon="5.0664">
        <ele>290</ele>
        <time>2016-02-27T00:28:39Z</time>
      </trkpt>
      <trkpt lat="45.16763" lon="5.06646">
        <ele>290</ele>
        <time>2016-02-27T00:30:39Z</time>
      </trkpt>
      <trkpt lat="45.16763" lon="5.06652">
        <ele>289</ele>
        <time>2016-02-27T00:32:39Z</time>
      </trkpt>
      <trkpt lat="45.16763" lon="5.06659">
        <ele>289</ele>
        <time>2016-02-27T00:34:39Z</time>
      </trkpt>
      <trkpt lat="45.16762" lon="5.06678">
        <ele>288</ele>
        <time>2016-02-27T00:36:39Z</time>
      </trkpt>
      <trkpt lat="45.16762" lon="5.06686">
        <ele>287</ele>
        <time>2016-02-27T00:38:39Z</time>
      </trkpt>
      <trkpt lat="45.16762" lon="5.06694">
        <ele>287</ele>
        <time>2016-02-27T00:40:39Z</time>
      </trkpt>
      <trkpt lat="45.16762" lon="5.06701">
        <ele>287</ele>
        <time>2016-02-27T00:42:39Z</time>
      </trkpt>
      <trkpt lat="45.16763" lon="5.06705">
        <ele>287</ele>
        <time>2016-02-27T00:44:39Z</time>
      </trkpt>
      <trkpt lat="45.16764" lon="5.06708">
        <ele>287</ele>
        <time>2016-02-27T00:46:39Z</time>
      </trkpt>
      <trkpt lat="45.16766" lon="5.06712">
        <ele>287</ele>
        <time>2016-02-27T00:48:39Z</time>
      </trkpt>
      <trkpt lat="45.16768" lon="5.06717">
        <ele>287</ele>
        <time>2016-02-27T00:50:39Z</time>
      </trkpt>
      <trkpt lat="45.16771" lon="5.06724">
        <ele>287</ele>
        <time>2016-02-27T00:52:39Z</time>
      </trkpt>
      <trkpt lat="45.16773" lon="5.0673">
        <ele>287</ele>
        <time>2016-02-27T00:54:39Z</time>
      </trkpt>
      <trkpt lat="45.16775" lon="5.06735">
        <ele>287</ele>
        <time>2016-02-27T00:56:39Z</time>
      </trkpt>
      <trkpt lat="45.16776" lon="5.06742">
        <ele>286</ele>
        <time>2016-02-27T00:58:39Z</time>
      </trkpt>
      <trkpt lat="45.16778" lon="5.06749">
        <ele>286</ele>
        <time>2016-02-27T01:00:39Z</time>
      </trkpt>
      <trkpt lat="45.1678" lon="5.0676">
        <ele>286</ele>
        <time>2016-02-27T01:02:39Z</time>
      </trkpt>
      <trkpt lat="45.16782" lon="5.06772">
        <ele>286</ele>
        <time>2016-02-27T01:04:39Z</time>
      </trkpt>
      <trkpt lat="45.16783" lon="5.06776">
        <ele>286</ele>
        <time>2016-02-27T01:06:39Z</time>
      </trkpt>
      <trkpt lat="45.16783" lon="5.06776">
        <ele>286</ele>
        <time>2016-02-27T01:08:39Z</time>
      </trkpt>
      <trkpt lat="45.16784" lon="5.06781">
        <ele>286</ele>
        <time>2016-02-27T01:10:39Z</time>
      </trkpt>
      <trkpt lat="45.16786" lon="5.06788">
        <ele>286</ele>
        <time>2016-02-27T01:12:39Z</time>
      </trkpt>
      <trkpt lat="45.16788" lon="5.06795">
        <ele>286</ele>
        <time>2016-02-27T01:14:39Z</time>
      </trkpt>
      <trkpt lat="45.16791" lon="5.06803">
        <ele>286</ele>
        <time>2016-02-27T01:16:39Z</time>
      </trkpt>
      <trkpt lat="45.16794" lon="5.0681">
        <ele>286</ele>
        <time>2016-02-27T01:18:39Z</time>
      </trkpt>
      <trkpt lat="45.16798" lon="5.06817">
        <ele>286</ele>
        <time>2016-02-27T01:20:39Z</time>
      </trkpt>
      <trkpt lat="45.16802" lon="5.06825">
        <ele>285</ele>
        <time>2016-02-27T01:22:39Z</time>
      </trkpt>
      <trkpt lat="45.16806" lon="5.06834">
        <ele>285</ele>
        <time>2016-02-27T01:24:39Z</time>
      </trkpt>
      <trkpt lat="45.16814" lon="5.06848">
        <ele>285</ele>
        <time>2016-02-27T01:26:39Z</time>
      </trkpt>
      <trkpt lat="45.16824" lon="5.06863">
        <ele>285</ele>
        <time>2016-02-27T01:28:39Z</time>
      </trkpt>
      <trkpt lat="45.16834" lon="5.06879">
        <ele>284</ele>
        <time>2016-02-27T01:30:39Z</time>
      </trkpt>
      <trkpt lat="45.1685" lon="5.06903">
        <ele>285</ele>
        <time>2016-02-27T01:32:39Z</time>
      </trkpt>
      <trkpt lat="45.16867" lon="5.06929">
        <ele>285</ele>
        <time>2016-02-27T01:34:39Z</time>
      </trkpt>
      <trkpt lat="45.16881" lon="5.0695">
        <ele>285</ele>
        <time>2016-02-27T01:36:39Z</time>
      </trkpt>
      <trkpt lat="45.16894" lon="5.06971">
        <ele>286</ele>
        <time>2016-02-27T01:38:39Z</time>
      </trkpt>
      <trkpt lat="45.16902" lon="5.06984">
        <ele>286</ele>
        <time>2016-02-27T01:40:39Z</time>
      </trkpt>
      <trkpt lat="45.16906" lon="5.06991">
        <ele>286</ele>
        <time>2016-02-27T01:42:39Z</time>
      </trkpt>
      <trkpt lat="45.1691" lon="5.06999">
        <ele>286</ele>
        <time>2016-02-27T01:44:39Z</time>
      </trkpt>
      <trkpt lat="45.16913" lon="5.07005">
        <ele>286</ele>
        <time>2016-02-27T01:46:39Z</time>
      </trkpt>
      <trkpt lat="45.16914" lon="5.07006">
        <ele>286</ele>
        <time>2016-02-27T01:48:39Z</time>
      </trkpt>
      <trkpt lat="45.16916" lon="5.07008">
        <ele>286</ele>
        <time>2016-02-27T01:50:39Z</time>
      </trkpt>
      <trkpt lat="45.16919" lon="5.07014">
        <ele>286</ele>
        <time>2016-02-27T01:52:39Z</time>
      </trkpt>
      <trkpt lat="45.16933" lon="5.07033">
        <ele>287</ele>
        <time>2016-02-27T01:54:39Z</time>
      </trkpt>
      <trkpt lat="45.16955" lon="5.07061">
        <ele>287</ele>
        <time>2016-02-27T01:56:39Z</time>
      </trkpt>
      <trkpt lat="45.16971" lon="5.07081">
        <ele>287</ele>
        <time>2016-02-27T01:58:39Z</time>
      </trkpt>
      <trkpt lat="45.16987" lon="5.071">
        <ele>288</ele>
        <time>2016-02-27T02:00:39Z</time>
      </trkpt>
      <trkpt lat="45.17008" lon="5.07126">
        <ele>288</ele>
        <time>2016-02-27T02:02:39Z</time>
      </trkpt>
      <trkpt lat="45.17028" lon="5.07149">
        <ele>289</ele>
        <time>2016-02-27T02:04:39Z</time>
      </trkpt>
      <trkpt lat="45.17028" lon="5.07149">
        <ele>289</ele>
        <time>2016-02-27T02:06:39Z</time>
      </trkpt>
      <trkpt lat="45.17039" lon="5.07159">
        <ele>289</ele>
        <time>2016-02-27T02:08:39Z</time>
      </trkpt>
      <trkpt lat="45.17051" lon="5.07171">
        <ele>289</ele>
        <time>2016-02-27T02:10:39Z</time>
      </trkpt>
      <trkpt lat="45.17067" lon="5.07186">
        <ele>289</ele>
        <time>2016-02-27T02:12:39Z</time>
      </trkpt>
      <trkpt lat="45.17087" lon="5.07204">
        <ele>290</ele>
        <time>2016-02-27T02:14:39Z</time>
      </trkpt>
      <trkpt lat="45.17102" lon="5.07219">
        <ele>290</ele>
        <time>2016-02-27T02:16:39Z</time>
      </trkpt>
      <trkpt lat="45.17112" lon="5.07228">
        <ele>290</ele>
        <time>2016-02-27T02:18:39Z</time>
      </trkpt>
      <trkpt lat="45.17122" lon="5.07239">
        <ele>290</ele>
        <time>2016-02-27T02:20:39Z</time>
      </trkpt>
      <trkpt lat="45.1713" lon="5.07247">
        <ele>290</ele>
        <time>2016-02-27T02:22:39Z</time>
      </trkpt>
      <trkpt lat="45.17138" lon="5.07257">
        <ele>290</ele>
        <time>2016-02-27T02:24:39Z</time>
      </trkpt>
      <trkpt lat="45.17147" lon="5.07268">
        <ele>291</ele>
        <time>2016-02-27T02:26:39Z</time>
      </trkpt>
      <trkpt lat="45.17158" lon="5.07281">
        <ele>291</ele>
        <time>2016-02-27T02:28:39Z</time>
      </trkpt>
      <trkpt lat="45.17172" lon="5.07297">
        <ele>291</ele>
        <time>2016-02-27T02:30:39Z</time>
      </trkpt>
      <trkpt lat="45.1718" lon="5.07307">
        <ele>291</ele>
        <time>2016-02-27T02:32:39Z</time>
      </trkpt>
      <trkpt lat="45.1718" lon="5.07307">
        <ele>291</ele>
        <time>2016-02-27T02:34:39Z</time>
      </trkpt>
      <trkpt lat="45.1719" lon="5.07318">
        <ele>291</ele>
        <time>2016-02-27T02:36:39Z</time>
      </trkpt>
      <trkpt lat="45.172" lon="5.07329">
        <ele>291</ele>
        <time>2016-02-27T02:38:39Z</time>
      </trkpt>
      <trkpt lat="45.17321" lon="5.07428">
        <ele>291</ele>
        <time>2016-02-27T02:40:39Z</time>
      </trkpt>
      <trkpt lat="45.1733" lon="5.07435">
        <ele>291</ele>
        <time>2016-02-27T02:42:39Z</time>
      </trkpt>
      <trkpt lat="45.1734" lon="5.07447">
        <ele>291</ele>
        <time>2016-02-27T02:44:39Z</time>
      </trkpt>
      <trkpt lat="45.17379" lon="5.07518">
        <ele>292</ele>
        <time>2016-02-27T02:46:39Z</time>
      </trkpt>
      <trkpt lat="45.17424" lon="5.07602">
        <ele>293</ele>
        <time>2016-02-27T02:48:39Z</time>
      </trkpt>
      <trkpt lat="45.17426" lon="5.07606">
        <ele>293</ele>
        <time>2016-02-27T02:50:39Z</time>
      </trkpt>
      <trkpt lat="45.17427" lon="5.07609">
        <ele>293</ele>
        <time>2016-02-27T02:52:39Z</time>
      </trkpt>
      <trkpt lat="45.1743" lon="5.07614">
        <ele>294</ele>
        <time>2016-02-27T02:54:39Z</time>
      </trkpt>
      <trkpt lat="45.17493" lon="5.07746">
        <ele>297</ele>
        <time>2016-02-27T02:56:39Z</time>
      </trkpt>
      <trkpt lat="45.17523" lon="5.07819">
        <ele>298</ele>
        <time>2016-02-27T02:58:39Z</time>
      </trkpt>
      <trkpt lat="45.17545" lon="5.07885">
        <ele>299</ele>
        <time>2016-02-27T03:00:39Z</time>
      </trkpt>
      <trkpt lat="45.17556" lon="5.07913">
        <ele>300</ele>
        <time>2016-02-27T03:02:39Z</time>
      </trkpt>
      <trkpt lat="45.17574" lon="5.07949">
        <ele>301</ele>
        <time>2016-02-27T03:04:39Z</time>
      </trkpt>
      <trkpt lat="45.17694" lon="5.08116">
        <ele>304</ele>
        <time>2016-02-27T03:06:39Z</time>
      </trkpt>
      <trkpt lat="45.17715" lon="5.08142">
        <ele>305</ele>
        <time>2016-02-27T03:08:39Z</time>
      </trkpt>
      <trkpt lat="45.17773" lon="5.08225">
        <ele>306</ele>
        <time>2016-02-27T03:10:39Z</time>
      </trkpt>
      <trkpt lat="45.1783" lon="5.08316">
        <ele>306</ele>
        <time>2016-02-27T03:12:39Z</time>
      </trkpt>
      <trkpt lat="45.17837" lon="5.08323">
        <ele>306</ele>
        <time>2016-02-27T03:14:39Z</time>
      </trkpt>
      <trkpt lat="45.17841" lon="5.08328">
        <ele>305</ele>
        <time>2016-02-27T03:16:39Z</time>
      </trkpt>
      <trkpt lat="45.17872" lon="5.08362">
        <ele>305</ele>
        <time>2016-02-27T03:18:39Z</time>
      </trkpt>
      <trkpt lat="45.17904" lon="5.08398">
        <ele>304</ele>
        <time>2016-02-27T03:20:39Z</time>
      </trkpt>
      <trkpt lat="45.17918" lon="5.08413">
        <ele>304</ele>
        <time>2016-02-27T03:22:39Z</time>
      </trkpt>
      <trkpt lat="45.17934" lon="5.08429">
        <ele>304</ele>
        <time>2016-02-27T03:24:39Z</time>
      </trkpt>
      <trkpt lat="45.17952" lon="5.08448">
        <ele>304</ele>
        <time>2016-02-27T03:26:39Z</time>
      </trkpt>
      <trkpt lat="45.17965" lon="5.08461">
        <ele>304</ele>
        <time>2016-02-27T03:28:39Z</time>
      </trkpt>
      <trkpt lat="45.17979" lon="5.08476">
        <ele>305</ele>
        <time>2016-02-27T03:30:39Z</time>
      </trkpt>
      <trkpt lat="45.17993" lon="5.08494">
        <ele>305</ele>
        <time>2016-02-27T03:32:39Z</time>
      </trkpt>
      <trkpt lat="45.18029" lon="5.08548">
        <ele>307</ele>
        <time>2016-02-27T03:34:39Z</time>
      </trkpt>
      <trkpt lat="45.18099" lon="5.08648">
        <ele>310</ele>
        <time>2016-02-27T03:36:39Z</time>
      </trkpt>
      <trkpt lat="45.18119" lon="5.08676">
        <ele>310</ele>
        <time>2016-02-27T03:38:39Z</time>
      </trkpt>
      <trkpt lat="45.18126" lon="5.08686">
        <ele>311</ele>
        <time>2016-02-27T03:40:39Z</time>
      </trkpt>
      <trkpt lat="45.18134" lon="5.08695">
        <ele>311</ele>
        <time>2016-02-27T03:42:39Z</time>
      </trkpt>
      <trkpt lat="45.18151" lon="5.0872">
        <ele>311</ele>
        <time>2016-02-27T03:44:39Z</time>
      </trkpt>
      <trkpt lat="45.1819" lon="5.08775">
        <ele>313</ele>
        <time>2016-02-27T03:46:39Z</time>
      </trkpt>
      <trkpt lat="45.18208" lon="5.08801">
        <ele>314</ele>
        <time>2016-02-27T03:48:39Z</time>
      </trkpt>
      <trkpt lat="45.18223" lon="5.0882">
        <ele>315</ele>
        <time>2016-02-27T03:50:39Z</time>
      </trkpt>
      <trkpt lat="45.18237" lon="5.0884">
        <ele>315</ele>
        <time>2016-02-27T03:52:39Z</time>
      </trkpt>
      <trkpt lat="45.18254" lon="5.08862">
        <ele>316</ele>
        <time>2016-02-27T03:54:39Z</time>
      </trkpt>
      <trkpt lat="45.18271" lon="5.08884">
        <ele>316</ele>
        <time>2016-02-27T03:56:39Z</time>
      </trkpt>
      <trkpt lat="45.18288" lon="5.08903">
        <ele>317</ele>
        <time>2016-02-27T03:58:39Z</time>
      </trkpt>
      <trkpt lat="45.18301" lon="5.08918">
        <ele>318</ele>
        <time>2016-02-27T04:00:39Z</time>
      </trkpt>
      <trkpt lat="45.18325" lon="5.08945">
        <ele>319</ele>
        <time>2016-02-27T04:02:39Z</time>
      </trkpt>
      <trkpt lat="45.18348" lon="5.08973">
        <ele>319</ele>
        <time>2016-02-27T04:04:39Z</time>
      </trkpt>
      <trkpt lat="45.18366" lon="5.08991">
        <ele>320</ele>
        <time>2016-02-27T04:06:39Z</time>
      </trkpt>
      <trkpt lat="45.18384" lon="5.09011">
        <ele>320</ele>
        <time>2016-02-27T04:08:39Z</time>
      </trkpt>
      <trkpt lat="45.18397" lon="5.09028">
        <ele>320</ele>
        <time>2016-02-27T04:10:39Z</time>
      </trkpt>
      <trkpt lat="45.18402" lon="5.09036">
        <ele>320</ele>
        <time>2016-02-27T04:12:39Z</time>
      </trkpt>
      <trkpt lat="45.18444" lon="5.09117">
        <ele>319</ele>
        <time>2016-02-27T04:14:39Z</time>
      </trkpt>
      <trkpt lat="45.18458" lon="5.09142">
        <ele>319</ele>
        <time>2016-02-27T04:16:39Z</time>
      </trkpt>
      <trkpt lat="45.18473" lon="5.09164">
        <ele>318</ele>
        <time>2016-02-27T04:18:39Z</time>
      </trkpt>
      <trkpt lat="45.18478" lon="5.09171">
        <ele>318</ele>
        <time>2016-02-27T04:20:39Z</time>
      </trkpt>
      <trkpt lat="45.18483" lon="5.0918">
        <ele>318</ele>
        <time>2016-02-27T04:22:39Z</time>
      </trkpt>
      <trkpt lat="45.18492" lon="5.09192">
        <ele>318</ele>
        <time>2016-02-27T04:24:39Z</time>
      </trkpt>
      <trkpt lat="45.18498" lon="5.09202">
        <ele>318</ele>
        <time>2016-02-27T04:26:39Z</time>
      </trkpt>
      <trkpt lat="45.18502" lon="5.09213">
        <ele>319</ele>
        <time>2016-02-27T04:28:39Z</time>
      </trkpt>
      <trkpt lat="45.18506" lon="5.09221">
        <ele>319</ele>
        <time>2016-02-27T04:30:39Z</time>
      </trkpt>
      <trkpt lat="45.18522" lon="5.09268">
        <ele>319</ele>
        <time>2016-02-27T04:32:39Z</time>
      </trkpt>
      <trkpt lat="45.1853" lon="5.09284">
        <ele>318</ele>
        <time>2016-02-27T04:34:39Z</time>
      </trkpt>
      <trkpt lat="45.1853" lon="5.09284">
        <ele>318</ele>
        <time>2016-02-27T04:36:39Z</time>
      </trkpt>
      <trkpt lat="45.1855" lon="5.09307">
        <ele>318</ele>
        <time>2016-02-27T04:38:39Z</time>
      </trkpt>
      <trkpt lat="45.18559" lon="5.09318">
        <ele>318</ele>
        <time>2016-02-27T04:40:39Z</time>
      </trkpt>
      <trkpt lat="45.18564" lon="5.09328">
        <ele>318</ele>
        <time>2016-02-27T04:42:39Z</time>
      </trkpt>
      <trkpt lat="45.18571" lon="5.09341">
        <ele>318</ele>
        <time>2016-02-27T04:44:39Z</time>
      </trkpt>
      <trkpt lat="45.18575" lon="5.09352">
        <ele>319</ele>
        <time>2016-02-27T04:46:39Z</time>
      </trkpt>
      <trkpt lat="45.18586" lon="5.09382">
        <ele>319</ele>
        <time>2016-02-27T04:48:39Z</time>
      </trkpt>
      <trkpt lat="45.18599" lon="5.09414">
        <ele>320</ele>
        <time>2016-02-27T04:50:39Z</time>
      </trkpt>
      <trkpt lat="45.18604" lon="5.09428">
        <ele>320</ele>
        <time>2016-02-27T04:52:39Z</time>
      </trkpt>
      <trkpt lat="45.18623" lon="5.09486">
        <ele>320</ele>
        <time>2016-02-27T04:54:39Z</time>
      </trkpt>
      <trkpt lat="45.18633" lon="5.09511">
        <ele>320</ele>
        <time>2016-02-27T04:56:39Z</time>
      </trkpt>
      <trkpt lat="45.18637" lon="5.09524">
        <ele>321</ele>
        <time>2016-02-27T04:58:39Z</time>
      </trkpt>
      <trkpt lat="45.18638" lon="5.09538">
        <ele>321</ele>
        <time>2016-02-27T05:00:39Z</time>
      </trkpt>
      <trkpt lat="45.18642" lon="5.09557">
        <ele>321</ele>
        <time>2016-02-27T05:02:39Z</time>
      </trkpt>
      <trkpt lat="45.18645" lon="5.09567">
        <ele>321</ele>
        <time>2016-02-27T05:04:39Z</time>
      </trkpt>
      <trkpt lat="45.18713" lon="5.09757">
        <ele>323</ele>
        <time>2016-02-27T05:06:39Z</time>
      </trkpt>
      <trkpt lat="45.18717" lon="5.09774">
        <ele>323</ele>
        <time>2016-02-27T05:08:39Z</time>
      </trkpt>
      <trkpt lat="45.18721" lon="5.09788">
        <ele>323</ele>
        <time>2016-02-27T05:10:39Z</time>
      </trkpt>
      <trkpt lat="45.18756" lon="5.09889">
        <ele>324</ele>
        <time>2016-02-27T05:12:39Z</time>
      </trkpt>
      <trkpt lat="45.18756" lon="5.09894">
        <ele>324</ele>
        <time>2016-02-27T05:14:39Z</time>
      </trkpt>
      <trkpt lat="45.18753" lon="5.099">
        <ele>325</ele>
        <time>2016-02-27T05:16:39Z</time>
      </trkpt>
      <trkpt lat="45.18741" lon="5.09913">
        <ele>325</ele>
        <time>2016-02-27T05:18:39Z</time>
      </trkpt>
      <trkpt lat="45.18741" lon="5.09913">
        <ele>325</ele>
        <time>2016-02-27T05:20:39Z</time>
      </trkpt>
      <trkpt lat="45.1874" lon="5.0992">
        <ele>326</ele>
        <time>2016-02-27T05:22:39Z</time>
      </trkpt>
      <trkpt lat="45.1874" lon="5.09927">
        <ele>326</ele>
        <time>2016-02-27T05:24:39Z</time>
      </trkpt>
      <trkpt lat="45.18764" lon="5.10149">
        <ele>331</ele>
        <time>2016-02-27T05:26:39Z</time>
      </trkpt>
      <trkpt lat="45.18766" lon="5.10161">
        <ele>331</ele>
        <time>2016-02-27T05:28:39Z</time>
      </trkpt>
      <trkpt lat="45.18769" lon="5.10172">
        <ele>331</ele>
        <time>2016-02-27T05:30:39Z</time>
      </trkpt>
      <trkpt lat="45.18772" lon="5.10182">
        <ele>331</ele>
        <time>2016-02-27T05:32:39Z</time>
      </trkpt>
      <trkpt lat="45.18784" lon="5.1022">
        <ele>332</ele>
        <time>2016-02-27T05:34:39Z</time>
      </trkpt>
      <trkpt lat="45.18788" lon="5.10235">
        <ele>332</ele>
        <time>2016-02-27T05:36:39Z</time>
      </trkpt>
      <trkpt lat="45.18794" lon="5.10274">
        <ele>333</ele>
        <time>2016-02-27T05:38:39Z</time>
      </trkpt>
      <trkpt lat="45.18794" lon="5.10286">
        <ele>333</ele>
        <time>2016-02-27T05:40:39Z</time>
      </trkpt>
      <trkpt lat="45.18794" lon="5.10298">
        <ele>333</ele>
        <time>2016-02-27T05:42:39Z</time>
      </trkpt>
      <trkpt lat="45.18795" lon="5.10305">
        <ele>333</ele>
        <time>2016-02-27T05:44:39Z</time>
      </trkpt>
      <trkpt lat="45.18798" lon="5.10327">
        <ele>334</ele>
        <time>2016-02-27T05:46:39Z</time>
      </trkpt>
      <trkpt lat="45.188" lon="5.10354">
        <ele>334</ele>
        <time>2016-02-27T05:48:39Z</time>
      </trkpt>
      <trkpt lat="45.188" lon="5.10372">
        <ele>335</ele>
        <time>2016-02-27T05:50:39Z</time>
      </trkpt>
      <trkpt lat="45.18799" lon="5.10398">
        <ele>335</ele>
        <time>2016-02-27T05:52:39Z</time>
      </trkpt>
      <trkpt lat="45.18804" lon="5.10417">
        <ele>335</ele>
        <time>2016-02-27T05:54:39Z</time>
      </trkpt>
      <trkpt lat="45.18812" lon="5.10445">
        <ele>335</ele>
        <time>2016-02-27T05:56:39Z</time>
      </trkpt>
      <trkpt lat="45.18819" lon="5.1046">
        <ele>335</ele>
        <time>2016-02-27T05:58:39Z</time>
      </trkpt>
      <trkpt lat="45.18827" lon="5.10475">
        <ele>335</ele>
        <time>2016-02-27T06:00:39Z</time>
      </trkpt>
      <trkpt lat="45.18837" lon="5.10489">
        <ele>335</ele>
        <time>2016-02-27T06:02:39Z</time>
      </trkpt>
      <trkpt lat="45.18839" lon="5.10496">
        <ele>335</ele>
        <time>2016-02-27T06:04:39Z</time>
      </trkpt>
      <trkpt lat="45.18839" lon="5.10496">
        <ele>335</ele>
        <time>2016-02-27T06:06:39Z</time>
      </trkpt>
      <trkpt lat="45.1884" lon="5.10502">
        <ele>335</ele>
        <time>2016-02-27T06:08:39Z</time>
      </trkpt>
      <trkpt lat="45.18842" lon="5.10512">
        <ele>335</ele>
        <time>2016-02-27T06:10:39Z</time>
      </trkpt>
      <trkpt lat="45.18842" lon="5.10513">
        <ele>335</ele>
        <time>2016-02-27T06:12:39Z</time>
      </trkpt>
      <trkpt lat="45.1884" lon="5.1052">
        <ele>335</ele>
        <time>2016-02-27T06:14:39Z</time>
      </trkpt>
      <trkpt lat="45.18834" lon="5.1053">
        <ele>335</ele>
        <time>2016-02-27T06:16:39Z</time>
      </trkpt>
      <trkpt lat="45.18807" lon="5.10562">
        <ele>337</ele>
        <time>2016-02-27T06:18:39Z</time>
      </trkpt>
      <trkpt lat="45.18797" lon="5.10578">
        <ele>337</ele>
        <time>2016-02-27T06:20:39Z</time>
      </trkpt>
      <trkpt lat="45.18793" lon="5.10602">
        <ele>338</ele>
        <time>2016-02-27T06:22:39Z</time>
      </trkpt>
      <trkpt lat="45.1879" lon="5.10655">
        <ele>341</ele>
        <time>2016-02-27T06:24:39Z</time>
      </trkpt>
      <trkpt lat="45.18792" lon="5.10668">
        <ele>341</ele>
        <time>2016-02-27T06:26:39Z</time>
      </trkpt>
      <trkpt lat="45.18796" lon="5.10681">
        <ele>342</ele>
        <time>2016-02-27T06:28:39Z</time>
      </trkpt>
      <trkpt lat="45.18799" lon="5.1069">
        <ele>343</ele>
        <time>2016-02-27T06:30:39Z</time>
      </trkpt>
      <trkpt lat="45.18802" lon="5.10699">
        <ele>343</ele>
        <time>2016-02-27T06:32:39Z</time>
      </trkpt>
      <trkpt lat="45.18802" lon="5.10699">
        <ele>343</ele>
        <time>2016-02-27T06:34:39Z</time>
      </trkpt>
      <trkpt lat="45.18816" lon="5.10704">
        <ele>344</ele>
        <time>2016-02-27T06:36:39Z</time>
      </trkpt>
      <trkpt lat="45.18828" lon="5.1071">
        <ele>344</ele>
        <time>2016-02-27T06:38:39Z</time>
      </trkpt>
      <trkpt lat="45.18838" lon="5.10719">
        <ele>344</ele>
        <time>2016-02-27T06:40:39Z</time>
      </trkpt>
      <trkpt lat="45.18854" lon="5.10732">
        <ele>343</ele>
        <time>2016-02-27T06:42:39Z</time>
      </trkpt>
      <trkpt lat="45.18862" lon="5.10742">
        <ele>343</ele>
        <time>2016-02-27T06:44:39Z</time>
      </trkpt>
      <trkpt lat="45.18882" lon="5.10768">
        <ele>343</ele>
        <time>2016-02-27T06:46:39Z</time>
      </trkpt>
      <trkpt lat="45.18914" lon="5.10808">
        <ele>343</ele>
        <time>2016-02-27T06:48:39Z</time>
      </trkpt>
      <trkpt lat="45.18945" lon="5.10849">
        <ele>341</ele>
        <time>2016-02-27T06:50:39Z</time>
      </trkpt>
      <trkpt lat="45.18974" lon="5.10888">
        <ele>339</ele>
        <time>2016-02-27T06:52:39Z</time>
      </trkpt>
      <trkpt lat="45.18989" lon="5.10904">
        <ele>338</ele>
        <time>2016-02-27T06:54:39Z</time>
      </trkpt>
      <trkpt lat="45.19003" lon="5.10923">
        <ele>337</ele>
        <time>2016-02-27T06:56:39Z</time>
      </trkpt>
      <trkpt lat="45.19011" lon="5.10934">
        <ele>337</ele>
        <time>2016-02-27T06:58:39Z</time>
      </trkpt>
      <trkpt lat="45.19022" lon="5.10948">
        <ele>337</ele>
        <time>2016-02-27T07:00:39Z</time>
      </trkpt>
      <trkpt lat="45.19026" lon="5.10952">
        <ele>337</ele>
        <time>2016-02-27T07:02:39Z</time>
      </trkpt>
      <trkpt lat="45.19043" lon="5.10972">
        <ele>337</ele>
        <time>2016-02-27T07:04:39Z</time>
      </trkpt>
      <trkpt lat="45.19053" lon="5.10983">
        <ele>336</ele>
        <time>2016-02-27T07:06:39Z</time>
      </trkpt>
      <trkpt lat="45.1906" lon="5.10989">
        <ele>336</ele>
        <time>2016-02-27T07:08:39Z</time>
      </trkpt>
      <trkpt lat="45.19067" lon="5.10996">
        <ele>335</ele>
        <time>2016-02-27T07:10:39Z</time>
      </trkpt>
      <trkpt lat="45.19077" lon="5.11003">
        <ele>335</ele>
        <time>2016-02-27T07:12:39Z</time>
      </trkpt>
      <trkpt lat="45.19091" lon="5.11012">
        <ele>334</ele>
        <time>2016-02-27T07:14:39Z</time>
      </trkpt>
      <trkpt lat="45.191" lon="5.11016">
        <ele>335</ele>
        <time>2016-02-27T07:16:39Z</time>
      </trkpt>
      <trkpt lat="45.19111" lon="5.11021">
        <ele>335</ele>
        <time>2016-02-27T07:18:39Z</time>
      </trkpt>
      <trkpt lat="45.19127" lon="5.11024">
        <ele>335</ele>
        <time>2016-02-27T07:20:39Z</time>
      </trkpt>
      <trkpt lat="45.19133" lon="5.11025">
        <ele>335</ele>
        <time>2016-02-27T07:22:39Z</time>
      </trkpt>
      <trkpt lat="45.19139" lon="5.11025">
        <ele>335</ele>
        <time>2016-02-27T07:24:39Z</time>
      </trkpt>
      <trkpt lat="45.19146" lon="5.11024">
        <ele>336</ele>
        <time>2016-02-27T07:26:39Z</time>
      </trkpt>
      <trkpt lat="45.19158" lon="5.1102">
        <ele>336</ele>
        <time>2016-02-27T07:28:39Z</time>
      </trkpt>
      <trkpt lat="45.19177" lon="5.11016">
        <ele>337</ele>
        <time>2016-02-27T07:30:39Z</time>
      </trkpt>
      <trkpt lat="45.19195" lon="5.1101">
        <ele>338</ele>
        <time>2016-02-27T07:32:39Z</time>
      </trkpt>
      <trkpt lat="45.19205" lon="5.11008">
        <ele>338</ele>
        <time>2016-02-27T07:34:39Z</time>
      </trkpt>
      <trkpt lat="45.19216" lon="5.11004">
        <ele>339</ele>
        <time>2016-02-27T07:36:39Z</time>
      </trkpt>
      <trkpt lat="45.1922" lon="5.11002">
        <ele>339</ele>
        <time>2016-02-27T07:38:39Z</time>
      </trkpt>
      <trkpt lat="45.19242" lon="5.1099">
        <ele>341</ele>
        <time>2016-02-27T07:40:39Z</time>
      </trkpt>
      <trkpt lat="45.19256" lon="5.1098">
        <ele>342</ele>
        <time>2016-02-27T07:42:39Z</time>
      </trkpt>
      <trkpt lat="45.19269" lon="5.1097">
        <ele>344</ele>
        <time>2016-02-27T07:44:39Z</time>
      </trkpt>
      <trkpt lat="45.19302" lon="5.10947">
        <ele>349</ele>
        <time>2016-02-27T07:46:39Z</time>
      </trkpt>
      <trkpt lat="45.19302" lon="5.10947">
        <ele>349</ele>
        <time>2016-02-27T07:48:39Z</time>
      </trkpt>
      <trkpt lat="45.19355" lon="5.11131">
        <ele>355</ele>
        <time>2016-02-27T07:50:39Z</time>
      </trkpt>
      <trkpt lat="45.19409" lon="5.11313">
        <ele>358</ele>
        <time>2016-02-27T07:52:39Z</time>
      </trkpt>
      <trkpt lat="45.19412" lon="5.11324">
        <ele>359</ele>
        <time>2016-02-27T07:54:39Z</time>
      </trkpt>
      <trkpt lat="45.19417" lon="5.11338">
        <ele>359</ele>
        <time>2016-02-27T07:56:39Z</time>
      </trkpt>
      <trkpt lat="45.19444" lon="5.11432">
        <ele>360</ele>
        <time>2016-02-27T07:58:39Z</time>
      </trkpt>
      <trkpt lat="45.19478" lon="5.11541">
        <ele>362</ele>
        <time>2016-02-27T08:00:39Z</time>
      </trkpt>
      <trkpt lat="45.19503" lon="5.11623">
        <ele>362</ele>
        <time>2016-02-27T08:02:39Z</time>
      </trkpt>
      <trkpt lat="45.19515" lon="5.11655">
        <ele>362</ele>
        <time>2016-02-27T08:04:39Z</time>
      </trkpt>
      <trkpt lat="45.19522" lon="5.11669">
        <ele>362</ele>
        <time>2016-02-27T08:06:39Z</time>
      </trkpt>
      <trkpt lat="45.19532" lon="5.11683">
        <ele>362</ele>
        <time>2016-02-27T08:08:39Z</time>
      </trkpt>
      <trkpt lat="45.19538" lon="5.11691">
        <ele>362</ele>
        <time>2016-02-27T08:10:39Z</time>
      </trkpt>
      <trkpt lat="45.19553" lon="5.11703">
        <ele>362</ele>
        <time>2016-02-27T08:12:39Z</time>
      </trkpt>
      <trkpt lat="45.19575" lon="5.11721">
        <ele>362</ele>
        <time>2016-02-27T08:14:39Z</time>
      </trkpt>
      <trkpt lat="45.19581" lon="5.11726">
        <ele>362</ele>
        <time>2016-02-27T08:16:39Z</time>
      </trkpt>
      <trkpt lat="45.19585" lon="5.11729">
        <ele>362</ele>
        <time>2016-02-27T08:18:39Z</time>
      </trkpt>
      <trkpt lat="45.19589" lon="5.11731">
        <ele>362</ele>
        <time>2016-02-27T08:20:39Z</time>
      </trkpt>
      <trkpt lat="45.19637" lon="5.1177">
        <ele>362</ele>
        <time>2016-02-27T08:22:39Z</time>
      </trkpt>
      <trkpt lat="45.19727" lon="5.11841">
        <ele>364</ele>
        <time>2016-02-27T08:24:39Z</time>
      </trkpt>
      <trkpt lat="45.1982" lon="5.11914">
        <ele>366</ele>
        <time>2016-02-27T08:26:39Z</time>
      </trkpt>
      <trkpt lat="45.19833" lon="5.11924">
        <ele>366</ele>
        <time>2016-02-27T08:28:39Z</time>
      </trkpt>
      <trkpt lat="45.19961" lon="5.12025">
        <ele>367</ele>
        <time>2016-02-27T08:30:39Z</time>
      </trkpt>
      <trkpt lat="45.20058" lon="5.12102">
        <ele>369</ele>
        <time>2016-02-27T08:32:39Z</time>
      </trkpt>
      <trkpt lat="45.20107" lon="5.12141">
        <ele>370</ele>
        <time>2016-02-27T08:34:39Z</time>
      </trkpt>
      <trkpt lat="45.20126" lon="5.12156">
        <ele>371</ele>
        <time>2016-02-27T08:36:39Z</time>
      </trkpt>
      <trkpt lat="45.20202" lon="5.12217">
        <ele>374</ele>
        <time>2016-02-27T08:38:39Z</time>
      </trkpt>
      <trkpt lat="45.20252" lon="5.12259">
        <ele>377</ele>
        <time>2016-02-27T08:40:39Z</time>
      </trkpt>
      <trkpt lat="45.20312" lon="5.12307">
        <ele>378</ele>
        <time>2016-02-27T08:42:39Z</time>
      </trkpt>
      <trkpt lat="45.2032" lon="5.12316">
        <ele>378</ele>
        <time>2016-02-27T08:44:39Z</time>
      </trkpt>
      <trkpt lat="45.20325" lon="5.1232">
        <ele>378</ele>
        <time>2016-02-27T08:46:39Z</time>
      </trkpt>
      <trkpt lat="45.20329" lon="5.12323">
        <ele>378</ele>
        <time>2016-02-27T08:48:39Z</time>
      </trkpt>
      <trkpt lat="45.20489" lon="5.12479">
        <ele>380</ele>
        <time>2016-02-27T08:50:39Z</time>
      </trkpt>
      <trkpt lat="45.2049" lon="5.1248">
        <ele>380</ele>
        <time>2016-02-27T08:52:39Z</time>
      </trkpt>
      <trkpt lat="45.20537" lon="5.12521">
        <ele>380</ele>
        <time>2016-02-27T08:54:39Z</time>
      </trkpt>
      <trkpt lat="45.20537" lon="5.12522">
        <ele>380</ele>
        <time>2016-02-27T08:56:39Z</time>
      </trkpt>
      <trkpt lat="45.20618" lon="5.12579">
        <ele>381</ele>
        <time>2016-02-27T08:58:39Z</time>
      </trkpt>
      <trkpt lat="45.20679" lon="5.1262">
        <ele>381</ele>
        <time>2016-02-27T09:00:39Z</time>
      </trkpt>
      <trkpt lat="45.20708" lon="5.12636">
        <ele>381</ele>
        <time>2016-02-27T09:02:39Z</time>
      </trkpt>
      <trkpt lat="45.20721" lon="5.12643">
        <ele>381</ele>
        <time>2016-02-27T09:04:39Z</time>
      </trkpt>
      <trkpt lat="45.20734" lon="5.1265">
        <ele>381</ele>
        <time>2016-02-27T09:06:39Z</time>
      </trkpt>
      <trkpt lat="45.20755" lon="5.12664">
        <ele>382</ele>
        <time>2016-02-27T09:08:39Z</time>
      </trkpt>
      <trkpt lat="45.20781" lon="5.12682">
        <ele>383</ele>
        <time>2016-02-27T09:10:39Z</time>
      </trkpt>
      <trkpt lat="45.20803" lon="5.12695">
        <ele>384</ele>
        <time>2016-02-27T09:12:39Z</time>
      </trkpt>
      <trkpt lat="45.20838" lon="5.12716">
        <ele>386</ele>
        <time>2016-02-27T09:14:39Z</time>
      </trkpt>
      <trkpt lat="45.20868" lon="5.12735">
        <ele>385</ele>
        <time>2016-02-27T09:16:39Z</time>
      </trkpt>
      <trkpt lat="45.20872" lon="5.12737">
        <ele>385</ele>
        <time>2016-02-27T09:18:39Z</time>
      </trkpt>
      <trkpt lat="45.20884" lon="5.12746">
        <ele>385</ele>
        <time>2016-02-27T09:20:39Z</time>
      </trkpt>
      <trkpt lat="45.20902" lon="5.12764">
        <ele>385</ele>
        <time>2016-02-27T09:22:39Z</time>
      </trkpt>
      <trkpt lat="45.20959" lon="5.12817">
        <ele>387</ele>
        <time>2016-02-27T09:24:39Z</time>
      </trkpt>
      <trkpt lat="45.21003" lon="5.1286">
        <ele>388</ele>
        <time>2016-02-27T09:26:39Z</time>
      </trkpt>
      <trkpt lat="45.21015" lon="5.12872">
        <ele>389</ele>
        <time>2016-02-27T09:28:39Z</time>
      </trkpt>
      <trkpt lat="45.21028" lon="5.12887">
        <ele>389</ele>
        <time>2016-02-27T09:30:39Z</time>
      </trkpt>
      <trkpt lat="45.21041" lon="5.12905">
        <ele>389</ele>
        <time>2016-02-27T09:32:39Z</time>
      </trkpt>
      <trkpt lat="45.2105" lon="5.12918">
        <ele>389</ele>
        <time>2016-02-27T09:34:39Z</time>
      </trkpt>
      <trkpt lat="45.21074" lon="5.1295">
        <ele>389</ele>
        <time>2016-02-27T09:36:39Z</time>
      </trkpt>
      <trkpt lat="45.21094" lon="5.12972">
        <ele>389</ele>
        <time>2016-02-27T09:38:39Z</time>
      </trkpt>
      <trkpt lat="45.21123" lon="5.13">
        <ele>389</ele>
        <time>2016-02-27T09:40:39Z</time>
      </trkpt>
      <trkpt lat="45.21162" lon="5.13032">
        <ele>389</ele>
        <time>2016-02-27T09:42:39Z</time>
      </trkpt>
      <trkpt lat="45.21195" lon="5.13058">
        <ele>390</ele>
        <time>2016-02-27T09:44:39Z</time>
      </trkpt>
      <trkpt lat="45.21205" lon="5.13066">
        <ele>391</ele>
        <time>2016-02-27T09:46:39Z</time>
      </trkpt>
      <trkpt lat="45.21254" lon="5.13105">
        <ele>393</ele>
        <time>2016-02-27T09:48:39Z</time>
      </trkpt>
      <trkpt lat="45.21284" lon="5.1313">
        <ele>394</ele>
        <time>2016-02-27T09:50:39Z</time>
      </trkpt>
      <trkpt lat="45.21325" lon="5.13162">
        <ele>396</ele>
        <time>2016-02-27T09:52:39Z</time>
      </trkpt>
      <trkpt lat="45.21346" lon="5.13181">
        <ele>397</ele>
        <time>2016-02-27T09:54:39Z</time>
      </trkpt>
      <trkpt lat="45.21358" lon="5.13192">
        <ele>397</ele>
        <time>2016-02-27T09:56:39Z</time>
      </trkpt>
      <trkpt lat="45.21367" lon="5.13202">
        <ele>398</ele>
        <time>2016-02-27T09:58:39Z</time>
      </trkpt>
      <trkpt lat="45.21376" lon="5.13214">
        <ele>398</ele>
        <time>2016-02-27T10:00:39Z</time>
      </trkpt>
      <trkpt lat="45.21391" lon="5.13236">
        <ele>398</ele>
        <time>2016-02-27T10:02:39Z</time>
      </trkpt>
      <trkpt lat="45.21407" lon="5.13262">
        <ele>398</ele>
        <time>2016-02-27T10:04:39Z</time>
      </trkpt>
      <trkpt lat="45.21411" lon="5.13269">
        <ele>398</ele>
        <time>2016-02-27T10:06:39Z</time>
      </trkpt>
      <trkpt lat="45.21413" lon="5.13271">
        <ele>398</ele>
        <time>2016-02-27T10:08:39Z</time>
      </trkpt>
      <trkpt lat="45.21435" lon="5.13307">
        <ele>400</ele>
        <time>2016-02-27T10:10:39Z</time>
      </trkpt>
      <trkpt lat="45.21468" lon="5.1336">
        <ele>401</ele>
        <time>2016-02-27T10:12:39Z</time>
      </trkpt>
      <trkpt lat="45.21507" lon="5.13423">
        <ele>401</ele>
        <time>2016-02-27T10:14:39Z</time>
      </trkpt>
      <trkpt lat="45.2155" lon="5.13491">
        <ele>404</ele>
        <time>2016-02-27T10:16:39Z</time>
      </trkpt>
      <trkpt lat="45.2157" lon="5.13523">
        <ele>404</ele>
        <time>2016-02-27T10:18:39Z</time>
      </trkpt>
      <trkpt lat="45.21592" lon="5.13559">
        <ele>404</ele>
        <time>2016-02-27T10:20:39Z</time>
      </trkpt>
      <trkpt lat="45.21623" lon="5.13607">
        <ele>407</ele>
        <time>2016-02-27T10:22:39Z</time>
      </trkpt>
      <trkpt lat="45.21657" lon="5.13664">
        <ele>409</ele>
        <time>2016-02-27T10:24:39Z</time>
      </trkpt>
      <trkpt lat="45.21676" lon="5.13694">
        <ele>409</ele>
        <time>2016-02-27T10:26:39Z</time>
      </trkpt>
      <trkpt lat="45.21701" lon="5.13735">
        <ele>410</ele>
        <time>2016-02-27T10:28:39Z</time>
      </trkpt>
      <trkpt lat="45.21732" lon="5.13785">
        <ele>411</ele>
        <time>2016-02-27T10:30:39Z</time>
      </trkpt>
      <trkpt lat="45.21776" lon="5.13856">
        <ele>410</ele>
        <time>2016-02-27T10:32:39Z</time>
      </trkpt>
      <trkpt lat="45.21817" lon="5.13921">
        <ele>408</ele>
        <time>2016-02-27T10:34:39Z</time>
      </trkpt>
      <trkpt lat="45.21841" lon="5.13961">
        <ele>407</ele>
        <time>2016-02-27T10:36:39Z</time>
      </trkpt>
      <trkpt lat="45.21851" lon="5.13975">
        <ele>407</ele>
        <time>2016-02-27T10:38:39Z</time>
      </trkpt>
      <trkpt lat="45.21858" lon="5.13984">
        <ele>407</ele>
        <time>2016-02-27T10:40:39Z</time>
      </trkpt>
      <trkpt lat="45.21863" lon="5.13989">
        <ele>407</ele>
        <time>2016-02-27T10:42:39Z</time>
      </trkpt>
      <trkpt lat="45.21867" lon="5.13992">
        <ele>407</ele>
        <time>2016-02-27T10:44:39Z</time>
      </trkpt>
      <trkpt lat="45.2187" lon="5.13993">
        <ele>407</ele>
        <time>2016-02-27T10:46:39Z</time>
      </trkpt>
      <trkpt lat="45.21876" lon="5.13994">
        <ele>408</ele>
        <time>2016-02-27T10:48:39Z</time>
      </trkpt>
      <trkpt lat="45.2188" lon="5.13995">
        <ele>408</ele>
        <time>2016-02-27T10:50:39Z</time>
      </trkpt>
      <trkpt lat="45.2188" lon="5.13995">
        <ele>408</ele>
        <time>2016-02-27T10:52:39Z</time>
      </trkpt>
      <trkpt lat="45.2188" lon="5.14">
        <ele>407</ele>
        <time>2016-02-27T10:54:39Z</time>
      </trkpt>
      <trkpt lat="45.2188" lon="5.14001">
        <ele>407</ele>
        <time>2016-02-27T10:56:39Z</time>
      </trkpt>
      <trkpt lat="45.21881" lon="5.14003">
        <ele>407</ele>
        <time>2016-02-27T10:58:39Z</time>
      </trkpt>
      <trkpt lat="45.21881" lon="5.14004">
        <ele>407</ele>
        <time>2016-02-27T11:00:39Z</time>
      </trkpt>
      <trkpt lat="45.21883" lon="5.14006">
        <ele>407</ele>
        <time>2016-02-27T11:02:39Z</time>
      </trkpt>
      <trkpt lat="45.21884" lon="5.14007">
        <ele>407</ele>
        <time>2016-02-27T11:04:39Z</time>
      </trkpt>
      <trkpt lat="45.21882" lon="5.14019">
        <ele>406</ele>
        <time>2016-02-27T11:06:39Z</time>
      </trkpt>
      <trkpt lat="45.2188" lon="5.14028">
        <ele>406</ele>
        <time>2016-02-27T11:08:39Z</time>
      </trkpt>
      <trkpt lat="45.21879" lon="5.14038">
        <ele>405</ele>
        <time>2016-02-27T11:10:39Z</time>
      </trkpt>
      <trkpt lat="45.21878" lon="5.14049">
        <ele>404</ele>
        <time>2016-02-27T11:12:39Z</time>
      </trkpt>
      <trkpt lat="45.21876" lon="5.14063">
        <ele>403</ele>
        <time>2016-02-27T11:14:39Z</time>
      </trkpt>
      <trkpt lat="45.21874" lon="5.14086">
        <ele>402</ele>
        <time>2016-02-27T11:16:39Z</time>
      </trkpt>
      <trkpt lat="45.21872" lon="5.141">
        <ele>401</ele>
        <time>2016-02-27T11:18:39Z</time>
      </trkpt>
      <trkpt lat="45.2187" lon="5.14111">
        <ele>401</ele>
        <time>2016-02-27T11:20:39Z</time>
      </trkpt>
      <trkpt lat="45.21869" lon="5.1412">
        <ele>400</ele>
        <time>2016-02-27T11:22:39Z</time>
      </trkpt>
      <trkpt lat="45.21867" lon="5.14128">
        <ele>400</ele>
        <time>2016-02-27T11:24:39Z</time>
      </trkpt>
      <trkpt lat="45.21865" lon="5.14137">
        <ele>399</ele>
        <time>2016-02-27T11:26:39Z</time>
      </trkpt>
      <trkpt lat="45.21861" lon="5.14153">
        <ele>398</ele>
        <time>2016-02-27T11:28:39Z</time>
      </trkpt>
      <trkpt lat="45.21851" lon="5.14186">
        <ele>397</ele>
        <time>2016-02-27T11:30:39Z</time>
      </trkpt>
      <trkpt lat="45.2185" lon="5.14189">
        <ele>397</ele>
        <time>2016-02-27T11:32:39Z</time>
      </trkpt>
      <trkpt lat="45.21848" lon="5.14197">
        <ele>397</ele>
        <time>2016-02-27T11:34:39Z</time>
      </trkpt>
      <trkpt lat="45.21842" lon="5.14217">
        <ele>397</ele>
        <time>2016-02-27T11:36:39Z</time>
      </trkpt>
      <trkpt lat="45.21839" lon="5.14229">
        <ele>396</ele>
        <time>2016-02-27T11:38:39Z</time>
      </trkpt>
      <trkpt lat="45.21828" lon="5.14268">
        <ele>397</ele>
        <time>2016-02-27T11:40:39Z</time>
      </trkpt>
      <trkpt lat="45.21821" lon="5.14293">
        <ele>397</ele>
        <time>2016-02-27T11:42:39Z</time>
      </trkpt>
      <trkpt lat="45.21812" lon="5.14324">
        <ele>398</ele>
        <time>2016-02-27T11:44:39Z</time>
      </trkpt>
      <trkpt lat="45.21805" lon="5.14348">
        <ele>399</ele>
        <time>2016-02-27T11:46:39Z</time>
      </trkpt>
      <trkpt lat="45.21802" lon="5.14362">
        <ele>400</ele>
        <time>2016-02-27T11:48:39Z</time>
      </trkpt>
      <trkpt lat="45.21801" lon="5.1437">
        <ele>400</ele>
        <time>2016-02-27T11:50:39Z</time>
      </trkpt>
      <trkpt lat="45.21799" lon="5.1438">
        <ele>400</ele>
        <time>2016-02-27T11:52:39Z</time>
      </trkpt>
      <trkpt lat="45.21799" lon="5.14389">
        <ele>401</ele>
        <time>2016-02-27T11:54:39Z</time>
      </trkpt>
      <trkpt lat="45.21799" lon="5.14396">
        <ele>401</ele>
        <time>2016-02-27T11:56:39Z</time>
      </trkpt>
      <trkpt lat="45.21799" lon="5.14406">
        <ele>401</ele>
        <time>2016-02-27T11:58:39Z</time>
      </trkpt>
      <trkpt lat="45.218" lon="5.14419">
        <ele>402</ele>
        <time>2016-02-27T12:00:39Z</time>
      </trkpt>
      <trkpt lat="45.21801" lon="5.14441">
        <ele>403</ele>
        <time>2016-02-27T12:02:39Z</time>
      </trkpt>
      <trkpt lat="45.21804" lon="5.14486">
        <ele>404</ele>
        <time>2016-02-27T12:04:39Z</time>
      </trkpt>
      <trkpt lat="45.21806" lon="5.14528">
        <ele>406</ele>
        <time>2016-02-27T12:06:39Z</time>
      </trkpt>
      <trkpt lat="45.21807" lon="5.14555">
        <ele>407</ele>
        <time>2016-02-27T12:08:39Z</time>
      </trkpt>
      <trkpt lat="45.21808" lon="5.14574">
        <ele>408</ele>
        <time>2016-02-27T12:10:39Z</time>
      </trkpt>
      <trkpt lat="45.21808" lon="5.14586">
        <ele>409</ele>
        <time>2016-02-27T12:12:39Z</time>
      </trkpt>
      <trkpt lat="45.21807" lon="5.14597">
        <ele>409</ele>
        <time>2016-02-27T12:14:39Z</time>
      </trkpt>
      <trkpt lat="45.21806" lon="5.14609">
        <ele>409</ele>
        <time>2016-02-27T12:16:39Z</time>
      </trkpt>
      <trkpt lat="45.21805" lon="5.1462">
        <ele>409</ele>
        <time>2016-02-27T12:18:39Z</time>
      </trkpt>
      <trkpt lat="45.21803" lon="5.14633">
        <ele>410</ele>
        <time>2016-02-27T12:20:39Z</time>
      </trkpt>
      <trkpt lat="45.21799" lon="5.14658">
        <ele>410</ele>
        <time>2016-02-27T12:22:39Z</time>
      </trkpt>
      <trkpt lat="45.21796" lon="5.14678">
        <ele>410</ele>
        <time>2016-02-27T12:24:39Z</time>
      </trkpt>
      <trkpt lat="45.21794" lon="5.14693">
        <ele>410</ele>
        <time>2016-02-27T12:26:39Z</time>
      </trkpt>
      <trkpt lat="45.21793" lon="5.14707">
        <ele>411</ele>
        <time>2016-02-27T12:28:39Z</time>
      </trkpt>
      <trkpt lat="45.21793" lon="5.14719">
        <ele>411</ele>
        <time>2016-02-27T12:30:39Z</time>
      </trkpt>
      <trkpt lat="45.21793" lon="5.1473">
        <ele>411</ele>
        <time>2016-02-27T12:32:39Z</time>
      </trkpt>
      <trkpt lat="45.21793" lon="5.14738">
        <ele>411</ele>
        <time>2016-02-27T12:34:39Z</time>
      </trkpt>
      <trkpt lat="45.21794" lon="5.14749">
        <ele>412</ele>
        <time>2016-02-27T12:36:39Z</time>
      </trkpt>
      <trkpt lat="45.21795" lon="5.1476">
        <ele>412</ele>
        <time>2016-02-27T12:38:39Z</time>
      </trkpt>
      <trkpt lat="45.21796" lon="5.14769">
        <ele>412</ele>
        <time>2016-02-27T12:40:39Z</time>
      </trkpt>
      <trkpt lat="45.21798" lon="5.14778">
        <ele>413</ele>
        <time>2016-02-27T12:42:39Z</time>
      </trkpt>
      <trkpt lat="45.21799" lon="5.14786">
        <ele>413</ele>
        <time>2016-02-27T12:44:39Z</time>
      </trkpt>
      <trkpt lat="45.21801" lon="5.14794">
        <ele>414</ele>
        <time>2016-02-27T12:46:39Z</time>
      </trkpt>
      <trkpt lat="45.21802" lon="5.14803">
        <ele>414</ele>
        <time>2016-02-27T12:48:39Z</time>
      </trkpt>
      <trkpt lat="45.21819" lon="5.14872">
        <ele>416</ele>
        <time>2016-02-27T12:50:39Z</time>
      </trkpt>
      <trkpt lat="45.21829" lon="5.14915">
        <ele>417</ele>
        <time>2016-02-27T12:52:39Z</time>
      </trkpt>
      <trkpt lat="45.21839" lon="5.14956">
        <ele>418</ele>
        <time>2016-02-27T12:54:39Z</time>
      </trkpt>
      <trkpt lat="45.21848" lon="5.14994">
        <ele>420</ele>
        <time>2016-02-27T12:56:39Z</time>
      </trkpt>
      <trkpt lat="45.2186" lon="5.15047">
        <ele>422</ele>
        <time>2016-02-27T12:58:39Z</time>
      </trkpt>
      <trkpt lat="45.2187" lon="5.15092">
        <ele>424</ele>
        <time>2016-02-27T13:00:39Z</time>
      </trkpt>
      <trkpt lat="45.21882" lon="5.1514">
        <ele>426</ele>
        <time>2016-02-27T13:02:39Z</time>
      </trkpt>
      <trkpt lat="45.21891" lon="5.15184">
        <ele>426</ele>
        <time>2016-02-27T13:04:39Z</time>
      </trkpt>
      <trkpt lat="45.21896" lon="5.15205">
        <ele>427</ele>
        <time>2016-02-27T13:06:39Z</time>
      </trkpt>
      <trkpt lat="45.21899" lon="5.1522">
        <ele>427</ele>
        <time>2016-02-27T13:08:39Z</time>
      </trkpt>
      <trkpt lat="45.21901" lon="5.15233">
        <ele>427</ele>
        <time>2016-02-27T13:10:39Z</time>
      </trkpt>
      <trkpt lat="45.21903" lon="5.15246">
        <ele>426</ele>
        <time>2016-02-27T13:12:39Z</time>
      </trkpt>
      <trkpt lat="45.21905" lon="5.15261">
        <ele>427</ele>
        <time>2016-02-27T13:14:39Z</time>
      </trkpt>
      <trkpt lat="45.21908" lon="5.15283">
        <ele>428</ele>
        <time>2016-02-27T13:16:39Z</time>
      </trkpt>
      <trkpt lat="45.21912" lon="5.15325">
        <ele>429</ele>
        <time>2016-02-27T13:18:39Z</time>
      </trkpt>
      <trkpt lat="45.21915" lon="5.15348">
        <ele>429</ele>
        <time>2016-02-27T13:20:39Z</time>
      </trkpt>
      <trkpt lat="45.21918" lon="5.15364">
        <ele>429</ele>
        <time>2016-02-27T13:22:39Z</time>
      </trkpt>
      <trkpt lat="45.2192" lon="5.15378">
        <ele>429</ele>
        <time>2016-02-27T13:24:39Z</time>
      </trkpt>
      <trkpt lat="45.21921" lon="5.15389">
        <ele>429</ele>
        <time>2016-02-27T13:26:39Z</time>
      </trkpt>
      <trkpt lat="45.21922" lon="5.15403">
        <ele>429</ele>
        <time>2016-02-27T13:28:39Z</time>
      </trkpt>
      <trkpt lat="45.21923" lon="5.15417">
        <ele>429</ele>
        <time>2016-02-27T13:30:39Z</time>
      </trkpt>
      <trkpt lat="45.21924" lon="5.15434">
        <ele>429</ele>
        <time>2016-02-27T13:32:39Z</time>
      </trkpt>
      <trkpt lat="45.21925" lon="5.15447">
        <ele>430</ele>
        <time>2016-02-27T13:34:39Z</time>
      </trkpt>
      <trkpt lat="45.21927" lon="5.15462">
        <ele>431</ele>
        <time>2016-02-27T13:36:39Z</time>
      </trkpt>
      <trkpt lat="45.21928" lon="5.15482">
        <ele>431</ele>
        <time>2016-02-27T13:38:39Z</time>
      </trkpt>
      <trkpt lat="45.21932" lon="5.15515">
        <ele>432</ele>
        <time>2016-02-27T13:40:39Z</time>
      </trkpt>
      <trkpt lat="45.21936" lon="5.15559">
        <ele>433</ele>
        <time>2016-02-27T13:42:39Z</time>
      </trkpt>
      <trkpt lat="45.21941" lon="5.15608">
        <ele>435</ele>
        <time>2016-02-27T13:44:39Z</time>
      </trkpt>
      <trkpt lat="45.21946" lon="5.15656">
        <ele>437</ele>
        <time>2016-02-27T13:46:39Z</time>
      </trkpt>
      <trkpt lat="45.21951" lon="5.15712">
        <ele>438</ele>
        <time>2016-02-27T13:48:39Z</time>
      </trkpt>
      <trkpt lat="45.21954" lon="5.15749">
        <ele>439</ele>
        <time>2016-02-27T13:50:39Z</time>
      </trkpt>
      <trkpt lat="45.21957" lon="5.15774">
        <ele>440</ele>
        <time>2016-02-27T13:52:39Z</time>
      </trkpt>
      <trkpt lat="45.21959" lon="5.15792">
        <ele>440</ele>
        <time>2016-02-27T13:54:39Z</time>
      </trkpt>
      <trkpt lat="45.21961" lon="5.15805">
        <ele>441</ele>
        <time>2016-02-27T13:56:39Z</time>
      </trkpt>
      <trkpt lat="45.21963" lon="5.15815">
        <ele>441</ele>
        <time>2016-02-27T13:58:39Z</time>
      </trkpt>
      <trkpt lat="45.21964" lon="5.15825">
        <ele>441</ele>
        <time>2016-02-27T14:00:39Z</time>
      </trkpt>
      <trkpt lat="45.21966" lon="5.15834">
        <ele>441</ele>
        <time>2016-02-27T14:02:39Z</time>
      </trkpt>
      <trkpt lat="45.21969" lon="5.15846">
        <ele>442</ele>
        <time>2016-02-27T14:04:39Z</time>
      </trkpt>
      <trkpt lat="45.21972" lon="5.15859">
        <ele>443</ele>
        <time>2016-02-27T14:06:39Z</time>
      </trkpt>
      <trkpt lat="45.21979" lon="5.1589">
        <ele>444</ele>
        <time>2016-02-27T14:08:39Z</time>
      </trkpt>
      <trkpt lat="45.21988" lon="5.15928">
        <ele>445</ele>
        <time>2016-02-27T14:10:39Z</time>
      </trkpt>
      <trkpt lat="45.21998" lon="5.15966">
        <ele>448</ele>
        <time>2016-02-27T14:12:39Z</time>
      </trkpt>
      <trkpt lat="45.22006" lon="5.16">
        <ele>450</ele>
        <time>2016-02-27T14:14:39Z</time>
      </trkpt>
      <trkpt lat="45.22013" lon="5.16031">
        <ele>451</ele>
        <time>2016-02-27T14:16:39Z</time>
      </trkpt>
      <trkpt lat="45.22018" lon="5.16058">
        <ele>451</ele>
        <time>2016-02-27T14:18:39Z</time>
      </trkpt>
      <trkpt lat="45.22028" lon="5.16096">
        <ele>453</ele>
        <time>2016-02-27T14:20:39Z</time>
      </trkpt>
      <trkpt lat="45.22034" lon="5.16122">
        <ele>453</ele>
        <time>2016-02-27T14:22:39Z</time>
      </trkpt>
      <trkpt lat="45.22042" lon="5.16156">
        <ele>453</ele>
        <time>2016-02-27T14:24:39Z</time>
      </trkpt>
      <trkpt lat="45.22051" lon="5.16189">
        <ele>454</ele>
        <time>2016-02-27T14:26:39Z</time>
      </trkpt>
      <trkpt lat="45.22063" lon="5.16245">
        <ele>455</ele>
        <time>2016-02-27T14:28:39Z</time>
      </trkpt>
      <trkpt lat="45.22075" lon="5.16293">
        <ele>456</ele>
        <time>2016-02-27T14:30:39Z</time>
      </trkpt>
      <trkpt lat="45.22088" lon="5.16343">
        <ele>457</ele>
        <time>2016-02-27T14:32:39Z</time>
      </trkpt>
      <trkpt lat="45.22099" lon="5.16388">
        <ele>458</ele>
        <time>2016-02-27T14:34:39Z</time>
      </trkpt>
      <trkpt lat="45.22106" lon="5.16418">
        <ele>459</ele>
        <time>2016-02-27T14:36:39Z</time>
      </trkpt>
      <trkpt lat="45.22112" lon="5.16446">
        <ele>460</ele>
        <time>2016-02-27T14:38:39Z</time>
      </trkpt>
      <trkpt lat="45.2212" lon="5.16476">
        <ele>461</ele>
        <time>2016-02-27T14:40:39Z</time>
      </trkpt>
      <trkpt lat="45.22128" lon="5.1651">
        <ele>461</ele>
        <time>2016-02-27T14:42:39Z</time>
      </trkpt>
      <trkpt lat="45.22137" lon="5.16546">
        <ele>462</ele>
        <time>2016-02-27T14:44:39Z</time>
      </trkpt>
      <trkpt lat="45.22146" lon="5.16581">
        <ele>462</ele>
        <time>2016-02-27T14:46:39Z</time>
      </trkpt>
      <trkpt lat="45.22155" lon="5.16623">
        <ele>462</ele>
        <time>2016-02-27T14:48:39Z</time>
      </trkpt>
      <trkpt lat="45.2216" lon="5.16645">
        <ele>462</ele>
        <time>2016-02-27T14:50:39Z</time>
      </trkpt>
      <trkpt lat="45.2217" lon="5.16685">
        <ele>463</ele>
        <time>2016-02-27T14:52:39Z</time>
      </trkpt>
      <trkpt lat="45.22177" lon="5.1671">
        <ele>464</ele>
        <time>2016-02-27T14:54:39Z</time>
      </trkpt>
      <trkpt lat="45.22188" lon="5.16755">
        <ele>465</ele>
        <time>2016-02-27T14:56:39Z</time>
      </trkpt>
      <trkpt lat="45.22197" lon="5.16791">
        <ele>466</ele>
        <time>2016-02-27T14:58:39Z</time>
      </trkpt>
      <trkpt lat="45.22203" lon="5.16816">
        <ele>466</ele>
        <time>2016-02-27T15:00:39Z</time>
      </trkpt>
      <trkpt lat="45.22207" lon="5.16835">
        <ele>466</ele>
        <time>2016-02-27T15:02:39Z</time>
      </trkpt>
      <trkpt lat="45.22209" lon="5.16846">
        <ele>466</ele>
        <time>2016-02-27T15:04:39Z</time>
      </trkpt>
      <trkpt lat="45.22211" lon="5.16856">
        <ele>466</ele>
        <time>2016-02-27T15:06:39Z</time>
      </trkpt>
      <trkpt lat="45.22213" lon="5.16867">
        <ele>466</ele>
        <time>2016-02-27T15:08:39Z</time>
      </trkpt>
      <trkpt lat="45.22214" lon="5.1688">
        <ele>465</ele>
        <time>2016-02-27T15:10:39Z</time>
      </trkpt>
      <trkpt lat="45.22215" lon="5.16892">
        <ele>465</ele>
        <time>2016-02-27T15:12:39Z</time>
      </trkpt>
      <trkpt lat="45.22217" lon="5.16907">
        <ele>465</ele>
        <time>2016-02-27T15:14:39Z</time>
      </trkpt>
      <trkpt lat="45.22222" lon="5.16967">
        <ele>463</ele>
        <time>2016-02-27T15:16:39Z</time>
      </trkpt>
      <trkpt lat="45.22226" lon="5.17014">
        <ele>462</ele>
        <time>2016-02-27T15:18:39Z</time>
      </trkpt>
      <trkpt lat="45.22229" lon="5.17044">
        <ele>461</ele>
        <time>2016-02-27T15:20:39Z</time>
      </trkpt>
      <trkpt lat="45.22233" lon="5.17082">
        <ele>460</ele>
        <time>2016-02-27T15:22:39Z</time>
      </trkpt>
      <trkpt lat="45.22237" lon="5.17126">
        <ele>460</ele>
        <time>2016-02-27T15:24:39Z</time>
      </trkpt>
      <trkpt lat="45.22239" lon="5.17142">
        <ele>460</ele>
        <time>2016-02-27T15:26:39Z</time>
      </trkpt>
      <trkpt lat="45.2224" lon="5.17156">
        <ele>460</ele>
        <time>2016-02-27T15:28:39Z</time>
      </trkpt>
      <trkpt lat="45.22241" lon="5.17169">
        <ele>460</ele>
        <time>2016-02-27T15:30:39Z</time>
      </trkpt>
      <trkpt lat="45.22247" lon="5.17227">
        <ele>461</ele>
        <time>2016-02-27T15:32:39Z</time>
      </trkpt>
      <trkpt lat="45.22253" lon="5.17293">
        <ele>462</ele>
        <time>2016-02-27T15:34:39Z</time>
      </trkpt>
      <trkpt lat="45.22259" lon="5.17348">
        <ele>463</ele>
        <time>2016-02-27T15:36:39Z</time>
      </trkpt>
      <trkpt lat="45.22265" lon="5.17404">
        <ele>465</ele>
        <time>2016-02-27T15:38:39Z</time>
      </trkpt>
      <trkpt lat="45.22271" lon="5.17467">
        <ele>466</ele>
        <time>2016-02-27T15:40:39Z</time>
      </trkpt>
      <trkpt lat="45.22277" lon="5.17532">
        <ele>468</ele>
        <time>2016-02-27T15:42:39Z</time>
      </trkpt>
      <trkpt lat="45.22284" lon="5.17609">
        <ele>469</ele>
        <time>2016-02-27T15:44:39Z</time>
      </trkpt>
      <trkpt lat="45.2229" lon="5.17673">
        <ele>470</ele>
        <time>2016-02-27T15:46:39Z</time>
      </trkpt>
      <trkpt lat="45.22295" lon="5.17724">
        <ele>471</ele>
        <time>2016-02-27T15:48:39Z</time>
      </trkpt>
      <trkpt lat="45.22296" lon="5.1774">
        <ele>471</ele>
        <time>2016-02-27T15:50:39Z</time>
      </trkpt>
      <trkpt lat="45.22303" lon="5.1781">
        <ele>472</ele>
        <time>2016-02-27T15:52:39Z</time>
      </trkpt>
      <trkpt lat="45.22309" lon="5.1786">
        <ele>473</ele>
        <time>2016-02-27T15:54:39Z</time>
      </trkpt>
      <trkpt lat="45.22312" lon="5.1789">
        <ele>474</ele>
        <time>2016-02-27T15:56:39Z</time>
      </trkpt>
      <trkpt lat="45.22315" lon="5.17921">
        <ele>474</ele>
        <time>2016-02-27T15:58:39Z</time>
      </trkpt>
      <trkpt lat="45.22321" lon="5.17988">
        <ele>475</ele>
        <time>2016-02-27T16:00:39Z</time>
      </trkpt>
      <trkpt lat="45.22325" lon="5.18032">
        <ele>476</ele>
        <time>2016-02-27T16:02:39Z</time>
      </trkpt>
      <trkpt lat="45.22329" lon="5.18076">
        <ele>477</ele>
        <time>2016-02-27T16:04:39Z</time>
      </trkpt>
      <trkpt lat="45.22333" lon="5.18113">
        <ele>478</ele>
        <time>2016-02-27T16:06:39Z</time>
      </trkpt>
      <trkpt lat="45.22335" lon="5.18137">
        <ele>478</ele>
        <time>2016-02-27T16:08:39Z</time>
      </trkpt>
      <trkpt lat="45.22336" lon="5.18154">
        <ele>478</ele>
        <time>2016-02-27T16:10:39Z</time>
      </trkpt>
      <trkpt lat="45.22338" lon="5.18168">
        <ele>479</ele>
        <time>2016-02-27T16:12:39Z</time>
      </trkpt>
      <trkpt lat="45.22341" lon="5.18182">
        <ele>479</ele>
        <time>2016-02-27T16:14:39Z</time>
      </trkpt>
      <trkpt lat="45.22343" lon="5.18198">
        <ele>479</ele>
        <time>2016-02-27T16:16:39Z</time>
      </trkpt>
      <trkpt lat="45.22348" lon="5.18221">
        <ele>479</ele>
        <time>2016-02-27T16:18:39Z</time>
      </trkpt>
      <trkpt lat="45.22361" lon="5.18292">
        <ele>480</ele>
        <time>2016-02-27T16:20:39Z</time>
      </trkpt>
      <trkpt lat="45.22372" lon="5.18348">
        <ele>481</ele>
        <time>2016-02-27T16:22:39Z</time>
      </trkpt>
      <trkpt lat="45.22386" lon="5.18417">
        <ele>480</ele>
        <time>2016-02-27T16:24:39Z</time>
      </trkpt>
      <trkpt lat="45.22398" lon="5.1848">
        <ele>480</ele>
        <time>2016-02-27T16:26:39Z</time>
      </trkpt>
      <trkpt lat="45.22407" lon="5.18524">
        <ele>480</ele>
        <time>2016-02-27T16:28:39Z</time>
      </trkpt>
      <trkpt lat="45.22411" lon="5.18547">
        <ele>480</ele>
        <time>2016-02-27T16:30:39Z</time>
      </trkpt>
      <trkpt lat="45.22414" lon="5.18558">
        <ele>480</ele>
        <time>2016-02-27T16:32:39Z</time>
      </trkpt>
      <trkpt lat="45.22416" lon="5.18569">
        <ele>480</ele>
        <time>2016-02-27T16:34:39Z</time>
      </trkpt>
      <trkpt lat="45.22418" lon="5.18573">
        <ele>480</ele>
        <time>2016-02-27T16:36:39Z</time>
      </trkpt>
      <trkpt lat="45.2242" lon="5.18583">
        <ele>480</ele>
        <time>2016-02-27T16:38:39Z</time>
      </trkpt>
      <trkpt lat="45.22422" lon="5.18589">
        <ele>480</ele>
        <time>2016-02-27T16:40:39Z</time>
      </trkpt>
      <trkpt lat="45.22425" lon="5.18597">
        <ele>481</ele>
        <time>2016-02-27T16:42:39Z</time>
      </trkpt>
      <trkpt lat="45.22428" lon="5.18603">
        <ele>481</ele>
        <time>2016-02-27T16:44:39Z</time>
      </trkpt>
      <trkpt lat="45.22432" lon="5.18612">
        <ele>481</ele>
        <time>2016-02-27T16:46:39Z</time>
      </trkpt>
      <trkpt lat="45.22438" lon="5.18624">
        <ele>482</ele>
        <time>2016-02-27T16:48:39Z</time>
      </trkpt>
      <trkpt lat="45.22452" lon="5.1865">
        <ele>482</ele>
        <time>2016-02-27T16:50:39Z</time>
      </trkpt>
      <trkpt lat="45.22466" lon="5.18673">
        <ele>482</ele>
        <time>2016-02-27T16:52:39Z</time>
      </trkpt>
      <trkpt lat="45.22481" lon="5.18697">
        <ele>483</ele>
        <time>2016-02-27T16:54:39Z</time>
      </trkpt>
      <trkpt lat="45.22492" lon="5.18715">
        <ele>484</ele>
        <time>2016-02-27T16:56:39Z</time>
      </trkpt>
      <trkpt lat="45.22502" lon="5.18731">
        <ele>484</ele>
        <time>2016-02-27T16:58:39Z</time>
      </trkpt>
      <trkpt lat="45.22517" lon="5.18757">
        <ele>487</ele>
        <time>2016-02-27T17:00:39Z</time>
      </trkpt>
      <trkpt lat="45.22535" lon="5.18787">
        <ele>490</ele>
        <time>2016-02-27T17:02:39Z</time>
      </trkpt>
      <trkpt lat="45.22554" lon="5.18818">
        <ele>493</ele>
        <time>2016-02-27T17:04:39Z</time>
      </trkpt>
      <trkpt lat="45.22573" lon="5.18851">
        <ele>495</ele>
        <time>2016-02-27T17:06:39Z</time>
      </trkpt>
      <trkpt lat="45.22592" lon="5.18881">
        <ele>497</ele>
        <time>2016-02-27T17:08:39Z</time>
      </trkpt>
      <trkpt lat="45.22607" lon="5.18905">
        <ele>498</ele>
        <time>2016-02-27T17:10:39Z</time>
      </trkpt>
      <trkpt lat="45.22618" lon="5.18924">
        <ele>498</ele>
        <time>2016-02-27T17:12:39Z</time>
      </trkpt>
      <trkpt lat="45.2263" lon="5.18944">
        <ele>499</ele>
        <time>2016-02-27T17:14:39Z</time>
      </trkpt>
      <trkpt lat="45.22647" lon="5.18972">
        <ele>499</ele>
        <time>2016-02-27T17:16:39Z</time>
      </trkpt>
      <trkpt lat="45.22668" lon="5.19008">
        <ele>500</ele>
        <time>2016-02-27T17:18:39Z</time>
      </trkpt>
      <trkpt lat="45.22688" lon="5.19037">
        <ele>500</ele>
        <time>2016-02-27T17:20:39Z</time>
      </trkpt>
      <trkpt lat="45.22688" lon="5.19037">
        <ele>500</ele>
        <time>2016-02-27T17:22:39Z</time>
      </trkpt>
      <trkpt lat="45.2273" lon="5.19105">
        <ele>500</ele>
        <time>2016-02-27T17:24:39Z</time>
      </trkpt>
      <trkpt lat="45.22752" lon="5.19135">
        <ele>500</ele>
        <time>2016-02-27T17:26:39Z</time>
      </trkpt>
      <trkpt lat="45.22767" lon="5.1915">
        <ele>500</ele>
        <time>2016-02-27T17:28:39Z</time>
      </trkpt>
      <trkpt lat="45.22794" lon="5.19169">
        <ele>500</ele>
        <time>2016-02-27T17:30:39Z</time>
      </trkpt>
      <trkpt lat="45.22814" lon="5.19179">
        <ele>500</ele>
        <time>2016-02-27T17:32:39Z</time>
      </trkpt>
      <trkpt lat="45.22826" lon="5.1918">
        <ele>500</ele>
        <time>2016-02-27T17:34:39Z</time>
      </trkpt>
      <trkpt lat="45.2284" lon="5.1918">
        <ele>500</ele>
        <time>2016-02-27T17:36:39Z</time>
      </trkpt>
      <trkpt lat="45.22852" lon="5.19178">
        <ele>500</ele>
        <time>2016-02-27T17:38:39Z</time>
      </trkpt>
      <trkpt lat="45.22873" lon="5.19175">
        <ele>500</ele>
        <time>2016-02-27T17:40:39Z</time>
      </trkpt>
      <trkpt lat="45.22884" lon="5.19173">
        <ele>500</ele>
        <time>2016-02-27T17:42:39Z</time>
      </trkpt>
      <trkpt lat="45.22895" lon="5.19171">
        <ele>500</ele>
        <time>2016-02-27T17:44:39Z</time>
      </trkpt>
      <trkpt lat="45.23034" lon="5.19142">
        <ele>500</ele>
        <time>2016-02-27T17:46:39Z</time>
      </trkpt>
      <trkpt lat="45.23056" lon="5.1914">
        <ele>500</ele>
        <time>2016-02-27T17:48:39Z</time>
      </trkpt>
      <trkpt lat="45.23099" lon="5.19132">
        <ele>500</ele>
        <time>2016-02-27T17:50:39Z</time>
      </trkpt>
      <trkpt lat="45.23128" lon="5.19125">
        <ele>500</ele>
        <time>2016-02-27T17:52:39Z</time>
      </trkpt>
      <trkpt lat="45.23143" lon="5.19122">
        <ele>500</ele>
        <time>2016-02-27T17:54:39Z</time>
      </trkpt>
      <trkpt lat="45.2318" lon="5.19118">
        <ele>500</ele>
        <time>2016-02-27T17:56:39Z</time>
      </trkpt>
      <trkpt lat="45.23186" lon="5.19118">
        <ele>500</ele>
        <time>2016-02-27T17:58:39Z</time>
      </trkpt>
      <trkpt lat="45.23196" lon="5.1912">
        <ele>500</ele>
        <time>2016-02-27T18:00:39Z</time>
      </trkpt>
      <trkpt lat="45.23204" lon="5.19121">
        <ele>500</ele>
        <time>2016-02-27T18:02:39Z</time>
      </trkpt>
      <trkpt lat="45.2321" lon="5.19123">
        <ele>501</ele>
        <time>2016-02-27T18:04:39Z</time>
      </trkpt>
      <trkpt lat="45.23215" lon="5.19124">
        <ele>501</ele>
        <time>2016-02-27T18:06:39Z</time>
      </trkpt>
      <trkpt lat="45.23289" lon="5.19149">
        <ele>505</ele>
        <time>2016-02-27T18:08:39Z</time>
      </trkpt>
      <trkpt lat="45.23308" lon="5.19155">
        <ele>507</ele>
        <time>2016-02-27T18:10:39Z</time>
      </trkpt>
      <trkpt lat="45.23332" lon="5.19162">
        <ele>509</ele>
        <time>2016-02-27T18:12:39Z</time>
      </trkpt>
      <trkpt lat="45.23351" lon="5.19168">
        <ele>511</ele>
        <time>2016-02-27T18:14:39Z</time>
      </trkpt>
      <trkpt lat="45.23366" lon="5.19173">
        <ele>512</ele>
        <time>2016-02-27T18:16:39Z</time>
      </trkpt>
      <trkpt lat="45.23378" lon="5.19181">
        <ele>514</ele>
        <time>2016-02-27T18:18:39Z</time>
      </trkpt>
      <trkpt lat="45.23393" lon="5.19191">
        <ele>515</ele>
        <time>2016-02-27T18:20:39Z</time>
      </trkpt>
      <trkpt lat="45.23407" lon="5.19202">
        <ele>517</ele>
        <time>2016-02-27T18:22:39Z</time>
      </trkpt>
      <trkpt lat="45.23422" lon="5.19214">
        <ele>518</ele>
        <time>2016-02-27T18:24:39Z</time>
      </trkpt>
      <trkpt lat="45.2344" lon="5.19229">
        <ele>519</ele>
        <time>2016-02-27T18:26:39Z</time>
      </trkpt>
      <trkpt lat="45.23455" lon="5.19241">
        <ele>520</ele>
        <time>2016-02-27T18:28:39Z</time>
      </trkpt>
      <trkpt lat="45.23475" lon="5.19257">
        <ele>521</ele>
        <time>2016-02-27T18:30:39Z</time>
      </trkpt>
      <trkpt lat="45.23495" lon="5.19278">
        <ele>521</ele>
        <time>2016-02-27T18:32:39Z</time>
      </trkpt>
      <trkpt lat="45.23524" lon="5.19313">
        <ele>525</ele>
        <time>2016-02-27T18:34:39Z</time>
      </trkpt>
      <trkpt lat="45.23552" lon="5.19348">
        <ele>529</ele>
        <time>2016-02-27T18:36:39Z</time>
      </trkpt>
      <trkpt lat="45.2358" lon="5.19381">
        <ele>532</ele>
        <time>2016-02-27T18:38:39Z</time>
      </trkpt>
      <trkpt lat="45.2359" lon="5.19398">
        <ele>533</ele>
        <time>2016-02-27T18:40:39Z</time>
      </trkpt>
      <trkpt lat="45.23594" lon="5.19409">
        <ele>534</ele>
        <time>2016-02-27T18:42:39Z</time>
      </trkpt>
      <trkpt lat="45.23599" lon="5.1942">
        <ele>534</ele>
        <time>2016-02-27T18:44:39Z</time>
      </trkpt>
      <trkpt lat="45.23603" lon="5.19432">
        <ele>535</ele>
        <time>2016-02-27T18:46:39Z</time>
      </trkpt>
      <trkpt lat="45.23606" lon="5.19444">
        <ele>535</ele>
        <time>2016-02-27T18:48:39Z</time>
      </trkpt>
      <trkpt lat="45.2361" lon="5.19461">
        <ele>536</ele>
        <time>2016-02-27T18:50:39Z</time>
      </trkpt>
      <trkpt lat="45.23614" lon="5.19486">
        <ele>536</ele>
        <time>2016-02-27T18:52:39Z</time>
      </trkpt>
      <trkpt lat="45.23617" lon="5.19515">
        <ele>536</ele>
        <time>2016-02-27T18:54:39Z</time>
      </trkpt>
      <trkpt lat="45.2362" lon="5.19531">
        <ele>536</ele>
        <time>2016-02-27T18:56:39Z</time>
      </trkpt>
      <trkpt lat="45.23624" lon="5.19546">
        <ele>537</ele>
        <time>2016-02-27T18:58:39Z</time>
      </trkpt>
      <trkpt lat="45.2363" lon="5.1956">
        <ele>538</ele>
        <time>2016-02-27T19:00:39Z</time>
      </trkpt>
      <trkpt lat="45.23634" lon="5.1957">
        <ele>539</ele>
        <time>2016-02-27T19:02:39Z</time>
      </trkpt>
      <trkpt lat="45.23638" lon="5.19582">
        <ele>539</ele>
        <time>2016-02-27T19:04:39Z</time>
      </trkpt>
      <trkpt lat="45.2364" lon="5.19594">
        <ele>540</ele>
        <time>2016-02-27T19:06:39Z</time>
      </trkpt>
      <trkpt lat="45.23641" lon="5.19602">
        <ele>540</ele>
        <time>2016-02-27T19:08:39Z</time>
      </trkpt>
      <trkpt lat="45.23643" lon="5.1961">
        <ele>540</ele>
        <time>2016-02-27T19:10:39Z</time>
      </trkpt>
      <trkpt lat="45.23643" lon="5.19619">
        <ele>540</ele>
        <time>2016-02-27T19:12:39Z</time>
      </trkpt>
      <trkpt lat="45.23644" lon="5.1963">
        <ele>540</ele>
        <time>2016-02-27T19:14:39Z</time>
      </trkpt>
      <trkpt lat="45.23644" lon="5.1963">
        <ele>540</ele>
        <time>2016-02-27T19:16:39Z</time>
      </trkpt>
      <trkpt lat="45.23648" lon="5.19674">
        <ele>541</ele>
        <time>2016-02-27T19:18:39Z</time>
      </trkpt>
      <trkpt lat="45.23649" lon="5.197">
        <ele>542</ele>
        <time>2016-02-27T19:20:39Z</time>
      </trkpt>
      <trkpt lat="45.23652" lon="5.19749">
        <ele>543</ele>
        <time>2016-02-27T19:22:39Z</time>
      </trkpt>
      <trkpt lat="45.23652" lon="5.19772">
        <ele>543</ele>
        <time>2016-02-27T19:24:39Z</time>
      </trkpt>
      <trkpt lat="45.23652" lon="5.19796">
        <ele>543</ele>
        <time>2016-02-27T19:26:39Z</time>
      </trkpt>
      <trkpt lat="45.2365" lon="5.19819">
        <ele>543</ele>
        <time>2016-02-27T19:28:39Z</time>
      </trkpt>
      <trkpt lat="45.23643" lon="5.19855">
        <ele>541</ele>
        <time>2016-02-27T19:30:39Z</time>
      </trkpt>
      <trkpt lat="45.2363" lon="5.19909">
        <ele>540</ele>
        <time>2016-02-27T19:32:39Z</time>
      </trkpt>
      <trkpt lat="45.23623" lon="5.19932">
        <ele>539</ele>
        <time>2016-02-27T19:34:39Z</time>
      </trkpt>
      <trkpt lat="45.23619" lon="5.19953">
        <ele>538</ele>
        <time>2016-02-27T19:36:39Z</time>
      </trkpt>
      <trkpt lat="45.23615" lon="5.19968">
        <ele>538</ele>
        <time>2016-02-27T19:38:39Z</time>
      </trkpt>
      <trkpt lat="45.23615" lon="5.1998">
        <ele>538</ele>
        <time>2016-02-27T19:40:39Z</time>
      </trkpt>
      <trkpt lat="45.23616" lon="5.19989">
        <ele>538</ele>
        <time>2016-02-27T19:42:39Z</time>
      </trkpt>
      <trkpt lat="45.23622" lon="5.20013">
        <ele>539</ele>
        <time>2016-02-27T19:44:39Z</time>
      </trkpt>
      <trkpt lat="45.23637" lon="5.20032">
        <ele>540</ele>
        <time>2016-02-27T19:46:39Z</time>
      </trkpt>
      <trkpt lat="45.23647" lon="5.20046">
        <ele>541</ele>
        <time>2016-02-27T19:48:39Z</time>
      </trkpt>
      <trkpt lat="45.23656" lon="5.20061">
        <ele>541</ele>
        <time>2016-02-27T19:50:39Z</time>
      </trkpt>
      <trkpt lat="45.23672" lon="5.20087">
        <ele>543</ele>
        <time>2016-02-27T19:52:39Z</time>
      </trkpt>
      <trkpt lat="45.23685" lon="5.20114">
        <ele>545</ele>
        <time>2016-02-27T19:54:39Z</time>
      </trkpt>
      <trkpt lat="45.23699" lon="5.20158">
        <ele>547</ele>
        <time>2016-02-27T19:56:39Z</time>
      </trkpt>
      <trkpt lat="45.23711" lon="5.20207">
        <ele>549</ele>
        <time>2016-02-27T19:58:39Z</time>
      </trkpt>
      <trkpt lat="45.23719" lon="5.20249">
        <ele>550</ele>
        <time>2016-02-27T20:00:39Z</time>
      </trkpt>
      <trkpt lat="45.23721" lon="5.20277">
        <ele>551</ele>
        <time>2016-02-27T20:02:39Z</time>
      </trkpt>
      <trkpt lat="45.2372" lon="5.20296">
        <ele>551</ele>
        <time>2016-02-27T20:04:39Z</time>
      </trkpt>
      <trkpt lat="45.23717" lon="5.20321">
        <ele>550</ele>
        <time>2016-02-27T20:06:39Z</time>
      </trkpt>
      <trkpt lat="45.23709" lon="5.20351">
        <ele>549</ele>
        <time>2016-02-27T20:08:39Z</time>
      </trkpt>
      <trkpt lat="45.23702" lon="5.20377">
        <ele>548</ele>
        <time>2016-02-27T20:10:39Z</time>
      </trkpt>
      <trkpt lat="45.23697" lon="5.20392">
        <ele>548</ele>
        <time>2016-02-27T20:12:39Z</time>
      </trkpt>
      <trkpt lat="45.23691" lon="5.20402">
        <ele>547</ele>
        <time>2016-02-27T20:14:39Z</time>
      </trkpt>
      <trkpt lat="45.23685" lon="5.20411">
        <ele>546</ele>
        <time>2016-02-27T20:16:39Z</time>
      </trkpt>
      <trkpt lat="45.23683" lon="5.20414">
        <ele>545</ele>
        <time>2016-02-27T20:18:39Z</time>
      </trkpt>
      <trkpt lat="45.23678" lon="5.20421">
        <ele>545</ele>
        <time>2016-02-27T20:20:39Z</time>
      </trkpt>
      <trkpt lat="45.23674" lon="5.20431">
        <ele>544</ele>
        <time>2016-02-27T20:22:39Z</time>
      </trkpt>
      <trkpt lat="45.2367" lon="5.20444">
        <ele>544</ele>
        <time>2016-02-27T20:24:39Z</time>
      </trkpt>
      <trkpt lat="45.23669" lon="5.20458">
        <ele>544</ele>
        <time>2016-02-27T20:26:39Z</time>
      </trkpt>
      <trkpt lat="45.23669" lon="5.20471">
        <ele>544</ele>
        <time>2016-02-27T20:28:39Z</time>
      </trkpt>
      <trkpt lat="45.23671" lon="5.20483">
        <ele>545</ele>
        <time>2016-02-27T20:30:39Z</time>
      </trkpt>
      <trkpt lat="45.23678" lon="5.20499">
        <ele>547</ele>
        <time>2016-02-27T20:32:39Z</time>
      </trkpt>
      <trkpt lat="45.2369" lon="5.20521">
        <ele>551</ele>
        <time>2016-02-27T20:34:39Z</time>
      </trkpt>
      <trkpt lat="45.23695" lon="5.20533">
        <ele>553</ele>
        <time>2016-02-27T20:36:39Z</time>
      </trkpt>
      <trkpt lat="45.23704" lon="5.20563">
        <ele>556</ele>
        <time>2016-02-27T20:38:39Z</time>
      </trkpt>
      <trkpt lat="45.23711" lon="5.20598">
        <ele>559</ele>
        <time>2016-02-27T20:40:39Z</time>
      </trkpt>
      <trkpt lat="45.23719" lon="5.20641">
        <ele>562</ele>
        <time>2016-02-27T20:42:39Z</time>
      </trkpt>
      <trkpt lat="45.23724" lon="5.2066">
        <ele>563</ele>
        <time>2016-02-27T20:44:39Z</time>
      </trkpt>
      <trkpt lat="45.2373" lon="5.2067">
        <ele>565</ele>
        <time>2016-02-27T20:46:39Z</time>
      </trkpt>
      <trkpt lat="45.23735" lon="5.20675">
        <ele>566</ele>
        <time>2016-02-27T20:48:39Z</time>
      </trkpt>
      <trkpt lat="45.23743" lon="5.20678">
        <ele>567</ele>
        <time>2016-02-27T20:50:39Z</time>
      </trkpt>
      <trkpt lat="45.23756" lon="5.2068">
        <ele>569</ele>
        <time>2016-02-27T20:52:39Z</time>
      </trkpt>
      <trkpt lat="45.23781" lon="5.2068">
        <ele>569</ele>
        <time>2016-02-27T20:54:39Z</time>
      </trkpt>
      <trkpt lat="45.2381" lon="5.20681">
        <ele>570</ele>
        <time>2016-02-27T20:56:39Z</time>
      </trkpt>
      <trkpt lat="45.23845" lon="5.20682">
        <ele>569</ele>
        <time>2016-02-27T20:58:39Z</time>
      </trkpt>
      <trkpt lat="45.23861" lon="5.20683">
        <ele>567</ele>
        <time>2016-02-27T21:00:39Z</time>
      </trkpt>
      <trkpt lat="45.23887" lon="5.20684">
        <ele>564</ele>
        <time>2016-02-27T21:02:39Z</time>
      </trkpt>
      <trkpt lat="45.23909" lon="5.20683">
        <ele>562</ele>
        <time>2016-02-27T21:04:39Z</time>
      </trkpt>
      <trkpt lat="45.23916" lon="5.20682">
        <ele>561</ele>
        <time>2016-02-27T21:06:39Z</time>
      </trkpt>
      <trkpt lat="45.23922" lon="5.20679">
        <ele>560</ele>
        <time>2016-02-27T21:08:39Z</time>
      </trkpt>
      <trkpt lat="45.23929" lon="5.20675">
        <ele>558</ele>
        <time>2016-02-27T21:10:39Z</time>
      </trkpt>
      <trkpt lat="45.23933" lon="5.20672">
        <ele>557</ele>
        <time>2016-02-27T21:12:39Z</time>
      </trkpt>
      <trkpt lat="45.23938" lon="5.20667">
        <ele>556</ele>
        <time>2016-02-27T21:14:39Z</time>
      </trkpt>
      <trkpt lat="45.23946" lon="5.2066">
        <ele>554</ele>
        <time>2016-02-27T21:16:39Z</time>
      </trkpt>
      <trkpt lat="45.23953" lon="5.20654">
        <ele>552</ele>
        <time>2016-02-27T21:18:39Z</time>
      </trkpt>
      <trkpt lat="45.23957" lon="5.20652">
        <ele>551</ele>
        <time>2016-02-27T21:20:39Z</time>
      </trkpt>
      <trkpt lat="45.23962" lon="5.2065">
        <ele>550</ele>
        <time>2016-02-27T21:22:39Z</time>
      </trkpt>
      <trkpt lat="45.2397" lon="5.2065">
        <ele>548</ele>
        <time>2016-02-27T21:24:39Z</time>
      </trkpt>
      <trkpt lat="45.23976" lon="5.20651">
        <ele>547</ele>
        <time>2016-02-27T21:26:39Z</time>
      </trkpt>
      <trkpt lat="45.23982" lon="5.20652">
        <ele>546</ele>
        <time>2016-02-27T21:28:39Z</time>
      </trkpt>
      <trkpt lat="45.24004" lon="5.20662">
        <ele>541</ele>
        <time>2016-02-27T21:30:39Z</time>
      </trkpt>
      <trkpt lat="45.24016" lon="5.2067">
        <ele>540</ele>
        <time>2016-02-27T21:32:39Z</time>
      </trkpt>
      <trkpt lat="45.24029" lon="5.20684">
        <ele>539</ele>
        <time>2016-02-27T21:34:39Z</time>
      </trkpt>
      <trkpt lat="45.24042" lon="5.20696">
        <ele>538</ele>
        <time>2016-02-27T21:36:39Z</time>
      </trkpt>
      <trkpt lat="45.24057" lon="5.20714">
        <ele>536</ele>
        <time>2016-02-27T21:38:39Z</time>
      </trkpt>
      <trkpt lat="45.24072" lon="5.20731">
        <ele>535</ele>
        <time>2016-02-27T21:40:39Z</time>
      </trkpt>
      <trkpt lat="45.24081" lon="5.20743">
        <ele>533</ele>
        <time>2016-02-27T21:42:39Z</time>
      </trkpt>
      <trkpt lat="45.24084" lon="5.20749">
        <ele>533</ele>
        <time>2016-02-27T21:44:39Z</time>
      </trkpt>
      <trkpt lat="45.24086" lon="5.20756">
        <ele>533</ele>
        <time>2016-02-27T21:46:39Z</time>
      </trkpt>
      <trkpt lat="45.24089" lon="5.20768">
        <ele>534</ele>
        <time>2016-02-27T21:48:39Z</time>
      </trkpt>
      <trkpt lat="45.24089" lon="5.20779">
        <ele>534</ele>
        <time>2016-02-27T21:50:39Z</time>
      </trkpt>
      <trkpt lat="45.24088" lon="5.20787">
        <ele>534</ele>
        <time>2016-02-27T21:52:39Z</time>
      </trkpt>
      <trkpt lat="45.24087" lon="5.20794">
        <ele>534</ele>
        <time>2016-02-27T21:54:39Z</time>
      </trkpt>
      <trkpt lat="45.24083" lon="5.20809">
        <ele>534</ele>
        <time>2016-02-27T21:56:39Z</time>
      </trkpt>
      <trkpt lat="45.2408" lon="5.20823">
        <ele>535</ele>
        <time>2016-02-27T21:58:39Z</time>
      </trkpt>
      <trkpt lat="45.24078" lon="5.20839">
        <ele>536</ele>
        <time>2016-02-27T22:00:39Z</time>
      </trkpt>
      <trkpt lat="45.24078" lon="5.20847">
        <ele>536</ele>
        <time>2016-02-27T22:02:39Z</time>
      </trkpt>
      <trkpt lat="45.24078" lon="5.20855">
        <ele>536</ele>
        <time>2016-02-27T22:04:39Z</time>
      </trkpt>
      <trkpt lat="45.24079" lon="5.20864">
        <ele>536</ele>
        <time>2016-02-27T22:06:39Z</time>
      </trkpt>
      <trkpt lat="45.24081" lon="5.20872">
        <ele>536</ele>
        <time>2016-02-27T22:08:39Z</time>
      </trkpt>
      <trkpt lat="45.24083" lon="5.20882">
        <ele>536</ele>
        <time>2016-02-27T22:10:39Z</time>
      </trkpt>
      <trkpt lat="45.24093" lon="5.20912">
        <ele>536</ele>
        <time>2016-02-27T22:12:39Z</time>
      </trkpt>
      <trkpt lat="45.24103" lon="5.20944">
        <ele>537</ele>
        <time>2016-02-27T22:14:39Z</time>
      </trkpt>
      <trkpt lat="45.24108" lon="5.20964">
        <ele>537</ele>
        <time>2016-02-27T22:16:39Z</time>
      </trkpt>
      <trkpt lat="45.24109" lon="5.20971">
        <ele>537</ele>
        <time>2016-02-27T22:18:39Z</time>
      </trkpt>
      <trkpt lat="45.2411" lon="5.20981">
        <ele>537</ele>
        <time>2016-02-27T22:20:39Z</time>
      </trkpt>
      <trkpt lat="45.24111" lon="5.20996">
        <ele>537</ele>
        <time>2016-02-27T22:22:39Z</time>
      </trkpt>
      <trkpt lat="45.2411" lon="5.21017">
        <ele>538</ele>
        <time>2016-02-27T22:24:39Z</time>
      </trkpt>
      <trkpt lat="45.24109" lon="5.21036">
        <ele>538</ele>
        <time>2016-02-27T22:26:39Z</time>
      </trkpt>
      <trkpt lat="45.24108" lon="5.21045">
        <ele>538</ele>
        <time>2016-02-27T22:28:39Z</time>
      </trkpt>
      <trkpt lat="45.24108" lon="5.21054">
        <ele>538</ele>
        <time>2016-02-27T22:30:39Z</time>
      </trkpt>
      <trkpt lat="45.24109" lon="5.21062">
        <ele>539</ele>
        <time>2016-02-27T22:32:39Z</time>
      </trkpt>
      <trkpt lat="45.24109" lon="5.2107">
        <ele>539</ele>
        <time>2016-02-27T22:34:39Z</time>
      </trkpt>
      <trkpt lat="45.24113" lon="5.21076">
        <ele>539</ele>
        <time>2016-02-27T22:36:39Z</time>
      </trkpt>
      <trkpt lat="45.24116" lon="5.21083">
        <ele>539</ele>
        <time>2016-02-27T22:38:39Z</time>
      </trkpt>
      <trkpt lat="45.24119" lon="5.21088">
        <ele>539</ele>
        <time>2016-02-27T22:40:39Z</time>
      </trkpt>
      <trkpt lat="45.24123" lon="5.21092">
        <ele>539</ele>
        <time>2016-02-27T22:42:39Z</time>
      </trkpt>
      <trkpt lat="45.24128" lon="5.21095">
        <ele>540</ele>
        <time>2016-02-27T22:44:39Z</time>
      </trkpt>
      <trkpt lat="45.24134" lon="5.21097">
        <ele>540</ele>
        <time>2016-02-27T22:46:39Z</time>
      </trkpt>
      <trkpt lat="45.24139" lon="5.21096">
        <ele>540</ele>
        <time>2016-02-27T22:48:39Z</time>
      </trkpt>
      <trkpt lat="45.24143" lon="5.21094">
        <ele>539</ele>
        <time>2016-02-27T22:50:39Z</time>
      </trkpt>
      <trkpt lat="45.24148" lon="5.21091">
        <ele>539</ele>
        <time>2016-02-27T22:52:39Z</time>
      </trkpt>
      <trkpt lat="45.24152" lon="5.21086">
        <ele>539</ele>
        <time>2016-02-27T22:54:39Z</time>
      </trkpt>
      <trkpt lat="45.24156" lon="5.2108">
        <ele>539</ele>
        <time>2016-02-27T22:56:39Z</time>
      </trkpt>
      <trkpt lat="45.24159" lon="5.21074">
        <ele>539</ele>
        <time>2016-02-27T22:58:39Z</time>
      </trkpt>
      <trkpt lat="45.24162" lon="5.21067">
        <ele>539</ele>
        <time>2016-02-27T23:00:39Z</time>
      </trkpt>
      <trkpt lat="45.24165" lon="5.2106">
        <ele>539</ele>
        <time>2016-02-27T23:02:39Z</time>
      </trkpt>
      <trkpt lat="45.24168" lon="5.21054">
        <ele>539</ele>
        <time>2016-02-27T23:04:39Z</time>
      </trkpt>
      <trkpt lat="45.24171" lon="5.21048">
        <ele>539</ele>
        <time>2016-02-27T23:06:39Z</time>
      </trkpt>
      <trkpt lat="45.24174" lon="5.21042">
        <ele>539</ele>
        <time>2016-02-27T23:08:39Z</time>
      </trkpt>
      <trkpt lat="45.24177" lon="5.21037">
        <ele>539</ele>
        <time>2016-02-27T23:10:39Z</time>
      </trkpt>
      <trkpt lat="45.24181" lon="5.21034">
        <ele>539</ele>
        <time>2016-02-27T23:12:39Z</time>
      </trkpt>
      <trkpt lat="45.24185" lon="5.21031">
        <ele>539</ele>
        <time>2016-02-27T23:14:39Z</time>
      </trkpt>
      <trkpt lat="45.24189" lon="5.21029">
        <ele>540</ele>
        <time>2016-02-27T23:16:39Z</time>
      </trkpt>
      <trkpt lat="45.24194" lon="5.21028">
        <ele>540</ele>
        <time>2016-02-27T23:18:39Z</time>
      </trkpt>
      <trkpt lat="45.24199" lon="5.21028">
        <ele>540</ele>
        <time>2016-02-27T23:20:39Z</time>
      </trkpt>
      <trkpt lat="45.24205" lon="5.21029">
        <ele>540</ele>
        <time>2016-02-27T23:22:39Z</time>
      </trkpt>
      <trkpt lat="45.2421" lon="5.21031">
        <ele>541</ele>
        <time>2016-02-27T23:24:39Z</time>
      </trkpt>
      <trkpt lat="45.24216" lon="5.21034">
        <ele>541</ele>
        <time>2016-02-27T23:26:39Z</time>
      </trkpt>
      <trkpt lat="45.24221" lon="5.21037">
        <ele>541</ele>
        <time>2016-02-27T23:28:39Z</time>
      </trkpt>
      <trkpt lat="45.24227" lon="5.21041">
        <ele>541</ele>
        <time>2016-02-27T23:30:39Z</time>
      </trkpt>
      <trkpt lat="45.24239" lon="5.2105">
        <ele>542</ele>
        <time>2016-02-27T23:32:39Z</time>
      </trkpt>
      <trkpt lat="45.24252" lon="5.21059">
        <ele>542</ele>
        <time>2016-02-27T23:34:39Z</time>
      </trkpt>
      <trkpt lat="45.24265" lon="5.21069">
        <ele>543</ele>
        <time>2016-02-27T23:36:39Z</time>
      </trkpt>
      <trkpt lat="45.24272" lon="5.21075">
        <ele>544</ele>
        <time>2016-02-27T23:38:39Z</time>
      </trkpt>
      <trkpt lat="45.24279" lon="5.2108">
        <ele>544</ele>
        <time>2016-02-27T23:40:39Z</time>
      </trkpt>
      <trkpt lat="45.24286" lon="5.21087">
        <ele>545</ele>
        <time>2016-02-27T23:42:39Z</time>
      </trkpt>
      <trkpt lat="45.24306" lon="5.2111">
        <ele>547</ele>
        <time>2016-02-27T23:44:39Z</time>
      </trkpt>
      <trkpt lat="45.24319" lon="5.21127">
        <ele>548</ele>
        <time>2016-02-27T23:46:39Z</time>
      </trkpt>
      <trkpt lat="45.24332" lon="5.21144">
        <ele>550</ele>
        <time>2016-02-27T23:48:39Z</time>
      </trkpt>
      <trkpt lat="45.24348" lon="5.21166">
        <ele>551</ele>
        <time>2016-02-27T23:50:39Z</time>
      </trkpt>
      <trkpt lat="45.24358" lon="5.21179">
        <ele>552</ele>
        <time>2016-02-27T23:52:39Z</time>
      </trkpt>
      <trkpt lat="45.24362" lon="5.21184">
        <ele>552</ele>
        <time>2016-02-27T23:54:39Z</time>
      </trkpt>
      <trkpt lat="45.24365" lon="5.21188">
        <ele>553</ele>
        <time>2016-02-27T23:56:39Z</time>
      </trkpt>
      <trkpt lat="45.24378" lon="5.21201">
        <ele>554</ele>
        <time>2016-02-27T23:58:39Z</time>
      </trkpt>
      <trkpt lat="45.24388" lon="5.21215">
        <ele>555</ele>
        <time>2016-02-28T00:00:39Z</time>
      </trkpt>
      <trkpt lat="45.24394" lon="5.2122">
        <ele>555</ele>
        <time>2016-02-28T00:02:39Z</time>
      </trkpt>
      <trkpt lat="45.24407" lon="5.21229">
        <ele>556</ele>
        <time>2016-02-28T00:04:39Z</time>
      </trkpt>
      <trkpt lat="45.24414" lon="5.21232">
        <ele>557</ele>
        <time>2016-02-28T00:06:39Z</time>
      </trkpt>
      <trkpt lat="45.24421" lon="5.21234">
        <ele>557</ele>
        <time>2016-02-28T00:08:39Z</time>
      </trkpt>
      <trkpt lat="45.24428" lon="5.21237">
        <ele>557</ele>
        <time>2016-02-28T00:10:39Z</time>
      </trkpt>
      <trkpt lat="45.24443" lon="5.21239">
        <ele>558</ele>
        <time>2016-02-28T00:12:39Z</time>
      </trkpt>
      <trkpt lat="45.24459" lon="5.21241">
        <ele>559</ele>
        <time>2016-02-28T00:14:39Z</time>
      </trkpt>
      <trkpt lat="45.24467" lon="5.21241">
        <ele>559</ele>
        <time>2016-02-28T00:16:39Z</time>
      </trkpt>
      <trkpt lat="45.24484" lon="5.21243">
        <ele>560</ele>
        <time>2016-02-28T00:18:39Z</time>
      </trkpt>
      <trkpt lat="45.2451" lon="5.21244">
        <ele>561</ele>
        <time>2016-02-28T00:20:39Z</time>
      </trkpt>
      <trkpt lat="45.24529" lon="5.21244">
        <ele>561</ele>
        <time>2016-02-28T00:22:39Z</time>
      </trkpt>
      <trkpt lat="45.24547" lon="5.21244">
        <ele>562</ele>
        <time>2016-02-28T00:24:39Z</time>
      </trkpt>
      <trkpt lat="45.24566" lon="5.21243">
        <ele>563</ele>
        <time>2016-02-28T00:26:39Z</time>
      </trkpt>
      <trkpt lat="45.24591" lon="5.21242">
        <ele>564</ele>
        <time>2016-02-28T00:28:39Z</time>
      </trkpt>
      <trkpt lat="45.24602" lon="5.21242">
        <ele>565</ele>
        <time>2016-02-28T00:30:39Z</time>
      </trkpt>
      <trkpt lat="45.24617" lon="5.21243">
        <ele>566</ele>
        <time>2016-02-28T00:32:39Z</time>
      </trkpt>
      <trkpt lat="45.24633" lon="5.21248">
        <ele>567</ele>
        <time>2016-02-28T00:34:39Z</time>
      </trkpt>
      <trkpt lat="45.24647" lon="5.21253">
        <ele>567</ele>
        <time>2016-02-28T00:36:39Z</time>
      </trkpt>
      <trkpt lat="45.24659" lon="5.21259">
        <ele>568</ele>
        <time>2016-02-28T00:38:39Z</time>
      </trkpt>
      <trkpt lat="45.24696" lon="5.21272">
        <ele>569</ele>
        <time>2016-02-28T00:40:39Z</time>
      </trkpt>
      <trkpt lat="45.24727" lon="5.21279">
        <ele>570</ele>
        <time>2016-02-28T00:42:39Z</time>
      </trkpt>
      <trkpt lat="45.24759" lon="5.21288">
        <ele>571</ele>
        <time>2016-02-28T00:44:39Z</time>
      </trkpt>
      <trkpt lat="45.24773" lon="5.21292">
        <ele>571</ele>
        <time>2016-02-28T00:46:39Z</time>
      </trkpt>
      <trkpt lat="45.24789" lon="5.21299">
        <ele>571</ele>
        <time>2016-02-28T00:48:39Z</time>
      </trkpt>
      <trkpt lat="45.24796" lon="5.21304">
        <ele>571</ele>
        <time>2016-02-28T00:50:39Z</time>
      </trkpt>
      <trkpt lat="45.24801" lon="5.2131">
        <ele>571</ele>
        <time>2016-02-28T00:52:39Z</time>
      </trkpt>
      <trkpt lat="45.24807" lon="5.21319">
        <ele>571</ele>
        <time>2016-02-28T00:54:39Z</time>
      </trkpt>
      <trkpt lat="45.24812" lon="5.21327">
        <ele>571</ele>
        <time>2016-02-28T00:56:39Z</time>
      </trkpt>
      <trkpt lat="45.24816" lon="5.21337">
        <ele>571</ele>
        <time>2016-02-28T00:58:39Z</time>
      </trkpt>
      <trkpt lat="45.24829" lon="5.21372">
        <ele>572</ele>
        <time>2016-02-28T01:00:39Z</time>
      </trkpt>
      <trkpt lat="45.24839" lon="5.21396">
        <ele>572</ele>
        <time>2016-02-28T01:02:39Z</time>
      </trkpt>
      <trkpt lat="45.24848" lon="5.21415">
        <ele>573</ele>
        <time>2016-02-28T01:04:39Z</time>
      </trkpt>
      <trkpt lat="45.24859" lon="5.21433">
        <ele>573</ele>
        <time>2016-02-28T01:06:39Z</time>
      </trkpt>
      <trkpt lat="45.2487" lon="5.21448">
        <ele>574</ele>
        <time>2016-02-28T01:08:39Z</time>
      </trkpt>
      <trkpt lat="45.2489" lon="5.21473">
        <ele>575</ele>
        <time>2016-02-28T01:10:39Z</time>
      </trkpt>
      <trkpt lat="45.24927" lon="5.21519">
        <ele>577</ele>
        <time>2016-02-28T01:12:39Z</time>
      </trkpt>
      <trkpt lat="45.24956" lon="5.21556">
        <ele>578</ele>
        <time>2016-02-28T01:14:39Z</time>
      </trkpt>
      <trkpt lat="45.24992" lon="5.21598">
        <ele>579</ele>
        <time>2016-02-28T01:16:39Z</time>
      </trkpt>
      <trkpt lat="45.25025" lon="5.2164">
        <ele>577</ele>
        <time>2016-02-28T01:18:39Z</time>
      </trkpt>
      <trkpt lat="45.25073" lon="5.21698">
        <ele>574</ele>
        <time>2016-02-28T01:20:39Z</time>
      </trkpt>
      <trkpt lat="45.25095" lon="5.21726">
        <ele>572</ele>
        <time>2016-02-28T01:22:39Z</time>
      </trkpt>
      <trkpt lat="45.25095" lon="5.21726">
        <ele>572</ele>
        <time>2016-02-28T01:24:39Z</time>
      </trkpt>
      <trkpt lat="45.25098" lon="5.21719">
        <ele>572</ele>
        <time>2016-02-28T01:26:39Z</time>
      </trkpt>
      <trkpt lat="45.251" lon="5.21712">
        <ele>572</ele>
        <time>2016-02-28T01:28:39Z</time>
      </trkpt>
      <trkpt lat="45.251" lon="5.21704">
        <ele>572</ele>
        <time>2016-02-28T01:30:39Z</time>
      </trkpt>
      <trkpt lat="45.25101" lon="5.21676">
        <ele>571</ele>
        <time>2016-02-28T01:32:39Z</time>
      </trkpt>
      <trkpt lat="45.25102" lon="5.21661">
        <ele>571</ele>
        <time>2016-02-28T01:34:39Z</time>
      </trkpt>
      <trkpt lat="45.25103" lon="5.21645">
        <ele>572</ele>
        <time>2016-02-28T01:36:39Z</time>
      </trkpt>
      <trkpt lat="45.25107" lon="5.2162">
        <ele>573</ele>
        <time>2016-02-28T01:38:39Z</time>
      </trkpt>
      <trkpt lat="45.25111" lon="5.21603">
        <ele>573</ele>
        <time>2016-02-28T01:40:39Z</time>
      </trkpt>
      <trkpt lat="45.25113" lon="5.21595">
        <ele>574</ele>
        <time>2016-02-28T01:42:39Z</time>
      </trkpt>
      <trkpt lat="45.25115" lon="5.21589">
        <ele>574</ele>
        <time>2016-02-28T01:44:39Z</time>
      </trkpt>
      <trkpt lat="45.25127" lon="5.21561">
        <ele>574</ele>
        <time>2016-02-28T01:46:39Z</time>
      </trkpt>
      <trkpt lat="45.25133" lon="5.21547">
        <ele>574</ele>
        <time>2016-02-28T01:48:39Z</time>
      </trkpt>
      <trkpt lat="45.25137" lon="5.21538">
        <ele>574</ele>
        <time>2016-02-28T01:50:39Z</time>
      </trkpt>
      <trkpt lat="45.25138" lon="5.21528">
        <ele>574</ele>
        <time>2016-02-28T01:52:39Z</time>
      </trkpt>
      <trkpt lat="45.25139" lon="5.2151">
        <ele>575</ele>
        <time>2016-02-28T01:54:39Z</time>
      </trkpt>
      <trkpt lat="45.25141" lon="5.21484">
        <ele>575</ele>
        <time>2016-02-28T01:56:39Z</time>
      </trkpt>
      <trkpt lat="45.25144" lon="5.21447">
        <ele>576</ele>
        <time>2016-02-28T01:58:39Z</time>
      </trkpt>
      <trkpt lat="45.25147" lon="5.21413">
        <ele>576</ele>
        <time>2016-02-28T02:00:39Z</time>
      </trkpt>
      <trkpt lat="45.25148" lon="5.21397">
        <ele>576</ele>
        <time>2016-02-28T02:02:39Z</time>
      </trkpt>
      <trkpt lat="45.25148" lon="5.21382">
        <ele>577</ele>
        <time>2016-02-28T02:04:39Z</time>
      </trkpt>
      <trkpt lat="45.25147" lon="5.21365">
        <ele>577</ele>
        <time>2016-02-28T02:06:39Z</time>
      </trkpt>
      <trkpt lat="45.25144" lon="5.21351">
        <ele>577</ele>
        <time>2016-02-28T02:08:39Z</time>
      </trkpt>
      <trkpt lat="45.25139" lon="5.21333">
        <ele>578</ele>
        <time>2016-02-28T02:10:39Z</time>
      </trkpt>
      <trkpt lat="45.25131" lon="5.2131">
        <ele>578</ele>
        <time>2016-02-28T02:12:39Z</time>
      </trkpt>
      <trkpt lat="45.25112" lon="5.21262">
        <ele>579</ele>
        <time>2016-02-28T02:14:39Z</time>
      </trkpt>
      <trkpt lat="45.25089" lon="5.21204">
        <ele>578</ele>
        <time>2016-02-28T02:16:39Z</time>
      </trkpt>
      <trkpt lat="45.25075" lon="5.21174">
        <ele>578</ele>
        <time>2016-02-28T02:18:39Z</time>
      </trkpt>
      <trkpt lat="45.25069" lon="5.2116">
        <ele>578</ele>
        <time>2016-02-28T02:20:39Z</time>
      </trkpt>
      <trkpt lat="45.25061" lon="5.21147">
        <ele>578</ele>
        <time>2016-02-28T02:22:39Z</time>
      </trkpt>
      <trkpt lat="45.25053" lon="5.21135">
        <ele>577</ele>
        <time>2016-02-28T02:24:39Z</time>
      </trkpt>
      <trkpt lat="45.2504" lon="5.21116">
        <ele>577</ele>
        <time>2016-02-28T02:26:39Z</time>
      </trkpt>
      <trkpt lat="45.25001" lon="5.21063">
        <ele>576</ele>
        <time>2016-02-28T02:28:39Z</time>
      </trkpt>
      <trkpt lat="45.2496" lon="5.21">
        <ele>574</ele>
        <time>2016-02-28T02:30:39Z</time>
      </trkpt>
      <trkpt lat="45.24931" lon="5.20949">
        <ele>572</ele>
        <time>2016-02-28T02:32:39Z</time>
      </trkpt>
      <trkpt lat="45.24905" lon="5.20902">
        <ele>572</ele>
        <time>2016-02-28T02:34:39Z</time>
      </trkpt>
      <trkpt lat="45.24898" lon="5.20888">
        <ele>571</ele>
        <time>2016-02-28T02:36:39Z</time>
      </trkpt>
      <trkpt lat="45.24878" lon="5.20837">
        <ele>571</ele>
        <time>2016-02-28T02:38:39Z</time>
      </trkpt>
      <trkpt lat="45.2485" lon="5.20746">
        <ele>570</ele>
        <time>2016-02-28T02:40:39Z</time>
      </trkpt>
      <trkpt lat="45.24832" lon="5.20686">
        <ele>568</ele>
        <time>2016-02-28T02:42:39Z</time>
      </trkpt>
      <trkpt lat="45.24817" lon="5.20638">
        <ele>568</ele>
        <time>2016-02-28T02:44:39Z</time>
      </trkpt>
      <trkpt lat="45.24792" lon="5.20568">
        <ele>566</ele>
        <time>2016-02-28T02:46:39Z</time>
      </trkpt>
      <trkpt lat="45.24767" lon="5.20495">
        <ele>563</ele>
        <time>2016-02-28T02:48:39Z</time>
      </trkpt>
      <trkpt lat="45.24745" lon="5.2043">
        <ele>560</ele>
        <time>2016-02-28T02:50:39Z</time>
      </trkpt>
      <trkpt lat="45.24727" lon="5.20381">
        <ele>559</ele>
        <time>2016-02-28T02:52:39Z</time>
      </trkpt>
      <trkpt lat="45.24721" lon="5.20364">
        <ele>559</ele>
        <time>2016-02-28T02:54:39Z</time>
      </trkpt>
      <trkpt lat="45.24709" lon="5.20323">
        <ele>558</ele>
        <time>2016-02-28T02:56:39Z</time>
      </trkpt>
      <trkpt lat="45.24706" lon="5.20306">
        <ele>558</ele>
        <time>2016-02-28T02:58:39Z</time>
      </trkpt>
      <trkpt lat="45.24706" lon="5.20293">
        <ele>557</ele>
        <time>2016-02-28T03:00:39Z</time>
      </trkpt>
      <trkpt lat="45.24708" lon="5.20281">
        <ele>557</ele>
        <time>2016-02-28T03:02:39Z</time>
      </trkpt>
      <trkpt lat="45.24717" lon="5.20247">
        <ele>556</ele>
        <time>2016-02-28T03:04:39Z</time>
      </trkpt>
      <trkpt lat="45.24733" lon="5.20197">
        <ele>554</ele>
        <time>2016-02-28T03:06:39Z</time>
      </trkpt>
      <trkpt lat="45.24754" lon="5.20136">
        <ele>551</ele>
        <time>2016-02-28T03:08:39Z</time>
      </trkpt>
      <trkpt lat="45.24773" lon="5.20077">
        <ele>550</ele>
        <time>2016-02-28T03:10:39Z</time>
      </trkpt>
      <trkpt lat="45.24795" lon="5.20012">
        <ele>550</ele>
        <time>2016-02-28T03:12:39Z</time>
      </trkpt>
      <trkpt lat="45.24809" lon="5.19969">
        <ele>550</ele>
        <time>2016-02-28T03:14:39Z</time>
      </trkpt>
      <trkpt lat="45.24819" lon="5.19937">
        <ele>550</ele>
        <time>2016-02-28T03:16:39Z</time>
      </trkpt>
      <trkpt lat="45.24823" lon="5.19916">
        <ele>550</ele>
        <time>2016-02-28T03:18:39Z</time>
      </trkpt>
      <trkpt lat="45.24825" lon="5.199">
        <ele>550</ele>
        <time>2016-02-28T03:20:39Z</time>
      </trkpt>
      <trkpt lat="45.24827" lon="5.19871">
        <ele>551</ele>
        <time>2016-02-28T03:22:39Z</time>
      </trkpt>
      <trkpt lat="45.24827" lon="5.19843">
        <ele>551</ele>
        <time>2016-02-28T03:24:39Z</time>
      </trkpt>
      <trkpt lat="45.24828" lon="5.19795">
        <ele>553</ele>
        <time>2016-02-28T03:26:39Z</time>
      </trkpt>
      <trkpt lat="45.24828" lon="5.19772">
        <ele>554</ele>
        <time>2016-02-28T03:28:39Z</time>
      </trkpt>
      <trkpt lat="45.24827" lon="5.19749">
        <ele>554</ele>
        <time>2016-02-28T03:30:39Z</time>
      </trkpt>
      <trkpt lat="45.24819" lon="5.19727">
        <ele>556</ele>
        <time>2016-02-28T03:32:39Z</time>
      </trkpt>
      <trkpt lat="45.24808" lon="5.19712">
        <ele>557</ele>
        <time>2016-02-28T03:34:39Z</time>
      </trkpt>
      <trkpt lat="45.24805" lon="5.19705">
        <ele>557</ele>
        <time>2016-02-28T03:36:39Z</time>
      </trkpt>
      <trkpt lat="45.24802" lon="5.19693">
        <ele>557</ele>
        <time>2016-02-28T03:38:39Z</time>
      </trkpt>
      <trkpt lat="45.24803" lon="5.19681">
        <ele>558</ele>
        <time>2016-02-28T03:40:39Z</time>
      </trkpt>
      <trkpt lat="45.24806" lon="5.19672">
        <ele>558</ele>
        <time>2016-02-28T03:42:39Z</time>
      </trkpt>
      <trkpt lat="45.24811" lon="5.19664">
        <ele>558</ele>
        <time>2016-02-28T03:44:39Z</time>
      </trkpt>
      <trkpt lat="45.24833" lon="5.19648">
        <ele>557</ele>
        <time>2016-02-28T03:46:39Z</time>
      </trkpt>
      <trkpt lat="45.24885" lon="5.19608">
        <ele>553</ele>
        <time>2016-02-28T03:48:39Z</time>
      </trkpt>
      <trkpt lat="45.24893" lon="5.19598">
        <ele>553</ele>
        <time>2016-02-28T03:50:39Z</time>
      </trkpt>
      <trkpt lat="45.24902" lon="5.19583">
        <ele>552</ele>
        <time>2016-02-28T03:52:39Z</time>
      </trkpt>
      <trkpt lat="45.24939" lon="5.19505">
        <ele>551</ele>
        <time>2016-02-28T03:54:39Z</time>
      </trkpt>
      <trkpt lat="45.24959" lon="5.19457">
        <ele>548</ele>
        <time>2016-02-28T03:56:39Z</time>
      </trkpt>
      <trkpt lat="45.24964" lon="5.19434">
        <ele>548</ele>
        <time>2016-02-28T03:58:39Z</time>
      </trkpt>
      <trkpt lat="45.24969" lon="5.19391">
        <ele>547</ele>
        <time>2016-02-28T04:00:39Z</time>
      </trkpt>
      <trkpt lat="45.24978" lon="5.19257">
        <ele>544</ele>
        <time>2016-02-28T04:02:39Z</time>
      </trkpt>
      <trkpt lat="45.24982" lon="5.19216">
        <ele>543</ele>
        <time>2016-02-28T04:04:39Z</time>
      </trkpt>
      <trkpt lat="45.24984" lon="5.19203">
        <ele>543</ele>
        <time>2016-02-28T04:06:39Z</time>
      </trkpt>
      <trkpt lat="45.24991" lon="5.19181">
        <ele>542</ele>
        <time>2016-02-28T04:08:39Z</time>
      </trkpt>
      <trkpt lat="45.25067" lon="5.18985">
        <ele>536</ele>
        <time>2016-02-28T04:10:39Z</time>
      </trkpt>
      <trkpt lat="45.25076" lon="5.18958">
        <ele>536</ele>
        <time>2016-02-28T04:12:39Z</time>
      </trkpt>
      <trkpt lat="45.25096" lon="5.18885">
        <ele>537</ele>
        <time>2016-02-28T04:14:39Z</time>
      </trkpt>
      <trkpt lat="45.25103" lon="5.18852">
        <ele>537</ele>
        <time>2016-02-28T04:16:39Z</time>
      </trkpt>
      <trkpt lat="45.25107" lon="5.18824">
        <ele>537</ele>
        <time>2016-02-28T04:18:39Z</time>
      </trkpt>
      <trkpt lat="45.25108" lon="5.18821">
        <ele>536</ele>
        <time>2016-02-28T04:20:39Z</time>
      </trkpt>
      <trkpt lat="45.25107" lon="5.18803">
        <ele>537</ele>
        <time>2016-02-28T04:22:39Z</time>
      </trkpt>
      <trkpt lat="45.2509" lon="5.18702">
        <ele>538</ele>
        <time>2016-02-28T04:24:39Z</time>
      </trkpt>
      <trkpt lat="45.25077" lon="5.18635">
        <ele>538</ele>
        <time>2016-02-28T04:26:39Z</time>
      </trkpt>
      <trkpt lat="45.25034" lon="5.18394">
        <ele>536</ele>
        <time>2016-02-28T04:28:39Z</time>
      </trkpt>
      <trkpt lat="45.25021" lon="5.18325">
        <ele>537</ele>
        <time>2016-02-28T04:30:39Z</time>
      </trkpt>
      <trkpt lat="45.25014" lon="5.18285">
        <ele>537</ele>
        <time>2016-02-28T04:32:39Z</time>
      </trkpt>
      <trkpt lat="45.24996" lon="5.18185">
        <ele>535</ele>
        <time>2016-02-28T04:34:39Z</time>
      </trkpt>
      <trkpt lat="45.24989" lon="5.18155">
        <ele>534</ele>
        <time>2016-02-28T04:36:39Z</time>
      </trkpt>
      <trkpt lat="45.24974" lon="5.18121">
        <ele>532</ele>
        <time>2016-02-28T04:38:39Z</time>
      </trkpt>
      <trkpt lat="45.24951" lon="5.18088">
        <ele>532</ele>
        <time>2016-02-28T04:40:39Z</time>
      </trkpt>
      <trkpt lat="45.24926" lon="5.18041">
        <ele>532</ele>
        <time>2016-02-28T04:42:39Z</time>
      </trkpt>
      <trkpt lat="45.24916" lon="5.18016">
        <ele>531</ele>
        <time>2016-02-28T04:44:39Z</time>
      </trkpt>
      <trkpt lat="45.24909" lon="5.17996">
        <ele>531</ele>
        <time>2016-02-28T04:46:39Z</time>
      </trkpt>
      <trkpt lat="45.24892" lon="5.17932">
        <ele>529</ele>
        <time>2016-02-28T04:48:39Z</time>
      </trkpt>
      <trkpt lat="45.24886" lon="5.17908">
        <ele>529</ele>
        <time>2016-02-28T04:50:39Z</time>
      </trkpt>
      <trkpt lat="45.24868" lon="5.17833">
        <ele>531</ele>
        <time>2016-02-28T04:52:39Z</time>
      </trkpt>
      <trkpt lat="45.24865" lon="5.17804">
        <ele>531</ele>
        <time>2016-02-28T04:54:39Z</time>
      </trkpt>
      <trkpt lat="45.24866" lon="5.17723">
        <ele>532</ele>
        <time>2016-02-28T04:56:39Z</time>
      </trkpt>
      <trkpt lat="45.24864" lon="5.1767">
        <ele>533</ele>
        <time>2016-02-28T04:58:39Z</time>
      </trkpt>
      <trkpt lat="45.24864" lon="5.17669">
        <ele>533</ele>
        <time>2016-02-28T05:00:39Z</time>
      </trkpt>
      <trkpt lat="45.24863" lon="5.1763">
        <ele>533</ele>
        <time>2016-02-28T05:02:39Z</time>
      </trkpt>
      <trkpt lat="45.24858" lon="5.17566">
        <ele>533</ele>
        <time>2016-02-28T05:04:39Z</time>
      </trkpt>
      <trkpt lat="45.24846" lon="5.17463">
        <ele>531</ele>
        <time>2016-02-28T05:06:39Z</time>
      </trkpt>
      <trkpt lat="45.24844" lon="5.1744">
        <ele>530</ele>
        <time>2016-02-28T05:08:39Z</time>
      </trkpt>
      <trkpt lat="45.24845" lon="5.17392">
        <ele>530</ele>
        <time>2016-02-28T05:10:39Z</time>
      </trkpt>
      <trkpt lat="45.24852" lon="5.17286">
        <ele>530</ele>
        <time>2016-02-28T05:12:39Z</time>
      </trkpt>
      <trkpt lat="45.24841" lon="5.17158">
        <ele>530</ele>
        <time>2016-02-28T05:14:39Z</time>
      </trkpt>
      <trkpt lat="45.24832" lon="5.17106">
        <ele>530</ele>
        <time>2016-02-28T05:16:39Z</time>
      </trkpt>
      <trkpt lat="45.24813" lon="5.17022">
        <ele>530</ele>
        <time>2016-02-28T05:18:39Z</time>
      </trkpt>
      <trkpt lat="45.2481" lon="5.16995">
        <ele>530</ele>
        <time>2016-02-28T05:20:39Z</time>
      </trkpt>
      <trkpt lat="45.24801" lon="5.16858">
        <ele>530</ele>
        <time>2016-02-28T05:22:39Z</time>
      </trkpt>
      <trkpt lat="45.24797" lon="5.16832">
        <ele>530</ele>
        <time>2016-02-28T05:24:39Z</time>
      </trkpt>
      <trkpt lat="45.24796" lon="5.16823">
        <ele>530</ele>
        <time>2016-02-28T05:26:39Z</time>
      </trkpt>
      <trkpt lat="45.24793" lon="5.16818">
        <ele>530</ele>
        <time>2016-02-28T05:28:39Z</time>
      </trkpt>
      <trkpt lat="45.24781" lon="5.16776">
        <ele>529</ele>
        <time>2016-02-28T05:30:39Z</time>
      </trkpt>
      <trkpt lat="45.24764" lon="5.16717">
        <ele>530</ele>
        <time>2016-02-28T05:32:39Z</time>
      </trkpt>
      <trkpt lat="45.24726" lon="5.16599">
        <ele>530</ele>
        <time>2016-02-28T05:34:39Z</time>
      </trkpt>
      <trkpt lat="45.24709" lon="5.16545">
        <ele>530</ele>
        <time>2016-02-28T05:36:39Z</time>
      </trkpt>
      <trkpt lat="45.247" lon="5.16517">
        <ele>530</ele>
        <time>2016-02-28T05:38:39Z</time>
      </trkpt>
      <trkpt lat="45.24694" lon="5.16495">
        <ele>530</ele>
        <time>2016-02-28T05:40:39Z</time>
      </trkpt>
      <trkpt lat="45.24689" lon="5.1647">
        <ele>530</ele>
        <time>2016-02-28T05:42:39Z</time>
      </trkpt>
      <trkpt lat="45.24684" lon="5.16441">
        <ele>530</ele>
        <time>2016-02-28T05:44:39Z</time>
      </trkpt>
      <trkpt lat="45.24681" lon="5.16417">
        <ele>530</ele>
        <time>2016-02-28T05:46:39Z</time>
      </trkpt>
      <trkpt lat="45.24678" lon="5.16395">
        <ele>530</ele>
        <time>2016-02-28T05:48:39Z</time>
      </trkpt>
      <trkpt lat="45.24675" lon="5.16375">
        <ele>530</ele>
        <time>2016-02-28T05:50:39Z</time>
      </trkpt>
      <trkpt lat="45.24672" lon="5.16355">
        <ele>530</ele>
        <time>2016-02-28T05:52:39Z</time>
      </trkpt>
      <trkpt lat="45.24669" lon="5.16331">
        <ele>530</ele>
        <time>2016-02-28T05:54:39Z</time>
      </trkpt>
      <trkpt lat="45.24644" lon="5.16158">
        <ele>529</ele>
        <time>2016-02-28T05:56:39Z</time>
      </trkpt>
      <trkpt lat="45.24642" lon="5.16146">
        <ele>529</ele>
        <time>2016-02-28T05:58:39Z</time>
      </trkpt>
      <trkpt lat="45.24641" lon="5.16138">
        <ele>529</ele>
        <time>2016-02-28T06:00:39Z</time>
      </trkpt>
      <trkpt lat="45.24639" lon="5.16131">
        <ele>528</ele>
        <time>2016-02-28T06:02:39Z</time>
      </trkpt>
      <trkpt lat="45.24637" lon="5.16122">
        <ele>528</ele>
        <time>2016-02-28T06:04:39Z</time>
      </trkpt>
      <trkpt lat="45.24632" lon="5.16111">
        <ele>528</ele>
        <time>2016-02-28T06:06:39Z</time>
      </trkpt>
      <trkpt lat="45.24623" lon="5.16096">
        <ele>528</ele>
        <time>2016-02-28T06:08:39Z</time>
      </trkpt>
      <trkpt lat="45.24619" lon="5.16091">
        <ele>528</ele>
        <time>2016-02-28T06:10:39Z</time>
      </trkpt>
      <trkpt lat="45.24573" lon="5.16037">
        <ele>529</ele>
        <time>2016-02-28T06:12:39Z</time>
      </trkpt>
      <trkpt lat="45.24557" lon="5.16019">
        <ele>529</ele>
        <time>2016-02-28T06:14:39Z</time>
      </trkpt>
      <trkpt lat="45.24532" lon="5.1599">
        <ele>529</ele>
        <time>2016-02-28T06:16:39Z</time>
      </trkpt>
      <trkpt lat="45.24506" lon="5.15961">
        <ele>529</ele>
        <time>2016-02-28T06:18:39Z</time>
      </trkpt>
      <trkpt lat="45.24478" lon="5.15927">
        <ele>528</ele>
        <time>2016-02-28T06:20:39Z</time>
      </trkpt>
      <trkpt lat="45.24455" lon="5.15903">
        <ele>527</ele>
        <time>2016-02-28T06:22:39Z</time>
      </trkpt>
      <trkpt lat="45.24446" lon="5.15891">
        <ele>526</ele>
        <time>2016-02-28T06:24:39Z</time>
      </trkpt>
      <trkpt lat="45.2443" lon="5.15873">
        <ele>526</ele>
        <time>2016-02-28T06:26:39Z</time>
      </trkpt>
      <trkpt lat="45.2443" lon="5.15873">
        <ele>526</ele>
        <time>2016-02-28T06:28:39Z</time>
      </trkpt>
      <trkpt lat="45.24421" lon="5.15864">
        <ele>525</ele>
        <time>2016-02-28T06:30:39Z</time>
      </trkpt>
      <trkpt lat="45.24409" lon="5.15852">
        <ele>525</ele>
        <time>2016-02-28T06:32:39Z</time>
      </trkpt>
      <trkpt lat="45.24366" lon="5.15805">
        <ele>524</ele>
        <time>2016-02-28T06:34:39Z</time>
      </trkpt>
      <trkpt lat="45.24334" lon="5.15772">
        <ele>524</ele>
        <time>2016-02-28T06:36:39Z</time>
      </trkpt>
      <trkpt lat="45.24309" lon="5.15747">
        <ele>524</ele>
        <time>2016-02-28T06:38:39Z</time>
      </trkpt>
      <trkpt lat="45.24296" lon="5.15734">
        <ele>524</ele>
        <time>2016-02-28T06:40:39Z</time>
      </trkpt>
      <trkpt lat="45.24289" lon="5.15724">
        <ele>524</ele>
        <time>2016-02-28T06:42:39Z</time>
      </trkpt>
      <trkpt lat="45.24283" lon="5.15715">
        <ele>524</ele>
        <time>2016-02-28T06:44:39Z</time>
      </trkpt>
      <trkpt lat="45.24277" lon="5.15701">
        <ele>523</ele>
        <time>2016-02-28T06:46:39Z</time>
      </trkpt>
      <trkpt lat="45.24272" lon="5.15689">
        <ele>523</ele>
        <time>2016-02-28T06:48:39Z</time>
      </trkpt>
      <trkpt lat="45.24263" lon="5.15671">
        <ele>523</ele>
        <time>2016-02-28T06:50:39Z</time>
      </trkpt>
      <trkpt lat="45.24256" lon="5.15654">
        <ele>522</ele>
        <time>2016-02-28T06:52:39Z</time>
      </trkpt>
      <trkpt lat="45.24248" lon="5.15632">
        <ele>522</ele>
        <time>2016-02-28T06:54:39Z</time>
      </trkpt>
      <trkpt lat="45.24243" lon="5.15622">
        <ele>521</ele>
        <time>2016-02-28T06:56:39Z</time>
      </trkpt>
      <trkpt lat="45.24239" lon="5.15614">
        <ele>521</ele>
        <time>2016-02-28T06:58:39Z</time>
      </trkpt>
      <trkpt lat="45.24235" lon="5.15606">
        <ele>521</ele>
        <time>2016-02-28T07:00:39Z</time>
      </trkpt>
      <trkpt lat="45.24231" lon="5.15599">
        <ele>521</ele>
        <time>2016-02-28T07:02:39Z</time>
      </trkpt>
      <trkpt lat="45.24225" lon="5.15591">
        <ele>521</ele>
        <time>2016-02-28T07:04:39Z</time>
      </trkpt>
      <trkpt lat="45.24216" lon="5.15578">
        <ele>521</ele>
        <time>2016-02-28T07:06:39Z</time>
      </trkpt>
      <trkpt lat="45.24204" lon="5.15561">
        <ele>520</ele>
        <time>2016-02-28T07:08:39Z</time>
      </trkpt>
      <trkpt lat="45.24187" lon="5.1554">
        <ele>520</ele>
        <time>2016-02-28T07:10:39Z</time>
      </trkpt>
      <trkpt lat="45.24182" lon="5.15533">
        <ele>520</ele>
        <time>2016-02-28T07:12:39Z</time>
      </trkpt>
      <trkpt lat="45.24171" lon="5.15518">
        <ele>520</ele>
        <time>2016-02-28T07:14:39Z</time>
      </trkpt>
      <trkpt lat="45.24158" lon="5.15502">
        <ele>520</ele>
        <time>2016-02-28T07:16:39Z</time>
      </trkpt>
      <trkpt lat="45.2414" lon="5.15478">
        <ele>520</ele>
        <time>2016-02-28T07:18:39Z</time>
      </trkpt>
      <trkpt lat="45.2413" lon="5.15465">
        <ele>520</ele>
        <time>2016-02-28T07:20:39Z</time>
      </trkpt>
      <trkpt lat="45.24106" lon="5.15433">
        <ele>520</ele>
        <time>2016-02-28T07:22:39Z</time>
      </trkpt>
      <trkpt lat="45.24093" lon="5.15417">
        <ele>520</ele>
        <time>2016-02-28T07:24:39Z</time>
      </trkpt>
      <trkpt lat="45.24072" lon="5.15389">
        <ele>520</ele>
        <time>2016-02-28T07:26:39Z</time>
      </trkpt>
      <trkpt lat="45.24062" lon="5.15377">
        <ele>520</ele>
        <time>2016-02-28T07:28:39Z</time>
      </trkpt>
      <trkpt lat="45.24052" lon="5.15364">
        <ele>520</ele>
        <time>2016-02-28T07:30:39Z</time>
      </trkpt>
      <trkpt lat="45.24041" lon="5.15351">
        <ele>520</ele>
        <time>2016-02-28T07:32:39Z</time>
      </trkpt>
      <trkpt lat="45.24027" lon="5.15334">
        <ele>520</ele>
        <time>2016-02-28T07:34:39Z</time>
      </trkpt>
      <trkpt lat="45.24015" lon="5.15319">
        <ele>520</ele>
        <time>2016-02-28T07:36:39Z</time>
      </trkpt>
      <trkpt lat="45.23993" lon="5.15292">
        <ele>520</ele>
        <time>2016-02-28T07:38:39Z</time>
      </trkpt>
      <trkpt lat="45.2397" lon="5.15262">
        <ele>520</ele>
        <time>2016-02-28T07:40:39Z</time>
      </trkpt>
      <trkpt lat="45.23948" lon="5.15234">
        <ele>520</ele>
        <time>2016-02-28T07:42:39Z</time>
      </trkpt>
      <trkpt lat="45.23925" lon="5.15203">
        <ele>520</ele>
        <time>2016-02-28T07:44:39Z</time>
      </trkpt>
      <trkpt lat="45.23907" lon="5.15179">
        <ele>520</ele>
        <time>2016-02-28T07:46:39Z</time>
      </trkpt>
      <trkpt lat="45.23897" lon="5.15166">
        <ele>520</ele>
        <time>2016-02-28T07:48:39Z</time>
      </trkpt>
      <trkpt lat="45.23878" lon="5.15142">
        <ele>520</ele>
        <time>2016-02-28T07:50:39Z</time>
      </trkpt>
      <trkpt lat="45.2386" lon="5.15119">
        <ele>520</ele>
        <time>2016-02-28T07:52:39Z</time>
      </trkpt>
      <trkpt lat="45.2383" lon="5.15082">
        <ele>520</ele>
        <time>2016-02-28T07:54:39Z</time>
      </trkpt>
      <trkpt lat="45.23821" lon="5.1507">
        <ele>520</ele>
        <time>2016-02-28T07:56:39Z</time>
      </trkpt>
      <trkpt lat="45.23805" lon="5.15048">
        <ele>520</ele>
        <time>2016-02-28T07:58:39Z</time>
      </trkpt>
      <trkpt lat="45.23799" lon="5.15039">
        <ele>520</ele>
        <time>2016-02-28T08:00:39Z</time>
      </trkpt>
      <trkpt lat="45.23793" lon="5.1503">
        <ele>520</ele>
        <time>2016-02-28T08:02:39Z</time>
      </trkpt>
      <trkpt lat="45.23789" lon="5.15021">
        <ele>520</ele>
        <time>2016-02-28T08:04:39Z</time>
      </trkpt>
      <trkpt lat="45.23783" lon="5.15009">
        <ele>520</ele>
        <time>2016-02-28T08:06:39Z</time>
      </trkpt>
      <trkpt lat="45.23773" lon="5.14989">
        <ele>520</ele>
        <time>2016-02-28T08:08:39Z</time>
      </trkpt>
      <trkpt lat="45.2376" lon="5.14962">
        <ele>519</ele>
        <time>2016-02-28T08:10:39Z</time>
      </trkpt>
      <trkpt lat="45.23752" lon="5.14945">
        <ele>519</ele>
        <time>2016-02-28T08:12:39Z</time>
      </trkpt>
      <trkpt lat="45.23746" lon="5.14932">
        <ele>519</ele>
        <time>2016-02-28T08:14:39Z</time>
      </trkpt>
      <trkpt lat="45.23742" lon="5.14922">
        <ele>519</ele>
        <time>2016-02-28T08:16:39Z</time>
      </trkpt>
      <trkpt lat="45.23737" lon="5.1491">
        <ele>519</ele>
        <time>2016-02-28T08:18:39Z</time>
      </trkpt>
      <trkpt lat="45.23733" lon="5.14901">
        <ele>519</ele>
        <time>2016-02-28T08:20:39Z</time>
      </trkpt>
      <trkpt lat="45.23729" lon="5.14888">
        <ele>519</ele>
        <time>2016-02-28T08:22:39Z</time>
      </trkpt>
      <trkpt lat="45.23727" lon="5.14879">
        <ele>519</ele>
        <time>2016-02-28T08:24:39Z</time>
      </trkpt>
      <trkpt lat="45.23723" lon="5.14864">
        <ele>519</ele>
        <time>2016-02-28T08:26:39Z</time>
      </trkpt>
      <trkpt lat="45.2372" lon="5.14853">
        <ele>519</ele>
        <time>2016-02-28T08:28:39Z</time>
      </trkpt>
      <trkpt lat="45.23716" lon="5.1484">
        <ele>519</ele>
        <time>2016-02-28T08:30:39Z</time>
      </trkpt>
      <trkpt lat="45.23711" lon="5.14828">
        <ele>519</ele>
        <time>2016-02-28T08:32:39Z</time>
      </trkpt>
      <trkpt lat="45.23707" lon="5.14816">
        <ele>519</ele>
        <time>2016-02-28T08:34:39Z</time>
      </trkpt>
      <trkpt lat="45.237" lon="5.14799">
        <ele>519</ele>
        <time>2016-02-28T08:36:39Z</time>
      </trkpt>
      <trkpt lat="45.23693" lon="5.14784">
        <ele>519</ele>
        <time>2016-02-28T08:38:39Z</time>
      </trkpt>
      <trkpt lat="45.23686" lon="5.14768">
        <ele>519</ele>
        <time>2016-02-28T08:40:39Z</time>
      </trkpt>
      <trkpt lat="45.2368" lon="5.14753">
        <ele>519</ele>
        <time>2016-02-28T08:42:39Z</time>
      </trkpt>
      <trkpt lat="45.23675" lon="5.14738">
        <ele>520</ele>
        <time>2016-02-28T08:44:39Z</time>
      </trkpt>
      <trkpt lat="45.23669" lon="5.14723">
        <ele>520</ele>
        <time>2016-02-28T08:46:39Z</time>
      </trkpt>
      <trkpt lat="45.23664" lon="5.14708">
        <ele>520</ele>
        <time>2016-02-28T08:48:39Z</time>
      </trkpt>
      <trkpt lat="45.2366" lon="5.14697">
        <ele>520</ele>
        <time>2016-02-28T08:50:39Z</time>
      </trkpt>
      <trkpt lat="45.23655" lon="5.14685">
        <ele>520</ele>
        <time>2016-02-28T08:52:39Z</time>
      </trkpt>
      <trkpt lat="45.23648" lon="5.14671">
        <ele>520</ele>
        <time>2016-02-28T08:54:39Z</time>
      </trkpt>
      <trkpt lat="45.23645" lon="5.14665">
        <ele>520</ele>
        <time>2016-02-28T08:56:39Z</time>
      </trkpt>
      <trkpt lat="45.23639" lon="5.14655">
        <ele>520</ele>
        <time>2016-02-28T08:58:39Z</time>
      </trkpt>
      <trkpt lat="45.23626" lon="5.14634">
        <ele>520</ele>
        <time>2016-02-28T09:00:39Z</time>
      </trkpt>
      <trkpt lat="45.23612" lon="5.14611">
        <ele>520</ele>
        <time>2016-02-28T09:02:39Z</time>
      </trkpt>
      <trkpt lat="45.23599" lon="5.1459">
        <ele>520</ele>
        <time>2016-02-28T09:04:39Z</time>
      </trkpt>
      <trkpt lat="45.23588" lon="5.14572">
        <ele>520</ele>
        <time>2016-02-28T09:06:39Z</time>
      </trkpt>
      <trkpt lat="45.23577" lon="5.14553">
        <ele>520</ele>
        <time>2016-02-28T09:08:39Z</time>
      </trkpt>
      <trkpt lat="45.23566" lon="5.14536">
        <ele>519</ele>
        <time>2016-02-28T09:10:39Z</time>
      </trkpt>
      <trkpt lat="45.23552" lon="5.14514">
        <ele>519</ele>
        <time>2016-02-28T09:12:39Z</time>
      </trkpt>
      <trkpt lat="45.23534" lon="5.14486">
        <ele>519</ele>
        <time>2016-02-28T09:14:39Z</time>
      </trkpt>
      <trkpt lat="45.23516" lon="5.14459">
        <ele>519</ele>
        <time>2016-02-28T09:16:39Z</time>
      </trkpt>
      <trkpt lat="45.23498" lon="5.14429">
        <ele>520</ele>
        <time>2016-02-28T09:18:39Z</time>
      </trkpt>
      <trkpt lat="45.23479" lon="5.14399">
        <ele>520</ele>
        <time>2016-02-28T09:20:39Z</time>
      </trkpt>
      <trkpt lat="45.2346" lon="5.14368">
        <ele>520</ele>
        <time>2016-02-28T09:22:39Z</time>
      </trkpt>
      <trkpt lat="45.23431" lon="5.14321">
        <ele>520</ele>
        <time>2016-02-28T09:24:39Z</time>
      </trkpt>
      <trkpt lat="45.23416" lon="5.14298">
        <ele>520</ele>
        <time>2016-02-28T09:26:39Z</time>
      </trkpt>
      <trkpt lat="45.23392" lon="5.14257">
        <ele>519</ele>
        <time>2016-02-28T09:28:39Z</time>
      </trkpt>
      <trkpt lat="45.23373" lon="5.14222">
        <ele>518</ele>
        <time>2016-02-28T09:30:39Z</time>
      </trkpt>
      <trkpt lat="45.23351" lon="5.14184">
        <ele>518</ele>
        <time>2016-02-28T09:32:39Z</time>
      </trkpt>
      <trkpt lat="45.23331" lon="5.1415">
        <ele>518</ele>
        <time>2016-02-28T09:34:39Z</time>
      </trkpt>
      <trkpt lat="45.23319" lon="5.14129">
        <ele>518</ele>
        <time>2016-02-28T09:36:39Z</time>
      </trkpt>
      <trkpt lat="45.23304" lon="5.14103">
        <ele>518</ele>
        <time>2016-02-28T09:38:39Z</time>
      </trkpt>
      <trkpt lat="45.23288" lon="5.14077">
        <ele>517</ele>
        <time>2016-02-28T09:40:39Z</time>
      </trkpt>
      <trkpt lat="45.23277" lon="5.14057">
        <ele>517</ele>
        <time>2016-02-28T09:42:39Z</time>
      </trkpt>
      <trkpt lat="45.23268" lon="5.14042">
        <ele>518</ele>
        <time>2016-02-28T09:44:39Z</time>
      </trkpt>
      <trkpt lat="45.23262" lon="5.14031">
        <ele>518</ele>
        <time>2016-02-28T09:46:39Z</time>
      </trkpt>
      <trkpt lat="45.23256" lon="5.14022">
        <ele>518</ele>
        <time>2016-02-28T09:48:39Z</time>
      </trkpt>
      <trkpt lat="45.23251" lon="5.14014">
        <ele>518</ele>
        <time>2016-02-28T09:50:39Z</time>
      </trkpt>
      <trkpt lat="45.23245" lon="5.14005">
        <ele>518</ele>
        <time>2016-02-28T09:52:39Z</time>
      </trkpt>
      <trkpt lat="45.2324" lon="5.13999">
        <ele>518</ele>
        <time>2016-02-28T09:54:39Z</time>
      </trkpt>
      <trkpt lat="45.23234" lon="5.13992">
        <ele>518</ele>
        <time>2016-02-28T09:56:39Z</time>
      </trkpt>
      <trkpt lat="45.23229" lon="5.13986">
        <ele>517</ele>
        <time>2016-02-28T09:58:39Z</time>
      </trkpt>
      <trkpt lat="45.23218" lon="5.13979">
        <ele>517</ele>
        <time>2016-02-28T10:00:39Z</time>
      </trkpt>
      <trkpt lat="45.23199" lon="5.13964">
        <ele>516</ele>
        <time>2016-02-28T10:02:39Z</time>
      </trkpt>
      <trkpt lat="45.2318" lon="5.13952">
        <ele>516</ele>
        <time>2016-02-28T10:04:39Z</time>
      </trkpt>
      <trkpt lat="45.23168" lon="5.13944">
        <ele>516</ele>
        <time>2016-02-28T10:06:39Z</time>
      </trkpt>
      <trkpt lat="45.23157" lon="5.13937">
        <ele>516</ele>
        <time>2016-02-28T10:08:39Z</time>
      </trkpt>
      <trkpt lat="45.23146" lon="5.13928">
        <ele>516</ele>
        <time>2016-02-28T10:10:39Z</time>
      </trkpt>
      <trkpt lat="45.23129" lon="5.13911">
        <ele>516</ele>
        <time>2016-02-28T10:12:39Z</time>
      </trkpt>
      <trkpt lat="45.2311" lon="5.13892">
        <ele>516</ele>
        <time>2016-02-28T10:14:39Z</time>
      </trkpt>
      <trkpt lat="45.23094" lon="5.13878">
        <ele>516</ele>
        <time>2016-02-28T10:16:39Z</time>
      </trkpt>
      <trkpt lat="45.2308" lon="5.13864">
        <ele>517</ele>
        <time>2016-02-28T10:18:39Z</time>
      </trkpt>
      <trkpt lat="45.23073" lon="5.13858">
        <ele>517</ele>
        <time>2016-02-28T10:20:39Z</time>
      </trkpt>
      <trkpt lat="45.23067" lon="5.13853">
        <ele>517</ele>
        <time>2016-02-28T10:22:39Z</time>
      </trkpt>
      <trkpt lat="45.23059" lon="5.13848">
        <ele>518</ele>
        <time>2016-02-28T10:24:39Z</time>
      </trkpt>
      <trkpt lat="45.2305" lon="5.13844">
        <ele>518</ele>
        <time>2016-02-28T10:26:39Z</time>
      </trkpt>
      <trkpt lat="45.23041" lon="5.1384">
        <ele>518</ele>
        <time>2016-02-28T10:28:39Z</time>
      </trkpt>
      <trkpt lat="45.23033" lon="5.13835">
        <ele>518</ele>
        <time>2016-02-28T10:30:39Z</time>
      </trkpt>
      <trkpt lat="45.23024" lon="5.13829">
        <ele>518</ele>
        <time>2016-02-28T10:32:39Z</time>
      </trkpt>
      <trkpt lat="45.23015" lon="5.13822">
        <ele>518</ele>
        <time>2016-02-28T10:34:39Z</time>
      </trkpt>
      <trkpt lat="45.23007" lon="5.13816">
        <ele>518</ele>
        <time>2016-02-28T10:36:39Z</time>
      </trkpt>
      <trkpt lat="45.23001" lon="5.1381">
        <ele>519</ele>
        <time>2016-02-28T10:38:39Z</time>
      </trkpt>
      <trkpt lat="45.22994" lon="5.13803">
        <ele>519</ele>
        <time>2016-02-28T10:40:39Z</time>
      </trkpt>
      <trkpt lat="45.22989" lon="5.13798">
        <ele>519</ele>
        <time>2016-02-28T10:42:39Z</time>
      </trkpt>
      <trkpt lat="45.22985" lon="5.13792">
        <ele>519</ele>
        <time>2016-02-28T10:44:39Z</time>
      </trkpt>
      <trkpt lat="45.2298" lon="5.13786">
        <ele>519</ele>
        <time>2016-02-28T10:46:39Z</time>
      </trkpt>
      <trkpt lat="45.22977" lon="5.1378">
        <ele>519</ele>
        <time>2016-02-28T10:48:39Z</time>
      </trkpt>
      <trkpt lat="45.22973" lon="5.13773">
        <ele>519</ele>
        <time>2016-02-28T10:50:39Z</time>
      </trkpt>
      <trkpt lat="45.22969" lon="5.13763">
        <ele>519</ele>
        <time>2016-02-28T10:52:39Z</time>
      </trkpt>
      <trkpt lat="45.22965" lon="5.13754">
        <ele>520</ele>
        <time>2016-02-28T10:54:39Z</time>
      </trkpt>
      <trkpt lat="45.22962" lon="5.13743">
        <ele>520</ele>
        <time>2016-02-28T10:56:39Z</time>
      </trkpt>
      <trkpt lat="45.22959" lon="5.13733">
        <ele>520</ele>
        <time>2016-02-28T10:58:39Z</time>
      </trkpt>
      <trkpt lat="45.22956" lon="5.13725">
        <ele>520</ele>
        <time>2016-02-28T11:00:39Z</time>
      </trkpt>
      <trkpt lat="45.22954" lon="5.13717">
        <ele>520</ele>
        <time>2016-02-28T11:02:39Z</time>
      </trkpt>
      <trkpt lat="45.22951" lon="5.1371">
        <ele>520</ele>
        <time>2016-02-28T11:04:39Z</time>
      </trkpt>
      <trkpt lat="45.22947" lon="5.13703">
        <ele>520</ele>
        <time>2016-02-28T11:06:39Z</time>
      </trkpt>
      <trkpt lat="45.22943" lon="5.13697">
        <ele>520</ele>
        <time>2016-02-28T11:08:39Z</time>
      </trkpt>
      <trkpt lat="45.22937" lon="5.13688">
        <ele>520</ele>
        <time>2016-02-28T11:10:39Z</time>
      </trkpt>
      <trkpt lat="45.2293" lon="5.13677">
        <ele>520</ele>
        <time>2016-02-28T11:12:39Z</time>
      </trkpt>
      <trkpt lat="45.22924" lon="5.13669">
        <ele>520</ele>
        <time>2016-02-28T11:14:39Z</time>
      </trkpt>
      <trkpt lat="45.22919" lon="5.13662">
        <ele>520</ele>
        <time>2016-02-28T11:16:39Z</time>
      </trkpt>
      <trkpt lat="45.22912" lon="5.13655">
        <ele>520</ele>
        <time>2016-02-28T11:18:39Z</time>
      </trkpt>
      <trkpt lat="45.22903" lon="5.13647">
        <ele>520</ele>
        <time>2016-02-28T11:20:39Z</time>
      </trkpt>
      <trkpt lat="45.22898" lon="5.13643">
        <ele>519</ele>
        <time>2016-02-28T11:22:39Z</time>
      </trkpt>
      <trkpt lat="45.22892" lon="5.13638">
        <ele>519</ele>
        <time>2016-02-28T11:24:39Z</time>
      </trkpt>
      <trkpt lat="45.22883" lon="5.13628">
        <ele>519</ele>
        <time>2016-02-28T11:26:39Z</time>
      </trkpt>
      <trkpt lat="45.22874" lon="5.13619">
        <ele>519</ele>
        <time>2016-02-28T11:28:39Z</time>
      </trkpt>
      <trkpt lat="45.22865" lon="5.13607">
        <ele>519</ele>
        <time>2016-02-28T11:30:39Z</time>
      </trkpt>
      <trkpt lat="45.22858" lon="5.13598">
        <ele>518</ele>
        <time>2016-02-28T11:32:39Z</time>
      </trkpt>
      <trkpt lat="45.22853" lon="5.13591">
        <ele>518</ele>
        <time>2016-02-28T11:34:39Z</time>
      </trkpt>
      <trkpt lat="45.22849" lon="5.13583">
        <ele>518</ele>
        <time>2016-02-28T11:36:39Z</time>
      </trkpt>
      <trkpt lat="45.22845" lon="5.13575">
        <ele>518</ele>
        <time>2016-02-28T11:38:39Z</time>
      </trkpt>
      <trkpt lat="45.22841" lon="5.13565">
        <ele>517</ele>
        <time>2016-02-28T11:40:39Z</time>
      </trkpt>
      <trkpt lat="45.22836" lon="5.13554">
        <ele>516</ele>
        <time>2016-02-28T11:42:39Z</time>
      </trkpt>
      <trkpt lat="45.22832" lon="5.13543">
        <ele>515</ele>
        <time>2016-02-28T11:44:39Z</time>
      </trkpt>
      <trkpt lat="45.22826" lon="5.13525">
        <ele>514</ele>
        <time>2016-02-28T11:46:39Z</time>
      </trkpt>
      <trkpt lat="45.22821" lon="5.13509">
        <ele>512</ele>
        <time>2016-02-28T11:48:39Z</time>
      </trkpt>
      <trkpt lat="45.22821" lon="5.13509">
        <ele>512</ele>
        <time>2016-02-28T11:50:39Z</time>
      </trkpt>
      <trkpt lat="45.2281" lon="5.13501">
        <ele>512</ele>
        <time>2016-02-28T11:52:39Z</time>
      </trkpt>
      <trkpt lat="45.22803" lon="5.13494">
        <ele>511</ele>
        <time>2016-02-28T11:54:39Z</time>
      </trkpt>
      <trkpt lat="45.22774" lon="5.1347">
        <ele>510</ele>
        <time>2016-02-28T11:56:39Z</time>
      </trkpt>
      <trkpt lat="45.22745" lon="5.13444">
        <ele>508</ele>
        <time>2016-02-28T11:58:39Z</time>
      </trkpt>
      <trkpt lat="45.22735" lon="5.13435">
        <ele>508</ele>
        <time>2016-02-28T12:00:39Z</time>
      </trkpt>
      <trkpt lat="45.22727" lon="5.13428">
        <ele>508</ele>
        <time>2016-02-28T12:02:39Z</time>
      </trkpt>
      <trkpt lat="45.22706" lon="5.13409">
        <ele>508</ele>
        <time>2016-02-28T12:04:39Z</time>
      </trkpt>
      <trkpt lat="45.22667" lon="5.13375">
        <ele>508</ele>
        <time>2016-02-28T12:06:39Z</time>
      </trkpt>
      <trkpt lat="45.22631" lon="5.13343">
        <ele>507</ele>
        <time>2016-02-28T12:08:39Z</time>
      </trkpt>
      <trkpt lat="45.22596" lon="5.13312">
        <ele>506</ele>
        <time>2016-02-28T12:10:39Z</time>
      </trkpt>
      <trkpt lat="45.2256" lon="5.13281">
        <ele>505</ele>
        <time>2016-02-28T12:12:39Z</time>
      </trkpt>
      <trkpt lat="45.22544" lon="5.13267">
        <ele>504</ele>
        <time>2016-02-28T12:14:39Z</time>
      </trkpt>
      <trkpt lat="45.22533" lon="5.13257">
        <ele>504</ele>
        <time>2016-02-28T12:16:39Z</time>
      </trkpt>
      <trkpt lat="45.22528" lon="5.13253">
        <ele>504</ele>
        <time>2016-02-28T12:18:39Z</time>
      </trkpt>
      <trkpt lat="45.22522" lon="5.1325">
        <ele>504</ele>
        <time>2016-02-28T12:20:39Z</time>
      </trkpt>
      <trkpt lat="45.22514" lon="5.13246">
        <ele>503</ele>
        <time>2016-02-28T12:22:39Z</time>
      </trkpt>
      <trkpt lat="45.22507" lon="5.13243">
        <ele>503</ele>
        <time>2016-02-28T12:24:39Z</time>
      </trkpt>
      <trkpt lat="45.22492" lon="5.13237">
        <ele>503</ele>
        <time>2016-02-28T12:26:39Z</time>
      </trkpt>
      <trkpt lat="45.2246" lon="5.13224">
        <ele>502</ele>
        <time>2016-02-28T12:28:39Z</time>
      </trkpt>
      <trkpt lat="45.22446" lon="5.13216">
        <ele>502</ele>
        <time>2016-02-28T12:30:39Z</time>
      </trkpt>
      <trkpt lat="45.22426" lon="5.13203">
        <ele>502</ele>
        <time>2016-02-28T12:32:39Z</time>
      </trkpt>
      <trkpt lat="45.22403" lon="5.13185">
        <ele>502</ele>
        <time>2016-02-28T12:34:39Z</time>
      </trkpt>
      <trkpt lat="45.22403" lon="5.13185">
        <ele>502</ele>
        <time>2016-02-28T12:36:39Z</time>
      </trkpt>
      <trkpt lat="45.22406" lon="5.13171">
        <ele>502</ele>
        <time>2016-02-28T12:38:39Z</time>
      </trkpt>
      <trkpt lat="45.22406" lon="5.13164">
        <ele>502</ele>
        <time>2016-02-28T12:40:39Z</time>
      </trkpt>
      <trkpt lat="45.22406" lon="5.13159">
        <ele>502</ele>
        <time>2016-02-28T12:42:39Z</time>
      </trkpt>
      <trkpt lat="45.22405" lon="5.13153">
        <ele>502</ele>
        <time>2016-02-28T12:44:39Z</time>
      </trkpt>
      <trkpt lat="45.22405" lon="5.13148">
        <ele>502</ele>
        <time>2016-02-28T12:46:39Z</time>
      </trkpt>
      <trkpt lat="45.22403" lon="5.13143">
        <ele>502</ele>
        <time>2016-02-28T12:48:39Z</time>
      </trkpt>
      <trkpt lat="45.22402" lon="5.13136">
        <ele>502</ele>
        <time>2016-02-28T12:50:39Z</time>
      </trkpt>
      <trkpt lat="45.22401" lon="5.1313">
        <ele>502</ele>
        <time>2016-02-28T12:52:39Z</time>
      </trkpt>
      <trkpt lat="45.224" lon="5.13125">
        <ele>502</ele>
        <time>2016-02-28T12:54:39Z</time>
      </trkpt>
      <trkpt lat="45.224" lon="5.13119">
        <ele>501</ele>
        <time>2016-02-28T12:56:39Z</time>
      </trkpt>
      <trkpt lat="45.224" lon="5.13112">
        <ele>501</ele>
        <time>2016-02-28T12:58:39Z</time>
      </trkpt>
      <trkpt lat="45.22401" lon="5.13105">
        <ele>501</ele>
        <time>2016-02-28T13:00:39Z</time>
      </trkpt>
      <trkpt lat="45.22404" lon="5.13096">
        <ele>501</ele>
        <time>2016-02-28T13:02:39Z</time>
      </trkpt>
      <trkpt lat="45.22405" lon="5.13089">
        <ele>501</ele>
        <time>2016-02-28T13:04:39Z</time>
      </trkpt>
      <trkpt lat="45.22406" lon="5.13084">
        <ele>501</ele>
        <time>2016-02-28T13:06:39Z</time>
      </trkpt>
      <trkpt lat="45.22407" lon="5.13077">
        <ele>501</ele>
        <time>2016-02-28T13:08:39Z</time>
      </trkpt>
      <trkpt lat="45.22406" lon="5.13073">
        <ele>501</ele>
        <time>2016-02-28T13:10:39Z</time>
      </trkpt>
      <trkpt lat="45.22406" lon="5.13069">
        <ele>501</ele>
        <time>2016-02-28T13:12:39Z</time>
      </trkpt>
      <trkpt lat="45.22404" lon="5.13062">
        <ele>501</ele>
        <time>2016-02-28T13:14:39Z</time>
      </trkpt>
      <trkpt lat="45.22402" lon="5.13056">
        <ele>501</ele>
        <time>2016-02-28T13:16:39Z</time>
      </trkpt>
      <trkpt lat="45.224" lon="5.13051">
        <ele>501</ele>
        <time>2016-02-28T13:18:39Z</time>
      </trkpt>
      <trkpt lat="45.22397" lon="5.13046">
        <ele>501</ele>
        <time>2016-02-28T13:20:39Z</time>
      </trkpt>
      <trkpt lat="45.22394" lon="5.13042">
        <ele>501</ele>
        <time>2016-02-28T13:22:39Z</time>
      </trkpt>
      <trkpt lat="45.22391" lon="5.13037">
        <ele>501</ele>
        <time>2016-02-28T13:24:39Z</time>
      </trkpt>
      <trkpt lat="45.22387" lon="5.13033">
        <ele>501</ele>
        <time>2016-02-28T13:26:39Z</time>
      </trkpt>
      <trkpt lat="45.22381" lon="5.13028">
        <ele>501</ele>
        <time>2016-02-28T13:28:39Z</time>
      </trkpt>
      <trkpt lat="45.22371" lon="5.13022">
        <ele>501</ele>
        <time>2016-02-28T13:30:39Z</time>
      </trkpt>
      <trkpt lat="45.22365" lon="5.13019">
        <ele>501</ele>
        <time>2016-02-28T13:32:39Z</time>
      </trkpt>
      <trkpt lat="45.22362" lon="5.13018">
        <ele>501</ele>
        <time>2016-02-28T13:34:39Z</time>
      </trkpt>
      <trkpt lat="45.22358" lon="5.13017">
        <ele>501</ele>
        <time>2016-02-28T13:36:39Z</time>
      </trkpt>
      <trkpt lat="45.22345" lon="5.13014">
        <ele>501</ele>
        <time>2016-02-28T13:38:39Z</time>
      </trkpt>
      <trkpt lat="45.22332" lon="5.13012">
        <ele>501</ele>
        <time>2016-02-28T13:40:39Z</time>
      </trkpt>
      <trkpt lat="45.22322" lon="5.1301">
        <ele>501</ele>
        <time>2016-02-28T13:42:39Z</time>
      </trkpt>
      <trkpt lat="45.2231" lon="5.13008">
        <ele>501</ele>
        <time>2016-02-28T13:44:39Z</time>
      </trkpt>
      <trkpt lat="45.22305" lon="5.13007">
        <ele>501</ele>
        <time>2016-02-28T13:46:39Z</time>
      </trkpt>
      <trkpt lat="45.22299" lon="5.13005">
        <ele>501</ele>
        <time>2016-02-28T13:48:39Z</time>
      </trkpt>
      <trkpt lat="45.22293" lon="5.13003">
        <ele>501</ele>
        <time>2016-02-28T13:50:39Z</time>
      </trkpt>
      <trkpt lat="45.22288" lon="5.13">
        <ele>501</ele>
        <time>2016-02-28T13:52:39Z</time>
      </trkpt>
      <trkpt lat="45.2228" lon="5.12994">
        <ele>501</ele>
        <time>2016-02-28T13:54:39Z</time>
      </trkpt>
      <trkpt lat="45.22252" lon="5.12972">
        <ele>501</ele>
        <time>2016-02-28T13:56:39Z</time>
      </trkpt>
      <trkpt lat="45.22234" lon="5.12956">
        <ele>501</ele>
        <time>2016-02-28T13:58:39Z</time>
      </trkpt>
      <trkpt lat="45.22217" lon="5.12942">
        <ele>501</ele>
        <time>2016-02-28T14:00:39Z</time>
      </trkpt>
      <trkpt lat="45.22177" lon="5.12911">
        <ele>501</ele>
        <time>2016-02-28T14:02:39Z</time>
      </trkpt>
      <trkpt lat="45.22159" lon="5.12898">
        <ele>501</ele>
        <time>2016-02-28T14:04:39Z</time>
      </trkpt>
      <trkpt lat="45.22144" lon="5.12879">
        <ele>501</ele>
        <time>2016-02-28T14:06:39Z</time>
      </trkpt>
      <trkpt lat="45.22137" lon="5.12869">
        <ele>500</ele>
        <time>2016-02-28T14:08:39Z</time>
      </trkpt>
      <trkpt lat="45.22132" lon="5.12861">
        <ele>500</ele>
        <time>2016-02-28T14:10:39Z</time>
      </trkpt>
      <trkpt lat="45.22126" lon="5.1285">
        <ele>500</ele>
        <time>2016-02-28T14:12:39Z</time>
      </trkpt>
      <trkpt lat="45.22116" lon="5.12832">
        <ele>500</ele>
        <time>2016-02-28T14:14:39Z</time>
      </trkpt>
      <trkpt lat="45.22111" lon="5.12821">
        <ele>500</ele>
        <time>2016-02-28T14:16:39Z</time>
      </trkpt>
      <trkpt lat="45.22107" lon="5.12814">
        <ele>500</ele>
        <time>2016-02-28T14:18:39Z</time>
      </trkpt>
      <trkpt lat="45.22102" lon="5.12799">
        <ele>500</ele>
        <time>2016-02-28T14:20:39Z</time>
      </trkpt>
      <trkpt lat="45.22099" lon="5.12784">
        <ele>500</ele>
        <time>2016-02-28T14:22:39Z</time>
      </trkpt>
      <trkpt lat="45.22095" lon="5.12762">
        <ele>499</ele>
        <time>2016-02-28T14:24:39Z</time>
      </trkpt>
      <trkpt lat="45.22088" lon="5.12721">
        <ele>498</ele>
        <time>2016-02-28T14:26:39Z</time>
      </trkpt>
      <trkpt lat="45.22086" lon="5.12704">
        <ele>497</ele>
        <time>2016-02-28T14:28:39Z</time>
      </trkpt>
      <trkpt lat="45.22086" lon="5.12574">
        <ele>490</ele>
        <time>2016-02-28T14:30:39Z</time>
      </trkpt>
      <trkpt lat="45.2208" lon="5.12543">
        <ele>488</ele>
        <time>2016-02-28T14:32:39Z</time>
      </trkpt>
      <trkpt lat="45.22074" lon="5.12522">
        <ele>487</ele>
        <time>2016-02-28T14:34:39Z</time>
      </trkpt>
      <trkpt lat="45.22068" lon="5.12505">
        <ele>486</ele>
        <time>2016-02-28T14:36:39Z</time>
      </trkpt>
      <trkpt lat="45.22062" lon="5.12493">
        <ele>486</ele>
        <time>2016-02-28T14:38:39Z</time>
      </trkpt>
      <trkpt lat="45.22058" lon="5.12487">
        <ele>485</ele>
        <time>2016-02-28T14:40:39Z</time>
      </trkpt>
      <trkpt lat="45.22044" lon="5.12458">
        <ele>483</ele>
        <time>2016-02-28T14:42:39Z</time>
      </trkpt>
      <trkpt lat="45.22035" lon="5.12435">
        <ele>482</ele>
        <time>2016-02-28T14:44:39Z</time>
      </trkpt>
      <trkpt lat="45.22032" lon="5.12422">
        <ele>481</ele>
        <time>2016-02-28T14:46:39Z</time>
      </trkpt>
      <trkpt lat="45.22023" lon="5.1232">
        <ele>474</ele>
        <time>2016-02-28T14:48:39Z</time>
      </trkpt>
      <trkpt lat="45.22023" lon="5.12272">
        <ele>471</ele>
        <time>2016-02-28T14:50:39Z</time>
      </trkpt>
      <trkpt lat="45.22027" lon="5.12241">
        <ele>469</ele>
        <time>2016-02-28T14:52:39Z</time>
      </trkpt>
      <trkpt lat="45.22054" lon="5.12087">
        <ele>460</ele>
        <time>2016-02-28T14:54:39Z</time>
      </trkpt>
      <trkpt lat="45.2209" lon="5.11865">
        <ele>442</ele>
        <time>2016-02-28T14:56:39Z</time>
      </trkpt>
      <trkpt lat="45.22094" lon="5.11836">
        <ele>440</ele>
        <time>2016-02-28T14:58:39Z</time>
      </trkpt>
      <trkpt lat="45.221" lon="5.11811">
        <ele>439</ele>
        <time>2016-02-28T15:00:39Z</time>
      </trkpt>
      <trkpt lat="45.22177" lon="5.11562">
        <ele>420</ele>
        <time>2016-02-28T15:02:39Z</time>
      </trkpt>
      <trkpt lat="45.22184" lon="5.1155">
        <ele>420</ele>
        <time>2016-02-28T15:04:39Z</time>
      </trkpt>
      <trkpt lat="45.22192" lon="5.11536">
        <ele>420</ele>
        <time>2016-02-28T15:06:39Z</time>
      </trkpt>
      <trkpt lat="45.22203" lon="5.11522">
        <ele>420</ele>
        <time>2016-02-28T15:08:39Z</time>
      </trkpt>
      <trkpt lat="45.22266" lon="5.11487">
        <ele>420</ele>
        <time>2016-02-28T15:10:39Z</time>
      </trkpt>
      <trkpt lat="45.22272" lon="5.11482">
        <ele>420</ele>
        <time>2016-02-28T15:12:39Z</time>
      </trkpt>
      <trkpt lat="45.22278" lon="5.11476">
        <ele>420</ele>
        <time>2016-02-28T15:14:39Z</time>
      </trkpt>
      <trkpt lat="45.22282" lon="5.11469">
        <ele>420</ele>
        <time>2016-02-28T15:16:39Z</time>
      </trkpt>
      <trkpt lat="45.22284" lon="5.11466">
        <ele>420</ele>
        <time>2016-02-28T15:18:39Z</time>
      </trkpt>
      <trkpt lat="45.22289" lon="5.11456">
        <ele>420</ele>
        <time>2016-02-28T15:20:39Z</time>
      </trkpt>
      <trkpt lat="45.2229" lon="5.11451">
        <ele>420</ele>
        <time>2016-02-28T15:22:39Z</time>
      </trkpt>
      <trkpt lat="45.2229" lon="5.11451">
        <ele>420</ele>
        <time>2016-02-28T15:24:39Z</time>
      </trkpt>
      <trkpt lat="45.22292" lon="5.11447">
        <ele>420</ele>
        <time>2016-02-28T15:26:39Z</time>
      </trkpt>
      <trkpt lat="45.22295" lon="5.11433">
        <ele>420</ele>
        <time>2016-02-28T15:28:39Z</time>
      </trkpt>
      <trkpt lat="45.22297" lon="5.11422">
        <ele>421</ele>
        <time>2016-02-28T15:30:39Z</time>
      </trkpt>
      <trkpt lat="45.22298" lon="5.1141">
        <ele>421</ele>
        <time>2016-02-28T15:32:39Z</time>
      </trkpt>
      <trkpt lat="45.22298" lon="5.11403">
        <ele>421</ele>
        <time>2016-02-28T15:34:39Z</time>
      </trkpt>
      <trkpt lat="45.22298" lon="5.11397">
        <ele>422</ele>
        <time>2016-02-28T15:36:39Z</time>
      </trkpt>
      <trkpt lat="45.22297" lon="5.11389">
        <ele>422</ele>
        <time>2016-02-28T15:38:39Z</time>
      </trkpt>
      <trkpt lat="45.22294" lon="5.1138">
        <ele>422</ele>
        <time>2016-02-28T15:40:39Z</time>
      </trkpt>
      <trkpt lat="45.22291" lon="5.11371">
        <ele>422</ele>
        <time>2016-02-28T15:42:39Z</time>
      </trkpt>
      <trkpt lat="45.22288" lon="5.11366">
        <ele>422</ele>
        <time>2016-02-28T15:44:39Z</time>
      </trkpt>
      <trkpt lat="45.22285" lon="5.1136">
        <ele>422</ele>
        <time>2016-02-28T15:46:39Z</time>
      </trkpt>
      <trkpt lat="45.22283" lon="5.11358">
        <ele>422</ele>
        <time>2016-02-28T15:48:39Z</time>
      </trkpt>
      <trkpt lat="45.2226" lon="5.1133">
        <ele>421</ele>
        <time>2016-02-28T15:50:39Z</time>
      </trkpt>
      <trkpt lat="45.22224" lon="5.11281">
        <ele>420</ele>
        <time>2016-02-28T15:52:39Z</time>
      </trkpt>
      <trkpt lat="45.22203" lon="5.11248">
        <ele>420</ele>
        <time>2016-02-28T15:54:39Z</time>
      </trkpt>
      <trkpt lat="45.22181" lon="5.11204">
        <ele>419</ele>
        <time>2016-02-28T15:56:39Z</time>
      </trkpt>
      <trkpt lat="45.22164" lon="5.11163">
        <ele>418</ele>
        <time>2016-02-28T15:58:39Z</time>
      </trkpt>
      <trkpt lat="45.22139" lon="5.11095">
        <ele>416</ele>
        <time>2016-02-28T16:00:39Z</time>
      </trkpt>
      <trkpt lat="45.22128" lon="5.11063">
        <ele>415</ele>
        <time>2016-02-28T16:02:39Z</time>
      </trkpt>
      <trkpt lat="45.22122" lon="5.11039">
        <ele>416</ele>
        <time>2016-02-28T16:04:39Z</time>
      </trkpt>
      <trkpt lat="45.22119" lon="5.11027">
        <ele>416</ele>
        <time>2016-02-28T16:06:39Z</time>
      </trkpt>
      <trkpt lat="45.22086" lon="5.10881">
        <ele>418</ele>
        <time>2016-02-28T16:08:39Z</time>
      </trkpt>
      <trkpt lat="45.22054" lon="5.10715">
        <ele>420</ele>
        <time>2016-02-28T16:10:39Z</time>
      </trkpt>
      <trkpt lat="45.22051" lon="5.10696">
        <ele>421</ele>
        <time>2016-02-28T16:12:39Z</time>
      </trkpt>
      <trkpt lat="45.22047" lon="5.1068">
        <ele>420</ele>
        <time>2016-02-28T16:14:39Z</time>
      </trkpt>
      <trkpt lat="45.21998" lon="5.10506">
        <ele>417</ele>
        <time>2016-02-28T16:16:39Z</time>
      </trkpt>
      <trkpt lat="45.21947" lon="5.10349">
        <ele>413</ele>
        <time>2016-02-28T16:18:39Z</time>
      </trkpt>
      <trkpt lat="45.21941" lon="5.10328">
        <ele>413</ele>
        <time>2016-02-28T16:20:39Z</time>
      </trkpt>
      <trkpt lat="45.21918" lon="5.10257">
        <ele>408</ele>
        <time>2016-02-28T16:22:39Z</time>
      </trkpt>
      <trkpt lat="45.21914" lon="5.10242">
        <ele>407</ele>
        <time>2016-02-28T16:24:39Z</time>
      </trkpt>
      <trkpt lat="45.21911" lon="5.10225">
        <ele>406</ele>
        <time>2016-02-28T16:26:39Z</time>
      </trkpt>
      <trkpt lat="45.21909" lon="5.10213">
        <ele>406</ele>
        <time>2016-02-28T16:28:39Z</time>
      </trkpt>
      <trkpt lat="45.21906" lon="5.10177">
        <ele>405</ele>
        <time>2016-02-28T16:30:39Z</time>
      </trkpt>
      <trkpt lat="45.21904" lon="5.10029">
        <ele>401</ele>
        <time>2016-02-28T16:32:39Z</time>
      </trkpt>
      <trkpt lat="45.21902" lon="5.09988">
        <ele>399</ele>
        <time>2016-02-28T16:34:39Z</time>
      </trkpt>
      <trkpt lat="45.21901" lon="5.09975">
        <ele>399</ele>
        <time>2016-02-28T16:36:39Z</time>
      </trkpt>
      <trkpt lat="45.219" lon="5.09957">
        <ele>398</ele>
        <time>2016-02-28T16:38:39Z</time>
      </trkpt>
      <trkpt lat="45.21898" lon="5.0991">
        <ele>397</ele>
        <time>2016-02-28T16:40:39Z</time>
      </trkpt>
      <trkpt lat="45.21896" lon="5.09828">
        <ele>394</ele>
        <time>2016-02-28T16:42:39Z</time>
      </trkpt>
      <trkpt lat="45.21901" lon="5.09714">
        <ele>388</ele>
        <time>2016-02-28T16:44:39Z</time>
      </trkpt>
      <trkpt lat="45.21902" lon="5.09646">
        <ele>383</ele>
        <time>2016-02-28T16:46:39Z</time>
      </trkpt>
      <trkpt lat="45.21902" lon="5.09632">
        <ele>382</ele>
        <time>2016-02-28T16:48:39Z</time>
      </trkpt>
      <trkpt lat="45.21903" lon="5.09612">
        <ele>381</ele>
        <time>2016-02-28T16:50:39Z</time>
      </trkpt>
      <trkpt lat="45.21903" lon="5.09602">
        <ele>381</ele>
        <time>2016-02-28T16:52:39Z</time>
      </trkpt>
      <trkpt lat="45.21904" lon="5.0959">
        <ele>380</ele>
        <time>2016-02-28T16:54:39Z</time>
      </trkpt>
      <trkpt lat="45.21908" lon="5.09563">
        <ele>379</ele>
        <time>2016-02-28T16:56:39Z</time>
      </trkpt>
      <trkpt lat="45.21916" lon="5.09521">
        <ele>378</ele>
        <time>2016-02-28T16:58:39Z</time>
      </trkpt>
      <trkpt lat="45.21941" lon="5.09374">
        <ele>378</ele>
        <time>2016-02-28T17:00:39Z</time>
      </trkpt>
      <trkpt lat="45.21943" lon="5.09357">
        <ele>378</ele>
        <time>2016-02-28T17:02:39Z</time>
      </trkpt>
      <trkpt lat="45.21944" lon="5.09343">
        <ele>378</ele>
        <time>2016-02-28T17:04:39Z</time>
      </trkpt>
      <trkpt lat="45.21943" lon="5.09324">
        <ele>378</ele>
        <time>2016-02-28T17:06:39Z</time>
      </trkpt>
      <trkpt lat="45.21937" lon="5.09284">
        <ele>377</ele>
        <time>2016-02-28T17:08:39Z</time>
      </trkpt>
      <trkpt lat="45.21933" lon="5.09261">
        <ele>377</ele>
        <time>2016-02-28T17:10:39Z</time>
      </trkpt>
      <trkpt lat="45.2193" lon="5.09239">
        <ele>376</ele>
        <time>2016-02-28T17:12:39Z</time>
      </trkpt>
      <trkpt lat="45.21926" lon="5.09217">
        <ele>376</ele>
        <time>2016-02-28T17:14:39Z</time>
      </trkpt>
      <trkpt lat="45.21925" lon="5.09212">
        <ele>376</ele>
        <time>2016-02-28T17:16:39Z</time>
      </trkpt>
      <trkpt lat="45.21924" lon="5.09206">
        <ele>376</ele>
        <time>2016-02-28T17:18:39Z</time>
      </trkpt>
      <trkpt lat="45.2192" lon="5.09186">
        <ele>376</ele>
        <time>2016-02-28T17:20:39Z</time>
      </trkpt>
      <trkpt lat="45.21917" lon="5.09179">
        <ele>376</ele>
        <time>2016-02-28T17:22:39Z</time>
      </trkpt>
      <trkpt lat="45.21908" lon="5.09154">
        <ele>376</ele>
        <time>2016-02-28T17:24:39Z</time>
      </trkpt>
      <trkpt lat="45.21893" lon="5.09121">
        <ele>376</ele>
        <time>2016-02-28T17:26:39Z</time>
      </trkpt>
      <trkpt lat="45.2187" lon="5.09062">
        <ele>376</ele>
        <time>2016-02-28T17:28:39Z</time>
      </trkpt>
      <trkpt lat="45.21815" lon="5.08912">
        <ele>376</ele>
        <time>2016-02-28T17:30:39Z</time>
      </trkpt>
      <trkpt lat="45.21804" lon="5.08882">
        <ele>375</ele>
        <time>2016-02-28T17:32:39Z</time>
      </trkpt>
      <trkpt lat="45.21798" lon="5.08857">
        <ele>374</ele>
        <time>2016-02-28T17:34:39Z</time>
      </trkpt>
      <trkpt lat="45.21796" lon="5.08841">
        <ele>374</ele>
        <time>2016-02-28T17:36:39Z</time>
      </trkpt>
      <trkpt lat="45.21795" lon="5.08828">
        <ele>374</ele>
        <time>2016-02-28T17:38:39Z</time>
      </trkpt>
      <trkpt lat="45.21795" lon="5.08818">
        <ele>374</ele>
        <time>2016-02-28T17:40:39Z</time>
      </trkpt>
      <trkpt lat="45.21796" lon="5.08798">
        <ele>375</ele>
        <time>2016-02-28T17:42:39Z</time>
      </trkpt>
      <trkpt lat="45.21798" lon="5.08781">
        <ele>375</ele>
        <time>2016-02-28T17:44:39Z</time>
      </trkpt>
      <trkpt lat="45.218" lon="5.08758">
        <ele>376</ele>
        <time>2016-02-28T17:46:39Z</time>
      </trkpt>
      <trkpt lat="45.21814" lon="5.08615">
        <ele>374</ele>
        <time>2016-02-28T17:48:39Z</time>
      </trkpt>
      <trkpt lat="45.21827" lon="5.08471">
        <ele>369</ele>
        <time>2016-02-28T17:50:39Z</time>
      </trkpt>
      <trkpt lat="45.2184" lon="5.08327">
        <ele>365</ele>
        <time>2016-02-28T17:52:39Z</time>
      </trkpt>
      <trkpt lat="45.21841" lon="5.08306">
        <ele>364</ele>
        <time>2016-02-28T17:54:39Z</time>
      </trkpt>
      <trkpt lat="45.21842" lon="5.08278">
        <ele>364</ele>
        <time>2016-02-28T17:56:39Z</time>
      </trkpt>
      <trkpt lat="45.21839" lon="5.0825">
        <ele>363</ele>
        <time>2016-02-28T17:58:39Z</time>
      </trkpt>
      <trkpt lat="45.21836" lon="5.08232">
        <ele>363</ele>
        <time>2016-02-28T18:00:39Z</time>
      </trkpt>
      <trkpt lat="45.21826" lon="5.08181">
        <ele>363</ele>
        <time>2016-02-28T18:02:39Z</time>
      </trkpt>
      <trkpt lat="45.21817" lon="5.08147">
        <ele>363</ele>
        <time>2016-02-28T18:04:39Z</time>
      </trkpt>
      <trkpt lat="45.21759" lon="5.0797">
        <ele>361</ele>
        <time>2016-02-28T18:06:39Z</time>
      </trkpt>
      <trkpt lat="45.21727" lon="5.07872">
        <ele>360</ele>
        <time>2016-02-28T18:08:39Z</time>
      </trkpt>
      <trkpt lat="45.21703" lon="5.07796">
        <ele>360</ele>
        <time>2016-02-28T18:10:39Z</time>
      </trkpt>
      <trkpt lat="45.21693" lon="5.07766">
        <ele>360</ele>
        <time>2016-02-28T18:12:39Z</time>
      </trkpt>
      <trkpt lat="45.21681" lon="5.07734">
        <ele>360</ele>
        <time>2016-02-28T18:14:39Z</time>
      </trkpt>
      <trkpt lat="45.21672" lon="5.07715">
        <ele>360</ele>
        <time>2016-02-28T18:16:39Z</time>
      </trkpt>
      <trkpt lat="45.21668" lon="5.07705">
        <ele>360</ele>
        <time>2016-02-28T18:18:39Z</time>
      </trkpt>
      <trkpt lat="45.21664" lon="5.07695">
        <ele>360</ele>
        <time>2016-02-28T18:20:39Z</time>
      </trkpt>
      <trkpt lat="45.21655" lon="5.07673">
        <ele>360</ele>
        <time>2016-02-28T18:22:39Z</time>
      </trkpt>
      <trkpt lat="45.21652" lon="5.07667">
        <ele>360</ele>
        <time>2016-02-28T18:24:39Z</time>
      </trkpt>
      <trkpt lat="45.21649" lon="5.07655">
        <ele>360</ele>
        <time>2016-02-28T18:26:39Z</time>
      </trkpt>
      <trkpt lat="45.21646" lon="5.07646">
        <ele>360</ele>
        <time>2016-02-28T18:28:39Z</time>
      </trkpt>
      <trkpt lat="45.21645" lon="5.07632">
        <ele>360</ele>
        <time>2016-02-28T18:30:39Z</time>
      </trkpt>
      <trkpt lat="45.21645" lon="5.07626">
        <ele>360</ele>
        <time>2016-02-28T18:32:39Z</time>
      </trkpt>
      <trkpt lat="45.21646" lon="5.07618">
        <ele>360</ele>
        <time>2016-02-28T18:34:39Z</time>
      </trkpt>
      <trkpt lat="45.21647" lon="5.07611">
        <ele>360</ele>
        <time>2016-02-28T18:36:39Z</time>
      </trkpt>
      <trkpt lat="45.21649" lon="5.07604">
        <ele>360</ele>
        <time>2016-02-28T18:38:39Z</time>
      </trkpt>
      <trkpt lat="45.21652" lon="5.07595">
        <ele>360</ele>
        <time>2016-02-28T18:40:39Z</time>
      </trkpt>
      <trkpt lat="45.21664" lon="5.07557">
        <ele>361</ele>
        <time>2016-02-28T18:42:39Z</time>
      </trkpt>
      <trkpt lat="45.21666" lon="5.07548">
        <ele>362</ele>
        <time>2016-02-28T18:44:39Z</time>
      </trkpt>
      <trkpt lat="45.2167" lon="5.07528">
        <ele>363</ele>
        <time>2016-02-28T18:46:39Z</time>
      </trkpt>
      <trkpt lat="45.2167" lon="5.07528">
        <ele>363</ele>
        <time>2016-02-28T18:48:39Z</time>
      </trkpt>
      <trkpt lat="45.2161" lon="5.07498">
        <ele>364</ele>
        <time>2016-02-28T18:50:39Z</time>
      </trkpt>
      <trkpt lat="45.21503" lon="5.07443">
        <ele>364</ele>
        <time>2016-02-28T18:52:39Z</time>
      </trkpt>
      <trkpt lat="45.21351" lon="5.07369">
        <ele>354</ele>
        <time>2016-02-28T18:54:39Z</time>
      </trkpt>
      <trkpt lat="45.21329" lon="5.07359">
        <ele>353</ele>
        <time>2016-02-28T18:56:39Z</time>
      </trkpt>
      <trkpt lat="45.21321" lon="5.07355">
        <ele>352</ele>
        <time>2016-02-28T18:58:39Z</time>
      </trkpt>
      <trkpt lat="45.21314" lon="5.0735">
        <ele>352</ele>
        <time>2016-02-28T19:00:39Z</time>
      </trkpt>
      <trkpt lat="45.21306" lon="5.07345">
        <ele>351</ele>
        <time>2016-02-28T19:02:39Z</time>
      </trkpt>
      <trkpt lat="45.21293" lon="5.07335">
        <ele>351</ele>
        <time>2016-02-28T19:04:39Z</time>
      </trkpt>
      <trkpt lat="45.21252" lon="5.07294">
        <ele>349</ele>
        <time>2016-02-28T19:06:39Z</time>
      </trkpt>
      <trkpt lat="45.21237" lon="5.0728">
        <ele>349</ele>
        <time>2016-02-28T19:08:39Z</time>
      </trkpt>
      <trkpt lat="45.21224" lon="5.07269">
        <ele>349</ele>
        <time>2016-02-28T19:10:39Z</time>
      </trkpt>
      <trkpt lat="45.21218" lon="5.07264">
        <ele>349</ele>
        <time>2016-02-28T19:12:39Z</time>
      </trkpt>
      <trkpt lat="45.21215" lon="5.07261">
        <ele>349</ele>
        <time>2016-02-28T19:14:39Z</time>
      </trkpt>
      <trkpt lat="45.2121" lon="5.07257">
        <ele>349</ele>
        <time>2016-02-28T19:16:39Z</time>
      </trkpt>
      <trkpt lat="45.21183" lon="5.07244">
        <ele>347</ele>
        <time>2016-02-28T19:18:39Z</time>
      </trkpt>
      <trkpt lat="45.21154" lon="5.07226">
        <ele>346</ele>
        <time>2016-02-28T19:20:39Z</time>
      </trkpt>
      <trkpt lat="45.21141" lon="5.07218">
        <ele>346</ele>
        <time>2016-02-28T19:22:39Z</time>
      </trkpt>
      <trkpt lat="45.21129" lon="5.07213">
        <ele>346</ele>
        <time>2016-02-28T19:24:39Z</time>
      </trkpt>
      <trkpt lat="45.21121" lon="5.07208">
        <ele>346</ele>
        <time>2016-02-28T19:26:39Z</time>
      </trkpt>
      <trkpt lat="45.21115" lon="5.07205">
        <ele>346</ele>
        <time>2016-02-28T19:28:39Z</time>
      </trkpt>
      <trkpt lat="45.211" lon="5.07198">
        <ele>345</ele>
        <time>2016-02-28T19:30:39Z</time>
      </trkpt>
      <trkpt lat="45.21089" lon="5.07193">
        <ele>345</ele>
        <time>2016-02-28T19:32:39Z</time>
      </trkpt>
      <trkpt lat="45.21086" lon="5.07192">
        <ele>345</ele>
        <time>2016-02-28T19:34:39Z</time>
      </trkpt>
      <trkpt lat="45.21077" lon="5.0719">
        <ele>344</ele>
        <time>2016-02-28T19:36:39Z</time>
      </trkpt>
      <trkpt lat="45.21058" lon="5.07185">
        <ele>343</ele>
        <time>2016-02-28T19:38:39Z</time>
      </trkpt>
      <trkpt lat="45.21006" lon="5.07169">
        <ele>340</ele>
        <time>2016-02-28T19:40:39Z</time>
      </trkpt>
      <trkpt lat="45.20984" lon="5.07164">
        <ele>340</ele>
        <time>2016-02-28T19:42:39Z</time>
      </trkpt>
      <trkpt lat="45.20952" lon="5.07152">
        <ele>340</ele>
        <time>2016-02-28T19:44:39Z</time>
      </trkpt>
      <trkpt lat="45.20936" lon="5.07144">
        <ele>340</ele>
        <time>2016-02-28T19:46:39Z</time>
      </trkpt>
      <trkpt lat="45.20917" lon="5.07132">
        <ele>340</ele>
        <time>2016-02-28T19:48:39Z</time>
      </trkpt>
      <trkpt lat="45.20878" lon="5.07102">
        <ele>340</ele>
        <time>2016-02-28T19:50:39Z</time>
      </trkpt>
      <trkpt lat="45.20842" lon="5.07074">
        <ele>340</ele>
        <time>2016-02-28T19:52:39Z</time>
      </trkpt>
      <trkpt lat="45.2082" lon="5.07058">
        <ele>340</ele>
        <time>2016-02-28T19:54:39Z</time>
      </trkpt>
      <trkpt lat="45.20808" lon="5.07049">
        <ele>340</ele>
        <time>2016-02-28T19:56:39Z</time>
      </trkpt>
      <trkpt lat="45.20796" lon="5.07039">
        <ele>340</ele>
        <time>2016-02-28T19:58:39Z</time>
      </trkpt>
      <trkpt lat="45.20787" lon="5.07031">
        <ele>340</ele>
        <time>2016-02-28T20:00:39Z</time>
      </trkpt>
      <trkpt lat="45.20779" lon="5.07022">
        <ele>340</ele>
        <time>2016-02-28T20:02:39Z</time>
      </trkpt>
      <trkpt lat="45.20768" lon="5.0701">
        <ele>340</ele>
        <time>2016-02-28T20:04:39Z</time>
      </trkpt>
      <trkpt lat="45.20756" lon="5.06996">
        <ele>340</ele>
        <time>2016-02-28T20:06:39Z</time>
      </trkpt>
      <trkpt lat="45.20739" lon="5.06977">
        <ele>340</ele>
        <time>2016-02-28T20:08:39Z</time>
      </trkpt>
      <trkpt lat="45.20721" lon="5.06955">
        <ele>340</ele>
        <time>2016-02-28T20:10:39Z</time>
      </trkpt>
      <trkpt lat="45.20711" lon="5.0694">
        <ele>340</ele>
        <time>2016-02-28T20:12:39Z</time>
      </trkpt>
      <trkpt lat="45.20712" lon="5.06938">
        <ele>340</ele>
        <time>2016-02-28T20:14:39Z</time>
      </trkpt>
      <trkpt lat="45.20713" lon="5.06936">
        <ele>340</ele>
        <time>2016-02-28T20:16:39Z</time>
      </trkpt>
      <trkpt lat="45.20714" lon="5.06934">
        <ele>340</ele>
        <time>2016-02-28T20:18:39Z</time>
      </trkpt>
      <trkpt lat="45.20714" lon="5.06931">
        <ele>340</ele>
        <time>2016-02-28T20:20:39Z</time>
      </trkpt>
      <trkpt lat="45.20714" lon="5.06929">
        <ele>340</ele>
        <time>2016-02-28T20:22:39Z</time>
      </trkpt>
      <trkpt lat="45.20714" lon="5.06927">
        <ele>340</ele>
        <time>2016-02-28T20:24:39Z</time>
      </trkpt>
      <trkpt lat="45.20713" lon="5.06924">
        <ele>340</ele>
        <time>2016-02-28T20:26:39Z</time>
      </trkpt>
      <trkpt lat="45.20711" lon="5.06922">
        <ele>340</ele>
        <time>2016-02-28T20:28:39Z</time>
      </trkpt>
      <trkpt lat="45.20708" lon="5.0692">
        <ele>340</ele>
        <time>2016-02-28T20:30:39Z</time>
      </trkpt>
      <trkpt lat="45.20706" lon="5.0692">
        <ele>340</ele>
        <time>2016-02-28T20:32:39Z</time>
      </trkpt>
      <trkpt lat="45.20704" lon="5.0692">
        <ele>340</ele>
        <time>2016-02-28T20:34:39Z</time>
      </trkpt>
      <trkpt lat="45.20702" lon="5.0692">
        <ele>340</ele>
        <time>2016-02-28T20:36:39Z</time>
      </trkpt>
      <trkpt lat="45.207" lon="5.06921">
        <ele>340</ele>
        <time>2016-02-28T20:38:39Z</time>
      </trkpt>
      <trkpt lat="45.20698" lon="5.06922">
        <ele>340</ele>
        <time>2016-02-28T20:40:39Z</time>
      </trkpt>
      <trkpt lat="45.20696" lon="5.06925">
        <ele>340</ele>
        <time>2016-02-28T20:42:39Z</time>
      </trkpt>
      <trkpt lat="45.2069" lon="5.06919">
        <ele>340</ele>
        <time>2016-02-28T20:44:39Z</time>
      </trkpt>
      <trkpt lat="45.20684" lon="5.06912">
        <ele>340</ele>
        <time>2016-02-28T20:46:39Z</time>
      </trkpt>
      <trkpt lat="45.20679" lon="5.06904">
        <ele>340</ele>
        <time>2016-02-28T20:48:39Z</time>
      </trkpt>
      <trkpt lat="45.20674" lon="5.06898">
        <ele>340</ele>
        <time>2016-02-28T20:50:39Z</time>
      </trkpt>
      <trkpt lat="45.20672" lon="5.06892">
        <ele>340</ele>
        <time>2016-02-28T20:52:39Z</time>
      </trkpt>
      <trkpt lat="45.20668" lon="5.06885">
        <ele>340</ele>
        <time>2016-02-28T20:54:39Z</time>
      </trkpt>
      <trkpt lat="45.20665" lon="5.06877">
        <ele>340</ele>
        <time>2016-02-28T20:56:39Z</time>
      </trkpt>
      <trkpt lat="45.20661" lon="5.0687">
        <ele>340</ele>
        <time>2016-02-28T20:58:39Z</time>
      </trkpt>
      <trkpt lat="45.20658" lon="5.0686">
        <ele>340</ele>
        <time>2016-02-28T21:00:39Z</time>
      </trkpt>
      <trkpt lat="45.20654" lon="5.06852">
        <ele>340</ele>
        <time>2016-02-28T21:02:39Z</time>
      </trkpt>
      <trkpt lat="45.20649" lon="5.06836">
        <ele>340</ele>
        <time>2016-02-28T21:04:39Z</time>
      </trkpt>
      <trkpt lat="45.20645" lon="5.06827">
        <ele>340</ele>
        <time>2016-02-28T21:06:39Z</time>
      </trkpt>
      <trkpt lat="45.20643" lon="5.0682">
        <ele>340</ele>
        <time>2016-02-28T21:08:39Z</time>
      </trkpt>
      <trkpt lat="45.20639" lon="5.06812">
        <ele>340</ele>
        <time>2016-02-28T21:10:39Z</time>
      </trkpt>
      <trkpt lat="45.20635" lon="5.06806">
        <ele>340</ele>
        <time>2016-02-28T21:12:39Z</time>
      </trkpt>
      <trkpt lat="45.20628" lon="5.06798">
        <ele>340</ele>
        <time>2016-02-28T21:14:39Z</time>
      </trkpt>
      <trkpt lat="45.20626" lon="5.06794">
        <ele>340</ele>
        <time>2016-02-28T21:16:39Z</time>
      </trkpt>
      <trkpt lat="45.20625" lon="5.06793">
        <ele>340</ele>
        <time>2016-02-28T21:18:39Z</time>
      </trkpt>
      <trkpt lat="45.20618" lon="5.06783">
        <ele>340</ele>
        <time>2016-02-28T21:20:39Z</time>
      </trkpt>
      <trkpt lat="45.20601" lon="5.06757">
        <ele>340</ele>
        <time>2016-02-28T21:22:39Z</time>
      </trkpt>
      <trkpt lat="45.20594" lon="5.06747">
        <ele>340</ele>
        <time>2016-02-28T21:24:39Z</time>
      </trkpt>
      <trkpt lat="45.20586" lon="5.06734">
        <ele>340</ele>
        <time>2016-02-28T21:26:39Z</time>
      </trkpt>
      <trkpt lat="45.20559" lon="5.06693">
        <ele>339</ele>
        <time>2016-02-28T21:28:39Z</time>
      </trkpt>
      <trkpt lat="45.20546" lon="5.06673">
        <ele>339</ele>
        <time>2016-02-28T21:30:39Z</time>
      </trkpt>
      <trkpt lat="45.20539" lon="5.06661">
        <ele>339</ele>
        <time>2016-02-28T21:32:39Z</time>
      </trkpt>
      <trkpt lat="45.2053" lon="5.06649">
        <ele>339</ele>
        <time>2016-02-28T21:34:39Z</time>
      </trkpt>
      <trkpt lat="45.20525" lon="5.06642">
        <ele>339</ele>
        <time>2016-02-28T21:36:39Z</time>
      </trkpt>
      <trkpt lat="45.20522" lon="5.06637">
        <ele>339</ele>
        <time>2016-02-28T21:38:39Z</time>
      </trkpt>
      <trkpt lat="45.20515" lon="5.06627">
        <ele>339</ele>
        <time>2016-02-28T21:40:39Z</time>
      </trkpt>
      <trkpt lat="45.2051" lon="5.0662">
        <ele>339</ele>
        <time>2016-02-28T21:42:39Z</time>
      </trkpt>
      <trkpt lat="45.20492" lon="5.06593">
        <ele>338</ele>
        <time>2016-02-28T21:44:39Z</time>
      </trkpt>
      <trkpt lat="45.20476" lon="5.0657">
        <ele>338</ele>
        <time>2016-02-28T21:46:39Z</time>
      </trkpt>
      <trkpt lat="45.20447" lon="5.0653">
        <ele>339</ele>
        <time>2016-02-28T21:48:39Z</time>
      </trkpt>
      <trkpt lat="45.20438" lon="5.06517">
        <ele>339</ele>
        <time>2016-02-28T21:50:39Z</time>
      </trkpt>
      <trkpt lat="45.20432" lon="5.06508">
        <ele>339</ele>
        <time>2016-02-28T21:52:39Z</time>
      </trkpt>
      <trkpt lat="45.20426" lon="5.065">
        <ele>339</ele>
        <time>2016-02-28T21:54:39Z</time>
      </trkpt>
      <trkpt lat="45.20419" lon="5.0649">
        <ele>338</ele>
        <time>2016-02-28T21:56:39Z</time>
      </trkpt>
      <trkpt lat="45.2041" lon="5.06479">
        <ele>338</ele>
        <time>2016-02-28T21:58:39Z</time>
      </trkpt>
      <trkpt lat="45.20405" lon="5.06475">
        <ele>338</ele>
        <time>2016-02-28T22:00:39Z</time>
      </trkpt>
      <trkpt lat="45.20399" lon="5.06471">
        <ele>338</ele>
        <time>2016-02-28T22:02:39Z</time>
      </trkpt>
      <trkpt lat="45.20383" lon="5.06461">
        <ele>338</ele>
        <time>2016-02-28T22:04:39Z</time>
      </trkpt>
      <trkpt lat="45.20378" lon="5.0646">
        <ele>338</ele>
        <time>2016-02-28T22:06:39Z</time>
      </trkpt>
      <trkpt lat="45.20377" lon="5.06459">
        <ele>338</ele>
        <time>2016-02-28T22:08:39Z</time>
      </trkpt>
      <trkpt lat="45.20376" lon="5.06458">
        <ele>338</ele>
        <time>2016-02-28T22:10:39Z</time>
      </trkpt>
      <trkpt lat="45.20363" lon="5.06447">
        <ele>338</ele>
        <time>2016-02-28T22:12:39Z</time>
      </trkpt>
      <trkpt lat="45.20344" lon="5.06431">
        <ele>339</ele>
        <time>2016-02-28T22:14:39Z</time>
      </trkpt>
      <trkpt lat="45.20314" lon="5.06404">
        <ele>340</ele>
        <time>2016-02-28T22:16:39Z</time>
      </trkpt>
      <trkpt lat="45.20288" lon="5.0638">
        <ele>341</ele>
        <time>2016-02-28T22:18:39Z</time>
      </trkpt>
      <trkpt lat="45.2027" lon="5.06366">
        <ele>341</ele>
        <time>2016-02-28T22:20:39Z</time>
      </trkpt>
      <trkpt lat="45.20262" lon="5.06361">
        <ele>341</ele>
        <time>2016-02-28T22:22:39Z</time>
      </trkpt>
      <trkpt lat="45.20245" lon="5.0635">
        <ele>341</ele>
        <time>2016-02-28T22:24:39Z</time>
      </trkpt>
      <trkpt lat="45.20223" lon="5.06336">
        <ele>340</ele>
        <time>2016-02-28T22:26:39Z</time>
      </trkpt>
      <trkpt lat="45.20188" lon="5.06313">
        <ele>339</ele>
        <time>2016-02-28T22:28:39Z</time>
      </trkpt>
      <trkpt lat="45.2018" lon="5.06309">
        <ele>338</ele>
        <time>2016-02-28T22:30:39Z</time>
      </trkpt>
      <trkpt lat="45.20153" lon="5.0629">
        <ele>338</ele>
        <time>2016-02-28T22:32:39Z</time>
      </trkpt>
      <trkpt lat="45.20096" lon="5.06256">
        <ele>336</ele>
        <time>2016-02-28T22:34:39Z</time>
      </trkpt>
      <trkpt lat="45.20075" lon="5.06243">
        <ele>335</ele>
        <time>2016-02-28T22:36:39Z</time>
      </trkpt>
      <trkpt lat="45.20027" lon="5.06213">
        <ele>333</ele>
        <time>2016-02-28T22:38:39Z</time>
      </trkpt>
      <trkpt lat="45.19976" lon="5.0618">
        <ele>330</ele>
        <time>2016-02-28T22:40:39Z</time>
      </trkpt>
      <trkpt lat="45.19948" lon="5.06163">
        <ele>327</ele>
        <time>2016-02-28T22:42:39Z</time>
      </trkpt>
      <trkpt lat="45.19933" lon="5.06152">
        <ele>326</ele>
        <time>2016-02-28T22:44:39Z</time>
      </trkpt>
      <trkpt lat="45.1992" lon="5.06141">
        <ele>325</ele>
        <time>2016-02-28T22:46:39Z</time>
      </trkpt>
      <trkpt lat="45.1991" lon="5.06133">
        <ele>324</ele>
        <time>2016-02-28T22:48:39Z</time>
      </trkpt>
      <trkpt lat="45.19869" lon="5.06091">
        <ele>323</ele>
        <time>2016-02-28T22:50:39Z</time>
      </trkpt>
      <trkpt lat="45.19868" lon="5.0609">
        <ele>323</ele>
        <time>2016-02-28T22:52:39Z</time>
      </trkpt>
      <trkpt lat="45.1984" lon="5.06063">
        <ele>321</ele>
        <time>2016-02-28T22:54:39Z</time>
      </trkpt>
      <trkpt lat="45.19791" lon="5.06018">
        <ele>321</ele>
        <time>2016-02-28T22:56:39Z</time>
      </trkpt>
      <trkpt lat="45.19771" lon="5.06">
        <ele>321</ele>
        <time>2016-02-28T22:58:39Z</time>
      </trkpt>
      <trkpt lat="45.19721" lon="5.05951">
        <ele>321</ele>
        <time>2016-02-28T23:00:39Z</time>
      </trkpt>
      <trkpt lat="45.19719" lon="5.05949">
        <ele>321</ele>
        <time>2016-02-28T23:02:39Z</time>
      </trkpt>
      <trkpt lat="45.19704" lon="5.05934">
        <ele>321</ele>
        <time>2016-02-28T23:04:39Z</time>
      </trkpt>
      <trkpt lat="45.19674" lon="5.05905">
        <ele>320</ele>
        <time>2016-02-28T23:06:39Z</time>
      </trkpt>
      <trkpt lat="45.19669" lon="5.05899">
        <ele>320</ele>
        <time>2016-02-28T23:08:39Z</time>
      </trkpt>
      <trkpt lat="45.19667" lon="5.05897">
        <ele>320</ele>
        <time>2016-02-28T23:10:39Z</time>
      </trkpt>
      <trkpt lat="45.1966" lon="5.05889">
        <ele>320</ele>
        <time>2016-02-28T23:12:39Z</time>
      </trkpt>
      <trkpt lat="45.19653" lon="5.0588">
        <ele>320</ele>
        <time>2016-02-28T23:14:39Z</time>
      </trkpt>
      <trkpt lat="45.19646" lon="5.05867">
        <ele>320</ele>
        <time>2016-02-28T23:16:39Z</time>
      </trkpt>
      <trkpt lat="45.19635" lon="5.05844">
        <ele>320</ele>
        <time>2016-02-28T23:18:39Z</time>
      </trkpt>
      <trkpt lat="45.19625" lon="5.05817">
        <ele>320</ele>
        <time>2016-02-28T23:20:39Z</time>
      </trkpt>
      <trkpt lat="45.19617" lon="5.05793">
        <ele>320</ele>
        <time>2016-02-28T23:22:39Z</time>
      </trkpt>
      <trkpt lat="45.19612" lon="5.0578">
        <ele>320</ele>
        <time>2016-02-28T23:24:39Z</time>
      </trkpt>
      <trkpt lat="45.19609" lon="5.05767">
        <ele>320</ele>
        <time>2016-02-28T23:26:39Z</time>
      </trkpt>
      <trkpt lat="45.19606" lon="5.05759">
        <ele>320</ele>
        <time>2016-02-28T23:28:39Z</time>
      </trkpt>
      <trkpt lat="45.19604" lon="5.05749">
        <ele>320</ele>
        <time>2016-02-28T23:30:39Z</time>
      </trkpt>
      <trkpt lat="45.19603" lon="5.05743">
        <ele>320</ele>
        <time>2016-02-28T23:32:39Z</time>
      </trkpt>
      <trkpt lat="45.19601" lon="5.05735">
        <ele>320</ele>
        <time>2016-02-28T23:34:39Z</time>
      </trkpt>
      <trkpt lat="45.19598" lon="5.05719">
        <ele>320</ele>
        <time>2016-02-28T23:36:39Z</time>
      </trkpt>
      <trkpt lat="45.19595" lon="5.05703">
        <ele>320</ele>
        <time>2016-02-28T23:38:39Z</time>
      </trkpt>
      <trkpt lat="45.19591" lon="5.05686">
        <ele>320</ele>
        <time>2016-02-28T23:40:39Z</time>
      </trkpt>
      <trkpt lat="45.19588" lon="5.05677">
        <ele>320</ele>
        <time>2016-02-28T23:42:39Z</time>
      </trkpt>
      <trkpt lat="45.19584" lon="5.05667">
        <ele>320</ele>
        <time>2016-02-28T23:44:39Z</time>
      </trkpt>
      <trkpt lat="45.1958" lon="5.05658">
        <ele>320</ele>
        <time>2016-02-28T23:46:39Z</time>
      </trkpt>
      <trkpt lat="45.19576" lon="5.05649">
        <ele>320</ele>
        <time>2016-02-28T23:48:39Z</time>
      </trkpt>
      <trkpt lat="45.19567" lon="5.05633">
        <ele>320</ele>
        <time>2016-02-28T23:50:39Z</time>
      </trkpt>
      <trkpt lat="45.19541" lon="5.05589">
        <ele>319</ele>
        <time>2016-02-28T23:52:39Z</time>
      </trkpt>
      <trkpt lat="45.1953" lon="5.05573">
        <ele>319</ele>
        <time>2016-02-28T23:54:39Z</time>
      </trkpt>
      <trkpt lat="45.19529" lon="5.05572">
        <ele>319</ele>
        <time>2016-02-28T23:56:39Z</time>
      </trkpt>
      <trkpt lat="45.1952" lon="5.0556">
        <ele>318</ele>
        <time>2016-02-28T23:58:39Z</time>
      </trkpt>
      <trkpt lat="45.19513" lon="5.05552">
        <ele>318</ele>
        <time>2016-02-29T00:00:39Z</time>
      </trkpt>
      <trkpt lat="45.19512" lon="5.0555">
        <ele>318</ele>
        <time>2016-02-29T00:02:39Z</time>
      </trkpt>
      <trkpt lat="45.19505" lon="5.05544">
        <ele>317</ele>
        <time>2016-02-29T00:04:39Z</time>
      </trkpt>
      <trkpt lat="45.19445" lon="5.05485">
        <ele>318</ele>
        <time>2016-02-29T00:06:39Z</time>
      </trkpt>
      <trkpt lat="45.19437" lon="5.05478">
        <ele>318</ele>
        <time>2016-02-29T00:08:39Z</time>
      </trkpt>
      <trkpt lat="45.19434" lon="5.05474">
        <ele>318</ele>
        <time>2016-02-29T00:10:39Z</time>
      </trkpt>
      <trkpt lat="45.19433" lon="5.05474">
        <ele>318</ele>
        <time>2016-02-29T00:12:39Z</time>
      </trkpt>
      <trkpt lat="45.19427" lon="5.05467">
        <ele>318</ele>
        <time>2016-02-29T00:14:39Z</time>
      </trkpt>
      <trkpt lat="45.19404" lon="5.05444">
        <ele>319</ele>
        <time>2016-02-29T00:16:39Z</time>
      </trkpt>
      <trkpt lat="45.19386" lon="5.05425">
        <ele>319</ele>
        <time>2016-02-29T00:18:39Z</time>
      </trkpt>
      <trkpt lat="45.19379" lon="5.05418">
        <ele>319</ele>
        <time>2016-02-29T00:20:39Z</time>
      </trkpt>
      <trkpt lat="45.1937" lon="5.05408">
        <ele>320</ele>
        <time>2016-02-29T00:22:39Z</time>
      </trkpt>
      <trkpt lat="45.19359" lon="5.05396">
        <ele>320</ele>
        <time>2016-02-29T00:24:39Z</time>
      </trkpt>
      <trkpt lat="45.1935" lon="5.05384">
        <ele>321</ele>
        <time>2016-02-29T00:26:39Z</time>
      </trkpt>
      <trkpt lat="45.19314" lon="5.05333">
        <ele>322</ele>
        <time>2016-02-29T00:28:39Z</time>
      </trkpt>
      <trkpt lat="45.19285" lon="5.05293">
        <ele>323</ele>
        <time>2016-02-29T00:30:39Z</time>
      </trkpt>
      <trkpt lat="45.1928" lon="5.05286">
        <ele>323</ele>
        <time>2016-02-29T00:32:39Z</time>
      </trkpt>
      <trkpt lat="45.19238" lon="5.05228">
        <ele>322</ele>
        <time>2016-02-29T00:34:39Z</time>
      </trkpt>
      <trkpt lat="45.19195" lon="5.05169">
        <ele>321</ele>
        <time>2016-02-29T00:36:39Z</time>
      </trkpt>
      <trkpt lat="45.19172" lon="5.05138">
        <ele>319</ele>
        <time>2016-02-29T00:38:39Z</time>
      </trkpt>
      <trkpt lat="45.19172" lon="5.05137">
        <ele>319</ele>
        <time>2016-02-29T00:40:39Z</time>
      </trkpt>
      <trkpt lat="45.19158" lon="5.05122">
        <ele>318</ele>
        <time>2016-02-29T00:42:39Z</time>
      </trkpt>
      <trkpt lat="45.1914" lon="5.05102">
        <ele>317</ele>
        <time>2016-02-29T00:44:39Z</time>
      </trkpt>
      <trkpt lat="45.19114" lon="5.05074">
        <ele>315</ele>
        <time>2016-02-29T00:46:39Z</time>
      </trkpt>
      <trkpt lat="45.19083" lon="5.05044">
        <ele>313</ele>
        <time>2016-02-29T00:48:39Z</time>
      </trkpt>
      <trkpt lat="45.19048" lon="5.05004">
        <ele>310</ele>
        <time>2016-02-29T00:50:39Z</time>
      </trkpt>
      <trkpt lat="45.19015" lon="5.04969">
        <ele>307</ele>
        <time>2016-02-29T00:52:39Z</time>
      </trkpt>
      <trkpt lat="45.19013" lon="5.04966">
        <ele>307</ele>
        <time>2016-02-29T00:54:39Z</time>
      </trkpt>
      <trkpt lat="45.18988" lon="5.04939">
        <ele>305</ele>
        <time>2016-02-29T00:56:39Z</time>
      </trkpt>
      <trkpt lat="45.18959" lon="5.04908">
        <ele>304</ele>
        <time>2016-02-29T00:58:39Z</time>
      </trkpt>
      <trkpt lat="45.18919" lon="5.04861">
        <ele>301</ele>
        <time>2016-02-29T01:00:39Z</time>
      </trkpt>
      <trkpt lat="45.18918" lon="5.04861">
        <ele>301</ele>
        <time>2016-02-29T01:02:39Z</time>
      </trkpt>
      <trkpt lat="45.189" lon="5.04838">
        <ele>301</ele>
        <time>2016-02-29T01:04:39Z</time>
      </trkpt>
      <trkpt lat="45.18827" lon="5.04748">
        <ele>300</ele>
        <time>2016-02-29T01:06:39Z</time>
      </trkpt>
      <trkpt lat="45.18802" lon="5.04716">
        <ele>302</ele>
        <time>2016-02-29T01:08:39Z</time>
      </trkpt>
      <trkpt lat="45.18789" lon="5.04696">
        <ele>303</ele>
        <time>2016-02-29T01:10:39Z</time>
      </trkpt>
      <trkpt lat="45.18784" lon="5.04689">
        <ele>303</ele>
        <time>2016-02-29T01:12:39Z</time>
      </trkpt>
      <trkpt lat="45.18782" lon="5.04684">
        <ele>303</ele>
        <time>2016-02-29T01:14:39Z</time>
      </trkpt>
      <trkpt lat="45.18781" lon="5.04681">
        <ele>303</ele>
        <time>2016-02-29T01:16:39Z</time>
      </trkpt>
      <trkpt lat="45.1878" lon="5.04677">
        <ele>304</ele>
        <time>2016-02-29T01:18:39Z</time>
      </trkpt>
      <trkpt lat="45.1878" lon="5.04673">
        <ele>304</ele>
        <time>2016-02-29T01:20:39Z</time>
      </trkpt>
      <trkpt lat="45.1878" lon="5.04669">
        <ele>304</ele>
        <time>2016-02-29T01:22:39Z</time>
      </trkpt>
      <trkpt lat="45.1878" lon="5.04661">
        <ele>305</ele>
        <time>2016-02-29T01:24:39Z</time>
      </trkpt>
      <trkpt lat="45.1878" lon="5.04648">
        <ele>306</ele>
        <time>2016-02-29T01:26:39Z</time>
      </trkpt>
      <trkpt lat="45.1878" lon="5.04648">
        <ele>306</ele>
        <time>2016-02-29T01:28:39Z</time>
      </trkpt>
      <trkpt lat="45.18776" lon="5.04647">
        <ele>307</ele>
        <time>2016-02-29T01:30:39Z</time>
      </trkpt>
      <trkpt lat="45.1877" lon="5.04646">
        <ele>307</ele>
        <time>2016-02-29T01:32:39Z</time>
      </trkpt>
      <trkpt lat="45.18739" lon="5.04641">
        <ele>307</ele>
        <time>2016-02-29T01:34:39Z</time>
      </trkpt>
      <trkpt lat="45.18725" lon="5.04637">
        <ele>307</ele>
        <time>2016-02-29T01:36:39Z</time>
      </trkpt>
      <trkpt lat="45.18704" lon="5.04628">
        <ele>307</ele>
        <time>2016-02-29T01:38:39Z</time>
      </trkpt>
      <trkpt lat="45.18666" lon="5.0461">
        <ele>308</ele>
        <time>2016-02-29T01:40:39Z</time>
      </trkpt>
      <trkpt lat="45.18601" lon="5.04577">
        <ele>306</ele>
        <time>2016-02-29T01:42:39Z</time>
      </trkpt>
      <trkpt lat="45.18559" lon="5.04556">
        <ele>306</ele>
        <time>2016-02-29T01:44:39Z</time>
      </trkpt>
      <trkpt lat="45.18461" lon="5.04508">
        <ele>302</ele>
        <time>2016-02-29T01:46:39Z</time>
      </trkpt>
      <trkpt lat="45.18405" lon="5.0448">
        <ele>301</ele>
        <time>2016-02-29T01:48:39Z</time>
      </trkpt>
      <trkpt lat="45.18377" lon="5.04467">
        <ele>301</ele>
        <time>2016-02-29T01:50:39Z</time>
      </trkpt>
      <trkpt lat="45.18345" lon="5.04451">
        <ele>300</ele>
        <time>2016-02-29T01:52:39Z</time>
      </trkpt>
      <trkpt lat="45.18318" lon="5.04438">
        <ele>300</ele>
        <time>2016-02-29T01:54:39Z</time>
      </trkpt>
      <trkpt lat="45.18294" lon="5.04425">
        <ele>300</ele>
        <time>2016-02-29T01:56:39Z</time>
      </trkpt>
      <trkpt lat="45.18259" lon="5.04408">
        <ele>301</ele>
        <time>2016-02-29T01:58:39Z</time>
      </trkpt>
      <trkpt lat="45.18218" lon="5.04387">
        <ele>302</ele>
        <time>2016-02-29T02:00:39Z</time>
      </trkpt>
      <trkpt lat="45.18176" lon="5.04365">
        <ele>303</ele>
        <time>2016-02-29T02:02:39Z</time>
      </trkpt>
      <trkpt lat="45.18152" lon="5.04352">
        <ele>303</ele>
        <time>2016-02-29T02:04:39Z</time>
      </trkpt>
      <trkpt lat="45.18139" lon="5.04345">
        <ele>303</ele>
        <time>2016-02-29T02:06:39Z</time>
      </trkpt>
      <trkpt lat="45.18123" lon="5.04339">
        <ele>303</ele>
        <time>2016-02-29T02:08:39Z</time>
      </trkpt>
      <trkpt lat="45.18104" lon="5.04336">
        <ele>302</ele>
        <time>2016-02-29T02:10:39Z</time>
      </trkpt>
      <trkpt lat="45.18093" lon="5.04335">
        <ele>302</ele>
        <time>2016-02-29T02:12:39Z</time>
      </trkpt>
      <trkpt lat="45.18083" lon="5.04336">
        <ele>302</ele>
        <time>2016-02-29T02:14:39Z</time>
      </trkpt>
      <trkpt lat="45.1806" lon="5.0434">
        <ele>301</ele>
        <time>2016-02-29T02:16:39Z</time>
      </trkpt>
      <trkpt lat="45.18045" lon="5.04341">
        <ele>301</ele>
        <time>2016-02-29T02:18:39Z</time>
      </trkpt>
      <trkpt lat="45.18035" lon="5.04341">
        <ele>301</ele>
        <time>2016-02-29T02:20:39Z</time>
      </trkpt>
      <trkpt lat="45.18023" lon="5.0434">
        <ele>301</ele>
        <time>2016-02-29T02:22:39Z</time>
      </trkpt>
      <trkpt lat="45.18008" lon="5.04337">
        <ele>300</ele>
        <time>2016-02-29T02:24:39Z</time>
      </trkpt>
      <trkpt lat="45.17976" lon="5.04328">
        <ele>302</ele>
        <time>2016-02-29T02:26:39Z</time>
      </trkpt>
      <trkpt lat="45.17934" lon="5.04315">
        <ele>306</ele>
        <time>2016-02-29T02:28:39Z</time>
      </trkpt>
      <trkpt lat="45.17882" lon="5.04298">
        <ele>308</ele>
        <time>2016-02-29T02:30:39Z</time>
      </trkpt>
      <trkpt lat="45.17833" lon="5.04283">
        <ele>308</ele>
        <time>2016-02-29T02:32:39Z</time>
      </trkpt>
      <trkpt lat="45.17785" lon="5.04268">
        <ele>303</ele>
        <time>2016-02-29T02:34:39Z</time>
      </trkpt>
      <trkpt lat="45.17746" lon="5.04255">
        <ele>299</ele>
        <time>2016-02-29T02:36:39Z</time>
      </trkpt>
      <trkpt lat="45.17711" lon="5.04244">
        <ele>296</ele>
        <time>2016-02-29T02:38:39Z</time>
      </trkpt>
      <trkpt lat="45.17695" lon="5.04239">
        <ele>294</ele>
        <time>2016-02-29T02:40:39Z</time>
      </trkpt>
      <trkpt lat="45.17683" lon="5.04233">
        <ele>294</ele>
        <time>2016-02-29T02:42:39Z</time>
      </trkpt>
      <trkpt lat="45.17672" lon="5.04226">
        <ele>293</ele>
        <time>2016-02-29T02:44:39Z</time>
      </trkpt>
      <trkpt lat="45.17659" lon="5.04217">
        <ele>294</ele>
        <time>2016-02-29T02:46:39Z</time>
      </trkpt>
      <trkpt lat="45.17649" lon="5.04207">
        <ele>294</ele>
        <time>2016-02-29T02:48:39Z</time>
      </trkpt>
      <trkpt lat="45.17634" lon="5.04194">
        <ele>295</ele>
        <time>2016-02-29T02:50:39Z</time>
      </trkpt>
      <trkpt lat="45.17621" lon="5.04183">
        <ele>295</ele>
        <time>2016-02-29T02:52:39Z</time>
      </trkpt>
      <trkpt lat="45.17609" lon="5.04176">
        <ele>294</ele>
        <time>2016-02-29T02:54:39Z</time>
      </trkpt>
      <trkpt lat="45.17597" lon="5.0417">
        <ele>293</ele>
        <time>2016-02-29T02:56:39Z</time>
      </trkpt>
      <trkpt lat="45.1757" lon="5.0416">
        <ele>290</ele>
        <time>2016-02-29T02:58:39Z</time>
      </trkpt>
      <trkpt lat="45.17537" lon="5.04148">
        <ele>287</ele>
        <time>2016-02-29T03:00:39Z</time>
      </trkpt>
      <trkpt lat="45.17489" lon="5.0413">
        <ele>283</ele>
        <time>2016-02-29T03:02:39Z</time>
      </trkpt>
      <trkpt lat="45.17443" lon="5.04114">
        <ele>281</ele>
        <time>2016-02-29T03:04:39Z</time>
      </trkpt>
      <trkpt lat="45.17387" lon="5.04093">
        <ele>280</ele>
        <time>2016-02-29T03:06:39Z</time>
      </trkpt>
      <trkpt lat="45.17323" lon="5.04065">
        <ele>281</ele>
        <time>2016-02-29T03:08:39Z</time>
      </trkpt>
      <trkpt lat="45.17314" lon="5.0406">
        <ele>282</ele>
        <time>2016-02-29T03:10:39Z</time>
      </trkpt>
      <trkpt lat="45.17305" lon="5.04055">
        <ele>283</ele>
        <time>2016-02-29T03:12:39Z</time>
      </trkpt>
      <trkpt lat="45.17303" lon="5.04055">
        <ele>283</ele>
        <time>2016-02-29T03:14:39Z</time>
      </trkpt>
      <trkpt lat="45.17247" lon="5.04032">
        <ele>291</ele>
        <time>2016-02-29T03:16:39Z</time>
      </trkpt>
      <trkpt lat="45.17202" lon="5.04016">
        <ele>293</ele>
        <time>2016-02-29T03:18:39Z</time>
      </trkpt>
      <trkpt lat="45.17157" lon="5.03998">
        <ele>294</ele>
        <time>2016-02-29T03:20:39Z</time>
      </trkpt>
      <trkpt lat="45.17095" lon="5.03973">
        <ele>293</ele>
        <time>2016-02-29T03:22:39Z</time>
      </trkpt>
      <trkpt lat="45.17054" lon="5.03957">
        <ele>292</ele>
        <time>2016-02-29T03:24:39Z</time>
      </trkpt>
      <trkpt lat="45.17011" lon="5.0394">
        <ele>291</ele>
        <time>2016-02-29T03:26:39Z</time>
      </trkpt>
      <trkpt lat="45.16966" lon="5.03923">
        <ele>290</ele>
        <time>2016-02-29T03:28:39Z</time>
      </trkpt>
      <trkpt lat="45.16942" lon="5.03914">
        <ele>289</ele>
        <time>2016-02-29T03:30:39Z</time>
      </trkpt>
      <trkpt lat="45.16912" lon="5.03902">
        <ele>289</ele>
        <time>2016-02-29T03:32:39Z</time>
      </trkpt>
      <trkpt lat="45.16868" lon="5.03885">
        <ele>291</ele>
        <time>2016-02-29T03:34:39Z</time>
      </trkpt>
      <trkpt lat="45.16834" lon="5.03871">
        <ele>291</ele>
        <time>2016-02-29T03:36:39Z</time>
      </trkpt>
      <trkpt lat="45.16797" lon="5.03858">
        <ele>291</ele>
        <time>2016-02-29T03:38:39Z</time>
      </trkpt>
      <trkpt lat="45.16756" lon="5.0384">
        <ele>290</ele>
        <time>2016-02-29T03:40:39Z</time>
      </trkpt>
      <trkpt lat="45.16754" lon="5.0384">
        <ele>290</ele>
        <time>2016-02-29T03:42:39Z</time>
      </trkpt>
      <trkpt lat="45.16723" lon="5.03828">
        <ele>288</ele>
        <time>2016-02-29T03:44:39Z</time>
      </trkpt>
      <trkpt lat="45.16689" lon="5.03814">
        <ele>284</ele>
        <time>2016-02-29T03:46:39Z</time>
      </trkpt>
      <trkpt lat="45.16655" lon="5.03801">
        <ele>281</ele>
        <time>2016-02-29T03:48:39Z</time>
      </trkpt>
      <trkpt lat="45.16636" lon="5.03793">
        <ele>281</ele>
        <time>2016-02-29T03:50:39Z</time>
      </trkpt>
      <trkpt lat="45.16623" lon="5.03787">
        <ele>280</ele>
        <time>2016-02-29T03:52:39Z</time>
      </trkpt>
      <trkpt lat="45.16596" lon="5.03776">
        <ele>280</ele>
        <time>2016-02-29T03:54:39Z</time>
      </trkpt>
      <trkpt lat="45.16577" lon="5.03769">
        <ele>280</ele>
        <time>2016-02-29T03:56:39Z</time>
      </trkpt>
      <trkpt lat="45.16557" lon="5.03764">
        <ele>279</ele>
        <time>2016-02-29T03:58:39Z</time>
      </trkpt>
      <trkpt lat="45.16549" lon="5.03763">
        <ele>279</ele>
        <time>2016-02-29T04:00:39Z</time>
      </trkpt>
      <trkpt lat="45.1654" lon="5.03762">
        <ele>279</ele>
        <time>2016-02-29T04:02:39Z</time>
      </trkpt>
      <trkpt lat="45.16529" lon="5.03762">
        <ele>278</ele>
        <time>2016-02-29T04:04:39Z</time>
      </trkpt>
      <trkpt lat="45.16512" lon="5.03762">
        <ele>278</ele>
        <time>2016-02-29T04:06:39Z</time>
      </trkpt>
      <trkpt lat="45.1648" lon="5.03764">
        <ele>277</ele>
        <time>2016-02-29T04:08:39Z</time>
      </trkpt>
      <trkpt lat="45.16472" lon="5.03765">
        <ele>277</ele>
        <time>2016-02-29T04:10:39Z</time>
      </trkpt>
      <trkpt lat="45.1647" lon="5.03765">
        <ele>277</ele>
        <time>2016-02-29T04:12:39Z</time>
      </trkpt>
      <trkpt lat="45.16467" lon="5.03765">
        <ele>277</ele>
        <time>2016-02-29T04:14:39Z</time>
      </trkpt>
      <trkpt lat="45.16423" lon="5.03769">
        <ele>276</ele>
        <time>2016-02-29T04:16:39Z</time>
      </trkpt>
      <trkpt lat="45.16372" lon="5.03773">
        <ele>274</ele>
        <time>2016-02-29T04:18:39Z</time>
      </trkpt>
      <trkpt lat="45.16316" lon="5.03778">
        <ele>272</ele>
        <time>2016-02-29T04:20:39Z</time>
      </trkpt>
      <trkpt lat="45.16297" lon="5.0378">
        <ele>271</ele>
        <time>2016-02-29T04:22:39Z</time>
      </trkpt>
      <trkpt lat="45.16292" lon="5.03781">
        <ele>271</ele>
        <time>2016-02-29T04:24:39Z</time>
      </trkpt>
      <trkpt lat="45.16289" lon="5.03782">
        <ele>271</ele>
        <time>2016-02-29T04:26:39Z</time>
      </trkpt>
      <trkpt lat="45.16285" lon="5.0378">
        <ele>271</ele>
        <time>2016-02-29T04:28:39Z</time>
      </trkpt>
      <trkpt lat="45.16278" lon="5.03781">
        <ele>270</ele>
        <time>2016-02-29T04:30:39Z</time>
      </trkpt>
      <trkpt lat="45.16278" lon="5.03781">
        <ele>270</ele>
        <time>2016-02-29T04:32:39Z</time>
      </trkpt>
      <trkpt lat="45.16276" lon="5.03781">
        <ele>270</ele>
        <time>2016-02-29T04:34:39Z</time>
      </trkpt>
      <trkpt lat="45.16274" lon="5.0378">
        <ele>270</ele>
        <time>2016-02-29T04:36:39Z</time>
      </trkpt>
      <trkpt lat="45.16273" lon="5.0378">
        <ele>270</ele>
        <time>2016-02-29T04:38:39Z</time>
      </trkpt>
      <trkpt lat="45.1627" lon="5.0378">
        <ele>270</ele>
        <time>2016-02-29T04:40:39Z</time>
      </trkpt>
      <trkpt lat="45.16254" lon="5.03779">
        <ele>269</ele>
        <time>2016-02-29T04:42:39Z</time>
      </trkpt>
      <trkpt lat="45.16238" lon="5.0378">
        <ele>269</ele>
        <time>2016-02-29T04:44:39Z</time>
      </trkpt>
      <trkpt lat="45.16203" lon="5.0378">
        <ele>268</ele>
        <time>2016-02-29T04:46:39Z</time>
      </trkpt>
      <trkpt lat="45.16199" lon="5.03781">
        <ele>268</ele>
        <time>2016-02-29T04:48:39Z</time>
      </trkpt>
      <trkpt lat="45.16197" lon="5.03781">
        <ele>268</ele>
        <time>2016-02-29T04:50:39Z</time>
      </trkpt>
      <trkpt lat="45.16194" lon="5.03784">
        <ele>267</ele>
        <time>2016-02-29T04:52:39Z</time>
      </trkpt>
      <trkpt lat="45.16194" lon="5.03784">
        <ele>267</ele>
        <time>2016-02-29T04:54:39Z</time>
      </trkpt>
      <trkpt lat="45.16194" lon="5.03781">
        <ele>267</ele>
        <time>2016-02-29T04:56:39Z</time>
      </trkpt>
      <trkpt lat="45.16193" lon="5.03703">
        <ele>268</ele>
        <time>2016-02-29T04:58:39Z</time>
      </trkpt>
      <trkpt lat="45.16193" lon="5.03665">
        <ele>269</ele>
        <time>2016-02-29T05:00:39Z</time>
      </trkpt>
      <trkpt lat="45.16193" lon="5.03649">
        <ele>269</ele>
        <time>2016-02-29T05:02:39Z</time>
      </trkpt>
      <trkpt lat="45.16192" lon="5.03645">
        <ele>269</ele>
        <time>2016-02-29T05:04:39Z</time>
      </trkpt>
      <trkpt lat="45.16192" lon="5.03629">
        <ele>269</ele>
        <time>2016-02-29T05:06:39Z</time>
      </trkpt>
      <trkpt lat="45.1619" lon="5.03601">
        <ele>270</ele>
        <time>2016-02-29T05:08:39Z</time>
      </trkpt>
      <trkpt lat="45.16186" lon="5.03569">
        <ele>271</ele>
        <time>2016-02-29T05:10:39Z</time>
      </trkpt>
      <trkpt lat="45.16184" lon="5.03554">
        <ele>271</ele>
        <time>2016-02-29T05:12:39Z</time>
      </trkpt>
      <trkpt lat="45.1618" lon="5.03529">
        <ele>272</ele>
        <time>2016-02-29T05:14:39Z</time>
      </trkpt>
      <trkpt lat="45.16179" lon="5.03521">
        <ele>273</ele>
        <time>2016-02-29T05:16:39Z</time>
      </trkpt>
      <trkpt lat="45.16174" lon="5.03492">
        <ele>274</ele>
        <time>2016-02-29T05:18:39Z</time>
      </trkpt>
      <trkpt lat="45.16168" lon="5.03467">
        <ele>275</ele>
        <time>2016-02-29T05:20:39Z</time>
      </trkpt>
      <trkpt lat="45.16162" lon="5.03443">
        <ele>276</ele>
        <time>2016-02-29T05:22:39Z</time>
      </trkpt>
      <trkpt lat="45.16155" lon="5.03418">
        <ele>277</ele>
        <time>2016-02-29T05:24:39Z</time>
      </trkpt>
      <trkpt lat="45.16148" lon="5.03402">
        <ele>277</ele>
        <time>2016-02-29T05:26:39Z</time>
      </trkpt>
      <trkpt lat="45.16143" lon="5.03388">
        <ele>277</ele>
        <time>2016-02-29T05:28:39Z</time>
      </trkpt>
      <trkpt lat="45.16136" lon="5.03376">
        <ele>277</ele>
        <time>2016-02-29T05:30:39Z</time>
      </trkpt>
      <trkpt lat="45.16121" lon="5.03349">
        <ele>277</ele>
        <time>2016-02-29T05:32:39Z</time>
      </trkpt>
      <trkpt lat="45.16106" lon="5.03323">
        <ele>276</ele>
        <time>2016-02-29T05:34:39Z</time>
      </trkpt>
      <trkpt lat="45.161" lon="5.03314">
        <ele>276</ele>
        <time>2016-02-29T05:36:39Z</time>
      </trkpt>
      <trkpt lat="45.16083" lon="5.03285">
        <ele>274</ele>
        <time>2016-02-29T05:38:39Z</time>
      </trkpt>
      <trkpt lat="45.16062" lon="5.03248">
        <ele>271</ele>
        <time>2016-02-29T05:40:39Z</time>
      </trkpt>
      <trkpt lat="45.16058" lon="5.0324">
        <ele>271</ele>
        <time>2016-02-29T05:42:39Z</time>
      </trkpt>
      <trkpt lat="45.16052" lon="5.03227">
        <ele>270</ele>
        <time>2016-02-29T05:44:39Z</time>
      </trkpt>
      <trkpt lat="45.16037" lon="5.03196">
        <ele>267</ele>
        <time>2016-02-29T05:46:39Z</time>
      </trkpt>
      <trkpt lat="45.16023" lon="5.03167">
        <ele>265</ele>
        <time>2016-02-29T05:48:39Z</time>
      </trkpt>
      <trkpt lat="45.16007" lon="5.03139">
        <ele>262</ele>
        <time>2016-02-29T05:50:39Z</time>
      </trkpt>
      <trkpt lat="45.15997" lon="5.03123">
        <ele>261</ele>
        <time>2016-02-29T05:52:39Z</time>
      </trkpt>
      <trkpt lat="45.15993" lon="5.03118">
        <ele>261</ele>
        <time>2016-02-29T05:54:39Z</time>
      </trkpt>
      <trkpt lat="45.15978" lon="5.03096">
        <ele>261</ele>
        <time>2016-02-29T05:56:39Z</time>
      </trkpt>
      <trkpt lat="45.15956" lon="5.03064">
        <ele>261</ele>
        <time>2016-02-29T05:58:39Z</time>
      </trkpt>
      <trkpt lat="45.15925" lon="5.03021">
        <ele>261</ele>
        <time>2016-02-29T06:00:39Z</time>
      </trkpt>
      <trkpt lat="45.15884" lon="5.02967">
        <ele>262</ele>
        <time>2016-02-29T06:02:39Z</time>
      </trkpt>
      <trkpt lat="45.15882" lon="5.02964">
        <ele>262</ele>
        <time>2016-02-29T06:04:39Z</time>
      </trkpt>
      <trkpt lat="45.15872" lon="5.0295">
        <ele>262</ele>
        <time>2016-02-29T06:06:39Z</time>
      </trkpt>
      <trkpt lat="45.1586" lon="5.02936">
        <ele>262</ele>
        <time>2016-02-29T06:08:39Z</time>
      </trkpt>
      <trkpt lat="45.15843" lon="5.02916">
        <ele>261</ele>
        <time>2016-02-29T06:10:39Z</time>
      </trkpt>
      <trkpt lat="45.1583" lon="5.02903">
        <ele>260</ele>
        <time>2016-02-29T06:12:39Z</time>
      </trkpt>
      <trkpt lat="45.15819" lon="5.02891">
        <ele>261</ele>
        <time>2016-02-29T06:14:39Z</time>
      </trkpt>
      <trkpt lat="45.15797" lon="5.02869">
        <ele>261</ele>
        <time>2016-02-29T06:16:39Z</time>
      </trkpt>
      <trkpt lat="45.15783" lon="5.02855">
        <ele>261</ele>
        <time>2016-02-29T06:18:39Z</time>
      </trkpt>
      <trkpt lat="45.15772" lon="5.02845">
        <ele>261</ele>
        <time>2016-02-29T06:20:39Z</time>
      </trkpt>
      <trkpt lat="45.15747" lon="5.0282">
        <ele>260</ele>
        <time>2016-02-29T06:22:39Z</time>
      </trkpt>
      <trkpt lat="45.15709" lon="5.02783">
        <ele>260</ele>
        <time>2016-02-29T06:24:39Z</time>
      </trkpt>
      <trkpt lat="45.15672" lon="5.02747">
        <ele>260</ele>
        <time>2016-02-29T06:26:39Z</time>
      </trkpt>
      <trkpt lat="45.1567" lon="5.02745">
        <ele>260</ele>
        <time>2016-02-29T06:28:39Z</time>
      </trkpt>
      <trkpt lat="45.15668" lon="5.02743">
        <ele>260</ele>
        <time>2016-02-29T06:30:39Z</time>
      </trkpt>
      <trkpt lat="45.15665" lon="5.0274">
        <ele>260</ele>
        <time>2016-02-29T06:32:39Z</time>
      </trkpt>
      <trkpt lat="45.15648" lon="5.02724">
        <ele>260</ele>
        <time>2016-02-29T06:34:39Z</time>
      </trkpt>
      <trkpt lat="45.15627" lon="5.02702">
        <ele>260</ele>
        <time>2016-02-29T06:36:39Z</time>
      </trkpt>
      <trkpt lat="45.15607" lon="5.02679">
        <ele>259</ele>
        <time>2016-02-29T06:38:39Z</time>
      </trkpt>
      <trkpt lat="45.15586" lon="5.02654">
        <ele>259</ele>
        <time>2016-02-29T06:40:39Z</time>
      </trkpt>
      <trkpt lat="45.15568" lon="5.02632">
        <ele>259</ele>
        <time>2016-02-29T06:42:39Z</time>
      </trkpt>
      <trkpt lat="45.15553" lon="5.0261">
        <ele>259</ele>
        <time>2016-02-29T06:44:39Z</time>
      </trkpt>
      <trkpt lat="45.15535" lon="5.02587">
        <ele>259</ele>
        <time>2016-02-29T06:46:39Z</time>
      </trkpt>
      <trkpt lat="45.15521" lon="5.02565">
        <ele>259</ele>
        <time>2016-02-29T06:48:39Z</time>
      </trkpt>
      <trkpt lat="45.15507" lon="5.02547">
        <ele>259</ele>
        <time>2016-02-29T06:50:39Z</time>
      </trkpt>
      <trkpt lat="45.15503" lon="5.02541">
        <ele>259</ele>
        <time>2016-02-29T06:52:39Z</time>
      </trkpt>
      <trkpt lat="45.15497" lon="5.02533">
        <ele>259</ele>
        <time>2016-02-29T06:54:39Z</time>
      </trkpt>
      <trkpt lat="45.15488" lon="5.02521">
        <ele>259</ele>
        <time>2016-02-29T06:56:39Z</time>
      </trkpt>
      <trkpt lat="45.15462" lon="5.02486">
        <ele>259</ele>
        <time>2016-02-29T06:58:39Z</time>
      </trkpt>
      <trkpt lat="45.15444" lon="5.02461">
        <ele>259</ele>
        <time>2016-02-29T07:00:39Z</time>
      </trkpt>
      <trkpt lat="45.1544" lon="5.02455">
        <ele>259</ele>
        <time>2016-02-29T07:02:39Z</time>
      </trkpt>
      <trkpt lat="45.15433" lon="5.02445">
        <ele>259</ele>
        <time>2016-02-29T07:04:39Z</time>
      </trkpt>
      <trkpt lat="45.1542" lon="5.02429">
        <ele>259</ele>
        <time>2016-02-29T07:06:39Z</time>
      </trkpt>
      <trkpt lat="45.15407" lon="5.02412">
        <ele>259</ele>
        <time>2016-02-29T07:08:39Z</time>
      </trkpt>
      <trkpt lat="45.15396" lon="5.024">
        <ele>258</ele>
        <time>2016-02-29T07:10:39Z</time>
      </trkpt>
      <trkpt lat="45.15384" lon="5.02386">
        <ele>258</ele>
        <time>2016-02-29T07:12:39Z</time>
      </trkpt>
      <trkpt lat="45.15379" lon="5.02381">
        <ele>258</ele>
        <time>2016-02-29T07:14:39Z</time>
      </trkpt>
      <trkpt lat="45.15369" lon="5.02372">
        <ele>258</ele>
        <time>2016-02-29T07:16:39Z</time>
      </trkpt>
      <trkpt lat="45.15366" lon="5.02368">
        <ele>258</ele>
        <time>2016-02-29T07:18:39Z</time>
      </trkpt>
      <trkpt lat="45.15347" lon="5.02349">
        <ele>257</ele>
        <time>2016-02-29T07:20:39Z</time>
      </trkpt>
      <trkpt lat="45.15331" lon="5.02331">
        <ele>257</ele>
        <time>2016-02-29T07:22:39Z</time>
      </trkpt>
      <trkpt lat="45.15326" lon="5.02325">
        <ele>257</ele>
        <time>2016-02-29T07:24:39Z</time>
      </trkpt>
      <trkpt lat="45.15326" lon="5.02324">
        <ele>257</ele>
        <time>2016-02-29T07:26:39Z</time>
      </trkpt>
      <trkpt lat="45.1532" lon="5.02316">
        <ele>257</ele>
        <time>2016-02-29T07:28:39Z</time>
      </trkpt>
      <trkpt lat="45.15316" lon="5.02311">
        <ele>257</ele>
        <time>2016-02-29T07:30:39Z</time>
      </trkpt>
      <trkpt lat="45.15307" lon="5.02298">
        <ele>256</ele>
        <time>2016-02-29T07:32:39Z</time>
      </trkpt>
      <trkpt lat="45.15297" lon="5.02281">
        <ele>256</ele>
        <time>2016-02-29T07:34:39Z</time>
      </trkpt>
      <trkpt lat="45.1529" lon="5.02268">
        <ele>256</ele>
        <time>2016-02-29T07:36:39Z</time>
      </trkpt>
      <trkpt lat="45.15284" lon="5.02258">
        <ele>256</ele>
        <time>2016-02-29T07:38:39Z</time>
      </trkpt>
      <trkpt lat="45.15269" lon="5.02232">
        <ele>255</ele>
        <time>2016-02-29T07:40:39Z</time>
      </trkpt>
      <trkpt lat="45.15261" lon="5.02217">
        <ele>255</ele>
        <time>2016-02-29T07:42:39Z</time>
      </trkpt>
      <trkpt lat="45.15255" lon="5.02206">
        <ele>255</ele>
        <time>2016-02-29T07:44:39Z</time>
      </trkpt>
      <trkpt lat="45.15251" lon="5.022">
        <ele>255</ele>
        <time>2016-02-29T07:46:39Z</time>
      </trkpt>
      <trkpt lat="45.15241" lon="5.02179">
        <ele>255</ele>
        <time>2016-02-29T07:48:39Z</time>
      </trkpt>
      <trkpt lat="45.15229" lon="5.02154">
        <ele>256</ele>
        <time>2016-02-29T07:50:39Z</time>
      </trkpt>
      <trkpt lat="45.15219" lon="5.02134">
        <ele>256</ele>
        <time>2016-02-29T07:52:39Z</time>
      </trkpt>
      <trkpt lat="45.15214" lon="5.02126">
        <ele>256</ele>
        <time>2016-02-29T07:54:39Z</time>
      </trkpt>
      <trkpt lat="45.15208" lon="5.02118">
        <ele>256</ele>
        <time>2016-02-29T07:56:39Z</time>
      </trkpt>
      <trkpt lat="45.15203" lon="5.0211">
        <ele>256</ele>
        <time>2016-02-29T07:58:39Z</time>
      </trkpt>
      <trkpt lat="45.15198" lon="5.02102">
        <ele>256</ele>
        <time>2016-02-29T08:00:39Z</time>
      </trkpt>
      <trkpt lat="45.15192" lon="5.02095">
        <ele>256</ele>
        <time>2016-02-29T08:02:39Z</time>
      </trkpt>
      <trkpt lat="45.15187" lon="5.02088">
        <ele>256</ele>
        <time>2016-02-29T08:04:39Z</time>
      </trkpt>
      <trkpt lat="45.15181" lon="5.02078">
        <ele>257</ele>
        <time>2016-02-29T08:06:39Z</time>
      </trkpt>
      <trkpt lat="45.15182" lon="5.02076">
        <ele>257</ele>
        <time>2016-02-29T08:08:39Z</time>
      </trkpt>
      <trkpt lat="45.15181" lon="5.02074">
        <ele>257</ele>
        <time>2016-02-29T08:10:39Z</time>
      </trkpt>
      <trkpt lat="45.1518" lon="5.02072">
        <ele>257</ele>
        <time>2016-02-29T08:12:39Z</time>
      </trkpt>
      <trkpt lat="45.1518" lon="5.02071">
        <ele>257</ele>
        <time>2016-02-29T08:14:39Z</time>
      </trkpt>
      <trkpt lat="45.15179" lon="5.02068">
        <ele>257</ele>
        <time>2016-02-29T08:16:39Z</time>
      </trkpt>
      <trkpt lat="45.15178" lon="5.02067">
        <ele>257</ele>
        <time>2016-02-29T08:18:39Z</time>
      </trkpt>
      <trkpt lat="45.15176" lon="5.02066">
        <ele>257</ele>
        <time>2016-02-29T08:20:39Z</time>
      </trkpt>
      <trkpt lat="45.15175" lon="5.02065">
        <ele>257</ele>
        <time>2016-02-29T08:22:39Z</time>
      </trkpt>
      <trkpt lat="45.15173" lon="5.02065">
        <ele>257</ele>
        <time>2016-02-29T08:24:39Z</time>
      </trkpt>
      <trkpt lat="45.15157" lon="5.02047">
        <ele>257</ele>
        <time>2016-02-29T08:26:39Z</time>
      </trkpt>
      <trkpt lat="45.15154" lon="5.02043">
        <ele>257</ele>
        <time>2016-02-29T08:28:39Z</time>
      </trkpt>
      <trkpt lat="45.15152" lon="5.02038">
        <ele>257</ele>
        <time>2016-02-29T08:30:39Z</time>
      </trkpt>
      <trkpt lat="45.1515" lon="5.02034">
        <ele>257</ele>
        <time>2016-02-29T08:32:39Z</time>
      </trkpt>
      <trkpt lat="45.15147" lon="5.02029">
        <ele>257</ele>
        <time>2016-02-29T08:34:39Z</time>
      </trkpt>
      <trkpt lat="45.15131" lon="5.02007">
        <ele>257</ele>
        <time>2016-02-29T08:36:39Z</time>
      </trkpt>
      <trkpt lat="45.1512" lon="5.01991">
        <ele>258</ele>
        <time>2016-02-29T08:38:39Z</time>
      </trkpt>
      <trkpt lat="45.15105" lon="5.01969">
        <ele>258</ele>
        <time>2016-02-29T08:40:39Z</time>
      </trkpt>
      <trkpt lat="45.15073" lon="5.01926">
        <ele>258</ele>
        <time>2016-02-29T08:42:39Z</time>
      </trkpt>
      <trkpt lat="45.15055" lon="5.01899">
        <ele>259</ele>
        <time>2016-02-29T08:44:39Z</time>
      </trkpt>
      <trkpt lat="45.15044" lon="5.01886">
        <ele>260</ele>
        <time>2016-02-29T08:46:39Z</time>
      </trkpt>
      <trkpt lat="45.15025" lon="5.01858">
        <ele>260</ele>
        <time>2016-02-29T08:48:39Z</time>
      </trkpt>
      <trkpt lat="45.14984" lon="5.01799">
        <ele>261</ele>
        <time>2016-02-29T08:50:39Z</time>
      </trkpt>
      <trkpt lat="45.14973" lon="5.01785">
        <ele>261</ele>
        <time>2016-02-29T08:52:39Z</time>
      </trkpt>
      <trkpt lat="45.14962" lon="5.01769">
        <ele>261</ele>
        <time>2016-02-29T08:54:39Z</time>
      </trkpt>
      <trkpt lat="45.14952" lon="5.01754">
        <ele>261</ele>
        <time>2016-02-29T08:56:39Z</time>
      </trkpt>
      <trkpt lat="45.14945" lon="5.01744">
        <ele>261</ele>
        <time>2016-02-29T08:58:39Z</time>
      </trkpt>
      <trkpt lat="45.14933" lon="5.01727">
        <ele>261</ele>
        <time>2016-02-29T09:00:39Z</time>
      </trkpt>
      <trkpt lat="45.14922" lon="5.01711">
        <ele>261</ele>
        <time>2016-02-29T09:02:39Z</time>
      </trkpt>
      <trkpt lat="45.1491" lon="5.01693">
        <ele>260</ele>
        <time>2016-02-29T09:04:39Z</time>
      </trkpt>
      <trkpt lat="45.14902" lon="5.01682">
        <ele>260</ele>
        <time>2016-02-29T09:06:39Z</time>
      </trkpt>
      <trkpt lat="45.149" lon="5.01679">
        <ele>260</ele>
        <time>2016-02-29T09:08:39Z</time>
      </trkpt>
      <trkpt lat="45.14897" lon="5.01673">
        <ele>260</ele>
        <time>2016-02-29T09:10:39Z</time>
      </trkpt>
      <trkpt lat="45.1489" lon="5.01665">
        <ele>260</ele>
        <time>2016-02-29T09:12:39Z</time>
      </trkpt>
      <trkpt lat="45.14874" lon="5.01644">
        <ele>260</ele>
        <time>2016-02-29T09:14:39Z</time>
      </trkpt>
      <trkpt lat="45.14859" lon="5.01628">
        <ele>259</ele>
        <time>2016-02-29T09:16:39Z</time>
      </trkpt>
      <trkpt lat="45.14854" lon="5.01623">
        <ele>259</ele>
        <time>2016-02-29T09:18:39Z</time>
      </trkpt>
      <trkpt lat="45.1484" lon="5.01607">
        <ele>258</ele>
        <time>2016-02-29T09:20:39Z</time>
      </trkpt>
      <trkpt lat="45.14838" lon="5.01604">
        <ele>258</ele>
        <time>2016-02-29T09:22:39Z</time>
      </trkpt>
      <trkpt lat="45.14836" lon="5.01601">
        <ele>258</ele>
        <time>2016-02-29T09:24:39Z</time>
      </trkpt>
      <trkpt lat="45.14832" lon="5.01597">
        <ele>258</ele>
        <time>2016-02-29T09:26:39Z</time>
      </trkpt>
      <trkpt lat="45.14829" lon="5.01592">
        <ele>258</ele>
        <time>2016-02-29T09:28:39Z</time>
      </trkpt>
      <trkpt lat="45.14826" lon="5.01589">
        <ele>258</ele>
        <time>2016-02-29T09:30:39Z</time>
      </trkpt>
      <trkpt lat="45.14822" lon="5.01585">
        <ele>258</ele>
        <time>2016-02-29T09:32:39Z</time>
      </trkpt>
      <trkpt lat="45.14817" lon="5.0158">
        <ele>257</ele>
        <time>2016-02-29T09:34:39Z</time>
      </trkpt>
      <trkpt lat="45.14807" lon="5.01571">
        <ele>255</ele>
        <time>2016-02-29T09:36:39Z</time>
      </trkpt>
      <trkpt lat="45.14798" lon="5.01561">
        <ele>254</ele>
        <time>2016-02-29T09:38:39Z</time>
      </trkpt>
      <trkpt lat="45.14788" lon="5.01551">
        <ele>252</ele>
        <time>2016-02-29T09:40:39Z</time>
      </trkpt>
      <trkpt lat="45.14781" lon="5.01542">
        <ele>251</ele>
        <time>2016-02-29T09:42:39Z</time>
      </trkpt>
      <trkpt lat="45.14776" lon="5.01537">
        <ele>250</ele>
        <time>2016-02-29T09:44:39Z</time>
      </trkpt>
      <trkpt lat="45.14776" lon="5.01537">
        <ele>250</ele>
        <time>2016-02-29T09:46:39Z</time>
      </trkpt>
      <trkpt lat="45.14771" lon="5.01543">
        <ele>250</ele>
        <time>2016-02-29T09:48:39Z</time>
      </trkpt>
      <trkpt lat="45.1477" lon="5.01546">
        <ele>250</ele>
        <time>2016-02-29T09:50:39Z</time>
      </trkpt>
      <trkpt lat="45.14769" lon="5.01552">
        <ele>250</ele>
        <time>2016-02-29T09:52:39Z</time>
      </trkpt>
      <trkpt lat="45.14767" lon="5.01563">
        <ele>250</ele>
        <time>2016-02-29T09:54:39Z</time>
      </trkpt>
      <trkpt lat="45.14767" lon="5.01563">
        <ele>250</ele>
        <time>2016-02-29T09:56:39Z</time>
      </trkpt>
      <trkpt lat="45.14769" lon="5.01579">
        <ele>251</ele>
        <time>2016-02-29T09:58:39Z</time>
      </trkpt>
      <trkpt lat="45.14769" lon="5.01581">
        <ele>251</ele>
        <time>2016-02-29T10:00:39Z</time>
      </trkpt>
      <trkpt lat="45.1477" lon="5.01583">
        <ele>251</ele>
        <time>2016-02-29T10:02:39Z</time>
      </trkpt>
      <trkpt lat="45.14775" lon="5.01594">
        <ele>251</ele>
        <time>2016-02-29T10:04:39Z</time>
      </trkpt>
      <trkpt lat="45.14793" lon="5.01621">
        <ele>252</ele>
        <time>2016-02-29T10:06:39Z</time>
      </trkpt>
      <trkpt lat="45.14815" lon="5.01656">
        <ele>252</ele>
        <time>2016-02-29T10:08:39Z</time>
      </trkpt>
      <trkpt lat="45.14819" lon="5.0166">
        <ele>253</ele>
        <time>2016-02-29T10:10:39Z</time>
      </trkpt>
      <trkpt lat="45.14845" lon="5.01697">
        <ele>253</ele>
        <time>2016-02-29T10:12:39Z</time>
      </trkpt>
      <trkpt lat="45.14867" lon="5.01728">
        <ele>254</ele>
        <time>2016-02-29T10:14:39Z</time>
      </trkpt>
      <trkpt lat="45.14867" lon="5.01728">
        <ele>254</ele>
        <time>2016-02-29T10:16:39Z</time>
      </trkpt>
      <trkpt lat="45.14783" lon="5.0184">
        <ele>242</ele>
        <time>2016-02-29T10:18:39Z</time>
      </trkpt>
      <trkpt lat="45.14779" lon="5.01844">
        <ele>242</ele>
        <time>2016-02-29T10:20:39Z</time>
      </trkpt>
      <trkpt lat="45.14768" lon="5.0186">
        <ele>241</ele>
        <time>2016-02-29T10:22:39Z</time>
      </trkpt>
      <trkpt lat="45.1476" lon="5.0187">
        <ele>240</ele>
        <time>2016-02-29T10:24:39Z</time>
      </trkpt>
      <trkpt lat="45.1474" lon="5.01897">
        <ele>240</ele>
        <time>2016-02-29T10:26:39Z</time>
      </trkpt>
      <trkpt lat="45.14719" lon="5.01927">
        <ele>240</ele>
        <time>2016-02-29T10:28:39Z</time>
      </trkpt>
      <trkpt lat="45.14706" lon="5.01951">
        <ele>240</ele>
        <time>2016-02-29T10:30:39Z</time>
      </trkpt>
      <trkpt lat="45.14687" lon="5.01988">
        <ele>240</ele>
        <time>2016-02-29T10:32:39Z</time>
      </trkpt>
      <trkpt lat="45.14672" lon="5.02018">
        <ele>240</ele>
        <time>2016-02-29T10:34:39Z</time>
      </trkpt>
      <trkpt lat="45.14655" lon="5.02055">
        <ele>240</ele>
        <time>2016-02-29T10:36:39Z</time>
      </trkpt>
      <trkpt lat="45.14626" lon="5.02116">
        <ele>240</ele>
        <time>2016-02-29T10:38:39Z</time>
      </trkpt>
      <trkpt lat="45.14623" lon="5.02124">
        <ele>239</ele>
        <time>2016-02-29T10:40:39Z</time>
      </trkpt>
      <trkpt lat="45.14621" lon="5.02129">
        <ele>239</ele>
        <time>2016-02-29T10:42:39Z</time>
      </trkpt>
      <trkpt lat="45.14601" lon="5.02164">
        <ele>239</ele>
        <time>2016-02-29T10:44:39Z</time>
      </trkpt>
      <trkpt lat="45.1459" lon="5.02182">
        <ele>239</ele>
        <time>2016-02-29T10:46:39Z</time>
      </trkpt>
      <trkpt lat="45.14577" lon="5.02197">
        <ele>239</ele>
        <time>2016-02-29T10:48:39Z</time>
      </trkpt>
      <trkpt lat="45.14565" lon="5.02208">
        <ele>238</ele>
        <time>2016-02-29T10:50:39Z</time>
      </trkpt>
      <trkpt lat="45.14562" lon="5.02211">
        <ele>238</ele>
        <time>2016-02-29T10:52:39Z</time>
      </trkpt>
      <trkpt lat="45.14557" lon="5.02216">
        <ele>238</ele>
        <time>2016-02-29T10:54:39Z</time>
      </trkpt>
      <trkpt lat="45.14555" lon="5.02218">
        <ele>238</ele>
        <time>2016-02-29T10:56:39Z</time>
      </trkpt>
      <trkpt lat="45.14553" lon="5.02221">
        <ele>238</ele>
        <time>2016-02-29T10:58:39Z</time>
      </trkpt>
      <trkpt lat="45.14546" lon="5.02228">
        <ele>238</ele>
        <time>2016-02-29T11:00:39Z</time>
      </trkpt>
      <trkpt lat="45.14536" lon="5.02238">
        <ele>237</ele>
        <time>2016-02-29T11:02:39Z</time>
      </trkpt>
      <trkpt lat="45.14515" lon="5.0226">
        <ele>237</ele>
        <time>2016-02-29T11:04:39Z</time>
      </trkpt>
      <trkpt lat="45.14502" lon="5.02274">
        <ele>236</ele>
        <time>2016-02-29T11:06:39Z</time>
      </trkpt>
      <trkpt lat="45.14493" lon="5.0229">
        <ele>237</ele>
        <time>2016-02-29T11:08:39Z</time>
      </trkpt>
      <trkpt lat="45.1448" lon="5.0232">
        <ele>238</ele>
        <time>2016-02-29T11:10:39Z</time>
      </trkpt>
      <trkpt lat="45.14478" lon="5.02325">
        <ele>238</ele>
        <time>2016-02-29T11:12:39Z</time>
      </trkpt>
      <trkpt lat="45.14464" lon="5.02366">
        <ele>239</ele>
        <time>2016-02-29T11:14:39Z</time>
      </trkpt>
      <trkpt lat="45.14448" lon="5.02413">
        <ele>241</ele>
        <time>2016-02-29T11:16:39Z</time>
      </trkpt>
      <trkpt lat="45.14436" lon="5.02451">
        <ele>243</ele>
        <time>2016-02-29T11:18:39Z</time>
      </trkpt>
      <trkpt lat="45.14422" lon="5.02491">
        <ele>246</ele>
        <time>2016-02-29T11:20:39Z</time>
      </trkpt>
      <trkpt lat="45.14413" lon="5.02518">
        <ele>248</ele>
        <time>2016-02-29T11:22:39Z</time>
      </trkpt>
      <trkpt lat="45.14408" lon="5.02535">
        <ele>249</ele>
        <time>2016-02-29T11:24:39Z</time>
      </trkpt>
      <trkpt lat="45.14405" lon="5.02548">
        <ele>250</ele>
        <time>2016-02-29T11:26:39Z</time>
      </trkpt>
      <trkpt lat="45.14404" lon="5.02558">
        <ele>250</ele>
        <time>2016-02-29T11:28:39Z</time>
      </trkpt>
      <trkpt lat="45.14404" lon="5.02568">
        <ele>251</ele>
        <time>2016-02-29T11:30:39Z</time>
      </trkpt>
      <trkpt lat="45.14405" lon="5.02579">
        <ele>251</ele>
        <time>2016-02-29T11:32:39Z</time>
      </trkpt>
      <trkpt lat="45.14407" lon="5.02587">
        <ele>252</ele>
        <time>2016-02-29T11:34:39Z</time>
      </trkpt>
      <trkpt lat="45.14411" lon="5.02597">
        <ele>252</ele>
        <time>2016-02-29T11:36:39Z</time>
      </trkpt>
      <trkpt lat="45.14417" lon="5.02607">
        <ele>252</ele>
        <time>2016-02-29T11:38:39Z</time>
      </trkpt>
      <trkpt lat="45.14425" lon="5.02616">
        <ele>252</ele>
        <time>2016-02-29T11:40:39Z</time>
      </trkpt>
      <trkpt lat="45.14433" lon="5.02625">
        <ele>252</ele>
        <time>2016-02-29T11:42:39Z</time>
      </trkpt>
      <trkpt lat="45.1444" lon="5.02633">
        <ele>252</ele>
        <time>2016-02-29T11:44:39Z</time>
      </trkpt>
      <trkpt lat="45.14454" lon="5.0265">
        <ele>251</ele>
        <time>2016-02-29T11:46:39Z</time>
      </trkpt>
      <trkpt lat="45.14476" lon="5.02673">
        <ele>251</ele>
        <time>2016-02-29T11:48:39Z</time>
      </trkpt>
      <trkpt lat="45.14496" lon="5.02698">
        <ele>252</ele>
        <time>2016-02-29T11:50:39Z</time>
      </trkpt>
      <trkpt lat="45.14504" lon="5.02707">
        <ele>252</ele>
        <time>2016-02-29T11:52:39Z</time>
      </trkpt>
      <trkpt lat="45.14507" lon="5.02711">
        <ele>252</ele>
        <time>2016-02-29T11:54:39Z</time>
      </trkpt>
      <trkpt lat="45.14543" lon="5.02747">
        <ele>252</ele>
        <time>2016-02-29T11:56:39Z</time>
      </trkpt>
      <trkpt lat="45.14569" lon="5.02777">
        <ele>253</ele>
        <time>2016-02-29T11:58:39Z</time>
      </trkpt>
      <trkpt lat="45.14594" lon="5.0281">
        <ele>254</ele>
        <time>2016-02-29T12:00:39Z</time>
      </trkpt>
      <trkpt lat="45.14624" lon="5.02845">
        <ele>255</ele>
        <time>2016-02-29T12:02:39Z</time>
      </trkpt>
      <trkpt lat="45.14646" lon="5.02869">
        <ele>255</ele>
        <time>2016-02-29T12:04:39Z</time>
      </trkpt>
      <trkpt lat="45.14653" lon="5.02876">
        <ele>255</ele>
        <time>2016-02-29T12:06:39Z</time>
      </trkpt>
      <trkpt lat="45.14658" lon="5.02883">
        <ele>255</ele>
        <time>2016-02-29T12:08:39Z</time>
      </trkpt>
      <trkpt lat="45.14661" lon="5.02889">
        <ele>255</ele>
        <time>2016-02-29T12:10:39Z</time>
      </trkpt>
      <trkpt lat="45.14664" lon="5.02894">
        <ele>256</ele>
        <time>2016-02-29T12:12:39Z</time>
      </trkpt>
      <trkpt lat="45.14665" lon="5.02899">
        <ele>256</ele>
        <time>2016-02-29T12:14:39Z</time>
      </trkpt>
      <trkpt lat="45.14666" lon="5.02904">
        <ele>256</ele>
        <time>2016-02-29T12:16:39Z</time>
      </trkpt>
      <trkpt lat="45.14666" lon="5.0291">
        <ele>257</ele>
        <time>2016-02-29T12:18:39Z</time>
      </trkpt>
      <trkpt lat="45.14666" lon="5.02917">
        <ele>257</ele>
        <time>2016-02-29T12:20:39Z</time>
      </trkpt>
      <trkpt lat="45.14666" lon="5.02923">
        <ele>257</ele>
        <time>2016-02-29T12:22:39Z</time>
      </trkpt>
      <trkpt lat="45.14655" lon="5.02974">
        <ele>260</ele>
        <time>2016-02-29T12:24:39Z</time>
      </trkpt>
      <trkpt lat="45.14651" lon="5.02997">
        <ele>261</ele>
        <time>2016-02-29T12:26:39Z</time>
      </trkpt>
      <trkpt lat="45.14651" lon="5.02997">
        <ele>261</ele>
        <time>2016-02-29T12:28:39Z</time>
      </trkpt>
      <trkpt lat="45.1465" lon="5.03">
        <ele>261</ele>
        <time>2016-02-29T12:30:39Z</time>
      </trkpt>
      <trkpt lat="45.14645" lon="5.03025">
        <ele>262</ele>
        <time>2016-02-29T12:32:39Z</time>
      </trkpt>
      <trkpt lat="45.14633" lon="5.03089">
        <ele>264</ele>
        <time>2016-02-29T12:34:39Z</time>
      </trkpt>
      <trkpt lat="45.14617" lon="5.03179">
        <ele>267</ele>
        <time>2016-02-29T12:36:39Z</time>
      </trkpt>
      <trkpt lat="45.146" lon="5.03273">
        <ele>270</ele>
        <time>2016-02-29T12:38:39Z</time>
      </trkpt>
      <trkpt lat="45.14599" lon="5.0328">
        <ele>271</ele>
        <time>2016-02-29T12:40:39Z</time>
      </trkpt>
      <trkpt lat="45.14599" lon="5.0328">
        <ele>271</ele>
        <time>2016-02-29T12:42:39Z</time>
      </trkpt>
      <trkpt lat="45.14556" lon="5.03257">
        <ele>270</ele>
        <time>2016-02-29T12:44:39Z</time>
      </trkpt>
      <trkpt lat="45.14512" lon="5.03233">
        <ele>269</ele>
        <time>2016-02-29T12:46:39Z</time>
      </trkpt>
      <trkpt lat="45.14505" lon="5.03229">
        <ele>269</ele>
        <time>2016-02-29T12:48:39Z</time>
      </trkpt>
      <trkpt lat="45.1448" lon="5.03216">
        <ele>269</ele>
        <time>2016-02-29T12:50:39Z</time>
      </trkpt>
      <trkpt lat="45.14474" lon="5.03214">
        <ele>269</ele>
        <time>2016-02-29T12:52:39Z</time>
      </trkpt>
      <trkpt lat="45.14444" lon="5.03199">
        <ele>269</ele>
        <time>2016-02-29T12:54:39Z</time>
      </trkpt>
      <trkpt lat="45.14365" lon="5.03161">
        <ele>270</ele>
        <time>2016-02-29T12:56:39Z</time>
      </trkpt>
      <trkpt lat="45.14338" lon="5.03146">
        <ele>270</ele>
        <time>2016-02-29T12:58:39Z</time>
      </trkpt>
      <trkpt lat="45.14324" lon="5.03137">
        <ele>270</ele>
        <time>2016-02-29T13:00:39Z</time>
      </trkpt>
      <trkpt lat="45.14319" lon="5.03135">
        <ele>270</ele>
        <time>2016-02-29T13:02:39Z</time>
      </trkpt>
      <trkpt lat="45.14303" lon="5.03123">
        <ele>270</ele>
        <time>2016-02-29T13:04:39Z</time>
      </trkpt>
      <trkpt lat="45.1429" lon="5.0311">
        <ele>270</ele>
        <time>2016-02-29T13:06:39Z</time>
      </trkpt>
      <trkpt lat="45.14273" lon="5.0309">
        <ele>270</ele>
        <time>2016-02-29T13:08:39Z</time>
      </trkpt>
      <trkpt lat="45.1425" lon="5.03062">
        <ele>269</ele>
        <time>2016-02-29T13:10:39Z</time>
      </trkpt>
      <trkpt lat="45.14231" lon="5.03039">
        <ele>269</ele>
        <time>2016-02-29T13:12:39Z</time>
      </trkpt>
      <trkpt lat="45.14207" lon="5.03011">
        <ele>268</ele>
        <time>2016-02-29T13:14:39Z</time>
      </trkpt>
      <trkpt lat="45.14179" lon="5.0298">
        <ele>267</ele>
        <time>2016-02-29T13:16:39Z</time>
      </trkpt>
      <trkpt lat="45.14136" lon="5.0293">
        <ele>265</ele>
        <time>2016-02-29T13:18:39Z</time>
      </trkpt>
      <trkpt lat="45.14103" lon="5.0289">
        <ele>264</ele>
        <time>2016-02-29T13:20:39Z</time>
      </trkpt>
      <trkpt lat="45.14079" lon="5.02861">
        <ele>264</ele>
        <time>2016-02-29T13:22:39Z</time>
      </trkpt>
      <trkpt lat="45.1407" lon="5.0285">
        <ele>264</ele>
        <time>2016-02-29T13:24:39Z</time>
      </trkpt>
      <trkpt lat="45.14058" lon="5.02834">
        <ele>264</ele>
        <time>2016-02-29T13:26:39Z</time>
      </trkpt>
      <trkpt lat="45.14046" lon="5.02818">
        <ele>263</ele>
        <time>2016-02-29T13:28:39Z</time>
      </trkpt>
      <trkpt lat="45.14041" lon="5.02808">
        <ele>263</ele>
        <time>2016-02-29T13:30:39Z</time>
      </trkpt>
      <trkpt lat="45.14037" lon="5.02801">
        <ele>263</ele>
        <time>2016-02-29T13:32:39Z</time>
      </trkpt>
      <trkpt lat="45.1403" lon="5.02785">
        <ele>263</ele>
        <time>2016-02-29T13:34:39Z</time>
      </trkpt>
      <trkpt lat="45.14022" lon="5.02765">
        <ele>262</ele>
        <time>2016-02-29T13:36:39Z</time>
      </trkpt>
      <trkpt lat="45.14007" lon="5.02723">
        <ele>262</ele>
        <time>2016-02-29T13:38:39Z</time>
      </trkpt>
      <trkpt lat="45.13993" lon="5.02685">
        <ele>262</ele>
        <time>2016-02-29T13:40:39Z</time>
      </trkpt>
      <trkpt lat="45.1399" lon="5.02677">
        <ele>262</ele>
        <time>2016-02-29T13:42:39Z</time>
      </trkpt>
      <trkpt lat="45.13979" lon="5.02646">
        <ele>262</ele>
        <time>2016-02-29T13:44:39Z</time>
      </trkpt>
      <trkpt lat="45.13966" lon="5.02615">
        <ele>261</ele>
        <time>2016-02-29T13:46:39Z</time>
      </trkpt>
      <trkpt lat="45.13955" lon="5.02588">
        <ele>261</ele>
        <time>2016-02-29T13:48:39Z</time>
      </trkpt>
      <trkpt lat="45.13946" lon="5.02569">
        <ele>261</ele>
        <time>2016-02-29T13:50:39Z</time>
      </trkpt>
      <trkpt lat="45.13939" lon="5.02555">
        <ele>261</ele>
        <time>2016-02-29T13:52:39Z</time>
      </trkpt>
      <trkpt lat="45.13931" lon="5.02542">
        <ele>261</ele>
        <time>2016-02-29T13:54:39Z</time>
      </trkpt>
      <trkpt lat="45.13924" lon="5.02531">
        <ele>260</ele>
        <time>2016-02-29T13:56:39Z</time>
      </trkpt>
      <trkpt lat="45.13916" lon="5.02521">
        <ele>260</ele>
        <time>2016-02-29T13:58:39Z</time>
      </trkpt>
      <trkpt lat="45.13912" lon="5.02516">
        <ele>260</ele>
        <time>2016-02-29T14:00:39Z</time>
      </trkpt>
      <trkpt lat="45.1391" lon="5.02513">
        <ele>260</ele>
        <time>2016-02-29T14:02:39Z</time>
      </trkpt>
      <trkpt lat="45.13901" lon="5.02503">
        <ele>260</ele>
        <time>2016-02-29T14:04:39Z</time>
      </trkpt>
      <trkpt lat="45.13891" lon="5.02494">
        <ele>260</ele>
        <time>2016-02-29T14:06:39Z</time>
      </trkpt>
      <trkpt lat="45.13868" lon="5.02473">
        <ele>260</ele>
        <time>2016-02-29T14:08:39Z</time>
      </trkpt>
      <trkpt lat="45.13861" lon="5.02468">
        <ele>260</ele>
        <time>2016-02-29T14:10:39Z</time>
      </trkpt>
      <trkpt lat="45.1384" lon="5.0245">
        <ele>260</ele>
        <time>2016-02-29T14:12:39Z</time>
      </trkpt>
      <trkpt lat="45.13788" lon="5.02403">
        <ele>260</ele>
        <time>2016-02-29T14:14:39Z</time>
      </trkpt>
      <trkpt lat="45.13725" lon="5.02346">
        <ele>260</ele>
        <time>2016-02-29T14:16:39Z</time>
      </trkpt>
      <trkpt lat="45.13635" lon="5.02263">
        <ele>260</ele>
        <time>2016-02-29T14:18:39Z</time>
      </trkpt>
      <trkpt lat="45.13567" lon="5.02199">
        <ele>260</ele>
        <time>2016-02-29T14:20:39Z</time>
      </trkpt>
      <trkpt lat="45.13554" lon="5.02188">
        <ele>260</ele>
        <time>2016-02-29T14:22:39Z</time>
      </trkpt>
      <trkpt lat="45.13539" lon="5.02172">
        <ele>260</ele>
        <time>2016-02-29T14:24:39Z</time>
      </trkpt>
      <trkpt lat="45.13522" lon="5.02156">
        <ele>259</ele>
        <time>2016-02-29T14:26:39Z</time>
      </trkpt>
      <trkpt lat="45.13507" lon="5.02142">
        <ele>259</ele>
        <time>2016-02-29T14:28:39Z</time>
      </trkpt>
      <trkpt lat="45.13498" lon="5.02133">
        <ele>258</ele>
        <time>2016-02-29T14:30:39Z</time>
      </trkpt>
      <trkpt lat="45.13493" lon="5.02128">
        <ele>258</ele>
        <time>2016-02-29T14:32:39Z</time>
      </trkpt>
      <trkpt lat="45.13488" lon="5.02123">
        <ele>258</ele>
        <time>2016-02-29T14:34:39Z</time>
      </trkpt>
      <trkpt lat="45.13478" lon="5.02112">
        <ele>257</ele>
        <time>2016-02-29T14:36:39Z</time>
      </trkpt>
      <trkpt lat="45.13462" lon="5.02096">
        <ele>255</ele>
        <time>2016-02-29T14:38:39Z</time>
      </trkpt>
      <trkpt lat="45.13451" lon="5.02086">
        <ele>254</ele>
        <time>2016-02-29T14:40:39Z</time>
      </trkpt>
      <trkpt lat="45.13443" lon="5.02081">
        <ele>253</ele>
        <time>2016-02-29T14:42:39Z</time>
      </trkpt>
      <trkpt lat="45.13436" lon="5.02077">
        <ele>252</ele>
        <time>2016-02-29T14:44:39Z</time>
      </trkpt>
      <trkpt lat="45.13429" lon="5.02073">
        <ele>252</ele>
        <time>2016-02-29T14:46:39Z</time>
      </trkpt>
      <trkpt lat="45.1342" lon="5.02069">
        <ele>251</ele>
        <time>2016-02-29T14:48:39Z</time>
      </trkpt>
      <trkpt lat="45.1341" lon="5.02063">
        <ele>250</ele>
        <time>2016-02-29T14:50:39Z</time>
      </trkpt>
      <trkpt lat="45.13399" lon="5.02055">
        <ele>248</ele>
        <time>2016-02-29T14:52:39Z</time>
      </trkpt>
      <trkpt lat="45.13379" lon="5.0204">
        <ele>246</ele>
        <time>2016-02-29T14:54:39Z</time>
      </trkpt>
      <trkpt lat="45.13351" lon="5.02017">
        <ele>243</ele>
        <time>2016-02-29T14:56:39Z</time>
      </trkpt>
      <trkpt lat="45.13313" lon="5.01985">
        <ele>240</ele>
        <time>2016-02-29T14:58:39Z</time>
      </trkpt>
      <trkpt lat="45.13285" lon="5.01961">
        <ele>239</ele>
        <time>2016-02-29T15:00:39Z</time>
      </trkpt>
      <trkpt lat="45.13282" lon="5.01959">
        <ele>239</ele>
        <time>2016-02-29T15:02:39Z</time>
      </trkpt>
      <trkpt lat="45.13264" lon="5.01943">
        <ele>238</ele>
        <time>2016-02-29T15:04:39Z</time>
      </trkpt>
      <trkpt lat="45.13251" lon="5.01933">
        <ele>237</ele>
        <time>2016-02-29T15:06:39Z</time>
      </trkpt>
      <trkpt lat="45.13242" lon="5.01928">
        <ele>236</ele>
        <time>2016-02-29T15:08:39Z</time>
      </trkpt>
      <trkpt lat="45.1323" lon="5.01924">
        <ele>235</ele>
        <time>2016-02-29T15:10:39Z</time>
      </trkpt>
      <trkpt lat="45.13215" lon="5.01922">
        <ele>234</ele>
        <time>2016-02-29T15:12:39Z</time>
      </trkpt>
      <trkpt lat="45.1321" lon="5.01922">
        <ele>234</ele>
        <time>2016-02-29T15:14:39Z</time>
      </trkpt>
      <trkpt lat="45.13206" lon="5.01923">
        <ele>233</ele>
        <time>2016-02-29T15:16:39Z</time>
      </trkpt>
      <trkpt lat="45.13187" lon="5.01925">
        <ele>232</ele>
        <time>2016-02-29T15:18:39Z</time>
      </trkpt>
      <trkpt lat="45.13164" lon="5.01928">
        <ele>230</ele>
        <time>2016-02-29T15:20:39Z</time>
      </trkpt>
      <trkpt lat="45.13147" lon="5.0193">
        <ele>232</ele>
        <time>2016-02-29T15:22:39Z</time>
      </trkpt>
      <trkpt lat="45.13136" lon="5.01931">
        <ele>233</ele>
        <time>2016-02-29T15:24:39Z</time>
      </trkpt>
      <trkpt lat="45.13136" lon="5.01931">
        <ele>233</ele>
        <time>2016-02-29T15:26:39Z</time>
      </trkpt>
      <trkpt lat="45.13138" lon="5.01934">
        <ele>233</ele>
        <time>2016-02-29T15:28:39Z</time>
      </trkpt>
      <trkpt lat="45.13147" lon="5.01953">
        <ele>232</ele>
        <time>2016-02-29T15:30:39Z</time>
      </trkpt>
      <trkpt lat="45.13155" lon="5.0197">
        <ele>232</ele>
        <time>2016-02-29T15:32:39Z</time>
      </trkpt>
      <trkpt lat="45.1316" lon="5.01979">
        <ele>231</ele>
        <time>2016-02-29T15:34:39Z</time>
      </trkpt>
      <trkpt lat="45.13163" lon="5.01987">
        <ele>231</ele>
        <time>2016-02-29T15:36:39Z</time>
      </trkpt>
      <trkpt lat="45.13165" lon="5.01994">
        <ele>231</ele>
        <time>2016-02-29T15:38:39Z</time>
      </trkpt>
      <trkpt lat="45.13166" lon="5.02003">
        <ele>231</ele>
        <time>2016-02-29T15:40:39Z</time>
      </trkpt>
      <trkpt lat="45.13167" lon="5.0201">
        <ele>231</ele>
        <time>2016-02-29T15:42:39Z</time>
      </trkpt>
      <trkpt lat="45.13167" lon="5.02019">
        <ele>231</ele>
        <time>2016-02-29T15:44:39Z</time>
      </trkpt>
      <trkpt lat="45.13166" lon="5.02027">
        <ele>231</ele>
        <time>2016-02-29T15:46:39Z</time>
      </trkpt>
      <trkpt lat="45.13165" lon="5.02033">
        <ele>232</ele>
        <time>2016-02-29T15:48:39Z</time>
      </trkpt>
      <trkpt lat="45.13164" lon="5.02043">
        <ele>232</ele>
        <time>2016-02-29T15:50:39Z</time>
      </trkpt>
      <trkpt lat="45.1316" lon="5.02052">
        <ele>232</ele>
        <time>2016-02-29T15:52:39Z</time>
      </trkpt>
      <trkpt lat="45.13157" lon="5.0206">
        <ele>232</ele>
        <time>2016-02-29T15:54:39Z</time>
      </trkpt>
      <trkpt lat="45.13153" lon="5.02068">
        <ele>233</ele>
        <time>2016-02-29T15:56:39Z</time>
      </trkpt>
      <trkpt lat="45.13148" lon="5.02075">
        <ele>233</ele>
        <time>2016-02-29T15:58:39Z</time>
      </trkpt>
      <trkpt lat="45.13143" lon="5.02082">
        <ele>234</ele>
        <time>2016-02-29T16:00:39Z</time>
      </trkpt>
      <trkpt lat="45.13138" lon="5.02087">
        <ele>234</ele>
        <time>2016-02-29T16:02:39Z</time>
      </trkpt>
      <trkpt lat="45.13131" lon="5.02092">
        <ele>235</ele>
        <time>2016-02-29T16:04:39Z</time>
      </trkpt>
      <trkpt lat="45.13122" lon="5.02097">
        <ele>235</ele>
        <time>2016-02-29T16:06:39Z</time>
      </trkpt>
      <trkpt lat="45.13114" lon="5.02101">
        <ele>236</ele>
        <time>2016-02-29T16:08:39Z</time>
      </trkpt>
      <trkpt lat="45.13106" lon="5.02103">
        <ele>236</ele>
        <time>2016-02-29T16:10:39Z</time>
      </trkpt>
      <trkpt lat="45.13098" lon="5.02104">
        <ele>237</ele>
        <time>2016-02-29T16:12:39Z</time>
      </trkpt>
      <trkpt lat="45.13088" lon="5.02104">
        <ele>237</ele>
        <time>2016-02-29T16:14:39Z</time>
      </trkpt>
      <trkpt lat="45.1308" lon="5.02104">
        <ele>238</ele>
        <time>2016-02-29T16:16:39Z</time>
      </trkpt>
      <trkpt lat="45.13065" lon="5.021">
        <ele>238</ele>
        <time>2016-02-29T16:18:39Z</time>
      </trkpt>
      <trkpt lat="45.13049" lon="5.02097">
        <ele>238</ele>
        <time>2016-02-29T16:20:39Z</time>
      </trkpt>
      <trkpt lat="45.13016" lon="5.02091">
        <ele>239</ele>
        <time>2016-02-29T16:22:39Z</time>
      </trkpt>
      <trkpt lat="45.12977" lon="5.02084">
        <ele>240</ele>
        <time>2016-02-29T16:24:39Z</time>
      </trkpt>
      <trkpt lat="45.12931" lon="5.02077">
        <ele>240</ele>
        <time>2016-02-29T16:26:39Z</time>
      </trkpt>
      <trkpt lat="45.12882" lon="5.0207">
        <ele>242</ele>
        <time>2016-02-29T16:28:39Z</time>
      </trkpt>
      <trkpt lat="45.12872" lon="5.02067">
        <ele>243</ele>
        <time>2016-02-29T16:30:39Z</time>
      </trkpt>
      <trkpt lat="45.12861" lon="5.02061">
        <ele>243</ele>
        <time>2016-02-29T16:32:39Z</time>
      </trkpt>
      <trkpt lat="45.12853" lon="5.02056">
        <ele>244</ele>
        <time>2016-02-29T16:34:39Z</time>
      </trkpt>
      <trkpt lat="45.12841" lon="5.02048">
        <ele>244</ele>
        <time>2016-02-29T16:36:39Z</time>
      </trkpt>
      <trkpt lat="45.12824" lon="5.02036">
        <ele>246</ele>
        <time>2016-02-29T16:38:39Z</time>
      </trkpt>
      <trkpt lat="45.12812" lon="5.02027">
        <ele>247</ele>
        <time>2016-02-29T16:40:39Z</time>
      </trkpt>
      <trkpt lat="45.12804" lon="5.02021">
        <ele>248</ele>
        <time>2016-02-29T16:42:39Z</time>
      </trkpt>
      <trkpt lat="45.1276" lon="5.01992">
        <ele>253</ele>
        <time>2016-02-29T16:44:39Z</time>
      </trkpt>
      <trkpt lat="45.12718" lon="5.01964">
        <ele>255</ele>
        <time>2016-02-29T16:46:39Z</time>
      </trkpt>
      <trkpt lat="45.12707" lon="5.01956">
        <ele>255</ele>
        <time>2016-02-29T16:48:39Z</time>
      </trkpt>
      <trkpt lat="45.12685" lon="5.01942">
        <ele>256</ele>
        <time>2016-02-29T16:50:39Z</time>
      </trkpt>
      <trkpt lat="45.12644" lon="5.01917">
        <ele>257</ele>
        <time>2016-02-29T16:52:39Z</time>
      </trkpt>
      <trkpt lat="45.1261" lon="5.01896">
        <ele>257</ele>
        <time>2016-02-29T16:54:39Z</time>
      </trkpt>
      <trkpt lat="45.12599" lon="5.01889">
        <ele>258</ele>
        <time>2016-02-29T16:56:39Z</time>
      </trkpt>
      <trkpt lat="45.1259" lon="5.01883">
        <ele>258</ele>
        <time>2016-02-29T16:58:39Z</time>
      </trkpt>
      <trkpt lat="45.1258" lon="5.01874">
        <ele>258</ele>
        <time>2016-02-29T17:00:39Z</time>
      </trkpt>
      <trkpt lat="45.12572" lon="5.01866">
        <ele>258</ele>
        <time>2016-02-29T17:02:39Z</time>
      </trkpt>
      <trkpt lat="45.12564" lon="5.01858">
        <ele>258</ele>
        <time>2016-02-29T17:04:39Z</time>
      </trkpt>
      <trkpt lat="45.12559" lon="5.01851">
        <ele>258</ele>
        <time>2016-02-29T17:06:39Z</time>
      </trkpt>
      <trkpt lat="45.12557" lon="5.01848">
        <ele>258</ele>
        <time>2016-02-29T17:08:39Z</time>
      </trkpt>
      <trkpt lat="45.12551" lon="5.01838">
        <ele>259</ele>
        <time>2016-02-29T17:10:39Z</time>
      </trkpt>
      <trkpt lat="45.12543" lon="5.01825">
        <ele>259</ele>
        <time>2016-02-29T17:12:39Z</time>
      </trkpt>
      <trkpt lat="45.12539" lon="5.01819">
        <ele>259</ele>
        <time>2016-02-29T17:14:39Z</time>
      </trkpt>
      <trkpt lat="45.12527" lon="5.01799">
        <ele>259</ele>
        <time>2016-02-29T17:16:39Z</time>
      </trkpt>
      <trkpt lat="45.12516" lon="5.0178">
        <ele>259</ele>
        <time>2016-02-29T17:18:39Z</time>
      </trkpt>
      <trkpt lat="45.12497" lon="5.01748">
        <ele>259</ele>
        <time>2016-02-29T17:20:39Z</time>
      </trkpt>
      <trkpt lat="45.12479" lon="5.01718">
        <ele>259</ele>
        <time>2016-02-29T17:22:39Z</time>
      </trkpt>
      <trkpt lat="45.12462" lon="5.01688">
        <ele>259</ele>
        <time>2016-02-29T17:24:39Z</time>
      </trkpt>
      <trkpt lat="45.12436" lon="5.01647">
        <ele>258</ele>
        <time>2016-02-29T17:26:39Z</time>
      </trkpt>
      <trkpt lat="45.12414" lon="5.01613">
        <ele>258</ele>
        <time>2016-02-29T17:28:39Z</time>
      </trkpt>
      <trkpt lat="45.1239" lon="5.01574">
        <ele>257</ele>
        <time>2016-02-29T17:30:39Z</time>
      </trkpt>
      <trkpt lat="45.12372" lon="5.01547">
        <ele>257</ele>
        <time>2016-02-29T17:32:39Z</time>
      </trkpt>
      <trkpt lat="45.12355" lon="5.01518">
        <ele>257</ele>
        <time>2016-02-29T17:34:39Z</time>
      </trkpt>
      <trkpt lat="45.1234" lon="5.01493">
        <ele>257</ele>
        <time>2016-02-29T17:36:39Z</time>
      </trkpt>
      <trkpt lat="45.12331" lon="5.01477">
        <ele>256</ele>
        <time>2016-02-29T17:38:39Z</time>
      </trkpt>
      <trkpt lat="45.12323" lon="5.01464">
        <ele>256</ele>
        <time>2016-02-29T17:40:39Z</time>
      </trkpt>
      <trkpt lat="45.12314" lon="5.0145">
        <ele>256</ele>
        <time>2016-02-29T17:42:39Z</time>
      </trkpt>
      <trkpt lat="45.12306" lon="5.01438">
        <ele>255</ele>
        <time>2016-02-29T17:44:39Z</time>
      </trkpt>
      <trkpt lat="45.123" lon="5.01432">
        <ele>255</ele>
        <time>2016-02-29T17:46:39Z</time>
      </trkpt>
      <trkpt lat="45.1229" lon="5.0142">
        <ele>255</ele>
        <time>2016-02-29T17:48:39Z</time>
      </trkpt>
      <trkpt lat="45.1228" lon="5.01409">
        <ele>254</ele>
        <time>2016-02-29T17:50:39Z</time>
      </trkpt>
      <trkpt lat="45.12262" lon="5.01393">
        <ele>254</ele>
        <time>2016-02-29T17:52:39Z</time>
      </trkpt>
      <trkpt lat="45.12216" lon="5.01354">
        <ele>249</ele>
        <time>2016-02-29T17:54:39Z</time>
      </trkpt>
      <trkpt lat="45.12196" lon="5.01336">
        <ele>246</ele>
        <time>2016-02-29T17:56:39Z</time>
      </trkpt>
      <trkpt lat="45.12166" lon="5.013">
        <ele>242</ele>
        <time>2016-02-29T17:58:39Z</time>
      </trkpt>
      <trkpt lat="45.12136" lon="5.01271">
        <ele>244</ele>
        <time>2016-02-29T18:00:39Z</time>
      </trkpt>
      <trkpt lat="45.12118" lon="5.01253">
        <ele>245</ele>
        <time>2016-02-29T18:02:39Z</time>
      </trkpt>
      <trkpt lat="45.12103" lon="5.01234">
        <ele>246</ele>
        <time>2016-02-29T18:04:39Z</time>
      </trkpt>
      <trkpt lat="45.1209" lon="5.01216">
        <ele>246</ele>
        <time>2016-02-29T18:06:39Z</time>
      </trkpt>
      <trkpt lat="45.12083" lon="5.01205">
        <ele>246</ele>
        <time>2016-02-29T18:08:39Z</time>
      </trkpt>
      <trkpt lat="45.12075" lon="5.01193">
        <ele>246</ele>
        <time>2016-02-29T18:10:39Z</time>
      </trkpt>
      <trkpt lat="45.12063" lon="5.01171">
        <ele>245</ele>
        <time>2016-02-29T18:12:39Z</time>
      </trkpt>
      <trkpt lat="45.12043" lon="5.01131">
        <ele>245</ele>
        <time>2016-02-29T18:14:39Z</time>
      </trkpt>
      <trkpt lat="45.12029" lon="5.011">
        <ele>245</ele>
        <time>2016-02-29T18:16:39Z</time>
      </trkpt>
      <trkpt lat="45.12016" lon="5.01076">
        <ele>244</ele>
        <time>2016-02-29T18:18:39Z</time>
      </trkpt>
      <trkpt lat="45.12004" lon="5.01056">
        <ele>244</ele>
        <time>2016-02-29T18:20:39Z</time>
      </trkpt>
      <trkpt lat="45.11996" lon="5.01043">
        <ele>244</ele>
        <time>2016-02-29T18:22:39Z</time>
      </trkpt>
      <trkpt lat="45.11986" lon="5.0103">
        <ele>243</ele>
        <time>2016-02-29T18:24:39Z</time>
      </trkpt>
      <trkpt lat="45.11976" lon="5.01017">
        <ele>243</ele>
        <time>2016-02-29T18:26:39Z</time>
      </trkpt>
      <trkpt lat="45.11965" lon="5.01003">
        <ele>243</ele>
        <time>2016-02-29T18:28:39Z</time>
      </trkpt>
      <trkpt lat="45.11928" lon="5.00968">
        <ele>241</ele>
        <time>2016-02-29T18:30:39Z</time>
      </trkpt>
      <trkpt lat="45.11879" lon="5.0092">
        <ele>239</ele>
        <time>2016-02-29T18:32:39Z</time>
      </trkpt>
      <trkpt lat="45.11873" lon="5.00915">
        <ele>239</ele>
        <time>2016-02-29T18:34:39Z</time>
      </trkpt>
      <trkpt lat="45.11869" lon="5.00911">
        <ele>239</ele>
        <time>2016-02-29T18:36:39Z</time>
      </trkpt>
      <trkpt lat="45.11831" lon="5.00874">
        <ele>238</ele>
        <time>2016-02-29T18:38:39Z</time>
      </trkpt>
      <trkpt lat="45.11804" lon="5.00853">
        <ele>237</ele>
        <time>2016-02-29T18:40:39Z</time>
      </trkpt>
      <trkpt lat="45.11771" lon="5.00834">
        <ele>237</ele>
        <time>2016-02-29T18:42:39Z</time>
      </trkpt>
      <trkpt lat="45.11747" lon="5.00821">
        <ele>237</ele>
        <time>2016-02-29T18:44:39Z</time>
      </trkpt>
      <trkpt lat="45.11718" lon="5.00805">
        <ele>238</ele>
        <time>2016-02-29T18:46:39Z</time>
      </trkpt>
      <trkpt lat="45.11703" lon="5.00798">
        <ele>238</ele>
        <time>2016-02-29T18:48:39Z</time>
      </trkpt>
      <trkpt lat="45.11694" lon="5.00792">
        <ele>238</ele>
        <time>2016-02-29T18:50:39Z</time>
      </trkpt>
      <trkpt lat="45.11678" lon="5.00782">
        <ele>239</ele>
        <time>2016-02-29T18:52:39Z</time>
      </trkpt>
      <trkpt lat="45.11653" lon="5.00763">
        <ele>239</ele>
        <time>2016-02-29T18:54:39Z</time>
      </trkpt>
      <trkpt lat="45.1162" lon="5.00739">
        <ele>239</ele>
        <time>2016-02-29T18:56:39Z</time>
      </trkpt>
      <trkpt lat="45.11554" lon="5.00684">
        <ele>239</ele>
        <time>2016-02-29T18:58:39Z</time>
      </trkpt>
      <trkpt lat="45.11492" lon="5.00633">
        <ele>239</ele>
        <time>2016-02-29T19:00:39Z</time>
      </trkpt>
      <trkpt lat="45.11473" lon="5.00618">
        <ele>239</ele>
        <time>2016-02-29T19:02:39Z</time>
      </trkpt>
      <trkpt lat="45.11444" lon="5.00594">
        <ele>238</ele>
        <time>2016-02-29T19:04:39Z</time>
      </trkpt>
      <trkpt lat="45.11437" lon="5.00587">
        <ele>238</ele>
        <time>2016-02-29T19:06:39Z</time>
      </trkpt>
      <trkpt lat="45.11424" lon="5.00577">
        <ele>238</ele>
        <time>2016-02-29T19:08:39Z</time>
      </trkpt>
      <trkpt lat="45.11408" lon="5.00564">
        <ele>238</ele>
        <time>2016-02-29T19:10:39Z</time>
      </trkpt>
      <trkpt lat="45.11391" lon="5.0055">
        <ele>238</ele>
        <time>2016-02-29T19:12:39Z</time>
      </trkpt>
      <trkpt lat="45.11375" lon="5.00538">
        <ele>238</ele>
        <time>2016-02-29T19:14:39Z</time>
      </trkpt>
      <trkpt lat="45.11361" lon="5.00527">
        <ele>238</ele>
        <time>2016-02-29T19:16:39Z</time>
      </trkpt>
      <trkpt lat="45.11348" lon="5.00519">
        <ele>238</ele>
        <time>2016-02-29T19:18:39Z</time>
      </trkpt>
      <trkpt lat="45.11336" lon="5.00512">
        <ele>238</ele>
        <time>2016-02-29T19:20:39Z</time>
      </trkpt>
      <trkpt lat="45.11329" lon="5.00509">
        <ele>238</ele>
        <time>2016-02-29T19:22:39Z</time>
      </trkpt>
      <trkpt lat="45.11324" lon="5.00507">
        <ele>238</ele>
        <time>2016-02-29T19:24:39Z</time>
      </trkpt>
      <trkpt lat="45.11309" lon="5.00502">
        <ele>239</ele>
        <time>2016-02-29T19:26:39Z</time>
      </trkpt>
      <trkpt lat="45.11291" lon="5.00496">
        <ele>239</ele>
        <time>2016-02-29T19:28:39Z</time>
      </trkpt>
      <trkpt lat="45.11277" lon="5.00488">
        <ele>239</ele>
        <time>2016-02-29T19:30:39Z</time>
      </trkpt>
      <trkpt lat="45.11276" lon="5.00488">
        <ele>239</ele>
        <time>2016-02-29T19:32:39Z</time>
      </trkpt>
      <trkpt lat="45.11263" lon="5.00481">
        <ele>239</ele>
        <time>2016-02-29T19:34:39Z</time>
      </trkpt>
      <trkpt lat="45.11247" lon="5.0047">
        <ele>239</ele>
        <time>2016-02-29T19:36:39Z</time>
      </trkpt>
      <trkpt lat="45.1123" lon="5.00457">
        <ele>240</ele>
        <time>2016-02-29T19:38:39Z</time>
      </trkpt>
      <trkpt lat="45.11207" lon="5.00437">
        <ele>240</ele>
        <time>2016-02-29T19:40:39Z</time>
      </trkpt>
      <trkpt lat="45.11192" lon="5.00422">
        <ele>240</ele>
        <time>2016-02-29T19:42:39Z</time>
      </trkpt>
      <trkpt lat="45.11186" lon="5.00414">
        <ele>239</ele>
        <time>2016-02-29T19:44:39Z</time>
      </trkpt>
      <trkpt lat="45.11186" lon="5.00405">
        <ele>239</ele>
        <time>2016-02-29T19:46:39Z</time>
      </trkpt>
      <trkpt lat="45.1118" lon="5.00384">
        <ele>239</ele>
        <time>2016-02-29T19:48:39Z</time>
      </trkpt>
      <trkpt lat="45.1118" lon="5.00384">
        <ele>239</ele>
        <time>2016-02-29T19:50:39Z</time>
      </trkpt>
      <trkpt lat="45.11177" lon="5.00374">
        <ele>239</ele>
        <time>2016-02-29T19:52:39Z</time>
      </trkpt>
      <trkpt lat="45.11168" lon="5.00379">
        <ele>239</ele>
        <time>2016-02-29T19:54:39Z</time>
      </trkpt>
      <trkpt lat="45.11157" lon="5.00384">
        <ele>240</ele>
        <time>2016-02-29T19:56:39Z</time>
      </trkpt>
      <trkpt lat="45.11126" lon="5.00402">
        <ele>242</ele>
        <time>2016-02-29T19:58:39Z</time>
      </trkpt>
      <trkpt lat="45.11096" lon="5.0042">
        <ele>245</ele>
        <time>2016-02-29T20:00:39Z</time>
      </trkpt>
      <trkpt lat="45.11082" lon="5.00429">
        <ele>247</ele>
        <time>2016-02-29T20:02:39Z</time>
      </trkpt>
      <trkpt lat="45.11077" lon="5.00431">
        <ele>248</ele>
        <time>2016-02-29T20:04:39Z</time>
      </trkpt>
      <trkpt lat="45.11074" lon="5.00434">
        <ele>248</ele>
        <time>2016-02-29T20:06:39Z</time>
      </trkpt>
      <trkpt lat="45.11059" lon="5.00443">
        <ele>250</ele>
        <time>2016-02-29T20:08:39Z</time>
      </trkpt>
      <trkpt lat="45.11043" lon="5.00453">
        <ele>252</ele>
        <time>2016-02-29T20:10:39Z</time>
      </trkpt>
      <trkpt lat="45.11028" lon="5.00463">
        <ele>254</ele>
        <time>2016-02-29T20:12:39Z</time>
      </trkpt>
      <trkpt lat="45.10949" lon="5.00521">
        <ele>265</ele>
        <time>2016-02-29T20:14:39Z</time>
      </trkpt>
      <trkpt lat="45.1094" lon="5.00531">
        <ele>266</ele>
        <time>2016-02-29T20:16:39Z</time>
      </trkpt>
      <trkpt lat="45.10925" lon="5.00541">
        <ele>267</ele>
        <time>2016-02-29T20:18:39Z</time>
      </trkpt>
      <trkpt lat="45.10912" lon="5.00548">
        <ele>268</ele>
        <time>2016-02-29T20:20:39Z</time>
      </trkpt>
      <trkpt lat="45.10896" lon="5.00555">
        <ele>269</ele>
        <time>2016-02-29T20:22:39Z</time>
      </trkpt>
      <trkpt lat="45.1088" lon="5.00562">
        <ele>269</ele>
        <time>2016-02-29T20:24:39Z</time>
      </trkpt>
      <trkpt lat="45.10862" lon="5.00568">
        <ele>269</ele>
        <time>2016-02-29T20:26:39Z</time>
      </trkpt>
      <trkpt lat="45.10852" lon="5.0057">
        <ele>268</ele>
        <time>2016-02-29T20:28:39Z</time>
      </trkpt>
      <trkpt lat="45.10838" lon="5.00571">
        <ele>268</ele>
        <time>2016-02-29T20:30:39Z</time>
      </trkpt>
      <trkpt lat="45.1082" lon="5.00573">
        <ele>268</ele>
        <time>2016-02-29T20:32:39Z</time>
      </trkpt>
      <trkpt lat="45.10781" lon="5.00576">
        <ele>266</ele>
        <time>2016-02-29T20:34:39Z</time>
      </trkpt>
      <trkpt lat="45.10775" lon="5.00576">
        <ele>265</ele>
        <time>2016-02-29T20:36:39Z</time>
      </trkpt>
      <trkpt lat="45.10746" lon="5.00581">
        <ele>263</ele>
        <time>2016-02-29T20:38:39Z</time>
      </trkpt>
      <trkpt lat="45.10723" lon="5.00584">
        <ele>261</ele>
        <time>2016-02-29T20:40:39Z</time>
      </trkpt>
      <trkpt lat="45.10707" lon="5.00588">
        <ele>260</ele>
        <time>2016-02-29T20:42:39Z</time>
      </trkpt>
      <trkpt lat="45.1069" lon="5.00593">
        <ele>258</ele>
        <time>2016-02-29T20:44:39Z</time>
      </trkpt>
      <trkpt lat="45.10661" lon="5.00605">
        <ele>253</ele>
        <time>2016-02-29T20:46:39Z</time>
      </trkpt>
      <trkpt lat="45.10649" lon="5.00611">
        <ele>251</ele>
        <time>2016-02-29T20:48:39Z</time>
      </trkpt>
      <trkpt lat="45.10636" lon="5.00618">
        <ele>249</ele>
        <time>2016-02-29T20:50:39Z</time>
      </trkpt>
      <trkpt lat="45.10624" lon="5.00626">
        <ele>247</ele>
        <time>2016-02-29T20:52:39Z</time>
      </trkpt>
      <trkpt lat="45.10611" lon="5.00635">
        <ele>244</ele>
        <time>2016-02-29T20:54:39Z</time>
      </trkpt>
      <trkpt lat="45.1059" lon="5.00652">
        <ele>241</ele>
        <time>2016-02-29T20:56:39Z</time>
      </trkpt>
      <trkpt lat="45.10504" lon="5.00723">
        <ele>227</ele>
        <time>2016-02-29T20:58:39Z</time>
      </trkpt>
      <trkpt lat="45.10498" lon="5.00728">
        <ele>227</ele>
        <time>2016-02-29T21:00:39Z</time>
      </trkpt>
      <trkpt lat="45.10492" lon="5.00733">
        <ele>226</ele>
        <time>2016-02-29T21:02:39Z</time>
      </trkpt>
      <trkpt lat="45.10488" lon="5.00736">
        <ele>226</ele>
        <time>2016-02-29T21:04:39Z</time>
      </trkpt>
      <trkpt lat="45.10428" lon="5.00785">
        <ele>226</ele>
        <time>2016-02-29T21:06:39Z</time>
      </trkpt>
      <trkpt lat="45.10428" lon="5.00785">
        <ele>226</ele>
        <time>2016-02-29T21:08:39Z</time>
      </trkpt>
      <trkpt lat="45.10425" lon="5.00779">
        <ele>225</ele>
        <time>2016-02-29T21:10:39Z</time>
      </trkpt>
      <trkpt lat="45.1042" lon="5.00774">
        <ele>225</ele>
        <time>2016-02-29T21:12:39Z</time>
      </trkpt>
      <trkpt lat="45.10415" lon="5.0077">
        <ele>225</ele>
        <time>2016-02-29T21:14:39Z</time>
      </trkpt>
      <trkpt lat="45.104" lon="5.00762">
        <ele>225</ele>
        <time>2016-02-29T21:16:39Z</time>
      </trkpt>
      <trkpt lat="45.10342" lon="5.00732">
        <ele>224</ele>
        <time>2016-02-29T21:18:39Z</time>
      </trkpt>
      <trkpt lat="45.10299" lon="5.00709">
        <ele>222</ele>
        <time>2016-02-29T21:20:39Z</time>
      </trkpt>
      <trkpt lat="45.10283" lon="5.00702">
        <ele>222</ele>
        <time>2016-02-29T21:22:39Z</time>
      </trkpt>
      <trkpt lat="45.10257" lon="5.00691">
        <ele>221</ele>
        <time>2016-02-29T21:24:39Z</time>
      </trkpt>
      <trkpt lat="45.10214" lon="5.00672">
        <ele>220</ele>
        <time>2016-02-29T21:26:39Z</time>
      </trkpt>
      <trkpt lat="45.10155" lon="5.00648">
        <ele>220</ele>
        <time>2016-02-29T21:28:39Z</time>
      </trkpt>
      <trkpt lat="45.10109" lon="5.00628">
        <ele>220</ele>
        <time>2016-02-29T21:30:39Z</time>
      </trkpt>
      <trkpt lat="45.10089" lon="5.00621">
        <ele>219</ele>
        <time>2016-02-29T21:32:39Z</time>
      </trkpt>
      <trkpt lat="45.10043" lon="5.00607">
        <ele>219</ele>
        <time>2016-02-29T21:34:39Z</time>
      </trkpt>
      <trkpt lat="45.10031" lon="5.00603">
        <ele>219</ele>
        <time>2016-02-29T21:36:39Z</time>
      </trkpt>
      <trkpt lat="45.10024" lon="5.006">
        <ele>218</ele>
        <time>2016-02-29T21:38:39Z</time>
      </trkpt>
      <trkpt lat="45.09999" lon="5.00585">
        <ele>218</ele>
        <time>2016-02-29T21:40:39Z</time>
      </trkpt>
      <trkpt lat="45.09981" lon="5.00574">
        <ele>218</ele>
        <time>2016-02-29T21:42:39Z</time>
      </trkpt>
      <trkpt lat="45.09974" lon="5.00571">
        <ele>218</ele>
        <time>2016-02-29T21:44:39Z</time>
      </trkpt>
      <trkpt lat="45.09968" lon="5.00571">
        <ele>218</ele>
        <time>2016-02-29T21:46:39Z</time>
      </trkpt>
      <trkpt lat="45.09962" lon="5.00571">
        <ele>218</ele>
        <time>2016-02-29T21:48:39Z</time>
      </trkpt>
      <trkpt lat="45.09957" lon="5.00573">
        <ele>218</ele>
        <time>2016-02-29T21:50:39Z</time>
      </trkpt>
      <trkpt lat="45.0995" lon="5.00577">
        <ele>218</ele>
        <time>2016-02-29T21:52:39Z</time>
      </trkpt>
      <trkpt lat="45.09942" lon="5.00585">
        <ele>218</ele>
        <time>2016-02-29T21:54:39Z</time>
      </trkpt>
      <trkpt lat="45.09935" lon="5.0059">
        <ele>218</ele>
        <time>2016-02-29T21:56:39Z</time>
      </trkpt>
      <trkpt lat="45.09928" lon="5.00593">
        <ele>218</ele>
        <time>2016-02-29T21:58:39Z</time>
      </trkpt>
      <trkpt lat="45.09922" lon="5.00593">
        <ele>218</ele>
        <time>2016-02-29T22:00:39Z</time>
      </trkpt>
      <trkpt lat="45.09914" lon="5.00593">
        <ele>218</ele>
        <time>2016-02-29T22:02:39Z</time>
      </trkpt>
      <trkpt lat="45.09905" lon="5.00592">
        <ele>219</ele>
        <time>2016-02-29T22:04:39Z</time>
      </trkpt>
      <trkpt lat="45.09894" lon="5.00591">
        <ele>220</ele>
        <time>2016-02-29T22:06:39Z</time>
      </trkpt>
      <trkpt lat="45.09893" lon="5.0059">
        <ele>220</ele>
        <time>2016-02-29T22:08:39Z</time>
      </trkpt>
      <trkpt lat="45.09875" lon="5.00588">
        <ele>221</ele>
        <time>2016-02-29T22:10:39Z</time>
      </trkpt>
      <trkpt lat="45.09855" lon="5.00584">
        <ele>222</ele>
        <time>2016-02-29T22:12:39Z</time>
      </trkpt>
      <trkpt lat="45.09826" lon="5.0058">
        <ele>225</ele>
        <time>2016-02-29T22:14:39Z</time>
      </trkpt>
      <trkpt lat="45.09799" lon="5.00583">
        <ele>228</ele>
        <time>2016-02-29T22:16:39Z</time>
      </trkpt>
      <trkpt lat="45.09772" lon="5.00589">
        <ele>231</ele>
        <time>2016-02-29T22:18:39Z</time>
      </trkpt>
      <trkpt lat="45.09736" lon="5.00598">
        <ele>233</ele>
        <time>2016-02-29T22:20:39Z</time>
      </trkpt>
      <trkpt lat="45.09705" lon="5.00607">
        <ele>234</ele>
        <time>2016-02-29T22:22:39Z</time>
      </trkpt>
      <trkpt lat="45.097" lon="5.0061">
        <ele>234</ele>
        <time>2016-02-29T22:24:39Z</time>
      </trkpt>
      <trkpt lat="45.09675" lon="5.00621">
        <ele>234</ele>
        <time>2016-02-29T22:26:39Z</time>
      </trkpt>
      <trkpt lat="45.09615" lon="5.00652">
        <ele>235</ele>
        <time>2016-02-29T22:28:39Z</time>
      </trkpt>
      <trkpt lat="45.096" lon="5.00658">
        <ele>235</ele>
        <time>2016-02-29T22:30:39Z</time>
      </trkpt>
      <trkpt lat="45.09546" lon="5.00687">
        <ele>235</ele>
        <time>2016-02-29T22:32:39Z</time>
      </trkpt>
      <trkpt lat="45.09478" lon="5.00723">
        <ele>235</ele>
        <time>2016-02-29T22:34:39Z</time>
      </trkpt>
      <trkpt lat="45.09431" lon="5.00748">
        <ele>235</ele>
        <time>2016-02-29T22:36:39Z</time>
      </trkpt>
      <trkpt lat="45.09383" lon="5.00773">
        <ele>236</ele>
        <time>2016-02-29T22:38:39Z</time>
      </trkpt>
      <trkpt lat="45.09328" lon="5.00803">
        <ele>237</ele>
        <time>2016-02-29T22:40:39Z</time>
      </trkpt>
      <trkpt lat="45.09284" lon="5.00827">
        <ele>237</ele>
        <time>2016-02-29T22:42:39Z</time>
      </trkpt>
      <trkpt lat="45.09284" lon="5.00827">
        <ele>237</ele>
        <time>2016-02-29T22:44:39Z</time>
      </trkpt>
      <trkpt lat="45.09267" lon="5.00835">
        <ele>237</ele>
        <time>2016-02-29T22:46:39Z</time>
      </trkpt>
      <trkpt lat="45.09214" lon="5.00859">
        <ele>238</ele>
        <time>2016-02-29T22:48:39Z</time>
      </trkpt>
      <trkpt lat="45.09178" lon="5.0087">
        <ele>238</ele>
        <time>2016-02-29T22:50:39Z</time>
      </trkpt>
      <trkpt lat="45.0916" lon="5.00871">
        <ele>238</ele>
        <time>2016-02-29T22:52:39Z</time>
      </trkpt>
      <trkpt lat="45.09103" lon="5.00877">
        <ele>240</ele>
        <time>2016-02-29T22:54:39Z</time>
      </trkpt>
      <trkpt lat="45.09063" lon="5.00881">
        <ele>240</ele>
        <time>2016-02-29T22:56:39Z</time>
      </trkpt>
      <trkpt lat="45.09012" lon="5.00885">
        <ele>241</ele>
        <time>2016-02-29T22:58:39Z</time>
      </trkpt>
      <trkpt lat="45.09002" lon="5.00884">
        <ele>241</ele>
        <time>2016-02-29T23:00:39Z</time>
      </trkpt>
      <trkpt lat="45.08996" lon="5.00884">
        <ele>241</ele>
        <time>2016-02-29T23:02:39Z</time>
      </trkpt>
      <trkpt lat="45.08979" lon="5.00879">
        <ele>242</ele>
        <time>2016-02-29T23:04:39Z</time>
      </trkpt>
      <trkpt lat="45.08967" lon="5.00873">
        <ele>243</ele>
        <time>2016-02-29T23:06:39Z</time>
      </trkpt>
      <trkpt lat="45.08961" lon="5.00871">
        <ele>244</ele>
        <time>2016-02-29T23:08:39Z</time>
      </trkpt>
      <trkpt lat="45.08943" lon="5.00863">
        <ele>245</ele>
        <time>2016-02-29T23:10:39Z</time>
      </trkpt>
      <trkpt lat="45.0892" lon="5.00855">
        <ele>246</ele>
        <time>2016-02-29T23:12:39Z</time>
      </trkpt>
      <trkpt lat="45.08904" lon="5.00847">
        <ele>247</ele>
        <time>2016-02-29T23:14:39Z</time>
      </trkpt>
      <trkpt lat="45.08877" lon="5.00835">
        <ele>248</ele>
        <time>2016-02-29T23:16:39Z</time>
      </trkpt>
      <trkpt lat="45.08851" lon="5.00824">
        <ele>249</ele>
        <time>2016-02-29T23:18:39Z</time>
      </trkpt>
      <trkpt lat="45.08819" lon="5.00811">
        <ele>249</ele>
        <time>2016-02-29T23:20:39Z</time>
      </trkpt>
      <trkpt lat="45.08819" lon="5.00811">
        <ele>249</ele>
        <time>2016-02-29T23:22:39Z</time>
      </trkpt>
      <trkpt lat="45.08798" lon="5.00802">
        <ele>250</ele>
        <time>2016-02-29T23:24:39Z</time>
      </trkpt>
      <trkpt lat="45.08787" lon="5.00799">
        <ele>250</ele>
        <time>2016-02-29T23:26:39Z</time>
      </trkpt>
      <trkpt lat="45.08772" lon="5.00799">
        <ele>250</ele>
        <time>2016-02-29T23:28:39Z</time>
      </trkpt>
      <trkpt lat="45.0876" lon="5.00799">
        <ele>250</ele>
        <time>2016-02-29T23:30:39Z</time>
      </trkpt>
      <trkpt lat="45.08748" lon="5.00799">
        <ele>250</ele>
        <time>2016-02-29T23:32:39Z</time>
      </trkpt>
      <trkpt lat="45.08739" lon="5.008">
        <ele>251</ele>
        <time>2016-02-29T23:34:39Z</time>
      </trkpt>
      <trkpt lat="45.08724" lon="5.00803">
        <ele>251</ele>
        <time>2016-02-29T23:36:39Z</time>
      </trkpt>
      <trkpt lat="45.08686" lon="5.00811">
        <ele>251</ele>
        <time>2016-02-29T23:38:39Z</time>
      </trkpt>
      <trkpt lat="45.08679" lon="5.00812">
        <ele>251</ele>
        <time>2016-02-29T23:40:39Z</time>
      </trkpt>
      <trkpt lat="45.08653" lon="5.00816">
        <ele>252</ele>
        <time>2016-02-29T23:42:39Z</time>
      </trkpt>
      <trkpt lat="45.08628" lon="5.00821">
        <ele>252</ele>
        <time>2016-02-29T23:44:39Z</time>
      </trkpt>
      <trkpt lat="45.08597" lon="5.00828">
        <ele>253</ele>
        <time>2016-02-29T23:46:39Z</time>
      </trkpt>
      <trkpt lat="45.08569" lon="5.00835">
        <ele>253</ele>
        <time>2016-02-29T23:48:39Z</time>
      </trkpt>
      <trkpt lat="45.0856" lon="5.00837">
        <ele>254</ele>
        <time>2016-02-29T23:50:39Z</time>
      </trkpt>
      <trkpt lat="45.08521" lon="5.00844">
        <ele>255</ele>
        <time>2016-02-29T23:52:39Z</time>
      </trkpt>
      <trkpt lat="45.08484" lon="5.00852">
        <ele>257</ele>
        <time>2016-02-29T23:54:39Z</time>
      </trkpt>
      <trkpt lat="45.08444" lon="5.00861">
        <ele>259</ele>
        <time>2016-02-29T23:56:39Z</time>
      </trkpt>
      <trkpt lat="45.08431" lon="5.00864">
        <ele>259</ele>
        <time>2016-02-29T23:58:39Z</time>
      </trkpt>
      <trkpt lat="45.08409" lon="5.00867">
        <ele>260</ele>
        <time>2016-03-01T00:00:39Z</time>
      </trkpt>
      <trkpt lat="45.08391" lon="5.0087">
        <ele>261</ele>
        <time>2016-03-01T00:02:39Z</time>
      </trkpt>
      <trkpt lat="45.08382" lon="5.00871">
        <ele>261</ele>
        <time>2016-03-01T00:04:39Z</time>
      </trkpt>
      <trkpt lat="45.0837" lon="5.00872">
        <ele>261</ele>
        <time>2016-03-01T00:06:39Z</time>
      </trkpt>
      <trkpt lat="45.08359" lon="5.00872">
        <ele>262</ele>
        <time>2016-03-01T00:08:39Z</time>
      </trkpt>
      <trkpt lat="45.0835" lon="5.00872">
        <ele>262</ele>
        <time>2016-03-01T00:10:39Z</time>
      </trkpt>
      <trkpt lat="45.08333" lon="5.00872">
        <ele>262</ele>
        <time>2016-03-01T00:12:39Z</time>
      </trkpt>
      <trkpt lat="45.08302" lon="5.00872">
        <ele>262</ele>
        <time>2016-03-01T00:14:39Z</time>
      </trkpt>
      <trkpt lat="45.08284" lon="5.00872">
        <ele>262</ele>
        <time>2016-03-01T00:16:39Z</time>
      </trkpt>
      <trkpt lat="45.08273" lon="5.00873">
        <ele>263</ele>
        <time>2016-03-01T00:18:39Z</time>
      </trkpt>
      <trkpt lat="45.08269" lon="5.00873">
        <ele>263</ele>
        <time>2016-03-01T00:20:39Z</time>
      </trkpt>
      <trkpt lat="45.08263" lon="5.00875">
        <ele>263</ele>
        <time>2016-03-01T00:22:39Z</time>
      </trkpt>
      <trkpt lat="45.08256" lon="5.00877">
        <ele>263</ele>
        <time>2016-03-01T00:24:39Z</time>
      </trkpt>
      <trkpt lat="45.08251" lon="5.00878">
        <ele>263</ele>
        <time>2016-03-01T00:26:39Z</time>
      </trkpt>
      <trkpt lat="45.08243" lon="5.00881">
        <ele>264</ele>
        <time>2016-03-01T00:28:39Z</time>
      </trkpt>
      <trkpt lat="45.08232" lon="5.00886">
        <ele>264</ele>
        <time>2016-03-01T00:30:39Z</time>
      </trkpt>
      <trkpt lat="45.08215" lon="5.00896">
        <ele>265</ele>
        <time>2016-03-01T00:32:39Z</time>
      </trkpt>
      <trkpt lat="45.08207" lon="5.00902">
        <ele>266</ele>
        <time>2016-03-01T00:34:39Z</time>
      </trkpt>
      <trkpt lat="45.08203" lon="5.00906">
        <ele>266</ele>
        <time>2016-03-01T00:36:39Z</time>
      </trkpt>
      <trkpt lat="45.08202" lon="5.00907">
        <ele>266</ele>
        <time>2016-03-01T00:38:39Z</time>
      </trkpt>
      <trkpt lat="45.08186" lon="5.00921">
        <ele>267</ele>
        <time>2016-03-01T00:40:39Z</time>
      </trkpt>
      <trkpt lat="45.08169" lon="5.00938">
        <ele>269</ele>
        <time>2016-03-01T00:42:39Z</time>
      </trkpt>
      <trkpt lat="45.08157" lon="5.00949">
        <ele>269</ele>
        <time>2016-03-01T00:44:39Z</time>
      </trkpt>
      <trkpt lat="45.08149" lon="5.00954">
        <ele>270</ele>
        <time>2016-03-01T00:46:39Z</time>
      </trkpt>
      <trkpt lat="45.08142" lon="5.00958">
        <ele>270</ele>
        <time>2016-03-01T00:48:39Z</time>
      </trkpt>
      <trkpt lat="45.08142" lon="5.00958">
        <ele>270</ele>
        <time>2016-03-01T00:50:39Z</time>
      </trkpt>
      <trkpt lat="45.08145" lon="5.00973">
        <ele>271</ele>
        <time>2016-03-01T00:52:39Z</time>
      </trkpt>
      <trkpt lat="45.0815" lon="5.01011">
        <ele>272</ele>
        <time>2016-03-01T00:54:39Z</time>
      </trkpt>
      <trkpt lat="45.08157" lon="5.01059">
        <ele>272</ele>
        <time>2016-03-01T00:56:39Z</time>
      </trkpt>
      <trkpt lat="45.08157" lon="5.01067">
        <ele>271</ele>
        <time>2016-03-01T00:58:39Z</time>
      </trkpt>
      <trkpt lat="45.08159" lon="5.01076">
        <ele>271</ele>
        <time>2016-03-01T01:00:39Z</time>
      </trkpt>
      <trkpt lat="45.0816" lon="5.01084">
        <ele>271</ele>
        <time>2016-03-01T01:02:39Z</time>
      </trkpt>
      <trkpt lat="45.08161" lon="5.01101">
        <ele>268</ele>
        <time>2016-03-01T01:04:39Z</time>
      </trkpt>
      <trkpt lat="45.08163" lon="5.01128">
        <ele>264</ele>
        <time>2016-03-01T01:06:39Z</time>
      </trkpt>
      <trkpt lat="45.08164" lon="5.01172">
        <ele>258</ele>
        <time>2016-03-01T01:08:39Z</time>
      </trkpt>
      <trkpt lat="45.08164" lon="5.0118">
        <ele>257</ele>
        <time>2016-03-01T01:10:39Z</time>
      </trkpt>
      <trkpt lat="45.08165" lon="5.01194">
        <ele>256</ele>
        <time>2016-03-01T01:12:39Z</time>
      </trkpt>
      <trkpt lat="45.08167" lon="5.01207">
        <ele>255</ele>
        <time>2016-03-01T01:14:39Z</time>
      </trkpt>
      <trkpt lat="45.08168" lon="5.01213">
        <ele>255</ele>
        <time>2016-03-01T01:16:39Z</time>
      </trkpt>
      <trkpt lat="45.08169" lon="5.01218">
        <ele>254</ele>
        <time>2016-03-01T01:18:39Z</time>
      </trkpt>
      <trkpt lat="45.0817" lon="5.01223">
        <ele>254</ele>
        <time>2016-03-01T01:20:39Z</time>
      </trkpt>
      <trkpt lat="45.08174" lon="5.01234">
        <ele>254</ele>
        <time>2016-03-01T01:22:39Z</time>
      </trkpt>
      <trkpt lat="45.08178" lon="5.01253">
        <ele>252</ele>
        <time>2016-03-01T01:24:39Z</time>
      </trkpt>
      <trkpt lat="45.08184" lon="5.01275">
        <ele>251</ele>
        <time>2016-03-01T01:26:39Z</time>
      </trkpt>
      <trkpt lat="45.0819" lon="5.01297">
        <ele>250</ele>
        <time>2016-03-01T01:28:39Z</time>
      </trkpt>
      <trkpt lat="45.08194" lon="5.01315">
        <ele>248</ele>
        <time>2016-03-01T01:30:39Z</time>
      </trkpt>
      <trkpt lat="45.08196" lon="5.01327">
        <ele>248</ele>
        <time>2016-03-01T01:32:39Z</time>
      </trkpt>
      <trkpt lat="45.08198" lon="5.01335">
        <ele>247</ele>
        <time>2016-03-01T01:34:39Z</time>
      </trkpt>
      <trkpt lat="45.08201" lon="5.01345">
        <ele>247</ele>
        <time>2016-03-01T01:36:39Z</time>
      </trkpt>
      <trkpt lat="45.08207" lon="5.01358">
        <ele>246</ele>
        <time>2016-03-01T01:38:39Z</time>
      </trkpt>
      <trkpt lat="45.08218" lon="5.01374">
        <ele>245</ele>
        <time>2016-03-01T01:40:39Z</time>
      </trkpt>
      <trkpt lat="45.08226" lon="5.01389">
        <ele>244</ele>
        <time>2016-03-01T01:42:39Z</time>
      </trkpt>
      <trkpt lat="45.08232" lon="5.01398">
        <ele>243</ele>
        <time>2016-03-01T01:44:39Z</time>
      </trkpt>
      <trkpt lat="45.0824" lon="5.01414">
        <ele>242</ele>
        <time>2016-03-01T01:46:39Z</time>
      </trkpt>
      <trkpt lat="45.08246" lon="5.01425">
        <ele>241</ele>
        <time>2016-03-01T01:48:39Z</time>
      </trkpt>
      <trkpt lat="45.08249" lon="5.01434">
        <ele>241</ele>
        <time>2016-03-01T01:50:39Z</time>
      </trkpt>
      <trkpt lat="45.08252" lon="5.01443">
        <ele>241</ele>
        <time>2016-03-01T01:52:39Z</time>
      </trkpt>
      <trkpt lat="45.08256" lon="5.01454">
        <ele>241</ele>
        <time>2016-03-01T01:54:39Z</time>
      </trkpt>
      <trkpt lat="45.08259" lon="5.01465">
        <ele>241</ele>
        <time>2016-03-01T01:56:39Z</time>
      </trkpt>
      <trkpt lat="45.0826" lon="5.01473">
        <ele>241</ele>
        <time>2016-03-01T01:58:39Z</time>
      </trkpt>
      <trkpt lat="45.08261" lon="5.01478">
        <ele>241</ele>
        <time>2016-03-01T02:00:39Z</time>
      </trkpt>
      <trkpt lat="45.08261" lon="5.01485">
        <ele>241</ele>
        <time>2016-03-01T02:02:39Z</time>
      </trkpt>
      <trkpt lat="45.08261" lon="5.01493">
        <ele>241</ele>
        <time>2016-03-01T02:04:39Z</time>
      </trkpt>
      <trkpt lat="45.08261" lon="5.01493">
        <ele>241</ele>
        <time>2016-03-01T02:06:39Z</time>
      </trkpt>
      <trkpt lat="45.0825" lon="5.01509">
        <ele>240</ele>
        <time>2016-03-01T02:08:39Z</time>
      </trkpt>
      <trkpt lat="45.08229" lon="5.01532">
        <ele>241</ele>
        <time>2016-03-01T02:10:39Z</time>
      </trkpt>
      <trkpt lat="45.08222" lon="5.01542">
        <ele>241</ele>
        <time>2016-03-01T02:12:39Z</time>
      </trkpt>
      <trkpt lat="45.08215" lon="5.01551">
        <ele>241</ele>
        <time>2016-03-01T02:14:39Z</time>
      </trkpt>
      <trkpt lat="45.08212" lon="5.01555">
        <ele>241</ele>
        <time>2016-03-01T02:16:39Z</time>
      </trkpt>
      <trkpt lat="45.08208" lon="5.01559">
        <ele>241</ele>
        <time>2016-03-01T02:18:39Z</time>
      </trkpt>
      <trkpt lat="45.08205" lon="5.01563">
        <ele>241</ele>
        <time>2016-03-01T02:20:39Z</time>
      </trkpt>
      <trkpt lat="45.08201" lon="5.01566">
        <ele>241</ele>
        <time>2016-03-01T02:22:39Z</time>
      </trkpt>
      <trkpt lat="45.08198" lon="5.01568">
        <ele>241</ele>
        <time>2016-03-01T02:24:39Z</time>
      </trkpt>
      <trkpt lat="45.08193" lon="5.01571">
        <ele>241</ele>
        <time>2016-03-01T02:26:39Z</time>
      </trkpt>
      <trkpt lat="45.08188" lon="5.01572">
        <ele>241</ele>
        <time>2016-03-01T02:28:39Z</time>
      </trkpt>
      <trkpt lat="45.08184" lon="5.01572">
        <ele>241</ele>
        <time>2016-03-01T02:30:39Z</time>
      </trkpt>
      <trkpt lat="45.08179" lon="5.01572">
        <ele>241</ele>
        <time>2016-03-01T02:32:39Z</time>
      </trkpt>
      <trkpt lat="45.08174" lon="5.01572">
        <ele>241</ele>
        <time>2016-03-01T02:34:39Z</time>
      </trkpt>
      <trkpt lat="45.08169" lon="5.01572">
        <ele>241</ele>
        <time>2016-03-01T02:36:39Z</time>
      </trkpt>
      <trkpt lat="45.08165" lon="5.01573">
        <ele>241</ele>
        <time>2016-03-01T02:38:39Z</time>
      </trkpt>
      <trkpt lat="45.0816" lon="5.01573">
        <ele>241</ele>
        <time>2016-03-01T02:40:39Z</time>
      </trkpt>
      <trkpt lat="45.08156" lon="5.01574">
        <ele>241</ele>
        <time>2016-03-01T02:42:39Z</time>
      </trkpt>
      <trkpt lat="45.08151" lon="5.01575">
        <ele>241</ele>
        <time>2016-03-01T02:44:39Z</time>
      </trkpt>
      <trkpt lat="45.08147" lon="5.01577">
        <ele>241</ele>
        <time>2016-03-01T02:46:39Z</time>
      </trkpt>
      <trkpt lat="45.08142" lon="5.01579">
        <ele>241</ele>
        <time>2016-03-01T02:48:39Z</time>
      </trkpt>
      <trkpt lat="45.08138" lon="5.01582">
        <ele>240</ele>
        <time>2016-03-01T02:50:39Z</time>
      </trkpt>
      <trkpt lat="45.08133" lon="5.01585">
        <ele>240</ele>
        <time>2016-03-01T02:52:39Z</time>
      </trkpt>
      <trkpt lat="45.08129" lon="5.01588">
        <ele>240</ele>
        <time>2016-03-01T02:54:39Z</time>
      </trkpt>
      <trkpt lat="45.08124" lon="5.01592">
        <ele>240</ele>
        <time>2016-03-01T02:56:39Z</time>
      </trkpt>
      <trkpt lat="45.08119" lon="5.01594">
        <ele>240</ele>
        <time>2016-03-01T02:58:39Z</time>
      </trkpt>
      <trkpt lat="45.08115" lon="5.01597">
        <ele>241</ele>
        <time>2016-03-01T03:00:39Z</time>
      </trkpt>
      <trkpt lat="45.08111" lon="5.016">
        <ele>241</ele>
        <time>2016-03-01T03:02:39Z</time>
      </trkpt>
      <trkpt lat="45.08107" lon="5.01603">
        <ele>241</ele>
        <time>2016-03-01T03:04:39Z</time>
      </trkpt>
      <trkpt lat="45.08102" lon="5.01604">
        <ele>241</ele>
        <time>2016-03-01T03:06:39Z</time>
      </trkpt>
      <trkpt lat="45.08098" lon="5.01605">
        <ele>241</ele>
        <time>2016-03-01T03:08:39Z</time>
      </trkpt>
      <trkpt lat="45.08093" lon="5.01606">
        <ele>241</ele>
        <time>2016-03-01T03:10:39Z</time>
      </trkpt>
      <trkpt lat="45.08089" lon="5.01606">
        <ele>241</ele>
        <time>2016-03-01T03:12:39Z</time>
      </trkpt>
      <trkpt lat="45.08085" lon="5.01606">
        <ele>241</ele>
        <time>2016-03-01T03:14:39Z</time>
      </trkpt>
      <trkpt lat="45.08081" lon="5.01604">
        <ele>241</ele>
        <time>2016-03-01T03:16:39Z</time>
      </trkpt>
      <trkpt lat="45.08077" lon="5.01604">
        <ele>241</ele>
        <time>2016-03-01T03:18:39Z</time>
      </trkpt>
      <trkpt lat="45.0807" lon="5.01602">
        <ele>241</ele>
        <time>2016-03-01T03:20:39Z</time>
      </trkpt>
      <trkpt lat="45.08067" lon="5.01603">
        <ele>241</ele>
        <time>2016-03-01T03:22:39Z</time>
      </trkpt>
      <trkpt lat="45.08065" lon="5.01604">
        <ele>241</ele>
        <time>2016-03-01T03:24:39Z</time>
      </trkpt>
      <trkpt lat="45.08063" lon="5.01605">
        <ele>241</ele>
        <time>2016-03-01T03:26:39Z</time>
      </trkpt>
      <trkpt lat="45.0806" lon="5.01607">
        <ele>241</ele>
        <time>2016-03-01T03:28:39Z</time>
      </trkpt>
      <trkpt lat="45.08057" lon="5.01608">
        <ele>241</ele>
        <time>2016-03-01T03:30:39Z</time>
      </trkpt>
      <trkpt lat="45.08051" lon="5.01612">
        <ele>241</ele>
        <time>2016-03-01T03:32:39Z</time>
      </trkpt>
      <trkpt lat="45.08044" lon="5.01617">
        <ele>241</ele>
        <time>2016-03-01T03:34:39Z</time>
      </trkpt>
      <trkpt lat="45.08032" lon="5.01625">
        <ele>241</ele>
        <time>2016-03-01T03:36:39Z</time>
      </trkpt>
      <trkpt lat="45.08025" lon="5.0163">
        <ele>241</ele>
        <time>2016-03-01T03:38:39Z</time>
      </trkpt>
      <trkpt lat="45.08019" lon="5.01633">
        <ele>241</ele>
        <time>2016-03-01T03:40:39Z</time>
      </trkpt>
      <trkpt lat="45.08013" lon="5.01637">
        <ele>241</ele>
        <time>2016-03-01T03:42:39Z</time>
      </trkpt>
      <trkpt lat="45.08003" lon="5.0164">
        <ele>241</ele>
        <time>2016-03-01T03:44:39Z</time>
      </trkpt>
      <trkpt lat="45.07992" lon="5.01642">
        <ele>241</ele>
        <time>2016-03-01T03:46:39Z</time>
      </trkpt>
      <trkpt lat="45.07978" lon="5.01645">
        <ele>241</ele>
        <time>2016-03-01T03:48:39Z</time>
      </trkpt>
      <trkpt lat="45.07967" lon="5.01648">
        <ele>241</ele>
        <time>2016-03-01T03:50:39Z</time>
      </trkpt>
      <trkpt lat="45.07958" lon="5.01651">
        <ele>241</ele>
        <time>2016-03-01T03:52:39Z</time>
      </trkpt>
      <trkpt lat="45.0795" lon="5.01655">
        <ele>240</ele>
        <time>2016-03-01T03:54:39Z</time>
      </trkpt>
      <trkpt lat="45.07943" lon="5.01659">
        <ele>240</ele>
        <time>2016-03-01T03:56:39Z</time>
      </trkpt>
      <trkpt lat="45.07934" lon="5.01665">
        <ele>240</ele>
        <time>2016-03-01T03:58:39Z</time>
      </trkpt>
      <trkpt lat="45.07925" lon="5.01671">
        <ele>240</ele>
        <time>2016-03-01T04:00:39Z</time>
      </trkpt>
      <trkpt lat="45.07921" lon="5.01674">
        <ele>240</ele>
        <time>2016-03-01T04:02:39Z</time>
      </trkpt>
      <trkpt lat="45.07916" lon="5.01677">
        <ele>240</ele>
        <time>2016-03-01T04:04:39Z</time>
      </trkpt>
      <trkpt lat="45.07907" lon="5.01683">
        <ele>240</ele>
        <time>2016-03-01T04:06:39Z</time>
      </trkpt>
      <trkpt lat="45.07902" lon="5.01685">
        <ele>240</ele>
        <time>2016-03-01T04:08:39Z</time>
      </trkpt>
      <trkpt lat="45.07897" lon="5.01688">
        <ele>240</ele>
        <time>2016-03-01T04:10:39Z</time>
      </trkpt>
      <trkpt lat="45.07892" lon="5.01689">
        <ele>240</ele>
        <time>2016-03-01T04:12:39Z</time>
      </trkpt>
      <trkpt lat="45.07887" lon="5.01689">
        <ele>240</ele>
        <time>2016-03-01T04:14:39Z</time>
      </trkpt>
      <trkpt lat="45.07882" lon="5.0169">
        <ele>240</ele>
        <time>2016-03-01T04:16:39Z</time>
      </trkpt>
      <trkpt lat="45.07877" lon="5.01689">
        <ele>240</ele>
        <time>2016-03-01T04:18:39Z</time>
      </trkpt>
      <trkpt lat="45.07873" lon="5.01688">
        <ele>240</ele>
        <time>2016-03-01T04:20:39Z</time>
      </trkpt>
      <trkpt lat="45.07863" lon="5.01685">
        <ele>240</ele>
        <time>2016-03-01T04:22:39Z</time>
      </trkpt>
      <trkpt lat="45.07859" lon="5.01684">
        <ele>240</ele>
        <time>2016-03-01T04:24:39Z</time>
      </trkpt>
      <trkpt lat="45.0785" lon="5.01681">
        <ele>240</ele>
        <time>2016-03-01T04:26:39Z</time>
      </trkpt>
      <trkpt lat="45.07837" lon="5.01679">
        <ele>240</ele>
        <time>2016-03-01T04:28:39Z</time>
      </trkpt>
      <trkpt lat="45.07824" lon="5.01676">
        <ele>240</ele>
        <time>2016-03-01T04:30:39Z</time>
      </trkpt>
      <trkpt lat="45.07803" lon="5.01672">
        <ele>240</ele>
        <time>2016-03-01T04:32:39Z</time>
      </trkpt>
      <trkpt lat="45.07795" lon="5.0167">
        <ele>240</ele>
        <time>2016-03-01T04:34:39Z</time>
      </trkpt>
      <trkpt lat="45.07792" lon="5.0167">
        <ele>240</ele>
        <time>2016-03-01T04:36:39Z</time>
      </trkpt>
      <trkpt lat="45.07788" lon="5.0167">
        <ele>240</ele>
        <time>2016-03-01T04:38:39Z</time>
      </trkpt>
      <trkpt lat="45.0778" lon="5.01671">
        <ele>240</ele>
        <time>2016-03-01T04:40:39Z</time>
      </trkpt>
      <trkpt lat="45.07668" lon="5.01705">
        <ele>239</ele>
        <time>2016-03-01T04:42:39Z</time>
      </trkpt>
      <trkpt lat="45.07645" lon="5.01713">
        <ele>238</ele>
        <time>2016-03-01T04:44:39Z</time>
      </trkpt>
      <trkpt lat="45.07627" lon="5.01717">
        <ele>238</ele>
        <time>2016-03-01T04:46:39Z</time>
      </trkpt>
      <trkpt lat="45.07618" lon="5.01716">
        <ele>237</ele>
        <time>2016-03-01T04:48:39Z</time>
      </trkpt>
      <trkpt lat="45.076" lon="5.01717">
        <ele>237</ele>
        <time>2016-03-01T04:50:39Z</time>
      </trkpt>
      <trkpt lat="45.07585" lon="5.01719">
        <ele>236</ele>
        <time>2016-03-01T04:52:39Z</time>
      </trkpt>
      <trkpt lat="45.07573" lon="5.01721">
        <ele>236</ele>
        <time>2016-03-01T04:54:39Z</time>
      </trkpt>
      <trkpt lat="45.07556" lon="5.01725">
        <ele>235</ele>
        <time>2016-03-01T04:56:39Z</time>
      </trkpt>
      <trkpt lat="45.07549" lon="5.01727">
        <ele>234</ele>
        <time>2016-03-01T04:58:39Z</time>
      </trkpt>
      <trkpt lat="45.07526" lon="5.01733">
        <ele>233</ele>
        <time>2016-03-01T05:00:39Z</time>
      </trkpt>
      <trkpt lat="45.07509" lon="5.01738">
        <ele>232</ele>
        <time>2016-03-01T05:02:39Z</time>
      </trkpt>
      <trkpt lat="45.07489" lon="5.01745">
        <ele>230</ele>
        <time>2016-03-01T05:04:39Z</time>
      </trkpt>
      <trkpt lat="45.07481" lon="5.01747">
        <ele>230</ele>
        <time>2016-03-01T05:06:39Z</time>
      </trkpt>
      <trkpt lat="45.07433" lon="5.01761">
        <ele>228</ele>
        <time>2016-03-01T05:08:39Z</time>
      </trkpt>
      <trkpt lat="45.07387" lon="5.01768">
        <ele>226</ele>
        <time>2016-03-01T05:10:39Z</time>
      </trkpt>
      <trkpt lat="45.07307" lon="5.0178">
        <ele>223</ele>
        <time>2016-03-01T05:12:39Z</time>
      </trkpt>
      <trkpt lat="45.07277" lon="5.01788">
        <ele>220</ele>
        <time>2016-03-01T05:14:39Z</time>
      </trkpt>
      <trkpt lat="45.07269" lon="5.01789">
        <ele>220</ele>
        <time>2016-03-01T05:16:39Z</time>
      </trkpt>
      <trkpt lat="45.07251" lon="5.01793">
        <ele>218</ele>
        <time>2016-03-01T05:18:39Z</time>
      </trkpt>
      <trkpt lat="45.07211" lon="5.018">
        <ele>212</ele>
        <time>2016-03-01T05:20:39Z</time>
      </trkpt>
      <trkpt lat="45.07209" lon="5.018">
        <ele>212</ele>
        <time>2016-03-01T05:22:39Z</time>
      </trkpt>
      <trkpt lat="45.07183" lon="5.01806">
        <ele>207</ele>
        <time>2016-03-01T05:24:39Z</time>
      </trkpt>
      <trkpt lat="45.07145" lon="5.01814">
        <ele>203</ele>
        <time>2016-03-01T05:26:39Z</time>
      </trkpt>
      <trkpt lat="45.07116" lon="5.01821">
        <ele>201</ele>
        <time>2016-03-01T05:28:39Z</time>
      </trkpt>
      <trkpt lat="45.07105" lon="5.01822">
        <ele>201</ele>
        <time>2016-03-01T05:30:39Z</time>
      </trkpt>
      <trkpt lat="45.07092" lon="5.01821">
        <ele>200</ele>
        <time>2016-03-01T05:32:39Z</time>
      </trkpt>
      <trkpt lat="45.07085" lon="5.01818">
        <ele>200</ele>
        <time>2016-03-01T05:34:39Z</time>
      </trkpt>
      <trkpt lat="45.07073" lon="5.01809">
        <ele>200</ele>
        <time>2016-03-01T05:36:39Z</time>
      </trkpt>
      <trkpt lat="45.07059" lon="5.01801">
        <ele>200</ele>
        <time>2016-03-01T05:38:39Z</time>
      </trkpt>
      <trkpt lat="45.07048" lon="5.01796">
        <ele>200</ele>
        <time>2016-03-01T05:40:39Z</time>
      </trkpt>
      <trkpt lat="45.07037" lon="5.0179">
        <ele>200</ele>
        <time>2016-03-01T05:42:39Z</time>
      </trkpt>
      <trkpt lat="45.07028" lon="5.01785">
        <ele>200</ele>
        <time>2016-03-01T05:44:39Z</time>
      </trkpt>
      <trkpt lat="45.07022" lon="5.0178">
        <ele>200</ele>
        <time>2016-03-01T05:46:39Z</time>
      </trkpt>
      <trkpt lat="45.07013" lon="5.01771">
        <ele>200</ele>
        <time>2016-03-01T05:48:39Z</time>
      </trkpt>
      <trkpt lat="45.07004" lon="5.0176">
        <ele>200</ele>
        <time>2016-03-01T05:50:39Z</time>
      </trkpt>
      <trkpt lat="45.06994" lon="5.01749">
        <ele>200</ele>
        <time>2016-03-01T05:52:39Z</time>
      </trkpt>
      <trkpt lat="45.0699" lon="5.01745">
        <ele>200</ele>
        <time>2016-03-01T05:54:39Z</time>
      </trkpt>
      <trkpt lat="45.06982" lon="5.01737">
        <ele>201</ele>
        <time>2016-03-01T05:56:39Z</time>
      </trkpt>
      <trkpt lat="45.06974" lon="5.01727">
        <ele>201</ele>
        <time>2016-03-01T05:58:39Z</time>
      </trkpt>
      <trkpt lat="45.06969" lon="5.01721">
        <ele>201</ele>
        <time>2016-03-01T06:00:39Z</time>
      </trkpt>
      <trkpt lat="45.06966" lon="5.01717">
        <ele>201</ele>
        <time>2016-03-01T06:02:39Z</time>
      </trkpt>
      <trkpt lat="45.06959" lon="5.01705">
        <ele>201</ele>
        <time>2016-03-01T06:04:39Z</time>
      </trkpt>
      <trkpt lat="45.0695" lon="5.01691">
        <ele>201</ele>
        <time>2016-03-01T06:06:39Z</time>
      </trkpt>
      <trkpt lat="45.06934" lon="5.01662">
        <ele>201</ele>
        <time>2016-03-01T06:08:39Z</time>
      </trkpt>
      <trkpt lat="45.06917" lon="5.01633">
        <ele>200</ele>
        <time>2016-03-01T06:10:39Z</time>
      </trkpt>
      <trkpt lat="45.06904" lon="5.0161">
        <ele>200</ele>
        <time>2016-03-01T06:12:39Z</time>
      </trkpt>
      <trkpt lat="45.06896" lon="5.01598">
        <ele>200</ele>
        <time>2016-03-01T06:14:39Z</time>
      </trkpt>
      <trkpt lat="45.06887" lon="5.01587">
        <ele>200</ele>
        <time>2016-03-01T06:16:39Z</time>
      </trkpt>
      <trkpt lat="45.06878" lon="5.01577">
        <ele>200</ele>
        <time>2016-03-01T06:18:39Z</time>
      </trkpt>
      <trkpt lat="45.06869" lon="5.01565">
        <ele>200</ele>
        <time>2016-03-01T06:20:39Z</time>
      </trkpt>
      <trkpt lat="45.0686" lon="5.01553">
        <ele>200</ele>
        <time>2016-03-01T06:22:39Z</time>
      </trkpt>
      <trkpt lat="45.06847" lon="5.01533">
        <ele>200</ele>
        <time>2016-03-01T06:24:39Z</time>
      </trkpt>
      <trkpt lat="45.06831" lon="5.01507">
        <ele>200</ele>
        <time>2016-03-01T06:26:39Z</time>
      </trkpt>
      <trkpt lat="45.06823" lon="5.01495">
        <ele>200</ele>
        <time>2016-03-01T06:28:39Z</time>
      </trkpt>
      <trkpt lat="45.06812" lon="5.01478">
        <ele>200</ele>
        <time>2016-03-01T06:30:39Z</time>
      </trkpt>
      <trkpt lat="45.0681" lon="5.01475">
        <ele>200</ele>
        <time>2016-03-01T06:32:39Z</time>
      </trkpt>
      <trkpt lat="45.06785" lon="5.01436">
        <ele>200</ele>
        <time>2016-03-01T06:34:39Z</time>
      </trkpt>
      <trkpt lat="45.0676" lon="5.014">
        <ele>200</ele>
        <time>2016-03-01T06:36:39Z</time>
      </trkpt>
      <trkpt lat="45.06751" lon="5.01387">
        <ele>200</ele>
        <time>2016-03-01T06:38:39Z</time>
      </trkpt>
      <trkpt lat="45.06734" lon="5.01361">
        <ele>200</ele>
        <time>2016-03-01T06:40:39Z</time>
      </trkpt>
      <trkpt lat="45.06725" lon="5.01345">
        <ele>200</ele>
        <time>2016-03-01T06:42:39Z</time>
      </trkpt>
      <trkpt lat="45.0672" lon="5.0134">
        <ele>200</ele>
        <time>2016-03-01T06:44:39Z</time>
      </trkpt>
      <trkpt lat="45.06716" lon="5.01335">
        <ele>200</ele>
        <time>2016-03-01T06:46:39Z</time>
      </trkpt>
      <trkpt lat="45.06709" lon="5.0133">
        <ele>200</ele>
        <time>2016-03-01T06:48:39Z</time>
      </trkpt>
      <trkpt lat="45.06703" lon="5.01331">
        <ele>200</ele>
        <time>2016-03-01T06:50:39Z</time>
      </trkpt>
      <trkpt lat="45.06697" lon="5.0133">
        <ele>200</ele>
        <time>2016-03-01T06:52:39Z</time>
      </trkpt>
      <trkpt lat="45.06683" lon="5.01328">
        <ele>200</ele>
        <time>2016-03-01T06:54:39Z</time>
      </trkpt>
      <trkpt lat="45.06677" lon="5.01324">
        <ele>200</ele>
        <time>2016-03-01T06:56:39Z</time>
      </trkpt>
      <trkpt lat="45.06668" lon="5.01319">
        <ele>200</ele>
        <time>2016-03-01T06:58:39Z</time>
      </trkpt>
      <trkpt lat="45.06667" lon="5.01314">
        <ele>200</ele>
        <time>2016-03-01T07:00:39Z</time>
      </trkpt>
      <trkpt lat="45.06634" lon="5.01282">
        <ele>200</ele>
        <time>2016-03-01T07:02:39Z</time>
      </trkpt>
      <trkpt lat="45.06588" lon="5.01234">
        <ele>198</ele>
        <time>2016-03-01T07:04:39Z</time>
      </trkpt>
      <trkpt lat="45.06569" lon="5.01215">
        <ele>197</ele>
        <time>2016-03-01T07:06:39Z</time>
      </trkpt>
      <trkpt lat="45.06538" lon="5.01189">
        <ele>193</ele>
        <time>2016-03-01T07:08:39Z</time>
      </trkpt>
      <trkpt lat="45.06527" lon="5.0118">
        <ele>191</ele>
        <time>2016-03-01T07:10:39Z</time>
      </trkpt>
      <trkpt lat="45.06515" lon="5.01172">
        <ele>189</ele>
        <time>2016-03-01T07:12:39Z</time>
      </trkpt>
      <trkpt lat="45.06499" lon="5.01163">
        <ele>186</ele>
        <time>2016-03-01T07:14:39Z</time>
      </trkpt>
      <trkpt lat="45.06491" lon="5.0116">
        <ele>186</ele>
        <time>2016-03-01T07:16:39Z</time>
      </trkpt>
      <trkpt lat="45.06481" lon="5.01155">
        <ele>186</ele>
        <time>2016-03-01T07:18:39Z</time>
      </trkpt>
      <trkpt lat="45.06447" lon="5.01143">
        <ele>185</ele>
        <time>2016-03-01T07:20:39Z</time>
      </trkpt>
      <trkpt lat="45.06405" lon="5.01128">
        <ele>185</ele>
        <time>2016-03-01T07:22:39Z</time>
      </trkpt>
      <trkpt lat="45.0635" lon="5.01108">
        <ele>184</ele>
        <time>2016-03-01T07:24:39Z</time>
      </trkpt>
      <trkpt lat="45.06312" lon="5.01094">
        <ele>181</ele>
        <time>2016-03-01T07:26:39Z</time>
      </trkpt>
      <trkpt lat="45.06302" lon="5.0109">
        <ele>180</ele>
        <time>2016-03-01T07:28:39Z</time>
      </trkpt>
      <trkpt lat="45.06277" lon="5.01082">
        <ele>179</ele>
        <time>2016-03-01T07:30:39Z</time>
      </trkpt>
      <trkpt lat="45.06261" lon="5.01079">
        <ele>178</ele>
        <time>2016-03-01T07:32:39Z</time>
      </trkpt>
      <trkpt lat="45.06233" lon="5.0108">
        <ele>177</ele>
        <time>2016-03-01T07:34:39Z</time>
      </trkpt>
      <trkpt lat="45.06223" lon="5.01082">
        <ele>176</ele>
        <time>2016-03-01T07:36:39Z</time>
      </trkpt>
      <trkpt lat="45.06218" lon="5.01084">
        <ele>176</ele>
        <time>2016-03-01T07:38:39Z</time>
      </trkpt>
      <trkpt lat="45.06192" lon="5.01093">
        <ele>175</ele>
        <time>2016-03-01T07:40:39Z</time>
      </trkpt>
      <trkpt lat="45.06183" lon="5.01097">
        <ele>175</ele>
        <time>2016-03-01T07:42:39Z</time>
      </trkpt>
      <trkpt lat="45.06165" lon="5.01106">
        <ele>174</ele>
        <time>2016-03-01T07:44:39Z</time>
      </trkpt>
      <trkpt lat="45.06161" lon="5.01108">
        <ele>174</ele>
        <time>2016-03-01T07:46:39Z</time>
      </trkpt>
      <trkpt lat="45.06156" lon="5.01111">
        <ele>173</ele>
        <time>2016-03-01T07:48:39Z</time>
      </trkpt>
      <trkpt lat="45.06127" lon="5.01126">
        <ele>172</ele>
        <time>2016-03-01T07:50:39Z</time>
      </trkpt>
      <trkpt lat="45.06126" lon="5.01127">
        <ele>172</ele>
        <time>2016-03-01T07:52:39Z</time>
      </trkpt>
      <trkpt lat="45.06105" lon="5.01135">
        <ele>171</ele>
        <time>2016-03-01T07:54:39Z</time>
      </trkpt>
      <trkpt lat="45.06105" lon="5.01135">
        <ele>171</ele>
        <time>2016-03-01T07:56:39Z</time>
      </trkpt>
      <trkpt lat="45.06104" lon="5.01133">
        <ele>171</ele>
        <time>2016-03-01T07:58:39Z</time>
      </trkpt>
      <trkpt lat="45.06104" lon="5.01131">
        <ele>171</ele>
        <time>2016-03-01T08:00:39Z</time>
      </trkpt>
      <trkpt lat="45.06103" lon="5.01129">
        <ele>171</ele>
        <time>2016-03-01T08:02:39Z</time>
      </trkpt>
      <trkpt lat="45.06102" lon="5.01128">
        <ele>171</ele>
        <time>2016-03-01T08:04:39Z</time>
      </trkpt>
      <trkpt lat="45.06101" lon="5.01128">
        <ele>171</ele>
        <time>2016-03-01T08:06:39Z</time>
      </trkpt>
      <trkpt lat="45.06099" lon="5.01127">
        <ele>171</ele>
        <time>2016-03-01T08:08:39Z</time>
      </trkpt>
      <trkpt lat="45.06097" lon="5.01128">
        <ele>171</ele>
        <time>2016-03-01T08:10:39Z</time>
      </trkpt>
      <trkpt lat="45.06095" lon="5.0113">
        <ele>171</ele>
        <time>2016-03-01T08:12:39Z</time>
      </trkpt>
      <trkpt lat="45.06095" lon="5.01131">
        <ele>171</ele>
        <time>2016-03-01T08:14:39Z</time>
      </trkpt>
      <trkpt lat="45.06094" lon="5.01133">
        <ele>171</ele>
        <time>2016-03-01T08:16:39Z</time>
      </trkpt>
      <trkpt lat="45.06094" lon="5.01135">
        <ele>171</ele>
        <time>2016-03-01T08:18:39Z</time>
      </trkpt>
      <trkpt lat="45.06094" lon="5.01137">
        <ele>171</ele>
        <time>2016-03-01T08:20:39Z</time>
      </trkpt>
      <trkpt lat="45.06094" lon="5.01139">
        <ele>171</ele>
        <time>2016-03-01T08:22:39Z</time>
      </trkpt>
      <trkpt lat="45.06095" lon="5.01142">
        <ele>171</ele>
        <time>2016-03-01T08:24:39Z</time>
      </trkpt>
      <trkpt lat="45.06096" lon="5.01143">
        <ele>171</ele>
        <time>2016-03-01T08:26:39Z</time>
      </trkpt>
      <trkpt lat="45.06097" lon="5.01144">
        <ele>171</ele>
        <time>2016-03-01T08:28:39Z</time>
      </trkpt>
      <trkpt lat="45.06099" lon="5.01145">
        <ele>171</ele>
        <time>2016-03-01T08:30:39Z</time>
      </trkpt>
      <trkpt lat="45.06099" lon="5.01156">
        <ele>172</ele>
        <time>2016-03-01T08:32:39Z</time>
      </trkpt>
      <trkpt lat="45.06099" lon="5.01179">
        <ele>172</ele>
        <time>2016-03-01T08:34:39Z</time>
      </trkpt>
      <trkpt lat="45.06101" lon="5.01207">
        <ele>173</ele>
        <time>2016-03-01T08:36:39Z</time>
      </trkpt>
      <trkpt lat="45.06101" lon="5.01217">
        <ele>174</ele>
        <time>2016-03-01T08:38:39Z</time>
      </trkpt>
      <trkpt lat="45.06102" lon="5.01227">
        <ele>174</ele>
        <time>2016-03-01T08:40:39Z</time>
      </trkpt>
      <trkpt lat="45.06103" lon="5.01239">
        <ele>174</ele>
        <time>2016-03-01T08:42:39Z</time>
      </trkpt>
      <trkpt lat="45.06103" lon="5.01264">
        <ele>175</ele>
        <time>2016-03-01T08:44:39Z</time>
      </trkpt>
      <trkpt lat="45.06105" lon="5.01293">
        <ele>176</ele>
        <time>2016-03-01T08:46:39Z</time>
      </trkpt>
      <trkpt lat="45.06108" lon="5.01322">
        <ele>177</ele>
        <time>2016-03-01T08:48:39Z</time>
      </trkpt>
      <trkpt lat="45.06115" lon="5.01364">
        <ele>178</ele>
        <time>2016-03-01T08:50:39Z</time>
      </trkpt>
      <trkpt lat="45.0612" lon="5.01397">
        <ele>179</ele>
        <time>2016-03-01T08:52:39Z</time>
      </trkpt>
      <trkpt lat="45.06125" lon="5.01426">
        <ele>179</ele>
        <time>2016-03-01T08:54:39Z</time>
      </trkpt>
      <trkpt lat="45.06132" lon="5.01457">
        <ele>179</ele>
        <time>2016-03-01T08:56:39Z</time>
      </trkpt>
      <trkpt lat="45.0614" lon="5.01498">
        <ele>179</ele>
        <time>2016-03-01T08:58:39Z</time>
      </trkpt>
      <trkpt lat="45.06148" lon="5.01535">
        <ele>179</ele>
        <time>2016-03-01T09:00:39Z</time>
      </trkpt>
      <trkpt lat="45.06156" lon="5.01563">
        <ele>179</ele>
        <time>2016-03-01T09:02:39Z</time>
      </trkpt>
      <trkpt lat="45.06163" lon="5.01588">
        <ele>179</ele>
        <time>2016-03-01T09:04:39Z</time>
      </trkpt>
      <trkpt lat="45.06168" lon="5.01612">
        <ele>179</ele>
        <time>2016-03-01T09:06:39Z</time>
      </trkpt>
      <trkpt lat="45.06173" lon="5.01641">
        <ele>179</ele>
        <time>2016-03-01T09:08:39Z</time>
      </trkpt>
      <trkpt lat="45.06177" lon="5.01674">
        <ele>179</ele>
        <time>2016-03-01T09:10:39Z</time>
      </trkpt>
      <trkpt lat="45.06178" lon="5.01681">
        <ele>179</ele>
        <time>2016-03-01T09:12:39Z</time>
      </trkpt>
      <trkpt lat="45.06182" lon="5.01699">
        <ele>180</ele>
        <time>2016-03-01T09:14:39Z</time>
      </trkpt>
      <trkpt lat="45.06188" lon="5.01723">
        <ele>182</ele>
        <time>2016-03-01T09:16:39Z</time>
      </trkpt>
      <trkpt lat="45.06193" lon="5.01747">
        <ele>183</ele>
        <time>2016-03-01T09:18:39Z</time>
      </trkpt>
      <trkpt lat="45.06209" lon="5.01806">
        <ele>188</ele>
        <time>2016-03-01T09:20:39Z</time>
      </trkpt>
      <trkpt lat="45.06219" lon="5.0185">
        <ele>190</ele>
        <time>2016-03-01T09:22:39Z</time>
      </trkpt>
      <trkpt lat="45.06221" lon="5.01857">
        <ele>190</ele>
        <time>2016-03-01T09:24:39Z</time>
      </trkpt>
      <trkpt lat="45.0623" lon="5.01889">
        <ele>191</ele>
        <time>2016-03-01T09:26:39Z</time>
      </trkpt>
      <trkpt lat="45.06233" lon="5.01899">
        <ele>192</ele>
        <time>2016-03-01T09:28:39Z</time>
      </trkpt>
      <trkpt lat="45.06235" lon="5.01904">
        <ele>192</ele>
        <time>2016-03-01T09:30:39Z</time>
      </trkpt>
      <trkpt lat="45.0624" lon="5.01917">
        <ele>193</ele>
        <time>2016-03-01T09:32:39Z</time>
      </trkpt>
      <trkpt lat="45.06244" lon="5.01927">
        <ele>193</ele>
        <time>2016-03-01T09:34:39Z</time>
      </trkpt>
      <trkpt lat="45.06253" lon="5.01947">
        <ele>193</ele>
        <time>2016-03-01T09:36:39Z</time>
      </trkpt>
      <trkpt lat="45.06269" lon="5.01981">
        <ele>194</ele>
        <time>2016-03-01T09:38:39Z</time>
      </trkpt>
      <trkpt lat="45.06275" lon="5.01995">
        <ele>194</ele>
        <time>2016-03-01T09:40:39Z</time>
      </trkpt>
      <trkpt lat="45.06275" lon="5.01995">
        <ele>194</ele>
        <time>2016-03-01T09:42:39Z</time>
      </trkpt>
      <trkpt lat="45.06281" lon="5.02009">
        <ele>195</ele>
        <time>2016-03-01T09:44:39Z</time>
      </trkpt>
      <trkpt lat="45.06293" lon="5.0204">
        <ele>194</ele>
        <time>2016-03-01T09:46:39Z</time>
      </trkpt>
      <trkpt lat="45.06299" lon="5.02056">
        <ele>194</ele>
        <time>2016-03-01T09:48:39Z</time>
      </trkpt>
      <trkpt lat="45.06306" lon="5.02077">
        <ele>194</ele>
        <time>2016-03-01T09:50:39Z</time>
      </trkpt>
      <trkpt lat="45.06314" lon="5.02104">
        <ele>192</ele>
        <time>2016-03-01T09:52:39Z</time>
      </trkpt>
      <trkpt lat="45.06317" lon="5.02111">
        <ele>191</ele>
        <time>2016-03-01T09:54:39Z</time>
      </trkpt>
      <trkpt lat="45.06322" lon="5.02129">
        <ele>189</ele>
        <time>2016-03-01T09:56:39Z</time>
      </trkpt>
      <trkpt lat="45.06327" lon="5.02141">
        <ele>188</ele>
        <time>2016-03-01T09:58:39Z</time>
      </trkpt>
      <trkpt lat="45.06334" lon="5.02154">
        <ele>186</ele>
        <time>2016-03-01T10:00:39Z</time>
      </trkpt>
      <trkpt lat="45.06341" lon="5.02166">
        <ele>184</ele>
        <time>2016-03-01T10:02:39Z</time>
      </trkpt>
      <trkpt lat="45.06346" lon="5.02174">
        <ele>184</ele>
        <time>2016-03-01T10:04:39Z</time>
      </trkpt>
      <trkpt lat="45.0635" lon="5.02178">
        <ele>184</ele>
        <time>2016-03-01T10:06:39Z</time>
      </trkpt>
      <trkpt lat="45.06354" lon="5.02188">
        <ele>183</ele>
        <time>2016-03-01T10:08:39Z</time>
      </trkpt>
      <trkpt lat="45.06358" lon="5.02202">
        <ele>183</ele>
        <time>2016-03-01T10:10:39Z</time>
      </trkpt>
      <trkpt lat="45.06368" lon="5.02229">
        <ele>181</ele>
        <time>2016-03-01T10:12:39Z</time>
      </trkpt>
      <trkpt lat="45.06373" lon="5.02243">
        <ele>180</ele>
        <time>2016-03-01T10:14:39Z</time>
      </trkpt>
      <trkpt lat="45.06378" lon="5.02254">
        <ele>179</ele>
        <time>2016-03-01T10:16:39Z</time>
      </trkpt>
      <trkpt lat="45.06379" lon="5.02259">
        <ele>179</ele>
        <time>2016-03-01T10:18:39Z</time>
      </trkpt>
      <trkpt lat="45.06386" lon="5.02272">
        <ele>179</ele>
        <time>2016-03-01T10:20:39Z</time>
      </trkpt>
      <trkpt lat="45.06398" lon="5.02295">
        <ele>179</ele>
        <time>2016-03-01T10:22:39Z</time>
      </trkpt>
      <trkpt lat="45.06404" lon="5.02305">
        <ele>179</ele>
        <time>2016-03-01T10:24:39Z</time>
      </trkpt>
      <trkpt lat="45.06407" lon="5.02312">
        <ele>179</ele>
        <time>2016-03-01T10:26:39Z</time>
      </trkpt>
      <trkpt lat="45.0641" lon="5.02318">
        <ele>179</ele>
        <time>2016-03-01T10:28:39Z</time>
      </trkpt>
      <trkpt lat="45.06413" lon="5.02325">
        <ele>179</ele>
        <time>2016-03-01T10:30:39Z</time>
      </trkpt>
      <trkpt lat="45.06417" lon="5.0234">
        <ele>179</ele>
        <time>2016-03-01T10:32:39Z</time>
      </trkpt>
      <trkpt lat="45.06422" lon="5.02361">
        <ele>179</ele>
        <time>2016-03-01T10:34:39Z</time>
      </trkpt>
      <trkpt lat="45.06427" lon="5.02378">
        <ele>180</ele>
        <time>2016-03-01T10:36:39Z</time>
      </trkpt>
      <trkpt lat="45.06431" lon="5.02389">
        <ele>180</ele>
        <time>2016-03-01T10:38:39Z</time>
      </trkpt>
      <trkpt lat="45.06434" lon="5.02396">
        <ele>181</ele>
        <time>2016-03-01T10:40:39Z</time>
      </trkpt>
      <trkpt lat="45.06439" lon="5.02405">
        <ele>181</ele>
        <time>2016-03-01T10:42:39Z</time>
      </trkpt>
      <trkpt lat="45.06444" lon="5.02413">
        <ele>182</ele>
        <time>2016-03-01T10:44:39Z</time>
      </trkpt>
      <trkpt lat="45.06446" lon="5.02415">
        <ele>182</ele>
        <time>2016-03-01T10:46:39Z</time>
      </trkpt>
      <trkpt lat="45.0646" lon="5.02435">
        <ele>182</ele>
        <time>2016-03-01T10:48:39Z</time>
      </trkpt>
      <trkpt lat="45.06476" lon="5.02455">
        <ele>183</ele>
        <time>2016-03-01T10:50:39Z</time>
      </trkpt>
      <trkpt lat="45.06488" lon="5.02471">
        <ele>183</ele>
        <time>2016-03-01T10:52:39Z</time>
      </trkpt>
      <trkpt lat="45.06495" lon="5.02481">
        <ele>183</ele>
        <time>2016-03-01T10:54:39Z</time>
      </trkpt>
      <trkpt lat="45.065" lon="5.02488">
        <ele>183</ele>
        <time>2016-03-01T10:56:39Z</time>
      </trkpt>
      <trkpt lat="45.06502" lon="5.02494">
        <ele>183</ele>
        <time>2016-03-01T10:58:39Z</time>
      </trkpt>
      <trkpt lat="45.06502" lon="5.02494">
        <ele>183</ele>
        <time>2016-03-01T11:00:39Z</time>
      </trkpt>
      <trkpt lat="45.06504" lon="5.02499">
        <ele>183</ele>
        <time>2016-03-01T11:02:39Z</time>
      </trkpt>
      <trkpt lat="45.06506" lon="5.02506">
        <ele>183</ele>
        <time>2016-03-01T11:04:39Z</time>
      </trkpt>
      <trkpt lat="45.06507" lon="5.02511">
        <ele>183</ele>
        <time>2016-03-01T11:06:39Z</time>
      </trkpt>
      <trkpt lat="45.06509" lon="5.02522">
        <ele>183</ele>
        <time>2016-03-01T11:08:39Z</time>
      </trkpt>
      <trkpt lat="45.06517" lon="5.02571">
        <ele>181</ele>
        <time>2016-03-01T11:10:39Z</time>
      </trkpt>
      <trkpt lat="45.06527" lon="5.02636">
        <ele>179</ele>
        <time>2016-03-01T11:12:39Z</time>
      </trkpt>
      <trkpt lat="45.06537" lon="5.02696">
        <ele>178</ele>
        <time>2016-03-01T11:14:39Z</time>
      </trkpt>
      <trkpt lat="45.06551" lon="5.02784">
        <ele>178</ele>
        <time>2016-03-01T11:16:39Z</time>
      </trkpt>
      <trkpt lat="45.06562" lon="5.02854">
        <ele>178</ele>
        <time>2016-03-01T11:18:39Z</time>
      </trkpt>
      <trkpt lat="45.06564" lon="5.02872">
        <ele>177</ele>
        <time>2016-03-01T11:20:39Z</time>
      </trkpt>
      <trkpt lat="45.06565" lon="5.02883">
        <ele>177</ele>
        <time>2016-03-01T11:22:39Z</time>
      </trkpt>
      <trkpt lat="45.06566" lon="5.02895">
        <ele>177</ele>
        <time>2016-03-01T11:24:39Z</time>
      </trkpt>
      <trkpt lat="45.06566" lon="5.02902">
        <ele>177</ele>
        <time>2016-03-01T11:26:39Z</time>
      </trkpt>
      <trkpt lat="45.06568" lon="5.02919">
        <ele>177</ele>
        <time>2016-03-01T11:28:39Z</time>
      </trkpt>
      <trkpt lat="45.06569" lon="5.0293">
        <ele>177</ele>
        <time>2016-03-01T11:30:39Z</time>
      </trkpt>
      <trkpt lat="45.06572" lon="5.02961">
        <ele>177</ele>
        <time>2016-03-01T11:32:39Z</time>
      </trkpt>
      <trkpt lat="45.06572" lon="5.02964">
        <ele>177</ele>
        <time>2016-03-01T11:34:39Z</time>
      </trkpt>
      <trkpt lat="45.06576" lon="5.03012">
        <ele>177</ele>
        <time>2016-03-01T11:36:39Z</time>
      </trkpt>
      <trkpt lat="45.0658" lon="5.03055">
        <ele>177</ele>
        <time>2016-03-01T11:38:39Z</time>
      </trkpt>
      <trkpt lat="45.06583" lon="5.03086">
        <ele>177</ele>
        <time>2016-03-01T11:40:39Z</time>
      </trkpt>
      <trkpt lat="45.06585" lon="5.03107">
        <ele>177</ele>
        <time>2016-03-01T11:42:39Z</time>
      </trkpt>
      <trkpt lat="45.06588" lon="5.03123">
        <ele>177</ele>
        <time>2016-03-01T11:44:39Z</time>
      </trkpt>
      <trkpt lat="45.0659" lon="5.03137">
        <ele>176</ele>
        <time>2016-03-01T11:46:39Z</time>
      </trkpt>
      <trkpt lat="45.06596" lon="5.03161">
        <ele>176</ele>
        <time>2016-03-01T11:48:39Z</time>
      </trkpt>
      <trkpt lat="45.06605" lon="5.03199">
        <ele>176</ele>
        <time>2016-03-01T11:50:39Z</time>
      </trkpt>
      <trkpt lat="45.06608" lon="5.03209">
        <ele>176</ele>
        <time>2016-03-01T11:52:39Z</time>
      </trkpt>
      <trkpt lat="45.06614" lon="5.0323">
        <ele>176</ele>
        <time>2016-03-01T11:54:39Z</time>
      </trkpt>
      <trkpt lat="45.0662" lon="5.0325">
        <ele>176</ele>
        <time>2016-03-01T11:56:39Z</time>
      </trkpt>
      <trkpt lat="45.06628" lon="5.03279">
        <ele>176</ele>
        <time>2016-03-01T11:58:39Z</time>
      </trkpt>
      <trkpt lat="45.06632" lon="5.03295">
        <ele>176</ele>
        <time>2016-03-01T12:00:39Z</time>
      </trkpt>
      <trkpt lat="45.06638" lon="5.03315">
        <ele>176</ele>
        <time>2016-03-01T12:02:39Z</time>
      </trkpt>
      <trkpt lat="45.06647" lon="5.03347">
        <ele>176</ele>
        <time>2016-03-01T12:04:39Z</time>
      </trkpt>
      <trkpt lat="45.06651" lon="5.03356">
        <ele>176</ele>
        <time>2016-03-01T12:06:39Z</time>
      </trkpt>
      <trkpt lat="45.06652" lon="5.03359">
        <ele>176</ele>
        <time>2016-03-01T12:08:39Z</time>
      </trkpt>
      <trkpt lat="45.06652" lon="5.03363">
        <ele>176</ele>
        <time>2016-03-01T12:10:39Z</time>
      </trkpt>
      <trkpt lat="45.06656" lon="5.03382">
        <ele>176</ele>
        <time>2016-03-01T12:12:39Z</time>
      </trkpt>
      <trkpt lat="45.06657" lon="5.03386">
        <ele>176</ele>
        <time>2016-03-01T12:14:39Z</time>
      </trkpt>
      <trkpt lat="45.06663" lon="5.03416">
        <ele>176</ele>
        <time>2016-03-01T12:16:39Z</time>
      </trkpt>
      <trkpt lat="45.06664" lon="5.0342">
        <ele>176</ele>
        <time>2016-03-01T12:18:39Z</time>
      </trkpt>
      <trkpt lat="45.06666" lon="5.03425">
        <ele>176</ele>
        <time>2016-03-01T12:20:39Z</time>
      </trkpt>
      <trkpt lat="45.06667" lon="5.03429">
        <ele>176</ele>
        <time>2016-03-01T12:22:39Z</time>
      </trkpt>
      <trkpt lat="45.06669" lon="5.03432">
        <ele>176</ele>
        <time>2016-03-01T12:24:39Z</time>
      </trkpt>
      <trkpt lat="45.06673" lon="5.03441">
        <ele>176</ele>
        <time>2016-03-01T12:26:39Z</time>
      </trkpt>
      <trkpt lat="45.06679" lon="5.03454">
        <ele>176</ele>
        <time>2016-03-01T12:28:39Z</time>
      </trkpt>
      <trkpt lat="45.06686" lon="5.03473">
        <ele>176</ele>
        <time>2016-03-01T12:30:39Z</time>
      </trkpt>
      <trkpt lat="45.06696" lon="5.03496">
        <ele>175</ele>
        <time>2016-03-01T12:32:39Z</time>
      </trkpt>
      <trkpt lat="45.06708" lon="5.03528">
        <ele>175</ele>
        <time>2016-03-01T12:34:39Z</time>
      </trkpt>
      <trkpt lat="45.06724" lon="5.03568">
        <ele>176</ele>
        <time>2016-03-01T12:36:39Z</time>
      </trkpt>
      <trkpt lat="45.06734" lon="5.03594">
        <ele>176</ele>
        <time>2016-03-01T12:38:39Z</time>
      </trkpt>
      <trkpt lat="45.06737" lon="5.03602">
        <ele>176</ele>
        <time>2016-03-01T12:40:39Z</time>
      </trkpt>
      <trkpt lat="45.06745" lon="5.03626">
        <ele>175</ele>
        <time>2016-03-01T12:42:39Z</time>
      </trkpt>
      <trkpt lat="45.06753" lon="5.03649">
        <ele>175</ele>
        <time>2016-03-01T12:44:39Z</time>
      </trkpt>
      <trkpt lat="45.06759" lon="5.03666">
        <ele>175</ele>
        <time>2016-03-01T12:46:39Z</time>
      </trkpt>
      <trkpt lat="45.06759" lon="5.03667">
        <ele>175</ele>
        <time>2016-03-01T12:48:39Z</time>
      </trkpt>
      <trkpt lat="45.06772" lon="5.03709">
        <ele>175</ele>
        <time>2016-03-01T12:50:39Z</time>
      </trkpt>
      <trkpt lat="45.06791" lon="5.03774">
        <ele>175</ele>
        <time>2016-03-01T12:52:39Z</time>
      </trkpt>
      <trkpt lat="45.06802" lon="5.03805">
        <ele>175</ele>
        <time>2016-03-01T12:54:39Z</time>
      </trkpt>
      <trkpt lat="45.06813" lon="5.03831">
        <ele>175</ele>
        <time>2016-03-01T12:56:39Z</time>
      </trkpt>
      <trkpt lat="45.06826" lon="5.03861">
        <ele>175</ele>
        <time>2016-03-01T12:58:39Z</time>
      </trkpt>
      <trkpt lat="45.06834" lon="5.03875">
        <ele>175</ele>
        <time>2016-03-01T13:00:39Z</time>
      </trkpt>
      <trkpt lat="45.06841" lon="5.03886">
        <ele>175</ele>
        <time>2016-03-01T13:02:39Z</time>
      </trkpt>
      <trkpt lat="45.0685" lon="5.03897">
        <ele>175</ele>
        <time>2016-03-01T13:04:39Z</time>
      </trkpt>
      <trkpt lat="45.06853" lon="5.03901">
        <ele>175</ele>
        <time>2016-03-01T13:06:39Z</time>
      </trkpt>
      <trkpt lat="45.06864" lon="5.03912">
        <ele>175</ele>
        <time>2016-03-01T13:08:39Z</time>
      </trkpt>
      <trkpt lat="45.06864" lon="5.03912">
        <ele>175</ele>
        <time>2016-03-01T13:10:39Z</time>
      </trkpt>
      <trkpt lat="45.0686" lon="5.03918">
        <ele>175</ele>
        <time>2016-03-01T13:12:39Z</time>
      </trkpt>
      <trkpt lat="45.06858" lon="5.03922">
        <ele>175</ele>
        <time>2016-03-01T13:14:39Z</time>
      </trkpt>
      <trkpt lat="45.06857" lon="5.03926">
        <ele>175</ele>
        <time>2016-03-01T13:16:39Z</time>
      </trkpt>
      <trkpt lat="45.06854" lon="5.03932">
        <ele>175</ele>
        <time>2016-03-01T13:18:39Z</time>
      </trkpt>
      <trkpt lat="45.06854" lon="5.03934">
        <ele>175</ele>
        <time>2016-03-01T13:20:39Z</time>
      </trkpt>
      <trkpt lat="45.06847" lon="5.03947">
        <ele>175</ele>
        <time>2016-03-01T13:22:39Z</time>
      </trkpt>
      <trkpt lat="45.06839" lon="5.03957">
        <ele>175</ele>
        <time>2016-03-01T13:24:39Z</time>
      </trkpt>
      <trkpt lat="45.06839" lon="5.03957">
        <ele>175</ele>
        <time>2016-03-01T13:26:39Z</time>
      </trkpt>
      <trkpt lat="45.06849" lon="5.03976">
        <ele>174</ele>
        <time>2016-03-01T13:28:39Z</time>
      </trkpt>
      <trkpt lat="45.0686" lon="5.03999">
        <ele>174</ele>
        <time>2016-03-01T13:30:39Z</time>
      </trkpt>
      <trkpt lat="45.06865" lon="5.04014">
        <ele>175</ele>
        <time>2016-03-01T13:32:39Z</time>
      </trkpt>
      <trkpt lat="45.06868" lon="5.04026">
        <ele>175</ele>
        <time>2016-03-01T13:34:39Z</time>
      </trkpt>
      <trkpt lat="45.0687" lon="5.04038">
        <ele>175</ele>
        <time>2016-03-01T13:36:39Z</time>
      </trkpt>
      <trkpt lat="45.06873" lon="5.04059">
        <ele>175</ele>
        <time>2016-03-01T13:38:39Z</time>
      </trkpt>
      <trkpt lat="45.06876" lon="5.04099">
        <ele>176</ele>
        <time>2016-03-01T13:40:39Z</time>
      </trkpt>
      <trkpt lat="45.06881" lon="5.04152">
        <ele>176</ele>
        <time>2016-03-01T13:42:39Z</time>
      </trkpt>
      <trkpt lat="45.06886" lon="5.04188">
        <ele>177</ele>
        <time>2016-03-01T13:44:39Z</time>
      </trkpt>
      <trkpt lat="45.06889" lon="5.04211">
        <ele>177</ele>
        <time>2016-03-01T13:46:39Z</time>
      </trkpt>
      <trkpt lat="45.0689" lon="5.04226">
        <ele>177</ele>
        <time>2016-03-01T13:48:39Z</time>
      </trkpt>
      <trkpt lat="45.06891" lon="5.04241">
        <ele>178</ele>
        <time>2016-03-01T13:50:39Z</time>
      </trkpt>
      <trkpt lat="45.06892" lon="5.04254">
        <ele>178</ele>
        <time>2016-03-01T13:52:39Z</time>
      </trkpt>
      <trkpt lat="45.06892" lon="5.04271">
        <ele>178</ele>
        <time>2016-03-01T13:54:39Z</time>
      </trkpt>
      <trkpt lat="45.06892" lon="5.04288">
        <ele>178</ele>
        <time>2016-03-01T13:56:39Z</time>
      </trkpt>
      <trkpt lat="45.0689" lon="5.04318">
        <ele>178</ele>
        <time>2016-03-01T13:58:39Z</time>
      </trkpt>
      <trkpt lat="45.06887" lon="5.04367">
        <ele>179</ele>
        <time>2016-03-01T14:00:39Z</time>
      </trkpt>
      <trkpt lat="45.06886" lon="5.04385">
        <ele>179</ele>
        <time>2016-03-01T14:02:39Z</time>
      </trkpt>
      <trkpt lat="45.06886" lon="5.04407">
        <ele>179</ele>
        <time>2016-03-01T14:04:39Z</time>
      </trkpt>
      <trkpt lat="45.0689" lon="5.0443">
        <ele>179</ele>
        <time>2016-03-01T14:06:39Z</time>
      </trkpt>
      <trkpt lat="45.06897" lon="5.04477">
        <ele>179</ele>
        <time>2016-03-01T14:08:39Z</time>
      </trkpt>
      <trkpt lat="45.06899" lon="5.04488">
        <ele>179</ele>
        <time>2016-03-01T14:10:39Z</time>
      </trkpt>
      <trkpt lat="45.06906" lon="5.04509">
        <ele>179</ele>
        <time>2016-03-01T14:12:39Z</time>
      </trkpt>
      <trkpt lat="45.06928" lon="5.04574">
        <ele>178</ele>
        <time>2016-03-01T14:14:39Z</time>
      </trkpt>
      <trkpt lat="45.0694" lon="5.04608">
        <ele>178</ele>
        <time>2016-03-01T14:16:39Z</time>
      </trkpt>
      <trkpt lat="45.06944" lon="5.04624">
        <ele>178</ele>
        <time>2016-03-01T14:18:39Z</time>
      </trkpt>
      <trkpt lat="45.06946" lon="5.04634">
        <ele>178</ele>
        <time>2016-03-01T14:20:39Z</time>
      </trkpt>
      <trkpt lat="45.06951" lon="5.04667">
        <ele>177</ele>
        <time>2016-03-01T14:22:39Z</time>
      </trkpt>
      <trkpt lat="45.06959" lon="5.04745">
        <ele>176</ele>
        <time>2016-03-01T14:24:39Z</time>
      </trkpt>
      <trkpt lat="45.06971" lon="5.04825">
        <ele>176</ele>
        <time>2016-03-01T14:26:39Z</time>
      </trkpt>
      <trkpt lat="45.06982" lon="5.04893">
        <ele>175</ele>
        <time>2016-03-01T14:28:39Z</time>
      </trkpt>
      <trkpt lat="45.06983" lon="5.04894">
        <ele>175</ele>
        <time>2016-03-01T14:30:39Z</time>
      </trkpt>
      <trkpt lat="45.06987" lon="5.04918">
        <ele>175</ele>
        <time>2016-03-01T14:32:39Z</time>
      </trkpt>
      <trkpt lat="45.0699" lon="5.04932">
        <ele>175</ele>
        <time>2016-03-01T14:34:39Z</time>
      </trkpt>
      <trkpt lat="45.06994" lon="5.04953">
        <ele>175</ele>
        <time>2016-03-01T14:36:39Z</time>
      </trkpt>
      <trkpt lat="45.06999" lon="5.04971">
        <ele>175</ele>
        <time>2016-03-01T14:38:39Z</time>
      </trkpt>
      <trkpt lat="45.07017" lon="5.05039">
        <ele>175</ele>
        <time>2016-03-01T14:40:39Z</time>
      </trkpt>
      <trkpt lat="45.07019" lon="5.0505">
        <ele>175</ele>
        <time>2016-03-01T14:42:39Z</time>
      </trkpt>
      <trkpt lat="45.07021" lon="5.0506">
        <ele>175</ele>
        <time>2016-03-01T14:44:39Z</time>
      </trkpt>
      <trkpt lat="45.07021" lon="5.05074">
        <ele>175</ele>
        <time>2016-03-01T14:46:39Z</time>
      </trkpt>
      <trkpt lat="45.07021" lon="5.05082">
        <ele>175</ele>
        <time>2016-03-01T14:48:39Z</time>
      </trkpt>
      <trkpt lat="45.0702" lon="5.05087">
        <ele>175</ele>
        <time>2016-03-01T14:50:39Z</time>
      </trkpt>
      <trkpt lat="45.07019" lon="5.05093">
        <ele>175</ele>
        <time>2016-03-01T14:52:39Z</time>
      </trkpt>
      <trkpt lat="45.07019" lon="5.05093">
        <ele>175</ele>
        <time>2016-03-01T14:54:39Z</time>
      </trkpt>
      <trkpt lat="45.07019" lon="5.05094">
        <ele>175</ele>
        <time>2016-03-01T14:56:39Z</time>
      </trkpt>
      <trkpt lat="45.07018" lon="5.05095">
        <ele>175</ele>
        <time>2016-03-01T14:58:39Z</time>
      </trkpt>
      <trkpt lat="45.07018" lon="5.05097">
        <ele>175</ele>
        <time>2016-03-01T15:00:39Z</time>
      </trkpt>
      <trkpt lat="45.07014" lon="5.05098">
        <ele>175</ele>
        <time>2016-03-01T15:02:39Z</time>
      </trkpt>
      <trkpt lat="45.07008" lon="5.05101">
        <ele>175</ele>
        <time>2016-03-01T15:04:39Z</time>
      </trkpt>
      <trkpt lat="45.0699" lon="5.05109">
        <ele>174</ele>
        <time>2016-03-01T15:06:39Z</time>
      </trkpt>
      <trkpt lat="45.06978" lon="5.05115">
        <ele>173</ele>
        <time>2016-03-01T15:08:39Z</time>
      </trkpt>
      <trkpt lat="45.06871" lon="5.05146">
        <ele>170</ele>
        <time>2016-03-01T15:10:39Z</time>
      </trkpt>
      <trkpt lat="45.06866" lon="5.05146">
        <ele>170</ele>
        <time>2016-03-01T15:12:39Z</time>
      </trkpt>
      <trkpt lat="45.06838" lon="5.05154">
        <ele>170</ele>
        <time>2016-03-01T15:14:39Z</time>
      </trkpt>
      <trkpt lat="45.06766" lon="5.05175">
        <ele>170</ele>
        <time>2016-03-01T15:16:39Z</time>
      </trkpt>
      <trkpt lat="45.06755" lon="5.05178">
        <ele>170</ele>
        <time>2016-03-01T15:18:39Z</time>
      </trkpt>
      <trkpt lat="45.06743" lon="5.05181">
        <ele>170</ele>
        <time>2016-03-01T15:20:39Z</time>
      </trkpt>
      <trkpt lat="45.06732" lon="5.05184">
        <ele>170</ele>
        <time>2016-03-01T15:22:39Z</time>
      </trkpt>
      <trkpt lat="45.0672" lon="5.05186">
        <ele>170</ele>
        <time>2016-03-01T15:24:39Z</time>
      </trkpt>
      <trkpt lat="45.06709" lon="5.05188">
        <ele>170</ele>
        <time>2016-03-01T15:26:39Z</time>
      </trkpt>
      <trkpt lat="45.06693" lon="5.05193">
        <ele>170</ele>
        <time>2016-03-01T15:28:39Z</time>
      </trkpt>
      <trkpt lat="45.06678" lon="5.05197">
        <ele>170</ele>
        <time>2016-03-01T15:30:39Z</time>
      </trkpt>
      <trkpt lat="45.06662" lon="5.05203">
        <ele>170</ele>
        <time>2016-03-01T15:32:39Z</time>
      </trkpt>
      <trkpt lat="45.06647" lon="5.05208">
        <ele>170</ele>
        <time>2016-03-01T15:34:39Z</time>
      </trkpt>
      <trkpt lat="45.06624" lon="5.05215">
        <ele>170</ele>
        <time>2016-03-01T15:36:39Z</time>
      </trkpt>
      <trkpt lat="45.06598" lon="5.05223">
        <ele>170</ele>
        <time>2016-03-01T15:38:39Z</time>
      </trkpt>
      <trkpt lat="45.0657" lon="5.0523">
        <ele>170</ele>
        <time>2016-03-01T15:40:39Z</time>
      </trkpt>
      <trkpt lat="45.06553" lon="5.05235">
        <ele>170</ele>
        <time>2016-03-01T15:42:39Z</time>
      </trkpt>
      <trkpt lat="45.06542" lon="5.05238">
        <ele>170</ele>
        <time>2016-03-01T15:44:39Z</time>
      </trkpt>
      <trkpt lat="45.0653" lon="5.05242">
        <ele>170</ele>
        <time>2016-03-01T15:46:39Z</time>
      </trkpt>
      <trkpt lat="45.06519" lon="5.05245">
        <ele>170</ele>
        <time>2016-03-01T15:48:39Z</time>
      </trkpt>
      <trkpt lat="45.06507" lon="5.05248">
        <ele>170</ele>
        <time>2016-03-01T15:50:39Z</time>
      </trkpt>
      <trkpt lat="45.06494" lon="5.05249">
        <ele>170</ele>
        <time>2016-03-01T15:52:39Z</time>
      </trkpt>
      <trkpt lat="45.06486" lon="5.0525">
        <ele>170</ele>
        <time>2016-03-01T15:54:39Z</time>
      </trkpt>
      <trkpt lat="45.06475" lon="5.05251">
        <ele>170</ele>
        <time>2016-03-01T15:56:39Z</time>
      </trkpt>
      <trkpt lat="45.06465" lon="5.05251">
        <ele>170</ele>
        <time>2016-03-01T15:58:39Z</time>
      </trkpt>
      <trkpt lat="45.06454" lon="5.05251">
        <ele>170</ele>
        <time>2016-03-01T16:00:39Z</time>
      </trkpt>
      <trkpt lat="45.06442" lon="5.0525">
        <ele>170</ele>
        <time>2016-03-01T16:02:39Z</time>
      </trkpt>
      <trkpt lat="45.06431" lon="5.05249">
        <ele>170</ele>
        <time>2016-03-01T16:04:39Z</time>
      </trkpt>
      <trkpt lat="45.06421" lon="5.05246">
        <ele>170</ele>
        <time>2016-03-01T16:06:39Z</time>
      </trkpt>
      <trkpt lat="45.06411" lon="5.05244">
        <ele>170</ele>
        <time>2016-03-01T16:08:39Z</time>
      </trkpt>
      <trkpt lat="45.06401" lon="5.05241">
        <ele>170</ele>
        <time>2016-03-01T16:10:39Z</time>
      </trkpt>
      <trkpt lat="45.0639" lon="5.05237">
        <ele>170</ele>
        <time>2016-03-01T16:12:39Z</time>
      </trkpt>
      <trkpt lat="45.0638" lon="5.05233">
        <ele>169</ele>
        <time>2016-03-01T16:14:39Z</time>
      </trkpt>
      <trkpt lat="45.0638" lon="5.05233">
        <ele>169</ele>
        <time>2016-03-01T16:16:39Z</time>
      </trkpt>
      <trkpt lat="45.06379" lon="5.0524">
        <ele>169</ele>
        <time>2016-03-01T16:18:39Z</time>
      </trkpt>
      <trkpt lat="45.06371" lon="5.05301">
        <ele>170</ele>
        <time>2016-03-01T16:20:39Z</time>
      </trkpt>
      <trkpt lat="45.06366" lon="5.05368">
        <ele>170</ele>
        <time>2016-03-01T16:22:39Z</time>
      </trkpt>
      <trkpt lat="45.06364" lon="5.05393">
        <ele>170</ele>
        <time>2016-03-01T16:24:39Z</time>
      </trkpt>
      <trkpt lat="45.06357" lon="5.05469">
        <ele>170</ele>
        <time>2016-03-01T16:26:39Z</time>
      </trkpt>
      <trkpt lat="45.06357" lon="5.05469">
        <ele>170</ele>
        <time>2016-03-01T16:28:39Z</time>
      </trkpt>
      <trkpt lat="45.06268" lon="5.05458">
        <ele>170</ele>
        <time>2016-03-01T16:30:39Z</time>
      </trkpt>
      <trkpt lat="45.06258" lon="5.05457">
        <ele>170</ele>
        <time>2016-03-01T16:32:39Z</time>
      </trkpt>
      <trkpt lat="45.06253" lon="5.05459">
        <ele>170</ele>
        <time>2016-03-01T16:34:39Z</time>
      </trkpt>
      <trkpt lat="45.0625" lon="5.05461">
        <ele>170</ele>
        <time>2016-03-01T16:36:39Z</time>
      </trkpt>
      <trkpt lat="45.06247" lon="5.05465">
        <ele>170</ele>
        <time>2016-03-01T16:38:39Z</time>
      </trkpt>
      <trkpt lat="45.06245" lon="5.05469">
        <ele>170</ele>
        <time>2016-03-01T16:40:39Z</time>
      </trkpt>
      <trkpt lat="45.06244" lon="5.05481">
        <ele>170</ele>
        <time>2016-03-01T16:42:39Z</time>
      </trkpt>
      <trkpt lat="45.06233" lon="5.05595">
        <ele>171</ele>
        <time>2016-03-01T16:44:39Z</time>
      </trkpt>
      <trkpt lat="45.06233" lon="5.05599">
        <ele>171</ele>
        <time>2016-03-01T16:46:39Z</time>
      </trkpt>
      <trkpt lat="45.06232" lon="5.05606">
        <ele>171</ele>
        <time>2016-03-01T16:48:39Z</time>
      </trkpt>
      <trkpt lat="45.06229" lon="5.05611">
        <ele>171</ele>
        <time>2016-03-01T16:50:39Z</time>
      </trkpt>
      <trkpt lat="45.06225" lon="5.05614">
        <ele>171</ele>
        <time>2016-03-01T16:52:39Z</time>
      </trkpt>
      <trkpt lat="45.0622" lon="5.05615">
        <ele>171</ele>
        <time>2016-03-01T16:54:39Z</time>
      </trkpt>
      <trkpt lat="45.06203" lon="5.05613">
        <ele>170</ele>
        <time>2016-03-01T16:56:39Z</time>
      </trkpt>
      <trkpt lat="45.06197" lon="5.05613">
        <ele>170</ele>
        <time>2016-03-01T16:58:39Z</time>
      </trkpt>
      <trkpt lat="45.06193" lon="5.05614">
        <ele>170</ele>
        <time>2016-03-01T17:00:39Z</time>
      </trkpt>
      <trkpt lat="45.0619" lon="5.05617">
        <ele>170</ele>
        <time>2016-03-01T17:02:39Z</time>
      </trkpt>
      <trkpt lat="45.06188" lon="5.05621">
        <ele>170</ele>
        <time>2016-03-01T17:04:39Z</time>
      </trkpt>
      <trkpt lat="45.06186" lon="5.05625">
        <ele>170</ele>
        <time>2016-03-01T17:06:39Z</time>
      </trkpt>
      <trkpt lat="45.06185" lon="5.0563">
        <ele>170</ele>
        <time>2016-03-01T17:08:39Z</time>
      </trkpt>
      <trkpt lat="45.06173" lon="5.05747">
        <ele>170</ele>
        <time>2016-03-01T17:10:39Z</time>
      </trkpt>
      <trkpt lat="45.06173" lon="5.05747">
        <ele>170</ele>
        <time>2016-03-01T17:12:39Z</time>
      </trkpt>
      <trkpt lat="45.06157" lon="5.05746">
        <ele>170</ele>
        <time>2016-03-01T17:14:39Z</time>
      </trkpt>
      <trkpt lat="45.06144" lon="5.05746">
        <ele>170</ele>
        <time>2016-03-01T17:16:39Z</time>
      </trkpt>
      <trkpt lat="45.0613" lon="5.05748">
        <ele>170</ele>
        <time>2016-03-01T17:18:39Z</time>
      </trkpt>
      <trkpt lat="45.06118" lon="5.05751">
        <ele>170</ele>
        <time>2016-03-01T17:20:39Z</time>
      </trkpt>
      <trkpt lat="45.06105" lon="5.05755">
        <ele>170</ele>
        <time>2016-03-01T17:22:39Z</time>
      </trkpt>
      <trkpt lat="45.05996" lon="5.05787">
        <ele>170</ele>
        <time>2016-03-01T17:24:39Z</time>
      </trkpt>
      <trkpt lat="45.05996" lon="5.05787">
        <ele>170</ele>
        <time>2016-03-01T17:26:39Z</time>
      </trkpt>
      <trkpt lat="45.05994" lon="5.05792">
        <ele>170</ele>
        <time>2016-03-01T17:28:39Z</time>
      </trkpt>
      <trkpt lat="45.05992" lon="5.05797">
        <ele>170</ele>
        <time>2016-03-01T17:30:39Z</time>
      </trkpt>
      <trkpt lat="45.0599" lon="5.05805">
        <ele>170</ele>
        <time>2016-03-01T17:32:39Z</time>
      </trkpt>
      <trkpt lat="45.0598" lon="5.05841">
        <ele>170</ele>
        <time>2016-03-01T17:34:39Z</time>
      </trkpt>
      <trkpt lat="45.05974" lon="5.05857">
        <ele>170</ele>
        <time>2016-03-01T17:36:39Z</time>
      </trkpt>
      <trkpt lat="45.05956" lon="5.05881">
        <ele>170</ele>
        <time>2016-03-01T17:38:39Z</time>
      </trkpt>
      <trkpt lat="45.05941" lon="5.05912">
        <ele>170</ele>
        <time>2016-03-01T17:40:39Z</time>
      </trkpt>
      <trkpt lat="45.05926" lon="5.0595">
        <ele>170</ele>
        <time>2016-03-01T17:42:39Z</time>
      </trkpt>
      <trkpt lat="45.0591" lon="5.05995">
        <ele>170</ele>
        <time>2016-03-01T17:44:39Z</time>
      </trkpt>
      <trkpt lat="45.05888" lon="5.06057">
        <ele>170</ele>
        <time>2016-03-01T17:46:39Z</time>
      </trkpt>
      <trkpt lat="45.05878" lon="5.06088">
        <ele>170</ele>
        <time>2016-03-01T17:48:39Z</time>
      </trkpt>
      <trkpt lat="45.05874" lon="5.06102">
        <ele>170</ele>
        <time>2016-03-01T17:50:39Z</time>
      </trkpt>
      <trkpt lat="45.05864" lon="5.0613">
        <ele>170</ele>
        <time>2016-03-01T17:52:39Z</time>
      </trkpt>
      <trkpt lat="45.05851" lon="5.06162">
        <ele>170</ele>
        <time>2016-03-01T17:54:39Z</time>
      </trkpt>
      <trkpt lat="45.05845" lon="5.06184">
        <ele>170</ele>
        <time>2016-03-01T17:56:39Z</time>
      </trkpt>
      <trkpt lat="45.05841" lon="5.062">
        <ele>170</ele>
        <time>2016-03-01T17:58:39Z</time>
      </trkpt>
      <trkpt lat="45.05838" lon="5.06224">
        <ele>170</ele>
        <time>2016-03-01T18:00:39Z</time>
      </trkpt>
      <trkpt lat="45.05833" lon="5.06259">
        <ele>170</ele>
        <time>2016-03-01T18:02:39Z</time>
      </trkpt>
      <trkpt lat="45.05825" lon="5.06308">
        <ele>170</ele>
        <time>2016-03-01T18:04:39Z</time>
      </trkpt>
      <trkpt lat="45.05824" lon="5.06313">
        <ele>170</ele>
        <time>2016-03-01T18:06:39Z</time>
      </trkpt>
      <trkpt lat="45.05817" lon="5.06358">
        <ele>170</ele>
        <time>2016-03-01T18:08:39Z</time>
      </trkpt>
      <trkpt lat="45.05809" lon="5.06399">
        <ele>170</ele>
        <time>2016-03-01T18:10:39Z</time>
      </trkpt>
      <trkpt lat="45.05804" lon="5.06431">
        <ele>170</ele>
        <time>2016-03-01T18:12:39Z</time>
      </trkpt>
      <trkpt lat="45.05804" lon="5.06431">
        <ele>170</ele>
        <time>2016-03-01T18:14:39Z</time>
      </trkpt>
      <trkpt lat="45.05761" lon="5.06445">
        <ele>170</ele>
        <time>2016-03-01T18:16:39Z</time>
      </trkpt>
      <trkpt lat="45.05761" lon="5.06445">
        <ele>170</ele>
        <time>2016-03-01T18:18:39Z</time>
      </trkpt>
      <trkpt lat="45.0576" lon="5.06444">
        <ele>170</ele>
        <time>2016-03-01T18:20:39Z</time>
      </trkpt>
      <trkpt lat="45.0576" lon="5.06443">
        <ele>170</ele>
        <time>2016-03-01T18:22:39Z</time>
      </trkpt>
      <trkpt lat="45.0576" lon="5.06442">
        <ele>170</ele>
        <time>2016-03-01T18:24:39Z</time>
      </trkpt>
      <trkpt lat="45.05759" lon="5.06441">
        <ele>170</ele>
        <time>2016-03-01T18:26:39Z</time>
      </trkpt>
      <trkpt lat="45.05758" lon="5.0644">
        <ele>170</ele>
        <time>2016-03-01T18:28:39Z</time>
      </trkpt>
      <trkpt lat="45.05758" lon="5.06439">
        <ele>170</ele>
        <time>2016-03-01T18:30:39Z</time>
      </trkpt>
      <trkpt lat="45.05757" lon="5.06438">
        <ele>170</ele>
        <time>2016-03-01T18:32:39Z</time>
      </trkpt>
      <trkpt lat="45.05756" lon="5.06437">
        <ele>170</ele>
        <time>2016-03-01T18:34:39Z</time>
      </trkpt>
      <trkpt lat="45.05755" lon="5.06436">
        <ele>170</ele>
        <time>2016-03-01T18:36:39Z</time>
      </trkpt>
      <trkpt lat="45.05754" lon="5.06436">
        <ele>170</ele>
        <time>2016-03-01T18:38:39Z</time>
      </trkpt>
      <trkpt lat="45.05753" lon="5.06435">
        <ele>170</ele>
        <time>2016-03-01T18:40:39Z</time>
      </trkpt>
      <trkpt lat="45.05752" lon="5.06434">
        <ele>170</ele>
        <time>2016-03-01T18:42:39Z</time>
      </trkpt>
      <trkpt lat="45.05751" lon="5.06434">
        <ele>170</ele>
        <time>2016-03-01T18:44:39Z</time>
      </trkpt>
      <trkpt lat="45.0575" lon="5.06433">
        <ele>170</ele>
        <time>2016-03-01T18:46:39Z</time>
      </trkpt>
      <trkpt lat="45.05749" lon="5.06433">
        <ele>170</ele>
        <time>2016-03-01T18:48:39Z</time>
      </trkpt>
      <trkpt lat="45.05748" lon="5.06433">
        <ele>170</ele>
        <time>2016-03-01T18:50:39Z</time>
      </trkpt>
      <trkpt lat="45.05747" lon="5.06433">
        <ele>170</ele>
        <time>2016-03-01T18:52:39Z</time>
      </trkpt>
      <trkpt lat="45.05746" lon="5.06433">
        <ele>170</ele>
        <time>2016-03-01T18:54:39Z</time>
      </trkpt>
      <trkpt lat="45.05744" lon="5.06433">
        <ele>170</ele>
        <time>2016-03-01T18:56:39Z</time>
      </trkpt>
      <trkpt lat="45.05743" lon="5.06433">
        <ele>170</ele>
        <time>2016-03-01T18:58:39Z</time>
      </trkpt>
      <trkpt lat="45.05742" lon="5.06434">
        <ele>170</ele>
        <time>2016-03-01T19:00:39Z</time>
      </trkpt>
      <trkpt lat="45.05741" lon="5.06434">
        <ele>170</ele>
        <time>2016-03-01T19:02:39Z</time>
      </trkpt>
      <trkpt lat="45.0574" lon="5.06435">
        <ele>170</ele>
        <time>2016-03-01T19:04:39Z</time>
      </trkpt>
      <trkpt lat="45.05739" lon="5.06435">
        <ele>170</ele>
        <time>2016-03-01T19:06:39Z</time>
      </trkpt>
      <trkpt lat="45.05738" lon="5.06436">
        <ele>170</ele>
        <time>2016-03-01T19:08:39Z</time>
      </trkpt>
      <trkpt lat="45.05736" lon="5.06438">
        <ele>170</ele>
        <time>2016-03-01T19:10:39Z</time>
      </trkpt>
      <trkpt lat="45.05735" lon="5.06439">
        <ele>170</ele>
        <time>2016-03-01T19:12:39Z</time>
      </trkpt>
      <trkpt lat="45.05735" lon="5.0644">
        <ele>170</ele>
        <time>2016-03-01T19:14:39Z</time>
      </trkpt>
      <trkpt lat="45.05734" lon="5.06441">
        <ele>170</ele>
        <time>2016-03-01T19:16:39Z</time>
      </trkpt>
      <trkpt lat="45.05733" lon="5.06442">
        <ele>170</ele>
        <time>2016-03-01T19:18:39Z</time>
      </trkpt>
      <trkpt lat="45.05733" lon="5.06443">
        <ele>170</ele>
        <time>2016-03-01T19:20:39Z</time>
      </trkpt>
      <trkpt lat="45.05732" lon="5.06444">
        <ele>170</ele>
        <time>2016-03-01T19:22:39Z</time>
      </trkpt>
      <trkpt lat="45.05732" lon="5.06446">
        <ele>170</ele>
        <time>2016-03-01T19:24:39Z</time>
      </trkpt>
      <trkpt lat="45.05731" lon="5.06447">
        <ele>170</ele>
        <time>2016-03-01T19:26:39Z</time>
      </trkpt>
      <trkpt lat="45.05729" lon="5.06449">
        <ele>170</ele>
        <time>2016-03-01T19:28:39Z</time>
      </trkpt>
      <trkpt lat="45.05726" lon="5.06452">
        <ele>170</ele>
        <time>2016-03-01T19:30:39Z</time>
      </trkpt>
      <trkpt lat="45.05722" lon="5.06455">
        <ele>170</ele>
        <time>2016-03-01T19:32:39Z</time>
      </trkpt>
      <trkpt lat="45.05718" lon="5.06457">
        <ele>170</ele>
        <time>2016-03-01T19:34:39Z</time>
      </trkpt>
      <trkpt lat="45.05713" lon="5.0646">
        <ele>170</ele>
        <time>2016-03-01T19:36:39Z</time>
      </trkpt>
      <trkpt lat="45.05693" lon="5.06462">
        <ele>169</ele>
        <time>2016-03-01T19:38:39Z</time>
      </trkpt>
      <trkpt lat="45.05651" lon="5.06465">
        <ele>169</ele>
        <time>2016-03-01T19:40:39Z</time>
      </trkpt>
      <trkpt lat="45.05576" lon="5.06468">
        <ele>168</ele>
        <time>2016-03-01T19:42:39Z</time>
      </trkpt>
      <trkpt lat="45.05556" lon="5.0647">
        <ele>168</ele>
        <time>2016-03-01T19:44:39Z</time>
      </trkpt>
      <trkpt lat="45.05535" lon="5.06478">
        <ele>168</ele>
        <time>2016-03-01T19:46:39Z</time>
      </trkpt>
      <trkpt lat="45.05535" lon="5.06478">
        <ele>168</ele>
        <time>2016-03-01T19:48:39Z</time>
      </trkpt>
      <trkpt lat="45.05535" lon="5.06476">
        <ele>168</ele>
        <time>2016-03-01T19:50:39Z</time>
      </trkpt>
      <trkpt lat="45.05534" lon="5.06474">
        <ele>168</ele>
        <time>2016-03-01T19:52:39Z</time>
      </trkpt>
      <trkpt lat="45.05532" lon="5.06471">
        <ele>168</ele>
        <time>2016-03-01T19:54:39Z</time>
      </trkpt>
      <trkpt lat="45.0553" lon="5.06469">
        <ele>168</ele>
        <time>2016-03-01T19:56:39Z</time>
      </trkpt>
      <trkpt lat="45.05528" lon="5.06469">
        <ele>168</ele>
        <time>2016-03-01T19:58:39Z</time>
      </trkpt>
      <trkpt lat="45.05526" lon="5.06468">
        <ele>168</ele>
        <time>2016-03-01T20:00:39Z</time>
      </trkpt>
      <trkpt lat="45.05522" lon="5.06468">
        <ele>168</ele>
        <time>2016-03-01T20:02:39Z</time>
      </trkpt>
      <trkpt lat="45.05517" lon="5.06468">
        <ele>168</ele>
        <time>2016-03-01T20:04:39Z</time>
      </trkpt>
      <trkpt lat="45.05505" lon="5.06471">
        <ele>169</ele>
        <time>2016-03-01T20:06:39Z</time>
      </trkpt>
      <trkpt lat="45.05499" lon="5.06472">
        <ele>169</ele>
        <time>2016-03-01T20:08:39Z</time>
      </trkpt>
      <trkpt lat="45.05494" lon="5.06474">
        <ele>169</ele>
        <time>2016-03-01T20:10:39Z</time>
      </trkpt>
      <trkpt lat="45.0549" lon="5.06475">
        <ele>169</ele>
        <time>2016-03-01T20:12:39Z</time>
      </trkpt>
      <trkpt lat="45.05486" lon="5.06478">
        <ele>169</ele>
        <time>2016-03-01T20:14:39Z</time>
      </trkpt>
      <trkpt lat="45.05483" lon="5.06483">
        <ele>169</ele>
        <time>2016-03-01T20:16:39Z</time>
      </trkpt>
      <trkpt lat="45.05482" lon="5.06486">
        <ele>169</ele>
        <time>2016-03-01T20:18:39Z</time>
      </trkpt>
      <trkpt lat="45.05482" lon="5.06489">
        <ele>169</ele>
        <time>2016-03-01T20:20:39Z</time>
      </trkpt>
      <trkpt lat="45.05482" lon="5.06493">
        <ele>169</ele>
        <time>2016-03-01T20:22:39Z</time>
      </trkpt>
      <trkpt lat="45.05483" lon="5.06496">
        <ele>169</ele>
        <time>2016-03-01T20:24:39Z</time>
      </trkpt>
      <trkpt lat="45.05485" lon="5.06502">
        <ele>169</ele>
        <time>2016-03-01T20:26:39Z</time>
      </trkpt>
      <trkpt lat="45.05481" lon="5.06511">
        <ele>169</ele>
        <time>2016-03-01T20:28:39Z</time>
      </trkpt>
      <trkpt lat="45.05479" lon="5.06515">
        <ele>169</ele>
        <time>2016-03-01T20:30:39Z</time>
      </trkpt>
      <trkpt lat="45.05478" lon="5.06519">
        <ele>169</ele>
        <time>2016-03-01T20:32:39Z</time>
      </trkpt>
      <trkpt lat="45.05477" lon="5.06526">
        <ele>169</ele>
        <time>2016-03-01T20:34:39Z</time>
      </trkpt>
      <trkpt lat="45.05476" lon="5.06532">
        <ele>169</ele>
        <time>2016-03-01T20:36:39Z</time>
      </trkpt>
      <trkpt lat="45.05476" lon="5.06532">
        <ele>169</ele>
        <time>2016-03-01T20:38:39Z</time>
      </trkpt>
      <trkpt lat="45.05475" lon="5.0654">
        <ele>169</ele>
        <time>2016-03-01T20:40:39Z</time>
      </trkpt>
      <trkpt lat="45.05475" lon="5.06548">
        <ele>169</ele>
        <time>2016-03-01T20:42:39Z</time>
      </trkpt>
      <trkpt lat="45.05474" lon="5.06558">
        <ele>169</ele>
        <time>2016-03-01T20:44:39Z</time>
      </trkpt>
      <trkpt lat="45.05474" lon="5.06569">
        <ele>169</ele>
        <time>2016-03-01T20:46:39Z</time>
      </trkpt>
      <trkpt lat="45.05474" lon="5.06576">
        <ele>169</ele>
        <time>2016-03-01T20:48:39Z</time>
      </trkpt>
      <trkpt lat="45.05474" lon="5.06584">
        <ele>169</ele>
        <time>2016-03-01T20:50:39Z</time>
      </trkpt>
      <trkpt lat="45.05474" lon="5.06592">
        <ele>169</ele>
        <time>2016-03-01T20:52:39Z</time>
      </trkpt>
      <trkpt lat="45.05474" lon="5.06601">
        <ele>169</ele>
        <time>2016-03-01T20:54:39Z</time>
      </trkpt>
      <trkpt lat="45.05474" lon="5.06602">
        <ele>169</ele>
        <time>2016-03-01T20:56:39Z</time>
      </trkpt>
      <trkpt lat="45.05474" lon="5.06602">
        <ele>169</ele>
        <time>2016-03-01T20:58:39Z</time>
      </trkpt>
    </trkseg>
  </trk>
</gpx>